<?xml version='1.0' encoding='UTF-8'?><gpx version="1.1" creator="JPX - https://github.com/jenetics/jpx" xmlns="http://www.topografix.com/GPX/1/1"><trk><trkseg><trkpt lat="43.7242023" lon="11.2932193"><ele>88.0</ele><time>2026-04-18T07:29:38.123Z</time></trkpt><trkpt lat="43.7241476" lon="11.2933716"><ele>88.0</ele><time>2026-04-18T07:29:41.123Z</time></trkpt><trkpt lat="43.7241052" lon="11.2934496"><ele>88.0</ele><time>2026-04-18T07:29:44.123Z</time></trkpt><trkpt lat="43.7240396" lon="11.2934803"><ele>88.0</ele><time>2026-04-18T07:29:46.123Z</time></trkpt><trkpt lat="43.7239752" lon="11.2934794"><ele>88.0</ele><time>2026-04-18T07:29:48.123Z</time></trkpt><trkpt lat="43.7238836" lon="11.2935656"><ele>88.0</ele><time>2026-04-18T07:29:57.124Z</time></trkpt><trkpt lat="43.7237993" lon="11.2936953"><ele>88.0</ele><time>2026-04-18T07:29:59.123Z</time></trkpt><trkpt lat="43.7237574" lon="11.2937647"><ele>88.0</ele><time>2026-04-18T07:30:00.123Z</time></trkpt><trkpt lat="43.7236984" lon="11.2938555"><ele>88.0</ele><time>2026-04-18T07:30:02.123Z</time></trkpt><trkpt lat="43.7236246" lon="11.2939466"><ele>88.0</ele><time>2026-04-18T07:30:04.123Z</time></trkpt><trkpt lat="43.723582" lon="11.2940126"><ele>88.0</ele><time>2026-04-18T07:30:05.124Z</time></trkpt><trkpt lat="43.7235287" lon="11.2940911"><ele>88.0</ele><time>2026-04-18T07:30:06.122Z</time></trkpt><trkpt lat="43.7234687" lon="11.2941804"><ele>88.83333333333333</ele><time>2026-04-18T07:30:07.123Z</time></trkpt><trkpt lat="43.7234129" lon="11.2942748"><ele>89.66666666666666</ele><time>2026-04-18T07:30:08.123Z</time></trkpt><trkpt lat="43.7233624" lon="11.2943538"><ele>90.5</ele><time>2026-04-18T07:30:09.123Z</time></trkpt><trkpt lat="43.7233143" lon="11.2944269"><ele>91.33333333333333</ele><time>2026-04-18T07:30:10.123Z</time></trkpt><trkpt lat="43.7232668" lon="11.2945072"><ele>92.16666666666667</ele><time>2026-04-18T07:30:11.123Z</time></trkpt><trkpt lat="43.7232243" lon="11.2945944"><ele>93.0</ele><time>2026-04-18T07:30:12.124Z</time></trkpt><trkpt lat="43.7231922" lon="11.2946831"><ele>92.5</ele><time>2026-04-18T07:30:13.123Z</time></trkpt><trkpt lat="43.7231625" lon="11.2947765"><ele>92.0</ele><time>2026-04-18T07:30:14.124Z</time></trkpt><trkpt lat="43.723138" lon="11.2948814"><ele>91.5</ele><time>2026-04-18T07:30:15.124Z</time></trkpt><trkpt lat="43.7231239" lon="11.2950017"><ele>91.0</ele><time>2026-04-18T07:30:16.123Z</time></trkpt><trkpt lat="43.723124" lon="11.2951247"><ele>90.5</ele><time>2026-04-18T07:30:17.123Z</time></trkpt><trkpt lat="43.7231226" lon="11.2952641"><ele>90.0</ele><time>2026-04-18T07:30:18.123Z</time></trkpt><trkpt lat="43.7231221" lon="11.2954447"><ele>90.0</ele><time>2026-04-18T07:30:19.124Z</time></trkpt><trkpt lat="43.7231031" lon="11.2956441"><ele>90.0</ele><time>2026-04-18T07:30:20.124Z</time></trkpt><trkpt lat="43.7230941" lon="11.2958479"><ele>90.0</ele><time>2026-04-18T07:30:21.123Z</time></trkpt><trkpt lat="43.7230864" lon="11.2960488"><ele>90.0</ele><time>2026-04-18T07:30:22.123Z</time></trkpt><trkpt lat="43.7230818" lon="11.2962383"><ele>90.0</ele><time>2026-04-18T07:30:23.123Z</time></trkpt><trkpt lat="43.7230749" lon="11.2964068"><ele>90.0</ele><time>2026-04-18T07:30:24.123Z</time></trkpt><trkpt lat="43.723068" lon="11.2965611"><ele>90.0</ele><time>2026-04-18T07:30:25.123Z</time></trkpt><trkpt lat="43.7230681" lon="11.2967124"><ele>90.0</ele><time>2026-04-18T07:30:26.123Z</time></trkpt><trkpt lat="43.7230629" lon="11.2968567"><ele>90.0</ele><time>2026-04-18T07:30:27.124Z</time></trkpt><trkpt lat="43.7230571" lon="11.2969996"><ele>90.2</ele><time>2026-04-18T07:30:28.124Z</time></trkpt><trkpt lat="43.7230422" lon="11.2971371"><ele>90.4</ele><time>2026-04-18T07:30:29.124Z</time></trkpt><trkpt lat="43.7230098" lon="11.2972654"><ele>90.6</ele><time>2026-04-18T07:30:30.124Z</time></trkpt><trkpt lat="43.7229569" lon="11.2973811"><ele>90.8</ele><time>2026-04-18T07:30:31.123Z</time></trkpt><trkpt lat="43.7228934" lon="11.2974953"><ele>91.0</ele><time>2026-04-18T07:30:32.123Z</time></trkpt><trkpt lat="43.7228206" lon="11.2976022"><ele>91.19999999999999</ele><time>2026-04-18T07:30:33.123Z</time></trkpt><trkpt lat="43.7227339" lon="11.2976957"><ele>91.39999999999999</ele><time>2026-04-18T07:30:34.123Z</time></trkpt><trkpt lat="43.7226365" lon="11.2977644"><ele>91.6</ele><time>2026-04-18T07:30:35.124Z</time></trkpt><trkpt lat="43.7225339" lon="11.2978088"><ele>91.8</ele><time>2026-04-18T07:30:36.124Z</time></trkpt><trkpt lat="43.7224378" lon="11.2978172"><ele>92.0</ele><time>2026-04-18T07:30:37.123Z</time></trkpt><trkpt lat="43.7223419" lon="11.2978115"><ele>92.0</ele><time>2026-04-18T07:30:38.123Z</time></trkpt><trkpt lat="43.7222496" lon="11.2977873"><ele>92.0</ele><time>2026-04-18T07:30:39.122Z</time></trkpt><trkpt lat="43.7221518" lon="11.2977517"><ele>92.0</ele><time>2026-04-18T07:30:40.124Z</time></trkpt><trkpt lat="43.7220472" lon="11.2977057"><ele>92.0</ele><time>2026-04-18T07:30:41.123Z</time></trkpt><trkpt lat="43.7219372" lon="11.297651"><ele>92.0</ele><time>2026-04-18T07:30:42.123Z</time></trkpt><trkpt lat="43.7218206" lon="11.2975907"><ele>91.75</ele><time>2026-04-18T07:30:43.123Z</time></trkpt><trkpt lat="43.7217009" lon="11.2975272"><ele>91.5</ele><time>2026-04-18T07:30:44.123Z</time></trkpt><trkpt lat="43.7215784" lon="11.2974704"><ele>91.25</ele><time>2026-04-18T07:30:45.123Z</time></trkpt><trkpt lat="43.7214581" lon="11.29742"><ele>91.0</ele><time>2026-04-18T07:30:46.123Z</time></trkpt><trkpt lat="43.7213332" lon="11.2973773"><ele>91.0</ele><time>2026-04-18T07:30:47.124Z</time></trkpt><trkpt lat="43.7212089" lon="11.2973394"><ele>91.0</ele><time>2026-04-18T07:30:48.124Z</time></trkpt><trkpt lat="43.7210831" lon="11.2973036"><ele>91.0</ele><time>2026-04-18T07:30:49.123Z</time></trkpt><trkpt lat="43.7209578" lon="11.2972724"><ele>91.0</ele><time>2026-04-18T07:30:50.123Z</time></trkpt><trkpt lat="43.7208357" lon="11.2972386"><ele>91.25</ele><time>2026-04-18T07:30:51.123Z</time></trkpt><trkpt lat="43.7207155" lon="11.2972059"><ele>91.5</ele><time>2026-04-18T07:30:52.123Z</time></trkpt><trkpt lat="43.7205993" lon="11.2971706"><ele>91.75</ele><time>2026-04-18T07:30:53.124Z</time></trkpt><trkpt lat="43.7204836" lon="11.2971346"><ele>92.0</ele><time>2026-04-18T07:30:54.124Z</time></trkpt><trkpt lat="43.7203651" lon="11.2971014"><ele>92.0</ele><time>2026-04-18T07:30:55.123Z</time></trkpt><trkpt lat="43.7202486" lon="11.297069"><ele>92.0</ele><time>2026-04-18T07:30:56.123Z</time></trkpt><trkpt lat="43.72013" lon="11.29704"><ele>92.0</ele><time>2026-04-18T07:30:57.123Z</time></trkpt><trkpt lat="43.720009" lon="11.2970217"><ele>92.0</ele><time>2026-04-18T07:30:58.123Z</time></trkpt><trkpt lat="43.719885" lon="11.2970132"><ele>91.75</ele><time>2026-04-18T07:30:59.123Z</time></trkpt><trkpt lat="43.7197627" lon="11.2970082"><ele>91.5</ele><time>2026-04-18T07:31:00.123Z</time></trkpt><trkpt lat="43.7196446" lon="11.2970073"><ele>91.25</ele><time>2026-04-18T07:31:01.123Z</time></trkpt><trkpt lat="43.7195281" lon="11.2970089"><ele>91.0</ele><time>2026-04-18T07:31:02.123Z</time></trkpt><trkpt lat="43.7194156" lon="11.2970185"><ele>91.5</ele><time>2026-04-18T07:31:03.124Z</time></trkpt><trkpt lat="43.7193079" lon="11.2970287"><ele>92.0</ele><time>2026-04-18T07:31:04.124Z</time></trkpt><trkpt lat="43.7192105" lon="11.2970447"><ele>92.5</ele><time>2026-04-18T07:31:05.124Z</time></trkpt><trkpt lat="43.7191255" lon="11.2970656"><ele>93.0</ele><time>2026-04-18T07:31:06.124Z</time></trkpt><trkpt lat="43.7190506" lon="11.2970937"><ele>93.5</ele><time>2026-04-18T07:31:07.123Z</time></trkpt><trkpt lat="43.7189791" lon="11.2971418"><ele>94.0</ele><time>2026-04-18T07:31:08.123Z</time></trkpt><trkpt lat="43.7189238" lon="11.2972195"><ele>93.6</ele><time>2026-04-18T07:31:09.123Z</time></trkpt><trkpt lat="43.7188755" lon="11.2973228"><ele>93.2</ele><time>2026-04-18T07:31:10.123Z</time></trkpt><trkpt lat="43.7188387" lon="11.2974371"><ele>92.8</ele><time>2026-04-18T07:31:11.123Z</time></trkpt><trkpt lat="43.7188072" lon="11.2975547"><ele>92.39999999999999</ele><time>2026-04-18T07:31:12.124Z</time></trkpt><trkpt lat="43.7187775" lon="11.297675"><ele>92.0</ele><time>2026-04-18T07:31:13.123Z</time></trkpt><trkpt lat="43.7187491" lon="11.2977982"><ele>92.0</ele><time>2026-04-18T07:31:14.123Z</time></trkpt><trkpt lat="43.7187175" lon="11.2979263"><ele>92.0</ele><time>2026-04-18T07:31:15.123Z</time></trkpt><trkpt lat="43.7186807" lon="11.2980611"><ele>92.0</ele><time>2026-04-18T07:31:16.123Z</time></trkpt><trkpt lat="43.7186399" lon="11.2981975"><ele>92.0</ele><time>2026-04-18T07:31:17.123Z</time></trkpt><trkpt lat="43.7185971" lon="11.2983452"><ele>92.0</ele><time>2026-04-18T07:31:18.123Z</time></trkpt><trkpt lat="43.7185513" lon="11.2985"><ele>92.25</ele><time>2026-04-18T07:31:19.123Z</time></trkpt><trkpt lat="43.7185017" lon="11.2986567"><ele>92.5</ele><time>2026-04-18T07:31:20.123Z</time></trkpt><trkpt lat="43.7184402" lon="11.2987846"><ele>92.75</ele><time>2026-04-18T07:31:21.123Z</time></trkpt><trkpt lat="43.7183579" lon="11.2988961"><ele>93.0</ele><time>2026-04-18T07:31:22.123Z</time></trkpt><trkpt lat="43.7182553" lon="11.298983"><ele>93.75</ele><time>2026-04-18T07:31:23.123Z</time></trkpt><trkpt lat="43.7181263" lon="11.2990387"><ele>94.5</ele><time>2026-04-18T07:31:24.124Z</time></trkpt><trkpt lat="43.7179891" lon="11.299073"><ele>95.25</ele><time>2026-04-18T07:31:25.124Z</time></trkpt><trkpt lat="43.7178682" lon="11.2991222"><ele>96.0</ele><time>2026-04-18T07:31:26.124Z</time></trkpt><trkpt lat="43.7177718" lon="11.2992143"><ele>95.8</ele><time>2026-04-18T07:31:27.124Z</time></trkpt><trkpt lat="43.717687" lon="11.2993211"><ele>95.6</ele><time>2026-04-18T07:31:28.123Z</time></trkpt><trkpt lat="43.7176127" lon="11.2994176"><ele>95.4</ele><time>2026-04-18T07:31:29.123Z</time></trkpt><trkpt lat="43.717524" lon="11.2994896"><ele>95.2</ele><time>2026-04-18T07:31:30.123Z</time></trkpt><trkpt lat="43.7174221" lon="11.2995326"><ele>95.0</ele><time>2026-04-18T07:31:31.124Z</time></trkpt><trkpt lat="43.7173286" lon="11.2995258"><ele>95.0</ele><time>2026-04-18T07:31:32.124Z</time></trkpt><trkpt lat="43.7172286" lon="11.2994758"><ele>95.0</ele><time>2026-04-18T07:31:33.123Z</time></trkpt><trkpt lat="43.7171144" lon="11.2993711"><ele>95.0</ele><time>2026-04-18T07:31:34.123Z</time></trkpt><trkpt lat="43.716987" lon="11.299245"><ele>95.0</ele><time>2026-04-18T07:31:35.123Z</time></trkpt><trkpt lat="43.7168512" lon="11.2991478"><ele>95.25</ele><time>2026-04-18T07:31:36.123Z</time></trkpt><trkpt lat="43.7167116" lon="11.2990772"><ele>95.5</ele><time>2026-04-18T07:31:37.123Z</time></trkpt><trkpt lat="43.7165769" lon="11.2990234"><ele>95.75</ele><time>2026-04-18T07:31:38.123Z</time></trkpt><trkpt lat="43.7164459" lon="11.2989982"><ele>96.0</ele><time>2026-04-18T07:31:39.123Z</time></trkpt><trkpt lat="43.7163229" lon="11.2989932"><ele>96.0</ele><time>2026-04-18T07:31:40.123Z</time></trkpt><trkpt lat="43.7162116" lon="11.299001"><ele>96.0</ele><time>2026-04-18T07:31:41.124Z</time></trkpt><trkpt lat="43.7161218" lon="11.2990101"><ele>96.0</ele><time>2026-04-18T07:31:42.124Z</time></trkpt><trkpt lat="43.7160566" lon="11.2990131"><ele>96.0</ele><time>2026-04-18T07:31:43.124Z</time></trkpt><trkpt lat="43.7159746" lon="11.2990072"><ele>96.0</ele><time>2026-04-18T07:31:45.123Z</time></trkpt><trkpt lat="43.715961" lon="11.298852"><ele>96.66666666666667</ele><time>2026-04-18T07:31:48.123Z</time></trkpt><trkpt lat="43.715916" lon="11.2987511"><ele>97.33333333333334</ele><time>2026-04-18T07:31:50.122Z</time></trkpt><trkpt lat="43.715824" lon="11.2986683"><ele>98.0</ele><time>2026-04-18T07:31:52.124Z</time></trkpt><trkpt lat="43.7157551" lon="11.2986189"><ele>98.66666666666667</ele><time>2026-04-18T07:31:53.123Z</time></trkpt><trkpt lat="43.7156921" lon="11.2985619"><ele>99.33333333333334</ele><time>2026-04-18T07:31:54.123Z</time></trkpt><trkpt lat="43.7156192" lon="11.2985274"><ele>100.0</ele><time>2026-04-18T07:31:55.123Z</time></trkpt><trkpt lat="43.7155435" lon="11.2984818"><ele>100.0</ele><time>2026-04-18T07:31:56.123Z</time></trkpt><trkpt lat="43.7154593" lon="11.2984513"><ele>100.0</ele><time>2026-04-18T07:31:57.123Z</time></trkpt><trkpt lat="43.7153689" lon="11.2984284"><ele>100.0</ele><time>2026-04-18T07:31:58.124Z</time></trkpt><trkpt lat="43.7152789" lon="11.2984083"><ele>100.0</ele><time>2026-04-18T07:31:59.123Z</time></trkpt><trkpt lat="43.7151885" lon="11.2983927"><ele>100.0</ele><time>2026-04-18T07:32:00.124Z</time></trkpt><trkpt lat="43.7150986" lon="11.2983826"><ele>100.0</ele><time>2026-04-18T07:32:01.123Z</time></trkpt><trkpt lat="43.715007" lon="11.2983561"><ele>100.0</ele><time>2026-04-18T07:32:02.124Z</time></trkpt><trkpt lat="43.7149164" lon="11.2983493"><ele>100.0</ele><time>2026-04-18T07:32:03.124Z</time></trkpt><trkpt lat="43.7148245" lon="11.2983434"><ele>100.0</ele><time>2026-04-18T07:32:04.123Z</time></trkpt><trkpt lat="43.7147358" lon="11.2983337"><ele>100.0</ele><time>2026-04-18T07:32:05.122Z</time></trkpt><trkpt lat="43.7146403" lon="11.2983223"><ele>100.0</ele><time>2026-04-18T07:32:06.123Z</time></trkpt><trkpt lat="43.7145567" lon="11.298301"><ele>100.0</ele><time>2026-04-18T07:32:07.123Z</time></trkpt><trkpt lat="43.7144642" lon="11.2982929"><ele>100.0</ele><time>2026-04-18T07:32:08.124Z</time></trkpt><trkpt lat="43.7143581" lon="11.2982814"><ele>100.0</ele><time>2026-04-18T07:32:09.123Z</time></trkpt><trkpt lat="43.7142496" lon="11.2982653"><ele>100.0</ele><time>2026-04-18T07:32:10.123Z</time></trkpt><trkpt lat="43.7141403" lon="11.2982604"><ele>100.4</ele><time>2026-04-18T07:32:11.123Z</time></trkpt><trkpt lat="43.7140472" lon="11.2982625"><ele>100.8</ele><time>2026-04-18T07:32:12.123Z</time></trkpt><trkpt lat="43.7139401" lon="11.2982649"><ele>101.19999999999999</ele><time>2026-04-18T07:32:13.123Z</time></trkpt><trkpt lat="43.7138419" lon="11.298266"><ele>101.6</ele><time>2026-04-18T07:32:14.124Z</time></trkpt><trkpt lat="43.7137456" lon="11.2982778"><ele>102.0</ele><time>2026-04-18T07:32:15.124Z</time></trkpt><trkpt lat="43.713649" lon="11.2982991"><ele>101.16666666666667</ele><time>2026-04-18T07:32:16.123Z</time></trkpt><trkpt lat="43.7135517" lon="11.2983219"><ele>100.33333333333334</ele><time>2026-04-18T07:32:17.123Z</time></trkpt><trkpt lat="43.71346" lon="11.2983414"><ele>99.5</ele><time>2026-04-18T07:32:18.123Z</time></trkpt><trkpt lat="43.7133727" lon="11.2983673"><ele>98.66666666666667</ele><time>2026-04-18T07:32:19.123Z</time></trkpt><trkpt lat="43.713297" lon="11.2983876"><ele>97.83333333333334</ele><time>2026-04-18T07:32:20.123Z</time></trkpt><trkpt lat="43.7132259" lon="11.2984056"><ele>97.0</ele><time>2026-04-18T07:32:21.123Z</time></trkpt><trkpt lat="43.7131533" lon="11.2984235"><ele>97.00000000000001</ele><time>2026-04-18T07:32:22.124Z</time></trkpt><trkpt lat="43.7130775" lon="11.2984483"><ele>97.0</ele><time>2026-04-18T07:32:23.124Z</time></trkpt><trkpt lat="43.713002" lon="11.2984715"><ele>97.0</ele><time>2026-04-18T07:32:24.124Z</time></trkpt><trkpt lat="43.7129282" lon="11.2984981"><ele>97.0</ele><time>2026-04-18T07:32:25.123Z</time></trkpt><trkpt lat="43.712861" lon="11.2985286"><ele>97.00000000000001</ele><time>2026-04-18T07:32:26.123Z</time></trkpt><trkpt lat="43.7127609" lon="11.2985668"><ele>97.0</ele><time>2026-04-18T07:32:28.124Z</time></trkpt><trkpt lat="43.7126862" lon="11.2985666"><ele>97.5</ele><time>2026-04-18T07:32:42.124Z</time></trkpt><trkpt lat="43.7126372" lon="11.2984434"><ele>98.0</ele><time>2026-04-18T07:32:45.123Z</time></trkpt><trkpt lat="43.7125889" lon="11.2982693"><ele>98.5</ele><time>2026-04-18T07:32:47.123Z</time></trkpt><trkpt lat="43.7125535" lon="11.2981428"><ele>99.0</ele><time>2026-04-18T07:32:48.123Z</time></trkpt><trkpt lat="43.7125132" lon="11.2979893"><ele>101.33333333333334</ele><time>2026-04-18T07:32:49.124Z</time></trkpt><trkpt lat="43.712466" lon="11.2978132"><ele>103.66666666666667</ele><time>2026-04-18T07:32:50.124Z</time></trkpt><trkpt lat="43.7123987" lon="11.2975894"><ele>106.0</ele><time>2026-04-18T07:32:51.124Z</time></trkpt><trkpt lat="43.7123225" lon="11.297335"><ele>109.0</ele><time>2026-04-18T07:32:52.124Z</time></trkpt><trkpt lat="43.7122468" lon="11.2970603"><ele>112.0</ele><time>2026-04-18T07:32:53.124Z</time></trkpt><trkpt lat="43.7121822" lon="11.2968222"><ele>115.0</ele><time>2026-04-18T07:32:54.124Z</time></trkpt><trkpt lat="43.7121292" lon="11.2966157"><ele>115.0</ele><time>2026-04-18T07:32:55.124Z</time></trkpt><trkpt lat="43.7120886" lon="11.2964484"><ele>115.0</ele><time>2026-04-18T07:32:56.124Z</time></trkpt><trkpt lat="43.7120528" lon="11.2963235"><ele>115.0</ele><time>2026-04-18T07:32:57.122Z</time></trkpt><trkpt lat="43.712024" lon="11.2962264"><ele>115.0</ele><time>2026-04-18T07:32:58.123Z</time></trkpt><trkpt lat="43.7119937" lon="11.2961477"><ele>115.0</ele><time>2026-04-18T07:32:59.123Z</time></trkpt><trkpt lat="43.7119257" lon="11.2960729"><ele>115.8</ele><time>2026-04-18T07:33:01.123Z</time></trkpt><trkpt lat="43.7117861" lon="11.2960894"><ele>116.6</ele><time>2026-04-18T07:33:03.123Z</time></trkpt><trkpt lat="43.7117173" lon="11.2961114"><ele>117.4</ele><time>2026-04-18T07:33:04.123Z</time></trkpt><trkpt lat="43.7116507" lon="11.2961474"><ele>118.2</ele><time>2026-04-18T07:33:05.123Z</time></trkpt><trkpt lat="43.7115904" lon="11.2961911"><ele>119.0</ele><time>2026-04-18T07:33:06.124Z</time></trkpt><trkpt lat="43.7114724" lon="11.2962607"><ele>118.99999999999999</ele><time>2026-04-18T07:33:08.123Z</time></trkpt><trkpt lat="43.7114118" lon="11.2962856"><ele>119.0</ele><time>2026-04-18T07:33:09.123Z</time></trkpt><trkpt lat="43.7113419" lon="11.2963076"><ele>119.0</ele><time>2026-04-18T07:33:10.123Z</time></trkpt><trkpt lat="43.7112682" lon="11.2963343"><ele>119.0</ele><time>2026-04-18T07:33:11.123Z</time></trkpt><trkpt lat="43.7111855" lon="11.2963614"><ele>118.99999999999999</ele><time>2026-04-18T07:33:12.124Z</time></trkpt><trkpt lat="43.7110969" lon="11.2963845"><ele>119.0</ele><time>2026-04-18T07:33:13.123Z</time></trkpt><trkpt lat="43.7110024" lon="11.2964181"><ele>116.2</ele><time>2026-04-18T07:33:14.123Z</time></trkpt><trkpt lat="43.710901" lon="11.2964501"><ele>113.4</ele><time>2026-04-18T07:33:15.123Z</time></trkpt><trkpt lat="43.7108048" lon="11.2964792"><ele>110.6</ele><time>2026-04-18T07:33:16.123Z</time></trkpt><trkpt lat="43.7107137" lon="11.2965115"><ele>107.8</ele><time>2026-04-18T07:33:17.124Z</time></trkpt><trkpt lat="43.7106253" lon="11.2965267"><ele>105.0</ele><time>2026-04-18T07:33:18.124Z</time></trkpt><trkpt lat="43.7105496" lon="11.2965519"><ele>105.0</ele><time>2026-04-18T07:33:19.124Z</time></trkpt><trkpt lat="43.710422" lon="11.296579"><ele>105.0</ele><time>2026-04-18T07:33:21.123Z</time></trkpt><trkpt lat="43.7103426" lon="11.2965886"><ele>105.0</ele><time>2026-04-18T07:33:22.123Z</time></trkpt><trkpt lat="43.7102594" lon="11.2966043"><ele>105.0</ele><time>2026-04-18T07:33:23.123Z</time></trkpt><trkpt lat="43.7101727" lon="11.2966159"><ele>105.0</ele><time>2026-04-18T07:33:24.124Z</time></trkpt><trkpt lat="43.7100779" lon="11.2966334"><ele>106.2</ele><time>2026-04-18T07:33:25.124Z</time></trkpt><trkpt lat="43.7099847" lon="11.2966549"><ele>107.4</ele><time>2026-04-18T07:33:26.124Z</time></trkpt><trkpt lat="43.7098897" lon="11.2966746"><ele>108.6</ele><time>2026-04-18T07:33:27.123Z</time></trkpt><trkpt lat="43.7098074" lon="11.2966963"><ele>109.8</ele><time>2026-04-18T07:33:28.123Z</time></trkpt><trkpt lat="43.70973" lon="11.2967111"><ele>111.0</ele><time>2026-04-18T07:33:29.123Z</time></trkpt><trkpt lat="43.7096283" lon="11.2967961"><ele>111.0</ele><time>2026-04-18T07:33:31.123Z</time></trkpt><trkpt lat="43.7095934" lon="11.2968706"><ele>111.0</ele><time>2026-04-18T07:33:32.123Z</time></trkpt><trkpt lat="43.7095422" lon="11.2969285"><ele>111.0</ele><time>2026-04-18T07:33:33.123Z</time></trkpt><trkpt lat="43.7094799" lon="11.2969879"><ele>111.0</ele><time>2026-04-18T07:33:34.124Z</time></trkpt><trkpt lat="43.709391" lon="11.2970565"><ele>111.0</ele><time>2026-04-18T07:33:35.124Z</time></trkpt><trkpt lat="43.7092826" lon="11.2971416"><ele>111.0</ele><time>2026-04-18T07:33:36.123Z</time></trkpt><trkpt lat="43.7091517" lon="11.2972519"><ele>108.5</ele><time>2026-04-18T07:33:37.123Z</time></trkpt><trkpt lat="43.7090297" lon="11.2973628"><ele>106.0</ele><time>2026-04-18T07:33:38.123Z</time></trkpt><trkpt lat="43.7089219" lon="11.297481"><ele>103.5</ele><time>2026-04-18T07:33:39.123Z</time></trkpt><trkpt lat="43.7088411" lon="11.2976016"><ele>101.0</ele><time>2026-04-18T07:33:40.123Z</time></trkpt><trkpt lat="43.7087809" lon="11.2977136"><ele>100.99999999999999</ele><time>2026-04-18T07:33:41.123Z</time></trkpt><trkpt lat="43.7087351" lon="11.2978077"><ele>101.0</ele><time>2026-04-18T07:33:42.123Z</time></trkpt><trkpt lat="43.7086905" lon="11.297906"><ele>101.0</ele><time>2026-04-18T07:33:43.124Z</time></trkpt><trkpt lat="43.7086471" lon="11.2980051"><ele>101.0</ele><time>2026-04-18T07:33:44.124Z</time></trkpt><trkpt lat="43.7086124" lon="11.2980977"><ele>100.99999999999999</ele><time>2026-04-18T07:33:45.124Z</time></trkpt><trkpt lat="43.7085848" lon="11.2981975"><ele>101.0</ele><time>2026-04-18T07:33:46.123Z</time></trkpt><trkpt lat="43.7085686" lon="11.2982878"><ele>102.0</ele><time>2026-04-18T07:33:47.123Z</time></trkpt><trkpt lat="43.7085415" lon="11.2984402"><ele>103.0</ele><time>2026-04-18T07:33:49.123Z</time></trkpt><trkpt lat="43.7085092" lon="11.2985719"><ele>104.0</ele><time>2026-04-18T07:33:51.123Z</time></trkpt><trkpt lat="43.7084714" lon="11.2986977"><ele>105.0</ele><time>2026-04-18T07:33:53.124Z</time></trkpt><trkpt lat="43.7084385" lon="11.298778"><ele>106.0</ele><time>2026-04-18T07:33:55.122Z</time></trkpt><trkpt lat="43.7084037" lon="11.298867"><ele>105.0</ele><time>2026-04-18T07:34:05.124Z</time></trkpt><trkpt lat="43.7083609" lon="11.2990259"><ele>104.0</ele><time>2026-04-18T07:34:07.123Z</time></trkpt><trkpt lat="43.7083215" lon="11.2991284"><ele>103.0</ele><time>2026-04-18T07:34:08.124Z</time></trkpt><trkpt lat="43.7082654" lon="11.2992556"><ele>102.0</ele><time>2026-04-18T07:34:09.124Z</time></trkpt><trkpt lat="43.7081959" lon="11.2994009"><ele>101.0</ele><time>2026-04-18T07:34:10.124Z</time></trkpt><trkpt lat="43.7081328" lon="11.2995404"><ele>101.0</ele><time>2026-04-18T07:34:11.124Z</time></trkpt><trkpt lat="43.7080752" lon="11.2996625"><ele>101.0</ele><time>2026-04-18T07:34:12.123Z</time></trkpt><trkpt lat="43.7080193" lon="11.2997912"><ele>101.0</ele><time>2026-04-18T07:34:13.123Z</time></trkpt><trkpt lat="43.7079665" lon="11.2999256"><ele>101.0</ele><time>2026-04-18T07:34:14.123Z</time></trkpt><trkpt lat="43.7079094" lon="11.3000676"><ele>101.0</ele><time>2026-04-18T07:34:15.123Z</time></trkpt><trkpt lat="43.7078566" lon="11.3002059"><ele>101.19999999999999</ele><time>2026-04-18T07:34:16.123Z</time></trkpt><trkpt lat="43.707805" lon="11.3003367"><ele>101.39999999999999</ele><time>2026-04-18T07:34:17.123Z</time></trkpt><trkpt lat="43.7077482" lon="11.3004729"><ele>101.6</ele><time>2026-04-18T07:34:18.123Z</time></trkpt><trkpt lat="43.707697" lon="11.3006039"><ele>101.8</ele><time>2026-04-18T07:34:19.124Z</time></trkpt><trkpt lat="43.7076489" lon="11.3007127"><ele>102.0</ele><time>2026-04-18T07:34:20.124Z</time></trkpt><trkpt lat="43.7075863" lon="11.300812"><ele>102.0</ele><time>2026-04-18T07:34:21.124Z</time></trkpt><trkpt lat="43.7075206" lon="11.3008964"><ele>102.0</ele><time>2026-04-18T07:34:22.123Z</time></trkpt><trkpt lat="43.7074572" lon="11.3009478"><ele>102.0</ele><time>2026-04-18T07:34:23.123Z</time></trkpt><trkpt lat="43.7073325" lon="11.3009569"><ele>102.0</ele><time>2026-04-18T07:34:25.123Z</time></trkpt><trkpt lat="43.7072274" lon="11.3009343"><ele>102.0</ele><time>2026-04-18T07:34:27.123Z</time></trkpt><trkpt lat="43.7071535" lon="11.3010167"><ele>102.0</ele><time>2026-04-18T07:34:29.124Z</time></trkpt><trkpt lat="43.7071751" lon="11.3011268"><ele>102.0</ele><time>2026-04-18T07:34:31.123Z</time></trkpt><trkpt lat="43.70707" lon="11.3011479"><ele>102.0</ele><time>2026-04-18T07:34:34.123Z</time></trkpt><trkpt lat="43.7069755" lon="11.3011146"><ele>102.0</ele><time>2026-04-18T07:34:35.123Z</time></trkpt><trkpt lat="43.7069028" lon="11.3011082"><ele>102.0</ele><time>2026-04-18T07:34:36.123Z</time></trkpt><trkpt lat="43.7068017" lon="11.3010369"><ele>103.39999999999999</ele><time>2026-04-18T07:34:38.123Z</time></trkpt><trkpt lat="43.7066715" lon="11.3010096"><ele>104.8</ele><time>2026-04-18T07:34:40.124Z</time></trkpt><trkpt lat="43.7066046" lon="11.3010067"><ele>106.2</ele><time>2026-04-18T07:34:41.124Z</time></trkpt><trkpt lat="43.7065071" lon="11.300995"><ele>107.6</ele><time>2026-04-18T07:34:43.124Z</time></trkpt><trkpt lat="43.7064219" lon="11.3009668"><ele>109.0</ele><time>2026-04-18T07:34:45.123Z</time></trkpt><trkpt lat="43.7063118" lon="11.3009573"><ele>109.00000000000001</ele><time>2026-04-18T07:34:47.123Z</time></trkpt><trkpt lat="43.7062524" lon="11.3010278"><ele>109.0</ele><time>2026-04-18T07:34:49.123Z</time></trkpt><trkpt lat="43.7062026" lon="11.3010904"><ele>109.0</ele><time>2026-04-18T07:34:52.123Z</time></trkpt><trkpt lat="43.7061251" lon="11.3010965"><ele>109.0</ele><time>2026-04-18T07:34:54.123Z</time></trkpt><trkpt lat="43.7060398" lon="11.3011506"><ele>109.00000000000001</ele><time>2026-04-18T07:34:56.123Z</time></trkpt><trkpt lat="43.7059374" lon="11.3012219"><ele>109.0</ele><time>2026-04-18T07:34:58.123Z</time></trkpt><trkpt lat="43.705879" lon="11.301259"><ele>108.33333333333334</ele><time>2026-04-18T07:34:59.123Z</time></trkpt><trkpt lat="43.7057556" lon="11.301333"><ele>107.66666666666667</ele><time>2026-04-18T07:35:01.124Z</time></trkpt><trkpt lat="43.7056929" lon="11.3013864"><ele>107.0</ele><time>2026-04-18T07:35:02.123Z</time></trkpt><trkpt lat="43.7056365" lon="11.301463"><ele>106.33333333333334</ele><time>2026-04-18T07:35:03.123Z</time></trkpt><trkpt lat="43.7055854" lon="11.3015183"><ele>105.66666666666667</ele><time>2026-04-18T07:35:04.124Z</time></trkpt><trkpt lat="43.7055104" lon="11.3014332"><ele>105.0</ele><time>2026-04-18T07:35:06.124Z</time></trkpt><trkpt lat="43.7054438" lon="11.3015041"><ele>105.0</ele><time>2026-04-18T07:35:08.124Z</time></trkpt><trkpt lat="43.7054307" lon="11.3016068"><ele>105.0</ele><time>2026-04-18T07:35:10.123Z</time></trkpt><trkpt lat="43.7053931" lon="11.3017199"><ele>105.0</ele><time>2026-04-18T07:35:12.123Z</time></trkpt><trkpt lat="43.705335" lon="11.3018525"><ele>105.0</ele><time>2026-04-18T07:35:14.124Z</time></trkpt><trkpt lat="43.7053081" lon="11.3019367"><ele>105.0</ele><time>2026-04-18T07:35:15.123Z</time></trkpt><trkpt lat="43.705297" lon="11.3020368"><ele>105.0</ele><time>2026-04-18T07:35:16.123Z</time></trkpt><trkpt lat="43.7052854" lon="11.3022053"><ele>104.28571428571429</ele><time>2026-04-18T07:35:18.123Z</time></trkpt><trkpt lat="43.7052745" lon="11.3022986"><ele>103.57142857142857</ele><time>2026-04-18T07:35:19.123Z</time></trkpt><trkpt lat="43.7052411" lon="11.3023891"><ele>102.85714285714286</ele><time>2026-04-18T07:35:20.123Z</time></trkpt><trkpt lat="43.7052176" lon="11.3024893"><ele>102.14285714285714</ele><time>2026-04-18T07:35:21.123Z</time></trkpt><trkpt lat="43.7051714" lon="11.3025664"><ele>101.42857142857143</ele><time>2026-04-18T07:35:22.123Z</time></trkpt><trkpt lat="43.7051472" lon="11.3026558"><ele>100.71428571428572</ele><time>2026-04-18T07:35:23.123Z</time></trkpt><trkpt lat="43.705097" lon="11.3027422"><ele>100.0</ele><time>2026-04-18T07:35:24.123Z</time></trkpt><trkpt lat="43.7050721" lon="11.3028915"><ele>101.16666666666667</ele><time>2026-04-18T07:35:25.123Z</time></trkpt><trkpt lat="43.7050317" lon="11.3029722"><ele>102.33333333333334</ele><time>2026-04-18T07:35:26.123Z</time></trkpt><trkpt lat="43.7049777" lon="11.3030465"><ele>103.5</ele><time>2026-04-18T07:35:27.124Z</time></trkpt><trkpt lat="43.7048957" lon="11.3031466"><ele>104.66666666666666</ele><time>2026-04-18T07:35:28.123Z</time></trkpt><trkpt lat="43.7048207" lon="11.303241"><ele>105.83333333333333</ele><time>2026-04-18T07:35:29.123Z</time></trkpt><trkpt lat="43.7047602" lon="11.3033288"><ele>107.0</ele><time>2026-04-18T07:35:30.124Z</time></trkpt><trkpt lat="43.7047008" lon="11.3034038"><ele>107.0</ele><time>2026-04-18T07:35:31.123Z</time></trkpt><trkpt lat="43.7046468" lon="11.3034783"><ele>106.99999999999999</ele><time>2026-04-18T07:35:32.124Z</time></trkpt><trkpt lat="43.7045944" lon="11.3035596"><ele>106.99999999999999</ele><time>2026-04-18T07:35:33.124Z</time></trkpt><trkpt lat="43.7045379" lon="11.3036275"><ele>107.0</ele><time>2026-04-18T07:35:34.123Z</time></trkpt><trkpt lat="43.7044612" lon="11.3037276"><ele>107.0</ele><time>2026-04-18T07:35:35.123Z</time></trkpt><trkpt lat="43.704371" lon="11.3038576"><ele>107.0</ele><time>2026-04-18T07:35:36.124Z</time></trkpt><trkpt lat="43.7042942" lon="11.3039937"><ele>106.99999999999999</ele><time>2026-04-18T07:35:37.124Z</time></trkpt><trkpt lat="43.7042319" lon="11.3040938"><ele>106.99999999999999</ele><time>2026-04-18T07:35:38.124Z</time></trkpt><trkpt lat="43.7041673" lon="11.304196"><ele>107.0</ele><time>2026-04-18T07:35:39.123Z</time></trkpt><trkpt lat="43.704111" lon="11.3042909"><ele>107.0</ele><time>2026-04-18T07:35:40.123Z</time></trkpt><trkpt lat="43.7040453" lon="11.304385"><ele>106.99999999999999</ele><time>2026-04-18T07:35:41.123Z</time></trkpt><trkpt lat="43.7039873" lon="11.3044664"><ele>107.0</ele><time>2026-04-18T07:35:42.124Z</time></trkpt><trkpt lat="43.7039092" lon="11.304536"><ele>107.0</ele><time>2026-04-18T07:35:43.124Z</time></trkpt><trkpt lat="43.70384" lon="11.3046057"><ele>107.0</ele><time>2026-04-18T07:35:44.123Z</time></trkpt><trkpt lat="43.7037919" lon="11.3046722"><ele>106.99999999999999</ele><time>2026-04-18T07:35:45.123Z</time></trkpt><trkpt lat="43.7037555" lon="11.3047437"><ele>107.0</ele><time>2026-04-18T07:35:46.123Z</time></trkpt><trkpt lat="43.7036634" lon="11.3048609"><ele>105.75</ele><time>2026-04-18T07:35:48.123Z</time></trkpt><trkpt lat="43.7035952" lon="11.304942"><ele>104.5</ele><time>2026-04-18T07:35:49.123Z</time></trkpt><trkpt lat="43.7035064" lon="11.3050551"><ele>103.25</ele><time>2026-04-18T07:35:50.124Z</time></trkpt><trkpt lat="43.7033945" lon="11.3051935"><ele>102.0</ele><time>2026-04-18T07:35:51.124Z</time></trkpt><trkpt lat="43.703275" lon="11.3053507"><ele>102.6</ele><time>2026-04-18T07:35:52.123Z</time></trkpt><trkpt lat="43.703179" lon="11.305463"><ele>103.19999999999999</ele><time>2026-04-18T07:35:53.123Z</time></trkpt><trkpt lat="43.7030868" lon="11.3055412"><ele>103.8</ele><time>2026-04-18T07:35:54.124Z</time></trkpt><trkpt lat="43.7029997" lon="11.305619"><ele>104.4</ele><time>2026-04-18T07:35:55.124Z</time></trkpt><trkpt lat="43.7029284" lon="11.3056454"><ele>105.0</ele><time>2026-04-18T07:35:56.123Z</time></trkpt><trkpt lat="43.7028335" lon="11.3055525"><ele>106.16666666666667</ele><time>2026-04-18T07:35:58.124Z</time></trkpt><trkpt lat="43.7027814" lon="11.3054818"><ele>107.33333333333334</ele><time>2026-04-18T07:35:59.124Z</time></trkpt><trkpt lat="43.7027236" lon="11.3054107"><ele>108.5</ele><time>2026-04-18T07:36:00.124Z</time></trkpt><trkpt lat="43.7026426" lon="11.3053396"><ele>109.66666666666667</ele><time>2026-04-18T07:36:01.123Z</time></trkpt><trkpt lat="43.7025567" lon="11.3053428"><ele>110.83333333333334</ele><time>2026-04-18T07:36:02.123Z</time></trkpt><trkpt lat="43.7024603" lon="11.3053836"><ele>112.0</ele><time>2026-04-18T07:36:03.123Z</time></trkpt><trkpt lat="43.7023745" lon="11.3054579"><ele>111.6</ele><time>2026-04-18T07:36:04.124Z</time></trkpt><trkpt lat="43.7022941" lon="11.3055821"><ele>111.19999999999999</ele><time>2026-04-18T07:36:05.123Z</time></trkpt><trkpt lat="43.7022054" lon="11.305677"><ele>110.8</ele><time>2026-04-18T07:36:06.123Z</time></trkpt><trkpt lat="43.7021472" lon="11.3057541"><ele>110.4</ele><time>2026-04-18T07:36:07.123Z</time></trkpt><trkpt lat="43.7020805" lon="11.3058201"><ele>110.0</ele><time>2026-04-18T07:36:08.123Z</time></trkpt><trkpt lat="43.7020201" lon="11.3058723"><ele>109.99999999999999</ele><time>2026-04-18T07:36:09.123Z</time></trkpt><trkpt lat="43.7019458" lon="11.3059191"><ele>110.0</ele><time>2026-04-18T07:36:11.124Z</time></trkpt><trkpt lat="43.701881" lon="11.3059875"><ele>110.0</ele><time>2026-04-18T07:36:13.123Z</time></trkpt><trkpt lat="43.7018296" lon="11.306051"><ele>110.0</ele><time>2026-04-18T07:36:16.123Z</time></trkpt><trkpt lat="43.7018915" lon="11.3059924"><ele>110.0</ele><time>2026-04-18T07:37:00.123Z</time></trkpt><trkpt lat="43.701957" lon="11.3059771"><ele>109.99999999999999</ele><time>2026-04-18T07:37:02.123Z</time></trkpt><trkpt lat="43.7019708" lon="11.3060692"><ele>110.0</ele><time>2026-04-18T07:37:06.124Z</time></trkpt><trkpt lat="43.701945" lon="11.3061706"><ele>109.99999999999999</ele><time>2026-04-18T07:37:10.123Z</time></trkpt><trkpt lat="43.7019396" lon="11.3062838"><ele>110.0</ele><time>2026-04-18T07:37:13.123Z</time></trkpt><trkpt lat="43.7019212" lon="11.3063743"><ele>110.0</ele><time>2026-04-18T07:37:34.124Z</time></trkpt><trkpt lat="43.7018745" lon="11.30649"><ele>110.0</ele><time>2026-04-18T07:37:36.123Z</time></trkpt><trkpt lat="43.7018339" lon="11.3065629"><ele>109.99999999999999</ele><time>2026-04-18T07:37:37.123Z</time></trkpt><trkpt lat="43.7017882" lon="11.3066596"><ele>110.0</ele><time>2026-04-18T07:37:38.123Z</time></trkpt><trkpt lat="43.7017399" lon="11.3067758"><ele>108.8</ele><time>2026-04-18T07:37:39.124Z</time></trkpt><trkpt lat="43.7016928" lon="11.306896"><ele>107.6</ele><time>2026-04-18T07:37:40.123Z</time></trkpt><trkpt lat="43.701648" lon="11.3070243"><ele>106.4</ele><time>2026-04-18T07:37:41.123Z</time></trkpt><trkpt lat="43.701608" lon="11.3071397"><ele>105.2</ele><time>2026-04-18T07:37:42.124Z</time></trkpt><trkpt lat="43.7015774" lon="11.3072479"><ele>104.0</ele><time>2026-04-18T07:37:43.124Z</time></trkpt><trkpt lat="43.7015649" lon="11.3073641"><ele>103.99999999999999</ele><time>2026-04-18T07:37:44.123Z</time></trkpt><trkpt lat="43.701553" lon="11.3074732"><ele>104.0</ele><time>2026-04-18T07:37:45.123Z</time></trkpt><trkpt lat="43.7015264" lon="11.3075632"><ele>104.0</ele><time>2026-04-18T07:37:46.123Z</time></trkpt><trkpt lat="43.7014796" lon="11.3076483"><ele>104.0</ele><time>2026-04-18T07:37:47.123Z</time></trkpt><trkpt lat="43.7014329" lon="11.3077508"><ele>103.99999999999999</ele><time>2026-04-18T07:37:48.123Z</time></trkpt><trkpt lat="43.7013799" lon="11.3078462"><ele>104.0</ele><time>2026-04-18T07:37:49.123Z</time></trkpt><trkpt lat="43.7013181" lon="11.307933"><ele>103.99999999999999</ele><time>2026-04-18T07:37:50.123Z</time></trkpt><trkpt lat="43.7012547" lon="11.3080109"><ele>104.0</ele><time>2026-04-18T07:37:51.124Z</time></trkpt><trkpt lat="43.7011919" lon="11.3080752"><ele>104.0</ele><time>2026-04-18T07:37:52.122Z</time></trkpt><trkpt lat="43.7011238" lon="11.3081153"><ele>104.0</ele><time>2026-04-18T07:37:53.123Z</time></trkpt><trkpt lat="43.7010503" lon="11.308136"><ele>103.99999999999999</ele><time>2026-04-18T07:37:54.123Z</time></trkpt><trkpt lat="43.7009699" lon="11.3081527"><ele>104.0</ele><time>2026-04-18T07:37:55.124Z</time></trkpt><trkpt lat="43.7009028" lon="11.3081745"><ele>104.0</ele><time>2026-04-18T07:37:56.123Z</time></trkpt><trkpt lat="43.7008134" lon="11.3081857"><ele>104.0</ele><time>2026-04-18T07:37:58.123Z</time></trkpt><trkpt lat="43.7007989" lon="11.308324"><ele>104.0</ele><time>2026-04-18T07:38:01.122Z</time></trkpt><trkpt lat="43.7008271" lon="11.3084435"><ele>104.0</ele><time>2026-04-18T07:38:03.124Z</time></trkpt><trkpt lat="43.7008592" lon="11.3085515"><ele>104.0</ele><time>2026-04-18T07:38:05.124Z</time></trkpt><trkpt lat="43.7008346" lon="11.3086816"><ele>104.0</ele><time>2026-04-18T07:38:07.123Z</time></trkpt><trkpt lat="43.7007838" lon="11.3087854"><ele>104.0</ele><time>2026-04-18T07:38:09.124Z</time></trkpt><trkpt lat="43.7007289" lon="11.3089064"><ele>104.0</ele><time>2026-04-18T07:38:11.123Z</time></trkpt><trkpt lat="43.7006527" lon="11.3090269"><ele>104.0</ele><time>2026-04-18T07:38:13.124Z</time></trkpt><trkpt lat="43.7005796" lon="11.3091525"><ele>104.0</ele><time>2026-04-18T07:38:15.123Z</time></trkpt><trkpt lat="43.7005526" lon="11.3092356"><ele>105.0</ele><time>2026-04-18T07:38:16.123Z</time></trkpt><trkpt lat="43.7004802" lon="11.3093864"><ele>106.0</ele><time>2026-04-18T07:38:18.123Z</time></trkpt><trkpt lat="43.7004441" lon="11.3094666"><ele>107.0</ele><time>2026-04-18T07:38:19.123Z</time></trkpt><trkpt lat="43.7004121" lon="11.309554"><ele>108.0</ele><time>2026-04-18T07:38:20.123Z</time></trkpt><trkpt lat="43.7003753" lon="11.309632"><ele>109.0</ele><time>2026-04-18T07:38:21.123Z</time></trkpt><trkpt lat="43.700292" lon="11.3097407"><ele>108.66666666666667</ele><time>2026-04-18T07:38:23.123Z</time></trkpt><trkpt lat="43.7002334" lon="11.3097808"><ele>108.33333333333334</ele><time>2026-04-18T07:38:24.123Z</time></trkpt><trkpt lat="43.7001611" lon="11.3098065"><ele>108.0</ele><time>2026-04-18T07:38:25.123Z</time></trkpt><trkpt lat="43.7000801" lon="11.3098267"><ele>107.66666666666666</ele><time>2026-04-18T07:38:26.124Z</time></trkpt><trkpt lat="43.6999934" lon="11.3098331"><ele>107.33333333333333</ele><time>2026-04-18T07:38:27.124Z</time></trkpt><trkpt lat="43.6998988" lon="11.3098379"><ele>107.0</ele><time>2026-04-18T07:38:28.123Z</time></trkpt><trkpt lat="43.6997954" lon="11.309838"><ele>107.0</ele><time>2026-04-18T07:38:29.123Z</time></trkpt><trkpt lat="43.69969" lon="11.3098317"><ele>107.0</ele><time>2026-04-18T07:38:30.123Z</time></trkpt><trkpt lat="43.6995742" lon="11.3098159"><ele>107.0</ele><time>2026-04-18T07:38:31.123Z</time></trkpt><trkpt lat="43.6994562" lon="11.3097702"><ele>107.0</ele><time>2026-04-18T07:38:32.123Z</time></trkpt><trkpt lat="43.6993543" lon="11.3097147"><ele>106.75</ele><time>2026-04-18T07:38:33.123Z</time></trkpt><trkpt lat="43.6992666" lon="11.3096378"><ele>106.5</ele><time>2026-04-18T07:38:34.124Z</time></trkpt><trkpt lat="43.6991631" lon="11.3095474"><ele>106.25</ele><time>2026-04-18T07:38:35.123Z</time></trkpt><trkpt lat="43.6990539" lon="11.3094558"><ele>106.0</ele><time>2026-04-18T07:38:36.123Z</time></trkpt><trkpt lat="43.6989478" lon="11.3093517"><ele>106.0</ele><time>2026-04-18T07:38:37.123Z</time></trkpt><trkpt lat="43.6988453" lon="11.3092535"><ele>106.0</ele><time>2026-04-18T07:38:38.123Z</time></trkpt><trkpt lat="43.6987295" lon="11.3091508"><ele>106.0</ele><time>2026-04-18T07:38:39.123Z</time></trkpt><trkpt lat="43.6986103" lon="11.3090347"><ele>106.0</ele><time>2026-04-18T07:38:40.123Z</time></trkpt><trkpt lat="43.6984732" lon="11.3089041"><ele>106.0</ele><time>2026-04-18T07:38:41.124Z</time></trkpt><trkpt lat="43.6983414" lon="11.3087771"><ele>106.0</ele><time>2026-04-18T07:38:42.123Z</time></trkpt><trkpt lat="43.6982126" lon="11.3086445"><ele>106.0</ele><time>2026-04-18T07:38:43.123Z</time></trkpt><trkpt lat="43.6980851" lon="11.3085095"><ele>106.0</ele><time>2026-04-18T07:38:44.123Z</time></trkpt><trkpt lat="43.6979549" lon="11.308392"><ele>106.0</ele><time>2026-04-18T07:38:45.123Z</time></trkpt><trkpt lat="43.697821" lon="11.3082912"><ele>106.0</ele><time>2026-04-18T07:38:46.123Z</time></trkpt><trkpt lat="43.6976835" lon="11.3081944"><ele>106.75</ele><time>2026-04-18T07:38:47.123Z</time></trkpt><trkpt lat="43.6975463" lon="11.3081012"><ele>107.5</ele><time>2026-04-18T07:38:48.123Z</time></trkpt><trkpt lat="43.6974153" lon="11.3080226"><ele>108.25</ele><time>2026-04-18T07:38:49.124Z</time></trkpt><trkpt lat="43.6972935" lon="11.3079718"><ele>109.0</ele><time>2026-04-18T07:38:50.124Z</time></trkpt><trkpt lat="43.6971639" lon="11.3079409"><ele>109.0</ele><time>2026-04-18T07:38:51.123Z</time></trkpt><trkpt lat="43.6970233" lon="11.3079298"><ele>109.0</ele><time>2026-04-18T07:38:52.123Z</time></trkpt><trkpt lat="43.6968751" lon="11.3079306"><ele>109.0</ele><time>2026-04-18T07:38:53.123Z</time></trkpt><trkpt lat="43.6967249" lon="11.3079346"><ele>109.0</ele><time>2026-04-18T07:38:54.124Z</time></trkpt><trkpt lat="43.696572" lon="11.3079334"><ele>108.33333333333334</ele><time>2026-04-18T07:38:55.124Z</time></trkpt><trkpt lat="43.6964175" lon="11.3079194"><ele>107.66666666666666</ele><time>2026-04-18T07:38:56.124Z</time></trkpt><trkpt lat="43.6962651" lon="11.3078947"><ele>107.0</ele><time>2026-04-18T07:38:57.124Z</time></trkpt><trkpt lat="43.6961094" lon="11.3078642"><ele>108.0</ele><time>2026-04-18T07:38:58.124Z</time></trkpt><trkpt lat="43.6959512" lon="11.307829"><ele>109.0</ele><time>2026-04-18T07:38:59.123Z</time></trkpt><trkpt lat="43.6957918" lon="11.307792"><ele>110.0</ele><time>2026-04-18T07:39:00.124Z</time></trkpt><trkpt lat="43.6956342" lon="11.3077393"><ele>110.0</ele><time>2026-04-18T07:39:01.123Z</time></trkpt><trkpt lat="43.6954861" lon="11.3076595"><ele>110.0</ele><time>2026-04-18T07:39:02.123Z</time></trkpt><trkpt lat="43.6953471" lon="11.3075562"><ele>110.0</ele><time>2026-04-18T07:39:03.123Z</time></trkpt><trkpt lat="43.6952104" lon="11.3074362"><ele>109.33333333333333</ele><time>2026-04-18T07:39:04.123Z</time></trkpt><trkpt lat="43.6950711" lon="11.3073181"><ele>108.66666666666666</ele><time>2026-04-18T07:39:05.123Z</time></trkpt><trkpt lat="43.6949338" lon="11.3072025"><ele>108.0</ele><time>2026-04-18T07:39:06.124Z</time></trkpt><trkpt lat="43.6947963" lon="11.3071038"><ele>108.0</ele><time>2026-04-18T07:39:07.123Z</time></trkpt><trkpt lat="43.6946553" lon="11.307037"><ele>108.0</ele><time>2026-04-18T07:39:08.123Z</time></trkpt><trkpt lat="43.6945076" lon="11.3069987"><ele>108.0</ele><time>2026-04-18T07:39:09.123Z</time></trkpt><trkpt lat="43.6943622" lon="11.3069943"><ele>108.0</ele><time>2026-04-18T07:39:10.123Z</time></trkpt><trkpt lat="43.6942151" lon="11.3070235"><ele>108.66666666666666</ele><time>2026-04-18T07:39:11.124Z</time></trkpt><trkpt lat="43.6940738" lon="11.3070891"><ele>109.33333333333333</ele><time>2026-04-18T07:39:12.124Z</time></trkpt><trkpt lat="43.693936" lon="11.3071813"><ele>110.0</ele><time>2026-04-18T07:39:13.124Z</time></trkpt><trkpt lat="43.6937974" lon="11.3072862"><ele>111.0</ele><time>2026-04-18T07:39:14.123Z</time></trkpt><trkpt lat="43.693656" lon="11.3073963"><ele>112.0</ele><time>2026-04-18T07:39:15.124Z</time></trkpt><trkpt lat="43.6935153" lon="11.3075095"><ele>113.0</ele><time>2026-04-18T07:39:16.123Z</time></trkpt><trkpt lat="43.6933751" lon="11.3076256"><ele>113.0</ele><time>2026-04-18T07:39:17.123Z</time></trkpt><trkpt lat="43.6932354" lon="11.3077405"><ele>113.0</ele><time>2026-04-18T07:39:18.124Z</time></trkpt><trkpt lat="43.6930969" lon="11.3078507"><ele>113.0</ele><time>2026-04-18T07:39:19.123Z</time></trkpt><trkpt lat="43.6929593" lon="11.3079661"><ele>113.0</ele><time>2026-04-18T07:39:20.123Z</time></trkpt><trkpt lat="43.6928155" lon="11.3080689"><ele>113.0</ele><time>2026-04-18T07:39:21.123Z</time></trkpt><trkpt lat="43.6926675" lon="11.3081622"><ele>113.0</ele><time>2026-04-18T07:39:22.123Z</time></trkpt><trkpt lat="43.6925152" lon="11.3082439"><ele>113.66666666666666</ele><time>2026-04-18T07:39:23.124Z</time></trkpt><trkpt lat="43.6923649" lon="11.3083162"><ele>114.33333333333334</ele><time>2026-04-18T07:39:24.123Z</time></trkpt><trkpt lat="43.6922152" lon="11.3083875"><ele>115.0</ele><time>2026-04-18T07:39:25.123Z</time></trkpt><trkpt lat="43.692073" lon="11.3084644"><ele>115.0</ele><time>2026-04-18T07:39:26.123Z</time></trkpt><trkpt lat="43.6919382" lon="11.3085488"><ele>115.0</ele><time>2026-04-18T07:39:27.123Z</time></trkpt><trkpt lat="43.6918184" lon="11.3086459"><ele>115.0</ele><time>2026-04-18T07:39:28.124Z</time></trkpt><trkpt lat="43.6917112" lon="11.308754"><ele>115.0</ele><time>2026-04-18T07:39:29.123Z</time></trkpt><trkpt lat="43.6916176" lon="11.308866"><ele>114.83333333333334</ele><time>2026-04-18T07:39:30.124Z</time></trkpt><trkpt lat="43.6915348" lon="11.3089567"><ele>114.66666666666667</ele><time>2026-04-18T07:39:31.123Z</time></trkpt><trkpt lat="43.6914655" lon="11.3090225"><ele>114.5</ele><time>2026-04-18T07:39:32.123Z</time></trkpt><trkpt lat="43.6914104" lon="11.3090764"><ele>114.33333333333334</ele><time>2026-04-18T07:39:33.124Z</time></trkpt><trkpt lat="43.6913745" lon="11.3091894"><ele>114.16666666666667</ele><time>2026-04-18T07:39:35.123Z</time></trkpt><trkpt lat="43.6913717" lon="11.3093004"><ele>114.0</ele><time>2026-04-18T07:39:37.123Z</time></trkpt><trkpt lat="43.6913744" lon="11.3093911"><ele>114.0</ele><time>2026-04-18T07:39:39.123Z</time></trkpt><trkpt lat="43.6914079" lon="11.3095545"><ele>114.0</ele><time>2026-04-18T07:39:50.123Z</time></trkpt><trkpt lat="43.6914129" lon="11.3096502"><ele>114.0</ele><time>2026-04-18T07:39:51.123Z</time></trkpt><trkpt lat="43.6914128" lon="11.3097721"><ele>114.0</ele><time>2026-04-18T07:39:52.123Z</time></trkpt><trkpt lat="43.6913961" lon="11.3099267"><ele>114.0</ele><time>2026-04-18T07:39:53.123Z</time></trkpt><trkpt lat="43.6913629" lon="11.3100923"><ele>114.25</ele><time>2026-04-18T07:39:54.124Z</time></trkpt><trkpt lat="43.6913289" lon="11.3102719"><ele>114.5</ele><time>2026-04-18T07:39:55.123Z</time></trkpt><trkpt lat="43.6913019" lon="11.3104384"><ele>114.75</ele><time>2026-04-18T07:39:56.123Z</time></trkpt><trkpt lat="43.6912683" lon="11.3105874"><ele>115.0</ele><time>2026-04-18T07:39:57.123Z</time></trkpt><trkpt lat="43.691217" lon="11.3107218"><ele>115.25</ele><time>2026-04-18T07:39:58.123Z</time></trkpt><trkpt lat="43.6911493" lon="11.3108601"><ele>115.5</ele><time>2026-04-18T07:39:59.123Z</time></trkpt><trkpt lat="43.691068" lon="11.3109769"><ele>115.75</ele><time>2026-04-18T07:40:00.123Z</time></trkpt><trkpt lat="43.6909766" lon="11.3110945"><ele>116.0</ele><time>2026-04-18T07:40:01.124Z</time></trkpt><trkpt lat="43.6908907" lon="11.3112086"><ele>117.5</ele><time>2026-04-18T07:40:02.123Z</time></trkpt><trkpt lat="43.6907762" lon="11.3113391"><ele>119.0</ele><time>2026-04-18T07:40:03.123Z</time></trkpt><trkpt lat="43.6906807" lon="11.3114629"><ele>120.5</ele><time>2026-04-18T07:40:04.123Z</time></trkpt><trkpt lat="43.6905969" lon="11.3115866"><ele>122.0</ele><time>2026-04-18T07:40:05.123Z</time></trkpt><trkpt lat="43.6905091" lon="11.3116962"><ele>122.0</ele><time>2026-04-18T07:40:06.123Z</time></trkpt><trkpt lat="43.6904299" lon="11.3118329"><ele>122.0</ele><time>2026-04-18T07:40:07.124Z</time></trkpt><trkpt lat="43.6903443" lon="11.3119746"><ele>122.0</ele><time>2026-04-18T07:40:08.124Z</time></trkpt><trkpt lat="43.6902774" lon="11.3120743"><ele>122.0</ele><time>2026-04-18T07:40:09.123Z</time></trkpt><trkpt lat="43.6902051" lon="11.3121779"><ele>122.8</ele><time>2026-04-18T07:40:10.123Z</time></trkpt><trkpt lat="43.6901275" lon="11.3122916"><ele>123.6</ele><time>2026-04-18T07:40:11.123Z</time></trkpt><trkpt lat="43.6900523" lon="11.3124043"><ele>124.39999999999999</ele><time>2026-04-18T07:40:12.123Z</time></trkpt><trkpt lat="43.6899836" lon="11.3124804"><ele>125.19999999999999</ele><time>2026-04-18T07:40:13.123Z</time></trkpt><trkpt lat="43.6898983" lon="11.3125448"><ele>126.0</ele><time>2026-04-18T07:40:14.123Z</time></trkpt><trkpt lat="43.6897878" lon="11.3126228"><ele>126.0</ele><time>2026-04-18T07:40:15.123Z</time></trkpt><trkpt lat="43.6896758" lon="11.312708"><ele>126.0</ele><time>2026-04-18T07:40:16.123Z</time></trkpt><trkpt lat="43.6895707" lon="11.3127975"><ele>126.0</ele><time>2026-04-18T07:40:17.123Z</time></trkpt><trkpt lat="43.6894825" lon="11.3128942"><ele>126.0</ele><time>2026-04-18T07:40:18.124Z</time></trkpt><trkpt lat="43.6894053" lon="11.3129967"><ele>126.0</ele><time>2026-04-18T07:40:19.124Z</time></trkpt><trkpt lat="43.6893224" lon="11.3131062"><ele>126.0</ele><time>2026-04-18T07:40:20.124Z</time></trkpt><trkpt lat="43.6892353" lon="11.3132175"><ele>126.0</ele><time>2026-04-18T07:40:21.123Z</time></trkpt><trkpt lat="43.6891549" lon="11.3133046"><ele>126.0</ele><time>2026-04-18T07:40:22.123Z</time></trkpt><trkpt lat="43.6890948" lon="11.3133597"><ele>126.0</ele><time>2026-04-18T07:40:23.124Z</time></trkpt><trkpt lat="43.6890289" lon="11.3134002"><ele>126.0</ele><time>2026-04-18T07:40:24.123Z</time></trkpt><trkpt lat="43.6889417" lon="11.313428"><ele>126.0</ele><time>2026-04-18T07:40:25.123Z</time></trkpt><trkpt lat="43.6888339" lon="11.3134463"><ele>126.0</ele><time>2026-04-18T07:40:26.123Z</time></trkpt><trkpt lat="43.6887202" lon="11.3134529"><ele>126.0</ele><time>2026-04-18T07:40:27.123Z</time></trkpt><trkpt lat="43.6886225" lon="11.3134574"><ele>126.0</ele><time>2026-04-18T07:40:28.123Z</time></trkpt><trkpt lat="43.6885452" lon="11.3134682"><ele>127.19999999999999</ele><time>2026-04-18T07:40:29.122Z</time></trkpt><trkpt lat="43.6884658" lon="11.3134957"><ele>128.39999999999998</ele><time>2026-04-18T07:40:30.123Z</time></trkpt><trkpt lat="43.6883605" lon="11.3135616"><ele>129.6</ele><time>2026-04-18T07:40:31.123Z</time></trkpt><trkpt lat="43.6882532" lon="11.3136133"><ele>130.79999999999998</ele><time>2026-04-18T07:40:32.124Z</time></trkpt><trkpt lat="43.6881395" lon="11.3136203"><ele>132.0</ele><time>2026-04-18T07:40:33.124Z</time></trkpt><trkpt lat="43.6880105" lon="11.313608"><ele>132.0</ele><time>2026-04-18T07:40:34.124Z</time></trkpt><trkpt lat="43.6878711" lon="11.3136174"><ele>132.0</ele><time>2026-04-18T07:40:35.123Z</time></trkpt><trkpt lat="43.6877353" lon="11.3136421"><ele>132.0</ele><time>2026-04-18T07:40:36.123Z</time></trkpt><trkpt lat="43.6876167" lon="11.313669"><ele>132.0</ele><time>2026-04-18T07:40:37.123Z</time></trkpt><trkpt lat="43.6875057" lon="11.3137239"><ele>133.0</ele><time>2026-04-18T07:40:38.123Z</time></trkpt><trkpt lat="43.6873834" lon="11.313799"><ele>134.0</ele><time>2026-04-18T07:40:39.123Z</time></trkpt><trkpt lat="43.6872758" lon="11.3138525"><ele>135.0</ele><time>2026-04-18T07:40:40.123Z</time></trkpt><trkpt lat="43.6871854" lon="11.3138778"><ele>136.0</ele><time>2026-04-18T07:40:41.123Z</time></trkpt><trkpt lat="43.687113" lon="11.3139073"><ele>137.0</ele><time>2026-04-18T07:40:42.123Z</time></trkpt><trkpt lat="43.6870582" lon="11.3139857"><ele>136.5</ele><time>2026-04-18T07:40:44.123Z</time></trkpt><trkpt lat="43.6870074" lon="11.3140547"><ele>136.0</ele><time>2026-04-18T07:40:52.123Z</time></trkpt><trkpt lat="43.686937" lon="11.3140695"><ele>135.5</ele><time>2026-04-18T07:40:55.124Z</time></trkpt><trkpt lat="43.6868306" lon="11.3140167"><ele>135.0</ele><time>2026-04-18T07:40:57.123Z</time></trkpt><trkpt lat="43.6867668" lon="11.3139654"><ele>134.5</ele><time>2026-04-18T07:40:58.122Z</time></trkpt><trkpt lat="43.6866788" lon="11.3138994"><ele>134.0</ele><time>2026-04-18T07:40:59.123Z</time></trkpt><trkpt lat="43.6865739" lon="11.3138234"><ele>134.0</ele><time>2026-04-18T07:41:00.124Z</time></trkpt><trkpt lat="43.6864727" lon="11.3137519"><ele>134.0</ele><time>2026-04-18T07:41:01.123Z</time></trkpt><trkpt lat="43.6863771" lon="11.3137071"><ele>134.0</ele><time>2026-04-18T07:41:02.123Z</time></trkpt><trkpt lat="43.6862758" lon="11.3136691"><ele>134.0</ele><time>2026-04-18T07:41:03.123Z</time></trkpt><trkpt lat="43.6861839" lon="11.3136425"><ele>134.0</ele><time>2026-04-18T07:41:04.124Z</time></trkpt><trkpt lat="43.6860962" lon="11.3136309"><ele>133.4</ele><time>2026-04-18T07:41:05.123Z</time></trkpt><trkpt lat="43.6860122" lon="11.3136348"><ele>132.8</ele><time>2026-04-18T07:41:06.124Z</time></trkpt><trkpt lat="43.6859177" lon="11.3136397"><ele>132.2</ele><time>2026-04-18T07:41:07.123Z</time></trkpt><trkpt lat="43.6858156" lon="11.3136479"><ele>131.6</ele><time>2026-04-18T07:41:08.123Z</time></trkpt><trkpt lat="43.6857071" lon="11.3136497"><ele>131.0</ele><time>2026-04-18T07:41:09.123Z</time></trkpt><trkpt lat="43.6856014" lon="11.3136444"><ele>131.0</ele><time>2026-04-18T07:41:10.124Z</time></trkpt><trkpt lat="43.6854959" lon="11.3136328"><ele>131.0</ele><time>2026-04-18T07:41:11.123Z</time></trkpt><trkpt lat="43.6853892" lon="11.3136154"><ele>131.0</ele><time>2026-04-18T07:41:12.124Z</time></trkpt><trkpt lat="43.6852932" lon="11.3136042"><ele>131.0</ele><time>2026-04-18T07:41:13.123Z</time></trkpt><trkpt lat="43.6851932" lon="11.3136095"><ele>131.0</ele><time>2026-04-18T07:41:14.123Z</time></trkpt><trkpt lat="43.6850865" lon="11.3136164"><ele>131.25</ele><time>2026-04-18T07:41:15.123Z</time></trkpt><trkpt lat="43.6849721" lon="11.313608"><ele>131.5</ele><time>2026-04-18T07:41:16.124Z</time></trkpt><trkpt lat="43.6848486" lon="11.3136163"><ele>131.75</ele><time>2026-04-18T07:41:17.124Z</time></trkpt><trkpt lat="43.6847067" lon="11.3136459"><ele>132.0</ele><time>2026-04-18T07:41:18.122Z</time></trkpt><trkpt lat="43.6845683" lon="11.3136724"><ele>132.0</ele><time>2026-04-18T07:41:19.123Z</time></trkpt><trkpt lat="43.6844419" lon="11.3136886"><ele>132.0</ele><time>2026-04-18T07:41:20.124Z</time></trkpt><trkpt lat="43.6843262" lon="11.3136926"><ele>132.0</ele><time>2026-04-18T07:41:21.124Z</time></trkpt><trkpt lat="43.6842317" lon="11.3136948"><ele>132.0</ele><time>2026-04-18T07:41:22.124Z</time></trkpt><trkpt lat="43.6841531" lon="11.3137031"><ele>132.0</ele><time>2026-04-18T07:41:23.123Z</time></trkpt><trkpt lat="43.6840658" lon="11.3137181"><ele>132.4</ele><time>2026-04-18T07:41:25.124Z</time></trkpt><trkpt lat="43.6839716" lon="11.313756"><ele>132.79999999999998</ele><time>2026-04-18T07:41:28.123Z</time></trkpt><trkpt lat="43.6838336" lon="11.3138253"><ele>133.2</ele><time>2026-04-18T07:41:30.123Z</time></trkpt><trkpt lat="43.6837464" lon="11.3138671"><ele>133.6</ele><time>2026-04-18T07:41:31.123Z</time></trkpt><trkpt lat="43.6836486" lon="11.3139071"><ele>134.0</ele><time>2026-04-18T07:41:32.123Z</time></trkpt><trkpt lat="43.6835521" lon="11.3139485"><ele>134.2</ele><time>2026-04-18T07:41:33.123Z</time></trkpt><trkpt lat="43.6834528" lon="11.3139995"><ele>134.4</ele><time>2026-04-18T07:41:34.124Z</time></trkpt><trkpt lat="43.6833432" lon="11.3140503"><ele>134.6</ele><time>2026-04-18T07:41:35.124Z</time></trkpt><trkpt lat="43.683231" lon="11.31409"><ele>134.8</ele><time>2026-04-18T07:41:36.123Z</time></trkpt><trkpt lat="43.6831251" lon="11.3141247"><ele>135.0</ele><time>2026-04-18T07:41:37.124Z</time></trkpt><trkpt lat="43.6830279" lon="11.3141659"><ele>135.0</ele><time>2026-04-18T07:41:38.123Z</time></trkpt><trkpt lat="43.6829412" lon="11.3142119"><ele>135.0</ele><time>2026-04-18T07:41:39.123Z</time></trkpt><trkpt lat="43.6828626" lon="11.3142582"><ele>135.0</ele><time>2026-04-18T07:41:40.124Z</time></trkpt><trkpt lat="43.682789" lon="11.3143171"><ele>135.0</ele><time>2026-04-18T07:41:41.123Z</time></trkpt><trkpt lat="43.6827161" lon="11.3143747"><ele>135.0</ele><time>2026-04-18T07:41:42.123Z</time></trkpt><trkpt lat="43.6826308" lon="11.3144278"><ele>135.0</ele><time>2026-04-18T07:41:43.123Z</time></trkpt><trkpt lat="43.6825425" lon="11.3144828"><ele>136.0</ele><time>2026-04-18T07:41:44.124Z</time></trkpt><trkpt lat="43.6824689" lon="11.3145362"><ele>137.0</ele><time>2026-04-18T07:41:45.123Z</time></trkpt><trkpt lat="43.6824506" lon="11.3146439"><ele>138.0</ele><time>2026-04-18T07:41:48.123Z</time></trkpt><trkpt lat="43.6824708" lon="11.3147469"><ele>139.0</ele><time>2026-04-18T07:41:56.123Z</time></trkpt><trkpt lat="43.6824937" lon="11.3149213"><ele>140.0</ele><time>2026-04-18T07:41:59.124Z</time></trkpt><trkpt lat="43.6825076" lon="11.3150109"><ele>141.0</ele><time>2026-04-18T07:42:00.123Z</time></trkpt><trkpt lat="43.6825376" lon="11.3151628"><ele>141.5</ele><time>2026-04-18T07:42:02.123Z</time></trkpt><trkpt lat="43.6825076" lon="11.3152713"><ele>142.0</ele><time>2026-04-18T07:42:05.124Z</time></trkpt><trkpt lat="43.6824621" lon="11.3153546"><ele>142.5</ele><time>2026-04-18T07:42:13.124Z</time></trkpt><trkpt lat="43.6824487" lon="11.3154572"><ele>143.0</ele><time>2026-04-18T07:42:18.123Z</time></trkpt><trkpt lat="43.6823778" lon="11.3154813"><ele>143.5</ele><time>2026-04-18T07:42:23.123Z</time></trkpt><trkpt lat="43.6823259" lon="11.3155759"><ele>144.0</ele><time>2026-04-18T07:42:27.123Z</time></trkpt><trkpt lat="43.6822757" lon="11.3156888"><ele>146.0</ele><time>2026-04-18T07:42:29.123Z</time></trkpt><trkpt lat="43.6822557" lon="11.3158419"><ele>148.0</ele><time>2026-04-18T07:42:31.124Z</time></trkpt><trkpt lat="43.6822735" lon="11.3159788"><ele>150.0</ele><time>2026-04-18T07:42:33.124Z</time></trkpt><trkpt lat="43.6823706" lon="11.3160075"><ele>152.0</ele><time>2026-04-18T07:42:35.123Z</time></trkpt><trkpt lat="43.6824314" lon="11.3160791"><ele>154.0</ele><time>2026-04-18T07:42:37.124Z</time></trkpt><trkpt lat="43.682464" lon="11.3161581"><ele>154.0</ele><time>2026-04-18T07:42:39.123Z</time></trkpt><trkpt lat="43.6824411" lon="11.3162633"><ele>154.0</ele><time>2026-04-18T07:42:41.123Z</time></trkpt><trkpt lat="43.6824674" lon="11.3163734"><ele>154.0</ele><time>2026-04-18T07:42:44.056Z</time></trkpt><trkpt lat="43.6825009" lon="11.3164679"><ele>154.0</ele><time>2026-04-18T07:42:46.122Z</time></trkpt><trkpt lat="43.6825393" lon="11.3165765"><ele>154.0</ele><time>2026-04-18T07:42:48.122Z</time></trkpt><trkpt lat="43.6826152" lon="11.3166092"><ele>154.0</ele><time>2026-04-18T07:42:50.122Z</time></trkpt><trkpt lat="43.6826844" lon="11.3165842"><ele>156.16666666666669</ele><time>2026-04-18T07:42:52.089Z</time></trkpt><trkpt lat="43.6827649" lon="11.3165906"><ele>158.33333333333334</ele><time>2026-04-18T07:42:55.081Z</time></trkpt><trkpt lat="43.6827819" lon="11.3166761"><ele>160.5</ele><time>2026-04-18T07:42:58.032Z</time></trkpt><trkpt lat="43.6827331" lon="11.3167408"><ele>162.66666666666666</ele><time>2026-04-18T07:43:02.122Z</time></trkpt><trkpt lat="43.68276" lon="11.3168264"><ele>164.83333333333331</ele><time>2026-04-18T07:43:05.123Z</time></trkpt><trkpt lat="43.6827848" lon="11.3169283"><ele>167.0</ele><time>2026-04-18T07:43:29.122Z</time></trkpt><trkpt lat="43.6827675" lon="11.3170758"><ele>167.0</ele><time>2026-04-18T07:43:31.122Z</time></trkpt><trkpt lat="43.682698" lon="11.3171591"><ele>167.0</ele><time>2026-04-18T07:43:33.122Z</time></trkpt><trkpt lat="43.6826447" lon="11.3172217"><ele>167.0</ele><time>2026-04-18T07:43:34.122Z</time></trkpt><trkpt lat="43.6825579" lon="11.3172951"><ele>167.0</ele><time>2026-04-18T07:43:36.122Z</time></trkpt><trkpt lat="43.6824618" lon="11.3173537"><ele>167.0</ele><time>2026-04-18T07:43:38.123Z</time></trkpt><trkpt lat="43.6823933" lon="11.3174725"><ele>169.6</ele><time>2026-04-18T07:43:40.122Z</time></trkpt><trkpt lat="43.682343" lon="11.3175976"><ele>172.2</ele><time>2026-04-18T07:43:42.122Z</time></trkpt><trkpt lat="43.6822917" lon="11.3176607"><ele>174.8</ele><time>2026-04-18T07:43:43.122Z</time></trkpt><trkpt lat="43.6822007" lon="11.3177113"><ele>177.4</ele><time>2026-04-18T07:43:45.122Z</time></trkpt><trkpt lat="43.6820976" lon="11.3177728"><ele>180.0</ele><time>2026-04-18T07:43:47.122Z</time></trkpt><trkpt lat="43.682033" lon="11.3178071"><ele>180.0</ele><time>2026-04-18T07:43:48.122Z</time></trkpt><trkpt lat="43.6819532" lon="11.3177982"><ele>180.0</ele><time>2026-04-18T07:43:49.123Z</time></trkpt><trkpt lat="43.6818743" lon="11.3178052"><ele>180.0</ele><time>2026-04-18T07:43:50.122Z</time></trkpt><trkpt lat="43.6817817" lon="11.3178527"><ele>180.0</ele><time>2026-04-18T07:43:51.123Z</time></trkpt><trkpt lat="43.6817046" lon="11.3178857"><ele>180.0</ele><time>2026-04-18T07:43:52.123Z</time></trkpt><trkpt lat="43.6816457" lon="11.3179215"><ele>180.0</ele><time>2026-04-18T07:43:53.123Z</time></trkpt><trkpt lat="43.681581" lon="11.3179653"><ele>179.5</ele><time>2026-04-18T07:43:55.122Z</time></trkpt><trkpt lat="43.6815121" lon="11.3180292"><ele>179.0</ele><time>2026-04-18T07:44:04.123Z</time></trkpt><trkpt lat="43.6814614" lon="11.3180817"><ele>178.5</ele><time>2026-04-18T07:44:11.122Z</time></trkpt><trkpt lat="43.6814182" lon="11.3181845"><ele>178.0</ele><time>2026-04-18T07:44:13.123Z</time></trkpt><trkpt lat="43.6813697" lon="11.3183338"><ele>177.5</ele><time>2026-04-18T07:44:15.123Z</time></trkpt><trkpt lat="43.6813517" lon="11.3184203"><ele>177.0</ele><time>2026-04-18T07:44:16.122Z</time></trkpt><trkpt lat="43.6813249" lon="11.3185304"><ele>178.16666666666666</ele><time>2026-04-18T07:44:17.122Z</time></trkpt><trkpt lat="43.6812998" lon="11.3186374"><ele>179.33333333333334</ele><time>2026-04-18T07:44:18.122Z</time></trkpt><trkpt lat="43.6812704" lon="11.318757"><ele>180.5</ele><time>2026-04-18T07:44:19.122Z</time></trkpt><trkpt lat="43.6812608" lon="11.3188703"><ele>181.66666666666669</ele><time>2026-04-18T07:44:20.122Z</time></trkpt><trkpt lat="43.6812601" lon="11.3189787"><ele>182.83333333333334</ele><time>2026-04-18T07:44:21.122Z</time></trkpt><trkpt lat="43.6812418" lon="11.3190907"><ele>184.0</ele><time>2026-04-18T07:44:22.122Z</time></trkpt><trkpt lat="43.6812283" lon="11.3192086"><ele>184.33333333333334</ele><time>2026-04-18T07:44:23.123Z</time></trkpt><trkpt lat="43.681205" lon="11.3193243"><ele>184.66666666666669</ele><time>2026-04-18T07:44:24.122Z</time></trkpt><trkpt lat="43.6811844" lon="11.3194283"><ele>185.0</ele><time>2026-04-18T07:44:25.122Z</time></trkpt><trkpt lat="43.6811704" lon="11.3195192"><ele>185.33333333333334</ele><time>2026-04-18T07:44:26.122Z</time></trkpt><trkpt lat="43.6811512" lon="11.3196077"><ele>185.66666666666666</ele><time>2026-04-18T07:44:27.122Z</time></trkpt><trkpt lat="43.6811249" lon="11.3197077"><ele>186.0</ele><time>2026-04-18T07:44:28.122Z</time></trkpt><trkpt lat="43.6810956" lon="11.3198159"><ele>183.16666666666666</ele><time>2026-04-18T07:44:29.122Z</time></trkpt><trkpt lat="43.6810791" lon="11.3199427"><ele>180.33333333333334</ele><time>2026-04-18T07:44:31.122Z</time></trkpt><trkpt lat="43.6810574" lon="11.3200459"><ele>177.5</ele><time>2026-04-18T07:44:32.122Z</time></trkpt><trkpt lat="43.6810428" lon="11.3201396"><ele>174.66666666666669</ele><time>2026-04-18T07:44:33.122Z</time></trkpt><trkpt lat="43.6810356" lon="11.3202767"><ele>171.83333333333334</ele><time>2026-04-18T07:44:35.122Z</time></trkpt><trkpt lat="43.6810141" lon="11.3203676"><ele>169.0</ele><time>2026-04-18T07:44:36.123Z</time></trkpt><trkpt lat="43.6810081" lon="11.3205167"><ele>169.0</ele><time>2026-04-18T07:44:38.122Z</time></trkpt><trkpt lat="43.6809839" lon="11.3206152"><ele>169.0</ele><time>2026-04-18T07:44:40.122Z</time></trkpt><trkpt lat="43.6809323" lon="11.3207221"><ele>169.0</ele><time>2026-04-18T07:44:43.122Z</time></trkpt><trkpt lat="43.6808723" lon="11.3207555"><ele>169.0</ele><time>2026-04-18T07:44:46.123Z</time></trkpt><trkpt lat="43.6808" lon="11.3206958"><ele>169.0</ele><time>2026-04-18T07:44:49.122Z</time></trkpt><trkpt lat="43.6807587" lon="11.3206294"><ele>169.0</ele><time>2026-04-18T07:44:50.122Z</time></trkpt><trkpt lat="43.6807063" lon="11.3205067"><ele>169.0</ele><time>2026-04-18T07:44:52.122Z</time></trkpt><trkpt lat="43.6807054" lon="11.3204106"><ele>169.0</ele><time>2026-04-18T07:44:53.122Z</time></trkpt><trkpt lat="43.6806727" lon="11.3202921"><ele>169.0</ele><time>2026-04-18T07:44:55.123Z</time></trkpt><trkpt lat="43.680639" lon="11.3202104"><ele>169.0</ele><time>2026-04-18T07:44:57.123Z</time></trkpt><trkpt lat="43.6806278" lon="11.3200931"><ele>169.0</ele><time>2026-04-18T07:45:00.122Z</time></trkpt><trkpt lat="43.6805671" lon="11.3200521"><ele>169.0</ele><time>2026-04-18T07:45:23.122Z</time></trkpt><trkpt lat="43.6804851" lon="11.3200245"><ele>169.0</ele><time>2026-04-18T07:45:26.123Z</time></trkpt><trkpt lat="43.680422" lon="11.3199979"><ele>169.0</ele><time>2026-04-18T07:45:31.123Z</time></trkpt><trkpt lat="43.6804121" lon="11.3198918"><ele>169.0</ele><time>2026-04-18T07:46:00.122Z</time></trkpt><trkpt lat="43.6803511" lon="11.3198164"><ele>169.0</ele><time>2026-04-18T07:46:03.122Z</time></trkpt><trkpt lat="43.6802653" lon="11.3198133"><ele>169.0</ele><time>2026-04-18T07:46:06.122Z</time></trkpt><trkpt lat="43.6802187" lon="11.3199262"><ele>169.0</ele><time>2026-04-18T07:46:09.122Z</time></trkpt><trkpt lat="43.6801356" lon="11.3200075"><ele>170.33333333333334</ele><time>2026-04-18T07:46:11.123Z</time></trkpt><trkpt lat="43.6800682" lon="11.3200637"><ele>171.66666666666669</ele><time>2026-04-18T07:53:38.123Z</time></trkpt><trkpt lat="43.6800154" lon="11.3201735"><ele>173.0</ele><time>2026-04-18T07:53:40.122Z</time></trkpt><trkpt lat="43.6799866" lon="11.3202785"><ele>174.33333333333334</ele><time>2026-04-18T07:53:41.123Z</time></trkpt><trkpt lat="43.6799516" lon="11.3203948"><ele>175.66666666666666</ele><time>2026-04-18T07:53:42.123Z</time></trkpt><trkpt lat="43.6799135" lon="11.3205028"><ele>177.0</ele><time>2026-04-18T07:53:43.122Z</time></trkpt><trkpt lat="43.6798724" lon="11.3205923"><ele>178.2</ele><time>2026-04-18T07:53:44.122Z</time></trkpt><trkpt lat="43.6798406" lon="11.3206771"><ele>179.39999999999998</ele><time>2026-04-18T07:53:45.122Z</time></trkpt><trkpt lat="43.6797869" lon="11.3207237"><ele>180.60000000000002</ele><time>2026-04-18T07:53:46.122Z</time></trkpt><trkpt lat="43.6796953" lon="11.3208406"><ele>181.8</ele><time>2026-04-18T07:53:48.123Z</time></trkpt><trkpt lat="43.6796144" lon="11.320933"><ele>183.0</ele><time>2026-04-18T07:53:50.122Z</time></trkpt><trkpt lat="43.6795355" lon="11.321044"><ele>186.4</ele><time>2026-04-18T07:53:52.122Z</time></trkpt><trkpt lat="43.6794214" lon="11.3211308"><ele>189.8</ele><time>2026-04-18T07:53:54.122Z</time></trkpt><trkpt lat="43.6793316" lon="11.3211653"><ele>193.2</ele><time>2026-04-18T07:53:56.122Z</time></trkpt><trkpt lat="43.6792522" lon="11.3211324"><ele>196.6</ele><time>2026-04-18T07:53:58.122Z</time></trkpt><trkpt lat="43.6791271" lon="11.3210895"><ele>200.0</ele><time>2026-04-18T07:54:00.122Z</time></trkpt><trkpt lat="43.6790497" lon="11.3211463"><ele>200.00000000000003</ele><time>2026-04-18T07:54:02.123Z</time></trkpt><trkpt lat="43.6789712" lon="11.3211736"><ele>200.0</ele><time>2026-04-18T07:54:04.122Z</time></trkpt><trkpt lat="43.6789095" lon="11.3212498"><ele>200.0</ele><time>2026-04-18T07:54:06.122Z</time></trkpt><trkpt lat="43.6788255" lon="11.3213022"><ele>200.0</ele><time>2026-04-18T07:54:08.122Z</time></trkpt><trkpt lat="43.6787486" lon="11.3213576"><ele>200.00000000000003</ele><time>2026-04-18T07:54:10.122Z</time></trkpt><trkpt lat="43.6786674" lon="11.3214126"><ele>200.0</ele><time>2026-04-18T07:54:12.123Z</time></trkpt><trkpt lat="43.6785997" lon="11.3214394"><ele>201.66666666666669</ele><time>2026-04-18T07:54:14.123Z</time></trkpt><trkpt lat="43.6785546" lon="11.321567"><ele>203.33333333333334</ele><time>2026-04-18T07:54:19.128Z</time></trkpt><trkpt lat="43.6784836" lon="11.3215956"><ele>205.0</ele><time>2026-04-18T07:54:25.123Z</time></trkpt><trkpt lat="43.6784376" lon="11.3216673"><ele>206.66666666666669</ele><time>2026-04-18T07:54:29.122Z</time></trkpt><trkpt lat="43.6784616" lon="11.321773"><ele>208.33333333333334</ele><time>2026-04-18T07:54:32.122Z</time></trkpt><trkpt lat="43.678462" lon="11.3219141"><ele>210.0</ele><time>2026-04-18T07:54:35.122Z</time></trkpt><trkpt lat="43.678458" lon="11.3220426"><ele>210.0</ele><time>2026-04-18T07:54:37.123Z</time></trkpt><trkpt lat="43.6784394" lon="11.3221743"><ele>210.0</ele><time>2026-04-18T07:54:39.122Z</time></trkpt><trkpt lat="43.6785142" lon="11.3223532"><ele>210.0</ele><time>2026-04-18T07:54:41.122Z</time></trkpt><trkpt lat="43.6785556" lon="11.3224569"><ele>210.0</ele><time>2026-04-18T07:54:42.122Z</time></trkpt><trkpt lat="43.678582" lon="11.3225409"><ele>210.0</ele><time>2026-04-18T07:54:43.122Z</time></trkpt><trkpt lat="43.6786199" lon="11.32263"><ele>210.6</ele><time>2026-04-18T07:54:45.123Z</time></trkpt><trkpt lat="43.6786907" lon="11.322712"><ele>211.2</ele><time>2026-04-18T07:54:47.122Z</time></trkpt><trkpt lat="43.6787546" lon="11.3227812"><ele>211.8</ele><time>2026-04-18T07:54:49.123Z</time></trkpt><trkpt lat="43.6787894" lon="11.3229163"><ele>212.4</ele><time>2026-04-18T07:54:51.122Z</time></trkpt><trkpt lat="43.6788329" lon="11.3230592"><ele>213.0</ele><time>2026-04-18T07:54:53.121Z</time></trkpt><trkpt lat="43.6788521" lon="11.3232279"><ele>214.0</ele><time>2026-04-18T07:54:55.122Z</time></trkpt><trkpt lat="43.6788543" lon="11.3233169"><ele>215.0</ele><time>2026-04-18T07:54:56.121Z</time></trkpt><trkpt lat="43.6788565" lon="11.3234318"><ele>216.0</ele><time>2026-04-18T07:54:57.123Z</time></trkpt><trkpt lat="43.6788689" lon="11.3235684"><ele>217.0</ele><time>2026-04-18T07:54:58.123Z</time></trkpt><trkpt lat="43.6788835" lon="11.323723"><ele>218.0</ele><time>2026-04-18T07:54:59.122Z</time></trkpt><trkpt lat="43.6788977" lon="11.3238667"><ele>218.2</ele><time>2026-04-18T07:55:00.122Z</time></trkpt><trkpt lat="43.6788795" lon="11.3239885"><ele>218.4</ele><time>2026-04-18T07:55:01.121Z</time></trkpt><trkpt lat="43.6788752" lon="11.3241195"><ele>218.59999999999997</ele><time>2026-04-18T07:55:02.122Z</time></trkpt><trkpt lat="43.6788813" lon="11.3242626"><ele>218.79999999999998</ele><time>2026-04-18T07:55:03.122Z</time></trkpt><trkpt lat="43.678889" lon="11.3243898"><ele>219.0</ele><time>2026-04-18T07:55:04.122Z</time></trkpt><trkpt lat="43.6788961" lon="11.3244956"><ele>219.0</ele><time>2026-04-18T07:55:05.122Z</time></trkpt><trkpt lat="43.6789262" lon="11.3245974"><ele>219.0</ele><time>2026-04-18T07:55:06.123Z</time></trkpt><trkpt lat="43.6789523" lon="11.3247054"><ele>219.0</ele><time>2026-04-18T07:55:07.122Z</time></trkpt><trkpt lat="43.6789741" lon="11.3247929"><ele>219.0</ele><time>2026-04-18T07:55:08.122Z</time></trkpt><trkpt lat="43.6789977" lon="11.324885"><ele>219.0</ele><time>2026-04-18T07:55:09.122Z</time></trkpt><trkpt lat="43.6790097" lon="11.3249792"><ele>219.0</ele><time>2026-04-18T07:55:10.122Z</time></trkpt><trkpt lat="43.6790022" lon="11.3250741"><ele>219.0</ele><time>2026-04-18T07:55:11.122Z</time></trkpt><trkpt lat="43.6789951" lon="11.3251732"><ele>220.28571428571428</ele><time>2026-04-18T07:55:12.123Z</time></trkpt><trkpt lat="43.6789967" lon="11.3252675"><ele>221.57142857142856</ele><time>2026-04-18T07:55:13.123Z</time></trkpt><trkpt lat="43.6790088" lon="11.3253646"><ele>222.85714285714283</ele><time>2026-04-18T07:55:14.122Z</time></trkpt><trkpt lat="43.679029" lon="11.3254489"><ele>224.14285714285714</ele><time>2026-04-18T07:55:15.122Z</time></trkpt><trkpt lat="43.6790625" lon="11.3255297"><ele>225.4285714285714</ele><time>2026-04-18T07:55:16.123Z</time></trkpt><trkpt lat="43.6790976" lon="11.3256218"><ele>226.7142857142857</ele><time>2026-04-18T07:55:17.122Z</time></trkpt><trkpt lat="43.6791229" lon="11.3257087"><ele>228.0</ele><time>2026-04-18T07:55:18.122Z</time></trkpt><trkpt lat="43.6791638" lon="11.325886"><ele>230.0</ele><time>2026-04-18T07:55:20.122Z</time></trkpt><trkpt lat="43.6791759" lon="11.3260238"><ele>232.0</ele><time>2026-04-18T07:55:21.123Z</time></trkpt><trkpt lat="43.679178" lon="11.3261132"><ele>234.0</ele><time>2026-04-18T07:55:22.122Z</time></trkpt><trkpt lat="43.679184" lon="11.3262205"><ele>236.0</ele><time>2026-04-18T07:55:23.122Z</time></trkpt><trkpt lat="43.6791882" lon="11.3263453"><ele>238.0</ele><time>2026-04-18T07:55:24.123Z</time></trkpt><trkpt lat="43.6791643" lon="11.326518"><ele>239.4</ele><time>2026-04-18T07:55:26.123Z</time></trkpt><trkpt lat="43.679141" lon="11.3266124"><ele>240.8</ele><time>2026-04-18T07:55:27.122Z</time></trkpt><trkpt lat="43.6791085" lon="11.3267251"><ele>242.2</ele><time>2026-04-18T07:55:28.121Z</time></trkpt><trkpt lat="43.6791618" lon="11.3268742"><ele>243.6</ele><time>2026-04-18T07:55:30.122Z</time></trkpt><trkpt lat="43.6791877" lon="11.3270014"><ele>245.0</ele><time>2026-04-18T07:55:31.122Z</time></trkpt><trkpt lat="43.6792204" lon="11.3271235"><ele>245.6</ele><time>2026-04-18T07:55:32.123Z</time></trkpt><trkpt lat="43.6792213" lon="11.3272594"><ele>246.2</ele><time>2026-04-18T07:55:33.123Z</time></trkpt><trkpt lat="43.6792252" lon="11.3273882"><ele>246.8</ele><time>2026-04-18T07:55:34.122Z</time></trkpt><trkpt lat="43.6792015" lon="11.3275539"><ele>247.4</ele><time>2026-04-18T07:55:35.123Z</time></trkpt><trkpt lat="43.6791808" lon="11.3276977"><ele>248.0</ele><time>2026-04-18T07:55:36.123Z</time></trkpt><trkpt lat="43.6791536" lon="11.3278486"><ele>248.0</ele><time>2026-04-18T07:55:37.122Z</time></trkpt><trkpt lat="43.6791607" lon="11.3279477"><ele>248.0</ele><time>2026-04-18T07:55:38.122Z</time></trkpt><trkpt lat="43.6791697" lon="11.328131"><ele>248.0</ele><time>2026-04-18T07:55:40.123Z</time></trkpt><trkpt lat="43.679183" lon="11.3282289"><ele>248.0</ele><time>2026-04-18T07:55:41.122Z</time></trkpt><trkpt lat="43.6791826" lon="11.3283507"><ele>248.0</ele><time>2026-04-18T07:55:42.123Z</time></trkpt><trkpt lat="43.6791858" lon="11.3284733"><ele>249.00000000000003</ele><time>2026-04-18T07:55:43.122Z</time></trkpt><trkpt lat="43.6792431" lon="11.3285756"><ele>250.0</ele><time>2026-04-18T07:55:44.123Z</time></trkpt><trkpt lat="43.6792562" lon="11.3287022"><ele>251.0</ele><time>2026-04-18T07:55:45.122Z</time></trkpt><trkpt lat="43.6792868" lon="11.3288052"><ele>252.0</ele><time>2026-04-18T07:55:46.122Z</time></trkpt><trkpt lat="43.6793234" lon="11.3289076"><ele>253.00000000000003</ele><time>2026-04-18T07:55:47.123Z</time></trkpt><trkpt lat="43.6793659" lon="11.3290273"><ele>254.0</ele><time>2026-04-18T07:55:48.122Z</time></trkpt><trkpt lat="43.679414" lon="11.3291622"><ele>255.79999999999998</ele><time>2026-04-18T07:55:49.122Z</time></trkpt><trkpt lat="43.6794601" lon="11.329302"><ele>257.59999999999997</ele><time>2026-04-18T07:55:50.122Z</time></trkpt><trkpt lat="43.6795216" lon="11.3294161"><ele>259.4</ele><time>2026-04-18T07:55:51.122Z</time></trkpt><trkpt lat="43.6795673" lon="11.3295548"><ele>261.2</ele><time>2026-04-18T07:55:52.123Z</time></trkpt><trkpt lat="43.6796149" lon="11.3296972"><ele>263.0</ele><time>2026-04-18T07:55:53.123Z</time></trkpt><trkpt lat="43.6796789" lon="11.3298196"><ele>263.8</ele><time>2026-04-18T07:55:54.122Z</time></trkpt><trkpt lat="43.6797385" lon="11.3299336"><ele>264.6</ele><time>2026-04-18T07:55:55.123Z</time></trkpt><trkpt lat="43.679816" lon="11.3300522"><ele>265.4</ele><time>2026-04-18T07:55:56.122Z</time></trkpt><trkpt lat="43.6798582" lon="11.330135"><ele>266.2</ele><time>2026-04-18T07:55:57.122Z</time></trkpt><trkpt lat="43.6798895" lon="11.3302214"><ele>267.0</ele><time>2026-04-18T07:55:58.122Z</time></trkpt><trkpt lat="43.679887" lon="11.3303705"><ele>267.0</ele><time>2026-04-18T07:56:00.122Z</time></trkpt><trkpt lat="43.6799074" lon="11.3304628"><ele>267.0</ele><time>2026-04-18T07:56:02.123Z</time></trkpt><trkpt lat="43.6799762" lon="11.3304975"><ele>267.0</ele><time>2026-04-18T07:56:05.123Z</time></trkpt><trkpt lat="43.6800578" lon="11.3305623"><ele>267.0</ele><time>2026-04-18T07:56:18.122Z</time></trkpt><trkpt lat="43.6801148" lon="11.3306128"><ele>267.0</ele><time>2026-04-18T07:56:19.123Z</time></trkpt><trkpt lat="43.6801821" lon="11.3306926"><ele>267.0</ele><time>2026-04-18T07:56:20.122Z</time></trkpt><trkpt lat="43.6802574" lon="11.330807"><ele>267.5</ele><time>2026-04-18T07:56:21.122Z</time></trkpt><trkpt lat="43.6803459" lon="11.3309486"><ele>268.0</ele><time>2026-04-18T07:56:22.122Z</time></trkpt><trkpt lat="43.6804338" lon="11.3310969"><ele>268.5</ele><time>2026-04-18T07:56:23.122Z</time></trkpt><trkpt lat="43.680501" lon="11.3312046"><ele>269.0</ele><time>2026-04-18T07:56:24.122Z</time></trkpt><trkpt lat="43.6805604" lon="11.3312904"><ele>269.0</ele><time>2026-04-18T07:56:25.123Z</time></trkpt><trkpt lat="43.6806081" lon="11.3313527"><ele>269.0</ele><time>2026-04-18T07:56:26.122Z</time></trkpt><trkpt lat="43.6806556" lon="11.3314166"><ele>269.0</ele><time>2026-04-18T07:56:27.122Z</time></trkpt><trkpt lat="43.6807136" lon="11.3315072"><ele>269.0</ele><time>2026-04-18T07:56:28.123Z</time></trkpt><trkpt lat="43.6807797" lon="11.3316244"><ele>269.0</ele><time>2026-04-18T07:56:29.122Z</time></trkpt><trkpt lat="43.6808532" lon="11.3317428"><ele>269.0</ele><time>2026-04-18T07:56:30.122Z</time></trkpt><trkpt lat="43.6809161" lon="11.331853"><ele>269.0</ele><time>2026-04-18T07:56:31.123Z</time></trkpt><trkpt lat="43.6809822" lon="11.331958"><ele>269.0</ele><time>2026-04-18T07:56:32.122Z</time></trkpt><trkpt lat="43.6810517" lon="11.3320673"><ele>269.0</ele><time>2026-04-18T07:56:33.123Z</time></trkpt><trkpt lat="43.6811216" lon="11.3321798"><ele>269.0</ele><time>2026-04-18T07:56:34.122Z</time></trkpt><trkpt lat="43.6811898" lon="11.3322838"><ele>269.0</ele><time>2026-04-18T07:56:35.122Z</time></trkpt><trkpt lat="43.6812505" lon="11.3323743"><ele>269.83333333333337</ele><time>2026-04-18T07:56:36.122Z</time></trkpt><trkpt lat="43.681285" lon="11.3324547"><ele>270.6666666666667</ele><time>2026-04-18T07:56:37.122Z</time></trkpt><trkpt lat="43.6812814" lon="11.332595"><ele>271.5</ele><time>2026-04-18T07:56:39.123Z</time></trkpt><trkpt lat="43.6812422" lon="11.3326682"><ele>272.3333333333333</ele><time>2026-04-18T07:56:40.123Z</time></trkpt><trkpt lat="43.681198" lon="11.3327613"><ele>273.16666666666663</ele><time>2026-04-18T07:56:41.122Z</time></trkpt><trkpt lat="43.6811532" lon="11.3328749"><ele>274.0</ele><time>2026-04-18T07:56:42.122Z</time></trkpt><trkpt lat="43.6811011" lon="11.3330046"><ele>276.59999999999997</ele><time>2026-04-18T07:56:43.123Z</time></trkpt><trkpt lat="43.6810438" lon="11.3331466"><ele>279.2</ele><time>2026-04-18T07:56:44.122Z</time></trkpt><trkpt lat="43.6809844" lon="11.3332882"><ele>281.79999999999995</ele><time>2026-04-18T07:56:45.122Z</time></trkpt><trkpt lat="43.6809367" lon="11.3334174"><ele>284.4</ele><time>2026-04-18T07:56:46.122Z</time></trkpt><trkpt lat="43.6808795" lon="11.3335407"><ele>287.0</ele><time>2026-04-18T07:56:47.122Z</time></trkpt><trkpt lat="43.6808147" lon="11.3336751"><ele>287.0</ele><time>2026-04-18T07:56:48.122Z</time></trkpt><trkpt lat="43.6807583" lon="11.3337897"><ele>287.0</ele><time>2026-04-18T07:56:49.123Z</time></trkpt><trkpt lat="43.6806946" lon="11.3338955"><ele>287.0</ele><time>2026-04-18T07:56:50.122Z</time></trkpt><trkpt lat="43.6806209" lon="11.3340187"><ele>287.0</ele><time>2026-04-18T07:56:51.123Z</time></trkpt><trkpt lat="43.6805516" lon="11.3341493"><ele>287.0</ele><time>2026-04-18T07:56:52.122Z</time></trkpt><trkpt lat="43.68048" lon="11.3342826"><ele>288.0</ele><time>2026-04-18T07:56:53.122Z</time></trkpt><trkpt lat="43.6804129" lon="11.3343959"><ele>289.0</ele><time>2026-04-18T07:56:54.123Z</time></trkpt><trkpt lat="43.6803593" lon="11.3345064"><ele>290.0</ele><time>2026-04-18T07:56:55.122Z</time></trkpt><trkpt lat="43.680314" lon="11.334619"><ele>291.0</ele><time>2026-04-18T07:56:56.122Z</time></trkpt><trkpt lat="43.6802757" lon="11.3347213"><ele>292.0</ele><time>2026-04-18T07:56:57.123Z</time></trkpt><trkpt lat="43.6802356" lon="11.3348002"><ele>293.0</ele><time>2026-04-18T07:56:58.123Z</time></trkpt><trkpt lat="43.680179" lon="11.3348998"><ele>293.85714285714283</ele><time>2026-04-18T07:57:00.122Z</time></trkpt><trkpt lat="43.6801601" lon="11.3349922"><ele>294.7142857142857</ele><time>2026-04-18T07:57:03.122Z</time></trkpt><trkpt lat="43.6800967" lon="11.3350877"><ele>295.57142857142856</ele><time>2026-04-18T07:57:24.122Z</time></trkpt><trkpt lat="43.6800466" lon="11.3351405"><ele>296.42857142857144</ele><time>2026-04-18T07:57:25.122Z</time></trkpt><trkpt lat="43.6800075" lon="11.335215"><ele>297.2857142857143</ele><time>2026-04-18T07:57:26.122Z</time></trkpt><trkpt lat="43.6799806" lon="11.3353024"><ele>298.1428571428571</ele><time>2026-04-18T07:57:27.122Z</time></trkpt><trkpt lat="43.679975" lon="11.33539"><ele>299.0</ele><time>2026-04-18T07:57:28.122Z</time></trkpt><trkpt lat="43.6800014" lon="11.3355539"><ele>299.0</ele><time>2026-04-18T07:57:30.122Z</time></trkpt><trkpt lat="43.6800713" lon="11.3356585"><ele>299.0</ele><time>2026-04-18T07:57:32.122Z</time></trkpt><trkpt lat="43.6801334" lon="11.3356994"><ele>299.0</ele><time>2026-04-18T07:57:33.122Z</time></trkpt><trkpt lat="43.6801972" lon="11.3357359"><ele>299.0</ele><time>2026-04-18T07:57:34.123Z</time></trkpt><trkpt lat="43.6802618" lon="11.3357477"><ele>299.0</ele><time>2026-04-18T07:57:35.123Z</time></trkpt><trkpt lat="43.680341" lon="11.3357485"><ele>299.0</ele><time>2026-04-18T07:57:36.122Z</time></trkpt><trkpt lat="43.6804226" lon="11.3357369"><ele>301.5</ele><time>2026-04-18T07:57:37.122Z</time></trkpt><trkpt lat="43.6805438" lon="11.3357912"><ele>304.0</ele><time>2026-04-18T07:57:39.123Z</time></trkpt><trkpt lat="43.6806103" lon="11.3358575"><ele>306.5</ele><time>2026-04-18T07:57:40.122Z</time></trkpt><trkpt lat="43.6806782" lon="11.3359477"><ele>309.0</ele><time>2026-04-18T07:57:41.122Z</time></trkpt><trkpt lat="43.6808141" lon="11.3361547"><ele>309.0</ele><time>2026-04-18T07:57:43.123Z</time></trkpt><trkpt lat="43.6808895" lon="11.3362598"><ele>309.0</ele><time>2026-04-18T07:57:44.122Z</time></trkpt><trkpt lat="43.6809737" lon="11.3363665"><ele>309.0</ele><time>2026-04-18T07:57:45.122Z</time></trkpt><trkpt lat="43.6810598" lon="11.3364708"><ele>309.0</ele><time>2026-04-18T07:57:46.122Z</time></trkpt><trkpt lat="43.6811407" lon="11.3365815"><ele>309.2</ele><time>2026-04-18T07:57:47.122Z</time></trkpt><trkpt lat="43.6812328" lon="11.3366888"><ele>309.4</ele><time>2026-04-18T07:57:48.123Z</time></trkpt><trkpt lat="43.6813187" lon="11.3367765"><ele>309.6</ele><time>2026-04-18T07:57:49.122Z</time></trkpt><trkpt lat="43.6813983" lon="11.3368579"><ele>309.8</ele><time>2026-04-18T07:57:50.123Z</time></trkpt><trkpt lat="43.6814927" lon="11.3369256"><ele>310.0</ele><time>2026-04-18T07:57:51.123Z</time></trkpt><trkpt lat="43.6815975" lon="11.3369863"><ele>310.0</ele><time>2026-04-18T07:57:52.123Z</time></trkpt><trkpt lat="43.6817033" lon="11.3370491"><ele>310.0</ele><time>2026-04-18T07:57:53.122Z</time></trkpt><trkpt lat="43.6818019" lon="11.3371083"><ele>310.0</ele><time>2026-04-18T07:57:54.123Z</time></trkpt><trkpt lat="43.6818925" lon="11.3371646"><ele>310.0</ele><time>2026-04-18T07:57:55.122Z</time></trkpt><trkpt lat="43.6819844" lon="11.3372118"><ele>310.0</ele><time>2026-04-18T07:57:56.122Z</time></trkpt><trkpt lat="43.682082" lon="11.337251"><ele>307.8</ele><time>2026-04-18T07:57:57.123Z</time></trkpt><trkpt lat="43.6821797" lon="11.3372876"><ele>305.6</ele><time>2026-04-18T07:57:58.122Z</time></trkpt><trkpt lat="43.6822731" lon="11.3373164"><ele>303.4</ele><time>2026-04-18T07:57:59.123Z</time></trkpt><trkpt lat="43.6823497" lon="11.3373768"><ele>301.2</ele><time>2026-04-18T07:58:00.123Z</time></trkpt><trkpt lat="43.6824218" lon="11.3374519"><ele>299.0</ele><time>2026-04-18T07:58:01.122Z</time></trkpt><trkpt lat="43.6824903" lon="11.337555"><ele>299.0</ele><time>2026-04-18T07:58:02.123Z</time></trkpt><trkpt lat="43.6825583" lon="11.3376772"><ele>299.0</ele><time>2026-04-18T07:58:03.123Z</time></trkpt><trkpt lat="43.6826295" lon="11.3378085"><ele>299.0</ele><time>2026-04-18T07:58:04.122Z</time></trkpt><trkpt lat="43.6827004" lon="11.3379367"><ele>299.0</ele><time>2026-04-18T07:58:05.122Z</time></trkpt><trkpt lat="43.6827719" lon="11.3380694"><ele>295.75</ele><time>2026-04-18T07:58:06.123Z</time></trkpt><trkpt lat="43.6828467" lon="11.3382019"><ele>292.5</ele><time>2026-04-18T07:58:07.123Z</time></trkpt><trkpt lat="43.6829227" lon="11.3383367"><ele>289.25</ele><time>2026-04-18T07:58:08.122Z</time></trkpt><trkpt lat="43.682995" lon="11.3384669"><ele>286.0</ele><time>2026-04-18T07:58:09.122Z</time></trkpt><trkpt lat="43.6830597" lon="11.3385855"><ele>286.0</ele><time>2026-04-18T07:58:10.123Z</time></trkpt><trkpt lat="43.683116" lon="11.3386935"><ele>286.0</ele><time>2026-04-18T07:58:11.123Z</time></trkpt><trkpt lat="43.6831652" lon="11.3387949"><ele>286.0</ele><time>2026-04-18T07:58:12.123Z</time></trkpt><trkpt lat="43.6832089" lon="11.3388833"><ele>286.0</ele><time>2026-04-18T07:58:13.123Z</time></trkpt><trkpt lat="43.6832679" lon="11.3389942"><ele>286.0</ele><time>2026-04-18T07:58:15.122Z</time></trkpt><trkpt lat="43.6833349" lon="11.3390698"><ele>286.0</ele><time>2026-04-18T07:58:23.122Z</time></trkpt><trkpt lat="43.6833966" lon="11.3391742"><ele>286.0</ele><time>2026-04-18T07:58:25.123Z</time></trkpt><trkpt lat="43.6834702" lon="11.3393182"><ele>286.0</ele><time>2026-04-18T07:58:27.121Z</time></trkpt><trkpt lat="43.6835154" lon="11.3394024"><ele>286.0</ele><time>2026-04-18T07:58:28.123Z</time></trkpt><trkpt lat="43.6835621" lon="11.3394909"><ele>286.0</ele><time>2026-04-18T07:58:29.122Z</time></trkpt><trkpt lat="43.6836097" lon="11.3395758"><ele>286.0</ele><time>2026-04-18T07:58:30.122Z</time></trkpt><trkpt lat="43.683649" lon="11.3396557"><ele>286.0</ele><time>2026-04-18T07:58:31.123Z</time></trkpt><trkpt lat="43.683687" lon="11.339731"><ele>286.8333333333333</ele><time>2026-04-18T07:58:32.123Z</time></trkpt><trkpt lat="43.6837246" lon="11.3398052"><ele>287.66666666666663</ele><time>2026-04-18T07:58:33.122Z</time></trkpt><trkpt lat="43.6837612" lon="11.3398767"><ele>288.5</ele><time>2026-04-18T07:58:34.122Z</time></trkpt><trkpt lat="43.6838308" lon="11.3400165"><ele>289.3333333333333</ele><time>2026-04-18T07:58:36.122Z</time></trkpt><trkpt lat="43.6838953" lon="11.3401399"><ele>290.1666666666667</ele><time>2026-04-18T07:58:38.122Z</time></trkpt><trkpt lat="43.6839425" lon="11.3402101"><ele>291.0</ele><time>2026-04-18T07:58:40.123Z</time></trkpt><trkpt lat="43.6840162" lon="11.3402663"><ele>291.0</ele><time>2026-04-18T07:59:27.122Z</time></trkpt><trkpt lat="43.6840816" lon="11.3403515"><ele>291.0</ele><time>2026-04-18T07:59:29.123Z</time></trkpt><trkpt lat="43.6841297" lon="11.3404783"><ele>291.0</ele><time>2026-04-18T07:59:31.122Z</time></trkpt><trkpt lat="43.6841871" lon="11.3406145"><ele>291.0</ele><time>2026-04-18T07:59:33.122Z</time></trkpt><trkpt lat="43.6842876" lon="11.3406859"><ele>291.0</ele><time>2026-04-18T07:59:35.122Z</time></trkpt><trkpt lat="43.6843958" lon="11.3407199"><ele>294.6</ele><time>2026-04-18T07:59:37.122Z</time></trkpt><trkpt lat="43.6845117" lon="11.3407571"><ele>298.20000000000005</ele><time>2026-04-18T07:59:39.122Z</time></trkpt><trkpt lat="43.6845751" lon="11.3408352"><ele>301.79999999999995</ele><time>2026-04-18T07:59:41.121Z</time></trkpt><trkpt lat="43.6845514" lon="11.3409458"><ele>305.4</ele><time>2026-04-18T07:59:43.123Z</time></trkpt><trkpt lat="43.6845003" lon="11.3410987"><ele>309.0</ele><time>2026-04-18T07:59:45.122Z</time></trkpt><trkpt lat="43.684444" lon="11.3412547"><ele>309.0</ele><time>2026-04-18T07:59:47.123Z</time></trkpt><trkpt lat="43.6844367" lon="11.3413504"><ele>309.0</ele><time>2026-04-18T07:59:48.123Z</time></trkpt><trkpt lat="43.6844331" lon="11.3415216"><ele>309.0</ele><time>2026-04-18T07:59:50.122Z</time></trkpt><trkpt lat="43.6844325" lon="11.3416122"><ele>309.0</ele><time>2026-04-18T07:59:51.123Z</time></trkpt><trkpt lat="43.6844021" lon="11.3417838"><ele>309.0</ele><time>2026-04-18T07:59:53.123Z</time></trkpt><trkpt lat="43.6844222" lon="11.3418707"><ele>312.1666666666667</ele><time>2026-04-18T07:59:54.122Z</time></trkpt><trkpt lat="43.6844709" lon="11.3419486"><ele>315.3333333333333</ele><time>2026-04-18T07:59:55.123Z</time></trkpt><trkpt lat="43.684516" lon="11.3420202"><ele>318.5</ele><time>2026-04-18T07:59:56.122Z</time></trkpt><trkpt lat="43.68457" lon="11.3421028"><ele>321.66666666666663</ele><time>2026-04-18T07:59:57.123Z</time></trkpt><trkpt lat="43.6846253" lon="11.3421894"><ele>324.8333333333333</ele><time>2026-04-18T07:59:58.122Z</time></trkpt><trkpt lat="43.6846691" lon="11.342314"><ele>328.0</ele><time>2026-04-18T07:59:59.123Z</time></trkpt><trkpt lat="43.6847207" lon="11.3424321"><ele>332.0</ele><time>2026-04-18T08:00:00.123Z</time></trkpt><trkpt lat="43.684794" lon="11.3425393"><ele>336.0</ele><time>2026-04-18T08:00:01.122Z</time></trkpt><trkpt lat="43.6848411" lon="11.3426534"><ele>340.0</ele><time>2026-04-18T08:00:02.122Z</time></trkpt><trkpt lat="43.6848894" lon="11.3427505"><ele>344.0</ele><time>2026-04-18T08:00:03.123Z</time></trkpt><trkpt lat="43.6849354" lon="11.3428362"><ele>348.0</ele><time>2026-04-18T08:00:04.122Z</time></trkpt><trkpt lat="43.6850072" lon="11.3429022"><ele>348.0</ele><time>2026-04-18T08:00:05.121Z</time></trkpt><trkpt lat="43.6850825" lon="11.3429666"><ele>348.0</ele><time>2026-04-18T08:00:06.123Z</time></trkpt><trkpt lat="43.6851293" lon="11.343031"><ele>348.0</ele><time>2026-04-18T08:00:07.122Z</time></trkpt><trkpt lat="43.6851658" lon="11.3431532"><ele>348.0</ele><time>2026-04-18T08:00:09.122Z</time></trkpt><trkpt lat="43.6851594" lon="11.3432733"><ele>348.0</ele><time>2026-04-18T08:00:11.122Z</time></trkpt><trkpt lat="43.6851034" lon="11.3433753"><ele>348.0</ele><time>2026-04-18T08:00:12.122Z</time></trkpt><trkpt lat="43.685018" lon="11.3435069"><ele>350.0</ele><time>2026-04-18T08:00:13.122Z</time></trkpt><trkpt lat="43.6849363" lon="11.3436307"><ele>352.0</ele><time>2026-04-18T08:00:14.122Z</time></trkpt><trkpt lat="43.6848792" lon="11.3437348"><ele>354.0</ele><time>2026-04-18T08:00:15.122Z</time></trkpt><trkpt lat="43.6848242" lon="11.3438279"><ele>356.0</ele><time>2026-04-18T08:00:16.123Z</time></trkpt><trkpt lat="43.684858" lon="11.3440099"><ele>358.0</ele><time>2026-04-18T08:00:18.122Z</time></trkpt><trkpt lat="43.6849283" lon="11.3441378"><ele>359.79999999999995</ele><time>2026-04-18T08:00:19.123Z</time></trkpt><trkpt lat="43.6850108" lon="11.3442569"><ele>361.6</ele><time>2026-04-18T08:00:20.122Z</time></trkpt><trkpt lat="43.6850933" lon="11.3443868"><ele>363.4</ele><time>2026-04-18T08:00:21.122Z</time></trkpt><trkpt lat="43.6851665" lon="11.3444937"><ele>365.20000000000005</ele><time>2026-04-18T08:00:22.123Z</time></trkpt><trkpt lat="43.6852212" lon="11.3445792"><ele>367.0</ele><time>2026-04-18T08:00:23.122Z</time></trkpt><trkpt lat="43.6852695" lon="11.3446434"><ele>367.8333333333333</ele><time>2026-04-18T08:00:24.122Z</time></trkpt><trkpt lat="43.6853345" lon="11.3446735"><ele>368.66666666666663</ele><time>2026-04-18T08:00:25.123Z</time></trkpt><trkpt lat="43.6853823" lon="11.3445845"><ele>369.5</ele><time>2026-04-18T08:00:26.122Z</time></trkpt><trkpt lat="43.6854296" lon="11.3445053"><ele>370.3333333333333</ele><time>2026-04-18T08:00:27.122Z</time></trkpt><trkpt lat="43.6854902" lon="11.3444222"><ele>371.1666666666667</ele><time>2026-04-18T08:00:28.122Z</time></trkpt><trkpt lat="43.6855621" lon="11.344356"><ele>372.0</ele><time>2026-04-18T08:00:29.123Z</time></trkpt><trkpt lat="43.6856863" lon="11.344358"><ele>372.0</ele><time>2026-04-18T08:00:31.122Z</time></trkpt><trkpt lat="43.6857561" lon="11.3444027"><ele>372.0</ele><time>2026-04-18T08:00:32.123Z</time></trkpt><trkpt lat="43.6858246" lon="11.3444514"><ele>372.0</ele><time>2026-04-18T08:00:33.122Z</time></trkpt><trkpt lat="43.6858832" lon="11.3444844"><ele>372.0</ele><time>2026-04-18T08:00:34.122Z</time></trkpt><trkpt lat="43.6859188" lon="11.3445571"><ele>372.0</ele><time>2026-04-18T08:00:35.122Z</time></trkpt><trkpt lat="43.6859647" lon="11.3446402"><ele>372.0</ele><time>2026-04-18T08:00:36.123Z</time></trkpt><trkpt lat="43.6860425" lon="11.3447242"><ele>371.8</ele><time>2026-04-18T08:00:37.122Z</time></trkpt><trkpt lat="43.6861139" lon="11.3448086"><ele>371.6</ele><time>2026-04-18T08:00:38.123Z</time></trkpt><trkpt lat="43.6861762" lon="11.344903"><ele>371.40000000000003</ele><time>2026-04-18T08:00:39.122Z</time></trkpt><trkpt lat="43.6862358" lon="11.3450398"><ele>371.20000000000005</ele><time>2026-04-18T08:00:40.122Z</time></trkpt><trkpt lat="43.6862886" lon="11.3451902"><ele>371.0</ele><time>2026-04-18T08:00:41.123Z</time></trkpt><trkpt lat="43.6863438" lon="11.3453397"><ele>371.0</ele><time>2026-04-18T08:00:42.122Z</time></trkpt><trkpt lat="43.6864017" lon="11.3454834"><ele>371.0</ele><time>2026-04-18T08:00:43.123Z</time></trkpt><trkpt lat="43.6864247" lon="11.3455871"><ele>371.0</ele><time>2026-04-18T08:00:44.122Z</time></trkpt><trkpt lat="43.686443" lon="11.3456999"><ele>371.0</ele><time>2026-04-18T08:00:45.122Z</time></trkpt><trkpt lat="43.6864501" lon="11.3458289"><ele>371.0</ele><time>2026-04-18T08:00:46.122Z</time></trkpt><trkpt lat="43.6864636" lon="11.3459573"><ele>374.20000000000005</ele><time>2026-04-18T08:00:47.122Z</time></trkpt><trkpt lat="43.6864997" lon="11.3460729"><ele>377.40000000000003</ele><time>2026-04-18T08:00:48.122Z</time></trkpt><trkpt lat="43.6865541" lon="11.3461965"><ele>380.6</ele><time>2026-04-18T08:00:49.122Z</time></trkpt><trkpt lat="43.6865856" lon="11.3463424"><ele>383.8</ele><time>2026-04-18T08:00:50.123Z</time></trkpt><trkpt lat="43.6866181" lon="11.3464859"><ele>387.0</ele><time>2026-04-18T08:00:51.123Z</time></trkpt><trkpt lat="43.686658" lon="11.3466176"><ele>389.3333333333333</ele><time>2026-04-18T08:00:52.123Z</time></trkpt><trkpt lat="43.6866979" lon="11.3467451"><ele>391.66666666666663</ele><time>2026-04-18T08:00:53.122Z</time></trkpt><trkpt lat="43.6867281" lon="11.346867"><ele>394.0</ele><time>2026-04-18T08:00:54.122Z</time></trkpt><trkpt lat="43.6867608" lon="11.3469427"><ele>396.3333333333333</ele><time>2026-04-18T08:00:55.122Z</time></trkpt><trkpt lat="43.6868294" lon="11.3469977"><ele>398.66666666666663</ele><time>2026-04-18T08:00:56.122Z</time></trkpt><trkpt lat="43.686904" lon="11.347031"><ele>401.0</ele><time>2026-04-18T08:00:57.123Z</time></trkpt><trkpt lat="43.6870004" lon="11.3470161"><ele>401.0</ele><time>2026-04-18T08:00:58.123Z</time></trkpt><trkpt lat="43.6870911" lon="11.347008"><ele>401.0</ele><time>2026-04-18T08:00:59.122Z</time></trkpt><trkpt lat="43.6872151" lon="11.3470823"><ele>401.0</ele><time>2026-04-18T08:01:01.122Z</time></trkpt><trkpt lat="43.6872867" lon="11.347119"><ele>401.0</ele><time>2026-04-18T08:01:02.122Z</time></trkpt><trkpt lat="43.6873664" lon="11.3471749"><ele>401.0</ele><time>2026-04-18T08:01:03.122Z</time></trkpt><trkpt lat="43.6874474" lon="11.3472042"><ele>400.99999999999994</ele><time>2026-04-18T08:01:04.121Z</time></trkpt><trkpt lat="43.6875313" lon="11.3472105"><ele>401.0</ele><time>2026-04-18T08:01:05.122Z</time></trkpt><trkpt lat="43.687618" lon="11.3471574"><ele>401.0</ele><time>2026-04-18T08:01:06.123Z</time></trkpt><trkpt lat="43.6877109" lon="11.347126"><ele>401.0</ele><time>2026-04-18T08:01:07.122Z</time></trkpt><trkpt lat="43.6877843" lon="11.3471203"><ele>400.99999999999994</ele><time>2026-04-18T08:01:08.123Z</time></trkpt><trkpt lat="43.6878517" lon="11.3471619"><ele>401.0</ele><time>2026-04-18T08:01:09.122Z</time></trkpt><trkpt lat="43.6879275" lon="11.3471947"><ele>402.66666666666663</ele><time>2026-04-18T08:01:10.122Z</time></trkpt><trkpt lat="43.6880014" lon="11.3472568"><ele>404.3333333333333</ele><time>2026-04-18T08:01:11.123Z</time></trkpt><trkpt lat="43.6880668" lon="11.3473139"><ele>406.0</ele><time>2026-04-18T08:01:12.123Z</time></trkpt><trkpt lat="43.6881468" lon="11.3473817"><ele>407.66666666666663</ele><time>2026-04-18T08:01:14.123Z</time></trkpt><trkpt lat="43.6881989" lon="11.3474494"><ele>409.3333333333333</ele><time>2026-04-18T08:01:16.122Z</time></trkpt><trkpt lat="43.6882487" lon="11.3475187"><ele>411.0</ele><time>2026-04-18T08:01:19.123Z</time></trkpt><trkpt lat="43.688292" lon="11.3476278"><ele>411.0</ele><time>2026-04-18T08:01:51.123Z</time></trkpt><trkpt lat="43.6883828" lon="11.347735"><ele>411.0</ele><time>2026-04-18T08:01:53.122Z</time></trkpt><trkpt lat="43.6884419" lon="11.3477694"><ele>411.0</ele><time>2026-04-18T08:01:54.123Z</time></trkpt><trkpt lat="43.6885164" lon="11.3477922"><ele>411.0</ele><time>2026-04-18T08:01:55.122Z</time></trkpt><trkpt lat="43.6885964" lon="11.3478292"><ele>411.0</ele><time>2026-04-18T08:01:56.122Z</time></trkpt><trkpt lat="43.6886781" lon="11.3478848"><ele>411.0</ele><time>2026-04-18T08:01:57.121Z</time></trkpt><trkpt lat="43.6887543" lon="11.3479612"><ele>408.4</ele><time>2026-04-18T08:01:58.123Z</time></trkpt><trkpt lat="43.6888269" lon="11.3480555"><ele>405.8</ele><time>2026-04-18T08:01:59.122Z</time></trkpt><trkpt lat="43.6889053" lon="11.3481492"><ele>403.2</ele><time>2026-04-18T08:02:00.123Z</time></trkpt><trkpt lat="43.6889948" lon="11.3482225"><ele>400.59999999999997</ele><time>2026-04-18T08:02:01.122Z</time></trkpt><trkpt lat="43.6890775" lon="11.3482817"><ele>398.0</ele><time>2026-04-18T08:02:02.122Z</time></trkpt><trkpt lat="43.6891543" lon="11.3483401"><ele>397.99999999999994</ele><time>2026-04-18T08:02:03.122Z</time></trkpt><trkpt lat="43.6892329" lon="11.3483774"><ele>398.0</ele><time>2026-04-18T08:02:04.122Z</time></trkpt><trkpt lat="43.6893059" lon="11.3483956"><ele>398.0</ele><time>2026-04-18T08:02:05.123Z</time></trkpt><trkpt lat="43.6893836" lon="11.3485051"><ele>398.0</ele><time>2026-04-18T08:02:08.122Z</time></trkpt><trkpt lat="43.689393" lon="11.348604"><ele>397.99999999999994</ele><time>2026-04-18T08:02:09.122Z</time></trkpt><trkpt lat="43.6894138" lon="11.3486958"><ele>398.0</ele><time>2026-04-18T08:02:10.122Z</time></trkpt><trkpt lat="43.6894507" lon="11.3487748"><ele>395.66666666666663</ele><time>2026-04-18T08:02:11.122Z</time></trkpt><trkpt lat="43.6895427" lon="11.348898"><ele>393.3333333333333</ele><time>2026-04-18T08:02:13.122Z</time></trkpt><trkpt lat="43.6896042" lon="11.3489342"><ele>391.0</ele><time>2026-04-18T08:02:14.122Z</time></trkpt><trkpt lat="43.6896733" lon="11.3489914"><ele>388.66666666666663</ele><time>2026-04-18T08:02:15.121Z</time></trkpt><trkpt lat="43.6897376" lon="11.3490669"><ele>386.3333333333333</ele><time>2026-04-18T08:02:16.122Z</time></trkpt><trkpt lat="43.6897943" lon="11.3491551"><ele>384.0</ele><time>2026-04-18T08:02:17.122Z</time></trkpt><trkpt lat="43.6898377" lon="11.3492441"><ele>384.0</ele><time>2026-04-18T08:02:18.123Z</time></trkpt><trkpt lat="43.6898826" lon="11.3493319"><ele>384.0</ele><time>2026-04-18T08:02:19.122Z</time></trkpt><trkpt lat="43.6899237" lon="11.3494115"><ele>384.0</ele><time>2026-04-18T08:02:20.122Z</time></trkpt><trkpt lat="43.6899953" lon="11.3494889"><ele>384.0</ele><time>2026-04-18T08:02:22.122Z</time></trkpt><trkpt lat="43.6900297" lon="11.3495748"><ele>384.0</ele><time>2026-04-18T08:02:23.122Z</time></trkpt><trkpt lat="43.6900808" lon="11.3496681"><ele>384.0</ele><time>2026-04-18T08:02:24.123Z</time></trkpt><trkpt lat="43.6901355" lon="11.349756"><ele>382.79999999999995</ele><time>2026-04-18T08:02:25.123Z</time></trkpt><trkpt lat="43.6901864" lon="11.349856"><ele>381.59999999999997</ele><time>2026-04-18T08:02:26.123Z</time></trkpt><trkpt lat="43.6902415" lon="11.349955"><ele>380.4</ele><time>2026-04-18T08:02:27.121Z</time></trkpt><trkpt lat="43.6902991" lon="11.3500653"><ele>379.2</ele><time>2026-04-18T08:02:28.122Z</time></trkpt><trkpt lat="43.690356" lon="11.3501746"><ele>378.0</ele><time>2026-04-18T08:02:29.122Z</time></trkpt><trkpt lat="43.6904141" lon="11.3502747"><ele>377.59999999999997</ele><time>2026-04-18T08:02:30.122Z</time></trkpt><trkpt lat="43.6904726" lon="11.3503577"><ele>377.2</ele><time>2026-04-18T08:02:31.122Z</time></trkpt><trkpt lat="43.6905342" lon="11.3504664"><ele>376.8</ele><time>2026-04-18T08:02:32.122Z</time></trkpt><trkpt lat="43.6906017" lon="11.3505964"><ele>376.4</ele><time>2026-04-18T08:02:33.122Z</time></trkpt><trkpt lat="43.6906655" lon="11.350711"><ele>376.0</ele><time>2026-04-18T08:02:34.122Z</time></trkpt><trkpt lat="43.6907207" lon="11.3508419"><ele>376.0</ele><time>2026-04-18T08:02:35.121Z</time></trkpt><trkpt lat="43.6907801" lon="11.3509565"><ele>376.0</ele><time>2026-04-18T08:02:36.121Z</time></trkpt><trkpt lat="43.6908488" lon="11.3510676"><ele>376.0</ele><time>2026-04-18T08:02:37.123Z</time></trkpt><trkpt lat="43.6909157" lon="11.3511843"><ele>376.0</ele><time>2026-04-18T08:02:38.122Z</time></trkpt><trkpt lat="43.6909727" lon="11.3512869"><ele>376.0</ele><time>2026-04-18T08:02:39.122Z</time></trkpt><trkpt lat="43.691033" lon="11.3513939"><ele>376.3333333333333</ele><time>2026-04-18T08:02:40.122Z</time></trkpt><trkpt lat="43.6910882" lon="11.3514865"><ele>376.66666666666663</ele><time>2026-04-18T08:02:41.123Z</time></trkpt><trkpt lat="43.6911575" lon="11.3515864"><ele>377.0</ele><time>2026-04-18T08:02:42.122Z</time></trkpt><trkpt lat="43.6911545" lon="11.3517158"><ele>377.3333333333333</ele><time>2026-04-18T08:02:44.123Z</time></trkpt><trkpt lat="43.6911491" lon="11.3518098"><ele>377.6666666666667</ele><time>2026-04-18T08:02:46.122Z</time></trkpt><trkpt lat="43.6911269" lon="11.3519035"><ele>378.0</ele><time>2026-04-18T08:02:48.123Z</time></trkpt><trkpt lat="43.6912226" lon="11.3520693"><ele>378.0</ele><time>2026-04-18T08:02:50.122Z</time></trkpt><trkpt lat="43.6912576" lon="11.35218"><ele>378.0</ele><time>2026-04-18T08:02:51.122Z</time></trkpt><trkpt lat="43.6912987" lon="11.3522856"><ele>378.0</ele><time>2026-04-18T08:02:52.122Z</time></trkpt><trkpt lat="43.6913447" lon="11.3523939"><ele>378.0</ele><time>2026-04-18T08:02:53.123Z</time></trkpt><trkpt lat="43.6913952" lon="11.3524993"><ele>378.0</ele><time>2026-04-18T08:02:54.122Z</time></trkpt><trkpt lat="43.6914482" lon="11.3525974"><ele>378.0</ele><time>2026-04-18T08:02:55.122Z</time></trkpt><trkpt lat="43.6914791" lon="11.3526918"><ele>378.8333333333333</ele><time>2026-04-18T08:02:56.123Z</time></trkpt><trkpt lat="43.691524" lon="11.3527841"><ele>379.6666666666667</ele><time>2026-04-18T08:02:57.122Z</time></trkpt><trkpt lat="43.6915701" lon="11.3528723"><ele>380.5</ele><time>2026-04-18T08:02:58.122Z</time></trkpt><trkpt lat="43.6916186" lon="11.3529616"><ele>381.33333333333337</ele><time>2026-04-18T08:02:59.123Z</time></trkpt><trkpt lat="43.69167" lon="11.3530422"><ele>382.1666666666667</ele><time>2026-04-18T08:03:00.122Z</time></trkpt><trkpt lat="43.6917146" lon="11.3531394"><ele>383.0</ele><time>2026-04-18T08:03:01.122Z</time></trkpt><trkpt lat="43.6917549" lon="11.3532284"><ele>383.0</ele><time>2026-04-18T08:03:02.122Z</time></trkpt><trkpt lat="43.6917965" lon="11.3533193"><ele>383.0</ele><time>2026-04-18T08:03:03.123Z</time></trkpt><trkpt lat="43.6918492" lon="11.3534071"><ele>383.0</ele><time>2026-04-18T08:03:04.122Z</time></trkpt><trkpt lat="43.691906" lon="11.3534929"><ele>383.0</ele><time>2026-04-18T08:03:05.122Z</time></trkpt><trkpt lat="43.6919724" lon="11.3535748"><ele>383.0</ele><time>2026-04-18T08:03:06.123Z</time></trkpt><trkpt lat="43.6920343" lon="11.353659"><ele>383.0</ele><time>2026-04-18T08:03:07.122Z</time></trkpt><trkpt lat="43.6920965" lon="11.3537482"><ele>383.0</ele><time>2026-04-18T08:03:08.123Z</time></trkpt><trkpt lat="43.6921531" lon="11.3538354"><ele>383.0</ele><time>2026-04-18T08:03:09.122Z</time></trkpt><trkpt lat="43.6922105" lon="11.3539031"><ele>383.0</ele><time>2026-04-18T08:03:10.123Z</time></trkpt><trkpt lat="43.6922361" lon="11.3540064"><ele>383.0</ele><time>2026-04-18T08:03:11.122Z</time></trkpt><trkpt lat="43.69226" lon="11.3541045"><ele>383.0</ele><time>2026-04-18T08:03:12.122Z</time></trkpt><trkpt lat="43.6922959" lon="11.3542004"><ele>383.0</ele><time>2026-04-18T08:03:13.123Z</time></trkpt><trkpt lat="43.6923372" lon="11.3542936"><ele>385.1666666666667</ele><time>2026-04-18T08:03:14.123Z</time></trkpt><trkpt lat="43.6923709" lon="11.3543868"><ele>387.33333333333337</ele><time>2026-04-18T08:03:15.122Z</time></trkpt><trkpt lat="43.6924193" lon="11.3544669"><ele>389.5</ele><time>2026-04-18T08:03:16.123Z</time></trkpt><trkpt lat="43.6924708" lon="11.3545478"><ele>391.6666666666667</ele><time>2026-04-18T08:03:17.123Z</time></trkpt><trkpt lat="43.6925197" lon="11.3546341"><ele>393.8333333333333</ele><time>2026-04-18T08:03:18.122Z</time></trkpt><trkpt lat="43.6925912" lon="11.3547851"><ele>396.0</ele><time>2026-04-18T08:03:20.122Z</time></trkpt><trkpt lat="43.6926389" lon="11.3548573"><ele>396.8333333333333</ele><time>2026-04-18T08:03:21.122Z</time></trkpt><trkpt lat="43.6927003" lon="11.354906"><ele>397.66666666666663</ele><time>2026-04-18T08:03:22.123Z</time></trkpt><trkpt lat="43.6927618" lon="11.3549604"><ele>398.5</ele><time>2026-04-18T08:03:23.122Z</time></trkpt><trkpt lat="43.6928331" lon="11.355022"><ele>399.3333333333333</ele><time>2026-04-18T08:03:24.122Z</time></trkpt><trkpt lat="43.6928953" lon="11.3550979"><ele>400.16666666666663</ele><time>2026-04-18T08:03:25.122Z</time></trkpt><trkpt lat="43.6929512" lon="11.3551867"><ele>401.0</ele><time>2026-04-18T08:03:26.122Z</time></trkpt><trkpt lat="43.6929744" lon="11.3552849"><ele>400.99999999999994</ele><time>2026-04-18T08:03:27.122Z</time></trkpt><trkpt lat="43.6929872" lon="11.3553822"><ele>401.0</ele><time>2026-04-18T08:03:28.122Z</time></trkpt><trkpt lat="43.6929734" lon="11.3554741"><ele>401.0</ele><time>2026-04-18T08:03:29.122Z</time></trkpt><trkpt lat="43.6929441" lon="11.3555527"><ele>401.0</ele><time>2026-04-18T08:03:30.122Z</time></trkpt><trkpt lat="43.6929224" lon="11.3557101"><ele>400.99999999999994</ele><time>2026-04-18T08:03:32.123Z</time></trkpt><trkpt lat="43.6929438" lon="11.3558026"><ele>401.0</ele><time>2026-04-18T08:03:33.122Z</time></trkpt><trkpt lat="43.6929773" lon="11.3559007"><ele>402.66666666666663</ele><time>2026-04-18T08:03:34.121Z</time></trkpt><trkpt lat="43.6930246" lon="11.3560069"><ele>404.3333333333333</ele><time>2026-04-18T08:03:35.122Z</time></trkpt><trkpt lat="43.6930744" lon="11.356116"><ele>406.0</ele><time>2026-04-18T08:03:36.122Z</time></trkpt><trkpt lat="43.6931335" lon="11.3562111"><ele>407.66666666666663</ele><time>2026-04-18T08:03:37.122Z</time></trkpt><trkpt lat="43.6931961" lon="11.356289"><ele>409.3333333333333</ele><time>2026-04-18T08:03:38.123Z</time></trkpt><trkpt lat="43.6932449" lon="11.3563801"><ele>411.0</ele><time>2026-04-18T08:03:39.122Z</time></trkpt><trkpt lat="43.6932936" lon="11.3564653"><ele>412.3333333333333</ele><time>2026-04-18T08:03:40.122Z</time></trkpt><trkpt lat="43.6933329" lon="11.356557"><ele>413.66666666666663</ele><time>2026-04-18T08:03:41.122Z</time></trkpt><trkpt lat="43.6933714" lon="11.3566535"><ele>415.0</ele><time>2026-04-18T08:03:42.122Z</time></trkpt><trkpt lat="43.6934061" lon="11.3567552"><ele>416.3333333333333</ele><time>2026-04-18T08:03:43.122Z</time></trkpt><trkpt lat="43.6934381" lon="11.3568623"><ele>417.66666666666663</ele><time>2026-04-18T08:03:44.123Z</time></trkpt><trkpt lat="43.6934752" lon="11.3569726"><ele>419.0</ele><time>2026-04-18T08:03:45.122Z</time></trkpt><trkpt lat="43.6935168" lon="11.357087"><ele>419.6</ele><time>2026-04-18T08:03:46.122Z</time></trkpt><trkpt lat="43.6935528" lon="11.3572041"><ele>420.2</ele><time>2026-04-18T08:03:47.123Z</time></trkpt><trkpt lat="43.693579" lon="11.3573301"><ele>420.8</ele><time>2026-04-18T08:03:48.122Z</time></trkpt><trkpt lat="43.6935992" lon="11.3574611"><ele>421.40000000000003</ele><time>2026-04-18T08:03:49.122Z</time></trkpt><trkpt lat="43.6936109" lon="11.3575966"><ele>422.0</ele><time>2026-04-18T08:03:50.123Z</time></trkpt><trkpt lat="43.693613" lon="11.3577331"><ele>422.8</ele><time>2026-04-18T08:03:51.122Z</time></trkpt><trkpt lat="43.6936114" lon="11.3578732"><ele>423.6</ele><time>2026-04-18T08:03:52.122Z</time></trkpt><trkpt lat="43.6936025" lon="11.3580096"><ele>424.40000000000003</ele><time>2026-04-18T08:03:53.123Z</time></trkpt><trkpt lat="43.6935949" lon="11.358133"><ele>425.20000000000005</ele><time>2026-04-18T08:03:54.122Z</time></trkpt><trkpt lat="43.6936681" lon="11.3582569"><ele>426.0</ele><time>2026-04-18T08:03:55.122Z</time></trkpt><trkpt lat="43.693715" lon="11.3583772"><ele>429.25</ele><time>2026-04-18T08:03:56.121Z</time></trkpt><trkpt lat="43.6937557" lon="11.3585148"><ele>432.5</ele><time>2026-04-18T08:03:57.122Z</time></trkpt><trkpt lat="43.6938" lon="11.3586502"><ele>435.75</ele><time>2026-04-18T08:03:58.123Z</time></trkpt><trkpt lat="43.6938715" lon="11.3587802"><ele>439.0</ele><time>2026-04-18T08:03:59.123Z</time></trkpt><trkpt lat="43.6939313" lon="11.3589201"><ele>440.75</ele><time>2026-04-18T08:04:00.123Z</time></trkpt><trkpt lat="43.6940066" lon="11.3590722"><ele>442.5</ele><time>2026-04-18T08:04:01.122Z</time></trkpt><trkpt lat="43.6940864" lon="11.3592296"><ele>444.25</ele><time>2026-04-18T08:04:02.123Z</time></trkpt><trkpt lat="43.6941632" lon="11.3593933"><ele>446.0</ele><time>2026-04-18T08:04:03.122Z</time></trkpt><trkpt lat="43.6942342" lon="11.3595514"><ele>446.8</ele><time>2026-04-18T08:04:04.122Z</time></trkpt><trkpt lat="43.6942789" lon="11.3597061"><ele>447.6</ele><time>2026-04-18T08:04:05.123Z</time></trkpt><trkpt lat="43.6943257" lon="11.35985"><ele>448.4</ele><time>2026-04-18T08:04:06.122Z</time></trkpt><trkpt lat="43.6943684" lon="11.3599576"><ele>449.2</ele><time>2026-04-18T08:04:07.122Z</time></trkpt><trkpt lat="43.6944035" lon="11.3600632"><ele>450.0</ele><time>2026-04-18T08:04:08.123Z</time></trkpt><trkpt lat="43.694431" lon="11.3601778"><ele>450.0</ele><time>2026-04-18T08:04:09.122Z</time></trkpt><trkpt lat="43.6944322" lon="11.360277"><ele>450.0</ele><time>2026-04-18T08:04:10.123Z</time></trkpt><trkpt lat="43.6944054" lon="11.3603755"><ele>450.0</ele><time>2026-04-18T08:04:11.122Z</time></trkpt><trkpt lat="43.6943618" lon="11.3604905"><ele>450.0</ele><time>2026-04-18T08:04:12.122Z</time></trkpt><trkpt lat="43.6943026" lon="11.3606187"><ele>450.0</ele><time>2026-04-18T08:04:13.123Z</time></trkpt><trkpt lat="43.694263" lon="11.3607395"><ele>450.0</ele><time>2026-04-18T08:04:14.122Z</time></trkpt><trkpt lat="43.6942484" lon="11.3608556"><ele>451.8</ele><time>2026-04-18T08:04:15.123Z</time></trkpt><trkpt lat="43.694248" lon="11.3609741"><ele>453.6</ele><time>2026-04-18T08:04:16.122Z</time></trkpt><trkpt lat="43.6942404" lon="11.3611061"><ele>455.4</ele><time>2026-04-18T08:04:17.123Z</time></trkpt><trkpt lat="43.6942285" lon="11.361258"><ele>457.2</ele><time>2026-04-18T08:04:18.123Z</time></trkpt><trkpt lat="43.6942178" lon="11.3614014"><ele>459.0</ele><time>2026-04-18T08:04:19.123Z</time></trkpt><trkpt lat="43.6942112" lon="11.3615332"><ele>461.0</ele><time>2026-04-18T08:04:20.123Z</time></trkpt><trkpt lat="43.6941899" lon="11.3616423"><ele>463.0</ele><time>2026-04-18T08:04:21.122Z</time></trkpt><trkpt lat="43.6941784" lon="11.3617439"><ele>465.0</ele><time>2026-04-18T08:04:22.122Z</time></trkpt><trkpt lat="43.69414" lon="11.3618706"><ele>467.0</ele><time>2026-04-18T08:04:23.122Z</time></trkpt><trkpt lat="43.6940916" lon="11.3619929"><ele>469.0</ele><time>2026-04-18T08:04:24.123Z</time></trkpt><trkpt lat="43.6940456" lon="11.362125"><ele>470.33333333333337</ele><time>2026-04-18T08:04:25.122Z</time></trkpt><trkpt lat="43.6940015" lon="11.3622569"><ele>471.6666666666667</ele><time>2026-04-18T08:04:26.122Z</time></trkpt><trkpt lat="43.6939464" lon="11.3623682"><ele>473.0</ele><time>2026-04-18T08:04:27.122Z</time></trkpt><trkpt lat="43.6939083" lon="11.3624593"><ele>474.33333333333337</ele><time>2026-04-18T08:04:28.122Z</time></trkpt><trkpt lat="43.6939326" lon="11.3625412"><ele>475.6666666666667</ele><time>2026-04-18T08:04:30.121Z</time></trkpt><trkpt lat="43.6940325" lon="11.3625521"><ele>477.0</ele><time>2026-04-18T08:04:32.122Z</time></trkpt><trkpt lat="43.6941417" lon="11.3625705"><ele>477.0</ele><time>2026-04-18T08:04:33.123Z</time></trkpt><trkpt lat="43.6942634" lon="11.362621"><ele>477.0</ele><time>2026-04-18T08:04:34.122Z</time></trkpt><trkpt lat="43.6943774" lon="11.3626839"><ele>477.0</ele><time>2026-04-18T08:04:35.123Z</time></trkpt><trkpt lat="43.6944846" lon="11.3627461"><ele>477.0</ele><time>2026-04-18T08:04:36.123Z</time></trkpt><trkpt lat="43.6945877" lon="11.3628128"><ele>481.0</ele><time>2026-04-18T08:04:37.122Z</time></trkpt><trkpt lat="43.6946745" lon="11.3628779"><ele>485.00000000000006</ele><time>2026-04-18T08:04:38.123Z</time></trkpt><trkpt lat="43.694759" lon="11.3629365"><ele>489.00000000000006</ele><time>2026-04-18T08:04:39.122Z</time></trkpt><trkpt lat="43.6947945" lon="11.3630283"><ele>493.0</ele><time>2026-04-18T08:04:40.123Z</time></trkpt><trkpt lat="43.6948262" lon="11.3631611"><ele>497.0</ele><time>2026-04-18T08:04:41.122Z</time></trkpt><trkpt lat="43.6948634" lon="11.3632974"><ele>497.0</ele><time>2026-04-18T08:04:42.122Z</time></trkpt><trkpt lat="43.6949118" lon="11.363445"><ele>497.0</ele><time>2026-04-18T08:04:43.122Z</time></trkpt><trkpt lat="43.6949749" lon="11.3635733"><ele>497.0</ele><time>2026-04-18T08:04:44.122Z</time></trkpt><trkpt lat="43.6950513" lon="11.3636996"><ele>497.0</ele><time>2026-04-18T08:04:45.122Z</time></trkpt><trkpt lat="43.6951587" lon="11.3638188"><ele>494.75</ele><time>2026-04-18T08:04:46.123Z</time></trkpt><trkpt lat="43.6952535" lon="11.3639396"><ele>492.5</ele><time>2026-04-18T08:04:47.123Z</time></trkpt><trkpt lat="43.6953348" lon="11.3640954"><ele>490.25</ele><time>2026-04-18T08:04:48.122Z</time></trkpt><trkpt lat="43.6954046" lon="11.3642398"><ele>488.0</ele><time>2026-04-18T08:04:49.123Z</time></trkpt><trkpt lat="43.6954825" lon="11.3643479"><ele>493.0</ele><time>2026-04-18T08:04:50.122Z</time></trkpt><trkpt lat="43.6955742" lon="11.3644349"><ele>497.99999999999994</ele><time>2026-04-18T08:04:51.123Z</time></trkpt><trkpt lat="43.6956534" lon="11.3645278"><ele>502.99999999999994</ele><time>2026-04-18T08:04:52.123Z</time></trkpt><trkpt lat="43.6957033" lon="11.3646463"><ele>508.0</ele><time>2026-04-18T08:04:53.122Z</time></trkpt><trkpt lat="43.6957558" lon="11.3647861"><ele>513.0</ele><time>2026-04-18T08:04:54.123Z</time></trkpt><trkpt lat="43.6958287" lon="11.3649315"><ele>513.0</ele><time>2026-04-18T08:04:55.122Z</time></trkpt><trkpt lat="43.6958965" lon="11.3650702"><ele>513.0</ele><time>2026-04-18T08:04:56.122Z</time></trkpt><trkpt lat="43.695939" lon="11.3651827"><ele>513.0</ele><time>2026-04-18T08:04:57.122Z</time></trkpt><trkpt lat="43.6959504" lon="11.3652946"><ele>513.0</ele><time>2026-04-18T08:04:58.123Z</time></trkpt><trkpt lat="43.6959641" lon="11.3654117"><ele>513.0</ele><time>2026-04-18T08:04:59.122Z</time></trkpt><trkpt lat="43.6959576" lon="11.3655383"><ele>511.75</ele><time>2026-04-18T08:05:00.123Z</time></trkpt><trkpt lat="43.6959409" lon="11.3657024"><ele>510.5</ele><time>2026-04-18T08:05:01.122Z</time></trkpt><trkpt lat="43.6959002" lon="11.3658896"><ele>509.25</ele><time>2026-04-18T08:05:02.122Z</time></trkpt><trkpt lat="43.695861" lon="11.3660582"><ele>508.0</ele><time>2026-04-18T08:05:03.123Z</time></trkpt><trkpt lat="43.6958204" lon="11.3661876"><ele>508.0</ele><time>2026-04-18T08:05:04.122Z</time></trkpt><trkpt lat="43.695771" lon="11.3662867"><ele>507.99999999999994</ele><time>2026-04-18T08:05:05.123Z</time></trkpt><trkpt lat="43.6956938" lon="11.3663636"><ele>507.99999999999994</ele><time>2026-04-18T08:05:06.123Z</time></trkpt><trkpt lat="43.6956085" lon="11.3664317"><ele>508.0</ele><time>2026-04-18T08:05:07.122Z</time></trkpt><trkpt lat="43.6955205" lon="11.3664989"><ele>508.0</ele><time>2026-04-18T08:05:08.122Z</time></trkpt><trkpt lat="43.6954342" lon="11.3665698"><ele>509.4</ele><time>2026-04-18T08:05:09.122Z</time></trkpt><trkpt lat="43.695355" lon="11.3666507"><ele>510.79999999999995</ele><time>2026-04-18T08:05:10.122Z</time></trkpt><trkpt lat="43.6952872" lon="11.3667413"><ele>512.2</ele><time>2026-04-18T08:05:11.123Z</time></trkpt><trkpt lat="43.6952412" lon="11.3668343"><ele>513.6</ele><time>2026-04-18T08:05:12.122Z</time></trkpt><trkpt lat="43.6952216" lon="11.3669192"><ele>515.0</ele><time>2026-04-18T08:05:13.122Z</time></trkpt><trkpt lat="43.6952728" lon="11.3670987"><ele>517.8</ele><time>2026-04-18T08:05:15.122Z</time></trkpt><trkpt lat="43.6952967" lon="11.3672161"><ele>520.6</ele><time>2026-04-18T08:05:16.122Z</time></trkpt><trkpt lat="43.6953041" lon="11.3673442"><ele>523.4</ele><time>2026-04-18T08:05:17.122Z</time></trkpt><trkpt lat="43.6953219" lon="11.3674758"><ele>526.2</ele><time>2026-04-18T08:05:18.122Z</time></trkpt><trkpt lat="43.6953665" lon="11.3676067"><ele>529.0</ele><time>2026-04-18T08:05:19.123Z</time></trkpt><trkpt lat="43.6954034" lon="11.3677438"><ele>529.0</ele><time>2026-04-18T08:05:20.122Z</time></trkpt><trkpt lat="43.6954327" lon="11.3678841"><ele>529.0</ele><time>2026-04-18T08:05:21.123Z</time></trkpt><trkpt lat="43.6954569" lon="11.3680215"><ele>529.0</ele><time>2026-04-18T08:05:22.122Z</time></trkpt><trkpt lat="43.6954834" lon="11.3681335"><ele>529.0</ele><time>2026-04-18T08:05:23.123Z</time></trkpt><trkpt lat="43.6955238" lon="11.368243"><ele>529.0</ele><time>2026-04-18T08:05:24.122Z</time></trkpt><trkpt lat="43.6955734" lon="11.3683557"><ele>531.0</ele><time>2026-04-18T08:05:25.122Z</time></trkpt><trkpt lat="43.6955949" lon="11.3684486"><ele>533.0</ele><time>2026-04-18T08:05:26.123Z</time></trkpt><trkpt lat="43.6955882" lon="11.368585"><ele>535.0</ele><time>2026-04-18T08:05:27.122Z</time></trkpt><trkpt lat="43.6955496" lon="11.3687055"><ele>537.0</ele><time>2026-04-18T08:05:28.122Z</time></trkpt><trkpt lat="43.6954958" lon="11.3687852"><ele>539.0</ele><time>2026-04-18T08:05:29.123Z</time></trkpt><trkpt lat="43.695391" lon="11.3688236"><ele>539.0</ele><time>2026-04-18T08:05:31.122Z</time></trkpt><trkpt lat="43.695327" lon="11.3688309"><ele>539.0</ele><time>2026-04-18T08:05:32.123Z</time></trkpt><trkpt lat="43.6952533" lon="11.3688156"><ele>539.0</ele><time>2026-04-18T08:05:33.123Z</time></trkpt><trkpt lat="43.6951601" lon="11.3687731"><ele>539.0</ele><time>2026-04-18T08:05:34.122Z</time></trkpt><trkpt lat="43.6950454" lon="11.3687271"><ele>539.0</ele><time>2026-04-18T08:05:35.122Z</time></trkpt><trkpt lat="43.6949587" lon="11.3686778"><ele>532.4</ele><time>2026-04-18T08:05:36.122Z</time></trkpt><trkpt lat="43.694868" lon="11.3686596"><ele>525.8</ele><time>2026-04-18T08:05:37.123Z</time></trkpt><trkpt lat="43.6947609" lon="11.3686716"><ele>519.2</ele><time>2026-04-18T08:05:38.122Z</time></trkpt><trkpt lat="43.6946659" lon="11.368692"><ele>512.6</ele><time>2026-04-18T08:05:39.122Z</time></trkpt><trkpt lat="43.6945843" lon="11.3686955"><ele>506.0</ele><time>2026-04-18T08:05:40.122Z</time></trkpt><trkpt lat="43.6945046" lon="11.3686855"><ele>506.0</ele><time>2026-04-18T08:05:41.123Z</time></trkpt><trkpt lat="43.6944336" lon="11.3687252"><ele>506.0</ele><time>2026-04-18T08:05:42.122Z</time></trkpt><trkpt lat="43.6943664" lon="11.3687898"><ele>506.0</ele><time>2026-04-18T08:05:43.122Z</time></trkpt><trkpt lat="43.6942899" lon="11.3688747"><ele>506.0</ele><time>2026-04-18T08:05:44.122Z</time></trkpt><trkpt lat="43.6942111" lon="11.3689501"><ele>506.0</ele><time>2026-04-18T08:05:45.122Z</time></trkpt><trkpt lat="43.6941201" lon="11.3690029"><ele>506.99999999999994</ele><time>2026-04-18T08:05:46.122Z</time></trkpt><trkpt lat="43.6940388" lon="11.3690754"><ele>508.0</ele><time>2026-04-18T08:05:47.123Z</time></trkpt><trkpt lat="43.6939629" lon="11.3691346"><ele>509.0</ele><time>2026-04-18T08:05:48.123Z</time></trkpt><trkpt lat="43.6938838" lon="11.3691619"><ele>510.0</ele><time>2026-04-18T08:05:49.122Z</time></trkpt><trkpt lat="43.6938096" lon="11.3691645"><ele>510.99999999999994</ele><time>2026-04-18T08:05:50.123Z</time></trkpt><trkpt lat="43.6937444" lon="11.3691349"><ele>512.0</ele><time>2026-04-18T08:05:51.123Z</time></trkpt><trkpt lat="43.6936554" lon="11.3690796"><ele>510.99999999999994</ele><time>2026-04-18T08:05:52.122Z</time></trkpt><trkpt lat="43.6935697" lon="11.3690503"><ele>510.0</ele><time>2026-04-18T08:05:53.122Z</time></trkpt><trkpt lat="43.6935072" lon="11.3690284"><ele>509.0</ele><time>2026-04-18T08:05:54.123Z</time></trkpt><trkpt lat="43.6934123" lon="11.3689927"><ele>508.0</ele><time>2026-04-18T08:05:56.122Z</time></trkpt><trkpt lat="43.693343" lon="11.3689662"><ele>506.99999999999994</ele><time>2026-04-18T08:06:01.122Z</time></trkpt><trkpt lat="43.6934047" lon="11.3690063"><ele>506.0</ele><time>2026-04-18T08:06:10.122Z</time></trkpt><trkpt lat="43.6935312" lon="11.3690244"><ele>506.99999999999994</ele><time>2026-04-18T08:06:12.123Z</time></trkpt><trkpt lat="43.6936047" lon="11.3690564"><ele>508.0</ele><time>2026-04-18T08:06:13.122Z</time></trkpt><trkpt lat="43.6936754" lon="11.3690865"><ele>509.0</ele><time>2026-04-18T08:06:14.123Z</time></trkpt><trkpt lat="43.6937388" lon="11.3691274"><ele>510.0</ele><time>2026-04-18T08:06:15.122Z</time></trkpt><trkpt lat="43.693795" lon="11.3691685"><ele>510.99999999999994</ele><time>2026-04-18T08:06:16.123Z</time></trkpt><trkpt lat="43.6938813" lon="11.3691969"><ele>512.0</ele><time>2026-04-18T08:06:18.122Z</time></trkpt><trkpt lat="43.6939532" lon="11.3691464"><ele>511.99999999999994</ele><time>2026-04-18T08:06:26.122Z</time></trkpt><trkpt lat="43.6938707" lon="11.3691899"><ele>512.0</ele><time>2026-04-18T08:06:33.121Z</time></trkpt><trkpt lat="43.6938059" lon="11.3691652"><ele>512.0</ele><time>2026-04-18T08:06:34.122Z</time></trkpt><trkpt lat="43.6937259" lon="11.3691244"><ele>512.0</ele><time>2026-04-18T08:06:35.123Z</time></trkpt><trkpt lat="43.6936334" lon="11.3690725"><ele>511.99999999999994</ele><time>2026-04-18T08:06:36.122Z</time></trkpt><trkpt lat="43.6935391" lon="11.3690345"><ele>512.0</ele><time>2026-04-18T08:06:37.122Z</time></trkpt><trkpt lat="43.6934369" lon="11.3690122"><ele>510.8</ele><time>2026-04-18T08:06:38.123Z</time></trkpt><trkpt lat="43.6933354" lon="11.3689917"><ele>509.6</ele><time>2026-04-18T08:06:39.122Z</time></trkpt><trkpt lat="43.6932378" lon="11.3689766"><ele>508.40000000000003</ele><time>2026-04-18T08:06:40.123Z</time></trkpt><trkpt lat="43.6931419" lon="11.3689631"><ele>507.20000000000005</ele><time>2026-04-18T08:06:41.122Z</time></trkpt><trkpt lat="43.6930549" lon="11.3689349"><ele>506.0</ele><time>2026-04-18T08:06:42.123Z</time></trkpt><trkpt lat="43.6929791" lon="11.3688983"><ele>505.99999999999994</ele><time>2026-04-18T08:06:43.123Z</time></trkpt><trkpt lat="43.6929119" lon="11.3688913"><ele>506.0</ele><time>2026-04-18T08:06:44.122Z</time></trkpt><trkpt lat="43.6928401" lon="11.3688828"><ele>506.0</ele><time>2026-04-18T08:06:45.123Z</time></trkpt><trkpt lat="43.6927223" lon="11.3690036"><ele>506.0</ele><time>2026-04-18T08:06:47.122Z</time></trkpt><trkpt lat="43.6926664" lon="11.3690682"><ele>505.99999999999994</ele><time>2026-04-18T08:06:48.122Z</time></trkpt><trkpt lat="43.692594" lon="11.3691132"><ele>506.0</ele><time>2026-04-18T08:06:49.123Z</time></trkpt><trkpt lat="43.6925189" lon="11.3691307"><ele>505.8</ele><time>2026-04-18T08:06:50.122Z</time></trkpt><trkpt lat="43.6924439" lon="11.36912"><ele>505.6</ele><time>2026-04-18T08:06:51.122Z</time></trkpt><trkpt lat="43.6923609" lon="11.3690729"><ele>505.4</ele><time>2026-04-18T08:06:52.122Z</time></trkpt><trkpt lat="43.692274" lon="11.3690177"><ele>505.2</ele><time>2026-04-18T08:06:53.123Z</time></trkpt><trkpt lat="43.6921772" lon="11.3689602"><ele>505.0</ele><time>2026-04-18T08:06:54.122Z</time></trkpt><trkpt lat="43.6920989" lon="11.368897"><ele>500.8</ele><time>2026-04-18T08:06:55.122Z</time></trkpt><trkpt lat="43.6920236" lon="11.3688169"><ele>496.6</ele><time>2026-04-18T08:06:56.123Z</time></trkpt><trkpt lat="43.6919547" lon="11.3687237"><ele>492.4</ele><time>2026-04-18T08:06:57.122Z</time></trkpt><trkpt lat="43.6918901" lon="11.3686371"><ele>488.2</ele><time>2026-04-18T08:06:58.122Z</time></trkpt><trkpt lat="43.6917924" lon="11.3686176"><ele>484.0</ele><time>2026-04-18T08:06:59.123Z</time></trkpt><trkpt lat="43.6916994" lon="11.3685686"><ele>484.00000000000006</ele><time>2026-04-18T08:07:00.122Z</time></trkpt><trkpt lat="43.6916055" lon="11.3685174"><ele>484.0</ele><time>2026-04-18T08:07:01.123Z</time></trkpt><trkpt lat="43.6915173" lon="11.3684846"><ele>484.0</ele><time>2026-04-18T08:07:02.122Z</time></trkpt><trkpt lat="43.6914333" lon="11.368461"><ele>484.0</ele><time>2026-04-18T08:07:03.123Z</time></trkpt><trkpt lat="43.6913542" lon="11.3684669"><ele>484.00000000000006</ele><time>2026-04-18T08:07:04.122Z</time></trkpt><trkpt lat="43.6912899" lon="11.3685071"><ele>484.0</ele><time>2026-04-18T08:07:05.123Z</time></trkpt><trkpt lat="43.6912027" lon="11.3686226"><ele>484.0</ele><time>2026-04-18T08:07:07.122Z</time></trkpt><trkpt lat="43.6912062" lon="11.3687478"><ele>484.0</ele><time>2026-04-18T08:07:08.122Z</time></trkpt><trkpt lat="43.6912033" lon="11.3688772"><ele>484.0</ele><time>2026-04-18T08:07:09.123Z</time></trkpt><trkpt lat="43.69122" lon="11.3690259"><ele>484.0</ele><time>2026-04-18T08:07:10.123Z</time></trkpt><trkpt lat="43.6912445" lon="11.3691978"><ele>484.0</ele><time>2026-04-18T08:07:11.122Z</time></trkpt><trkpt lat="43.6912654" lon="11.3693657"><ele>484.1666666666667</ele><time>2026-04-18T08:07:12.123Z</time></trkpt><trkpt lat="43.6912826" lon="11.3695072"><ele>484.33333333333337</ele><time>2026-04-18T08:07:13.122Z</time></trkpt><trkpt lat="43.6912636" lon="11.3696209"><ele>484.5</ele><time>2026-04-18T08:07:14.122Z</time></trkpt><trkpt lat="43.6911873" lon="11.369682"><ele>484.66666666666663</ele><time>2026-04-18T08:07:16.123Z</time></trkpt><trkpt lat="43.6911257" lon="11.3696619"><ele>484.8333333333333</ele><time>2026-04-18T08:07:17.122Z</time></trkpt><trkpt lat="43.6910309" lon="11.3695936"><ele>485.0</ele><time>2026-04-18T08:07:18.122Z</time></trkpt><trkpt lat="43.6909084" lon="11.3695203"><ele>485.0</ele><time>2026-04-18T08:07:19.122Z</time></trkpt><trkpt lat="43.6907869" lon="11.3694555"><ele>485.0</ele><time>2026-04-18T08:07:20.122Z</time></trkpt><trkpt lat="43.690681" lon="11.3694138"><ele>485.0</ele><time>2026-04-18T08:07:21.122Z</time></trkpt><trkpt lat="43.6905763" lon="11.3693766"><ele>485.0</ele><time>2026-04-18T08:07:22.122Z</time></trkpt><trkpt lat="43.6904473" lon="11.3694032"><ele>485.0</ele><time>2026-04-18T08:07:23.122Z</time></trkpt><trkpt lat="43.6903315" lon="11.3693958"><ele>485.0</ele><time>2026-04-18T08:07:24.122Z</time></trkpt><trkpt lat="43.6902301" lon="11.3693622"><ele>485.0</ele><time>2026-04-18T08:07:25.123Z</time></trkpt><trkpt lat="43.6901254" lon="11.3693025"><ele>485.0</ele><time>2026-04-18T08:07:26.122Z</time></trkpt><trkpt lat="43.6900188" lon="11.3692143"><ele>485.75</ele><time>2026-04-18T08:07:27.121Z</time></trkpt><trkpt lat="43.689932" lon="11.3690557"><ele>486.5</ele><time>2026-04-18T08:07:28.123Z</time></trkpt><trkpt lat="43.6898411" lon="11.3689584"><ele>487.25</ele><time>2026-04-18T08:07:29.122Z</time></trkpt><trkpt lat="43.6897468" lon="11.3688624"><ele>488.0</ele><time>2026-04-18T08:07:30.122Z</time></trkpt><trkpt lat="43.6896308" lon="11.3688244"><ele>484.0</ele><time>2026-04-18T08:07:31.123Z</time></trkpt><trkpt lat="43.6895237" lon="11.3687571"><ele>480.0</ele><time>2026-04-18T08:07:32.123Z</time></trkpt><trkpt lat="43.6894242" lon="11.368715"><ele>476.0</ele><time>2026-04-18T08:07:33.122Z</time></trkpt><trkpt lat="43.6893131" lon="11.3686763"><ele>472.0</ele><time>2026-04-18T08:07:34.122Z</time></trkpt><trkpt lat="43.6891853" lon="11.3686321"><ele>472.0</ele><time>2026-04-18T08:07:35.122Z</time></trkpt><trkpt lat="43.68905" lon="11.3686962"><ele>472.0</ele><time>2026-04-18T08:07:36.123Z</time></trkpt><trkpt lat="43.688936" lon="11.3687364"><ele>472.0</ele><time>2026-04-18T08:07:37.122Z</time></trkpt><trkpt lat="43.6888327" lon="11.3687555"><ele>472.0</ele><time>2026-04-18T08:07:38.122Z</time></trkpt><trkpt lat="43.6887259" lon="11.3688289"><ele>474.8</ele><time>2026-04-18T08:07:39.123Z</time></trkpt><trkpt lat="43.6886267" lon="11.3688874"><ele>477.6</ele><time>2026-04-18T08:07:40.122Z</time></trkpt><trkpt lat="43.6885486" lon="11.3689783"><ele>480.40000000000003</ele><time>2026-04-18T08:07:41.123Z</time></trkpt><trkpt lat="43.6884521" lon="11.3690532"><ele>483.20000000000005</ele><time>2026-04-18T08:07:42.122Z</time></trkpt><trkpt lat="43.6883718" lon="11.3691438"><ele>486.0</ele><time>2026-04-18T08:07:43.122Z</time></trkpt><trkpt lat="43.6882827" lon="11.3692519"><ele>486.0</ele><time>2026-04-18T08:07:44.122Z</time></trkpt><trkpt lat="43.6881708" lon="11.3693196"><ele>486.0</ele><time>2026-04-18T08:07:45.122Z</time></trkpt><trkpt lat="43.6880711" lon="11.3694022"><ele>486.0</ele><time>2026-04-18T08:07:46.123Z</time></trkpt><trkpt lat="43.6880048" lon="11.3694877"><ele>486.0</ele><time>2026-04-18T08:07:47.122Z</time></trkpt><trkpt lat="43.687942" lon="11.3695961"><ele>486.0</ele><time>2026-04-18T08:07:48.122Z</time></trkpt><trkpt lat="43.6878878" lon="11.3697284"><ele>488.6</ele><time>2026-04-18T08:07:49.122Z</time></trkpt><trkpt lat="43.6878331" lon="11.3698556"><ele>491.20000000000005</ele><time>2026-04-18T08:07:50.122Z</time></trkpt><trkpt lat="43.6877881" lon="11.3699994"><ele>493.79999999999995</ele><time>2026-04-18T08:07:51.122Z</time></trkpt><trkpt lat="43.6877365" lon="11.3701002"><ele>496.4</ele><time>2026-04-18T08:07:52.122Z</time></trkpt><trkpt lat="43.6876964" lon="11.3701927"><ele>499.0</ele><time>2026-04-18T08:07:53.123Z</time></trkpt><trkpt lat="43.6876732" lon="11.3702753"><ele>494.6666666666667</ele><time>2026-04-18T08:07:54.121Z</time></trkpt><trkpt lat="43.6876655" lon="11.3703969"><ele>490.33333333333337</ele><time>2026-04-18T08:07:56.122Z</time></trkpt><trkpt lat="43.6876829" lon="11.3705112"><ele>486.0</ele><time>2026-04-18T08:07:58.122Z</time></trkpt><trkpt lat="43.6876604" lon="11.3706061"><ele>481.66666666666663</ele><time>2026-04-18T08:08:00.122Z</time></trkpt><trkpt lat="43.6875648" lon="11.3706413"><ele>477.3333333333333</ele><time>2026-04-18T08:08:02.123Z</time></trkpt><trkpt lat="43.6874637" lon="11.3706477"><ele>473.0</ele><time>2026-04-18T08:08:04.122Z</time></trkpt><trkpt lat="43.6874701" lon="11.3707538"><ele>472.79999999999995</ele><time>2026-04-18T08:08:07.123Z</time></trkpt><trkpt lat="43.6875964" lon="11.3708501"><ele>472.59999999999997</ele><time>2026-04-18T08:08:09.122Z</time></trkpt><trkpt lat="43.6876881" lon="11.3708997"><ele>472.40000000000003</ele><time>2026-04-18T08:08:10.122Z</time></trkpt><trkpt lat="43.6877811" lon="11.3709477"><ele>472.20000000000005</ele><time>2026-04-18T08:08:11.123Z</time></trkpt><trkpt lat="43.6878553" lon="11.3709937"><ele>472.0</ele><time>2026-04-18T08:08:12.122Z</time></trkpt><trkpt lat="43.6879136" lon="11.371037"><ele>474.40000000000003</ele><time>2026-04-18T08:08:13.122Z</time></trkpt><trkpt lat="43.6879596" lon="11.3711092"><ele>476.80000000000007</ele><time>2026-04-18T08:08:14.122Z</time></trkpt><trkpt lat="43.6880072" lon="11.3712115"><ele>479.2</ele><time>2026-04-18T08:08:15.123Z</time></trkpt><trkpt lat="43.6880603" lon="11.3713546"><ele>481.6</ele><time>2026-04-18T08:08:16.122Z</time></trkpt><trkpt lat="43.6881165" lon="11.3714987"><ele>484.0</ele><time>2026-04-18T08:08:17.123Z</time></trkpt><trkpt lat="43.6881787" lon="11.3716481"><ele>484.00000000000006</ele><time>2026-04-18T08:08:18.122Z</time></trkpt><trkpt lat="43.6882391" lon="11.3717729"><ele>484.0</ele><time>2026-04-18T08:08:19.123Z</time></trkpt><trkpt lat="43.6882853" lon="11.3718877"><ele>484.0</ele><time>2026-04-18T08:08:20.122Z</time></trkpt><trkpt lat="43.6883107" lon="11.3719871"><ele>484.0</ele><time>2026-04-18T08:08:21.123Z</time></trkpt><trkpt lat="43.6883039" lon="11.3720749"><ele>484.00000000000006</ele><time>2026-04-18T08:08:22.122Z</time></trkpt><trkpt lat="43.6882634" lon="11.3721537"><ele>484.0</ele><time>2026-04-18T08:08:23.122Z</time></trkpt><trkpt lat="43.6881929" lon="11.3722001"><ele>485.25</ele><time>2026-04-18T08:08:24.123Z</time></trkpt><trkpt lat="43.6880866" lon="11.3722085"><ele>486.5</ele><time>2026-04-18T08:08:25.122Z</time></trkpt><trkpt lat="43.6879658" lon="11.3722112"><ele>487.75</ele><time>2026-04-18T08:08:26.123Z</time></trkpt><trkpt lat="43.6878392" lon="11.3722148"><ele>489.0</ele><time>2026-04-18T08:08:27.122Z</time></trkpt><trkpt lat="43.6877158" lon="11.3722194"><ele>486.79999999999995</ele><time>2026-04-18T08:08:28.122Z</time></trkpt><trkpt lat="43.6875899" lon="11.372268"><ele>484.59999999999997</ele><time>2026-04-18T08:08:30.122Z</time></trkpt><trkpt lat="43.68754" lon="11.3723782"><ele>482.4</ele><time>2026-04-18T08:08:32.122Z</time></trkpt><trkpt lat="43.6875979" lon="11.3725326"><ele>480.2</ele><time>2026-04-18T08:08:34.122Z</time></trkpt><trkpt lat="43.6876425" lon="11.372641"><ele>478.0</ele><time>2026-04-18T08:08:35.123Z</time></trkpt><trkpt lat="43.6876876" lon="11.3727624"><ele>478.0</ele><time>2026-04-18T08:08:36.122Z</time></trkpt><trkpt lat="43.6877178" lon="11.3728607"><ele>477.99999999999994</ele><time>2026-04-18T08:08:37.122Z</time></trkpt><trkpt lat="43.6877316" lon="11.3729984"><ele>477.99999999999994</ele><time>2026-04-18T08:08:39.122Z</time></trkpt><trkpt lat="43.6876412" lon="11.3730518"><ele>478.0</ele><time>2026-04-18T08:08:41.123Z</time></trkpt><trkpt lat="43.6875418" lon="11.373042"><ele>478.0</ele><time>2026-04-18T08:08:42.122Z</time></trkpt><trkpt lat="43.6874282" lon="11.3730446"><ele>479.59999999999997</ele><time>2026-04-18T08:08:43.123Z</time></trkpt><trkpt lat="43.6873243" lon="11.3730547"><ele>481.19999999999993</ele><time>2026-04-18T08:08:44.123Z</time></trkpt><trkpt lat="43.6872271" lon="11.3730593"><ele>482.8</ele><time>2026-04-18T08:08:45.122Z</time></trkpt><trkpt lat="43.6871331" lon="11.3730581"><ele>484.4</ele><time>2026-04-18T08:08:46.122Z</time></trkpt><trkpt lat="43.6870514" lon="11.3730655"><ele>486.0</ele><time>2026-04-18T08:08:47.122Z</time></trkpt><trkpt lat="43.6869754" lon="11.3730901"><ele>482.1666666666667</ele><time>2026-04-18T08:08:48.122Z</time></trkpt><trkpt lat="43.6869035" lon="11.3731303"><ele>478.33333333333337</ele><time>2026-04-18T08:08:49.123Z</time></trkpt><trkpt lat="43.6868424" lon="11.3731952"><ele>474.5</ele><time>2026-04-18T08:08:50.122Z</time></trkpt><trkpt lat="43.6867876" lon="11.3732618"><ele>470.6666666666667</ele><time>2026-04-18T08:08:51.122Z</time></trkpt><trkpt lat="43.6867933" lon="11.3733684"><ele>466.83333333333337</ele><time>2026-04-18T08:08:52.122Z</time></trkpt><trkpt lat="43.686792" lon="11.3734736"><ele>463.0</ele><time>2026-04-18T08:08:53.122Z</time></trkpt><trkpt lat="43.6868023" lon="11.3735852"><ele>463.0</ele><time>2026-04-18T08:08:54.123Z</time></trkpt><trkpt lat="43.6868442" lon="11.3737167"><ele>462.99999999999994</ele><time>2026-04-18T08:08:55.122Z</time></trkpt><trkpt lat="43.68688" lon="11.3738549"><ele>462.99999999999994</ele><time>2026-04-18T08:08:56.123Z</time></trkpt><trkpt lat="43.6869263" lon="11.3739984"><ele>463.0</ele><time>2026-04-18T08:08:57.122Z</time></trkpt><trkpt lat="43.6869789" lon="11.3741558"><ele>463.0</ele><time>2026-04-18T08:08:58.123Z</time></trkpt><trkpt lat="43.6870329" lon="11.3743132"><ele>466.75</ele><time>2026-04-18T08:08:59.123Z</time></trkpt><trkpt lat="43.6870911" lon="11.3744561"><ele>470.5</ele><time>2026-04-18T08:09:00.123Z</time></trkpt><trkpt lat="43.6871449" lon="11.3745938"><ele>474.25</ele><time>2026-04-18T08:09:01.122Z</time></trkpt><trkpt lat="43.6871881" lon="11.3747307"><ele>478.0</ele><time>2026-04-18T08:09:02.122Z</time></trkpt><trkpt lat="43.6872228" lon="11.3748831"><ele>478.0</ele><time>2026-04-18T08:09:03.122Z</time></trkpt><trkpt lat="43.6872469" lon="11.3750415"><ele>477.99999999999994</ele><time>2026-04-18T08:09:04.122Z</time></trkpt><trkpt lat="43.6872521" lon="11.3751963"><ele>477.99999999999994</ele><time>2026-04-18T08:09:05.123Z</time></trkpt><trkpt lat="43.6872637" lon="11.3753303"><ele>478.0</ele><time>2026-04-18T08:09:06.122Z</time></trkpt><trkpt lat="43.6872788" lon="11.3754463"><ele>478.0</ele><time>2026-04-18T08:09:07.122Z</time></trkpt><trkpt lat="43.6872974" lon="11.375572"><ele>475.0</ele><time>2026-04-18T08:09:08.122Z</time></trkpt><trkpt lat="43.6873479" lon="11.3756605"><ele>471.99999999999994</ele><time>2026-04-18T08:09:09.122Z</time></trkpt><trkpt lat="43.6874007" lon="11.3757423"><ele>468.99999999999994</ele><time>2026-04-18T08:09:10.122Z</time></trkpt><trkpt lat="43.6874677" lon="11.3758251"><ele>466.0</ele><time>2026-04-18T08:09:11.123Z</time></trkpt><trkpt lat="43.6875479" lon="11.3758955"><ele>463.0</ele><time>2026-04-18T08:09:12.123Z</time></trkpt><trkpt lat="43.6876349" lon="11.3759825"><ele>463.0</ele><time>2026-04-18T08:09:13.122Z</time></trkpt><trkpt lat="43.6877146" lon="11.3760936"><ele>463.0</ele><time>2026-04-18T08:09:14.123Z</time></trkpt><trkpt lat="43.6877888" lon="11.3762207"><ele>463.0</ele><time>2026-04-18T08:09:15.122Z</time></trkpt><trkpt lat="43.6878607" lon="11.3763523"><ele>463.0</ele><time>2026-04-18T08:09:16.122Z</time></trkpt><trkpt lat="43.687931" lon="11.376492"><ele>464.1666666666667</ele><time>2026-04-18T08:09:17.122Z</time></trkpt><trkpt lat="43.6879929" lon="11.3766147"><ele>465.33333333333337</ele><time>2026-04-18T08:09:18.123Z</time></trkpt><trkpt lat="43.6880438" lon="11.3767194"><ele>466.5</ele><time>2026-04-18T08:09:19.122Z</time></trkpt><trkpt lat="43.6880892" lon="11.3768202"><ele>467.66666666666663</ele><time>2026-04-18T08:09:20.122Z</time></trkpt><trkpt lat="43.6881068" lon="11.3769149"><ele>468.8333333333333</ele><time>2026-04-18T08:09:21.123Z</time></trkpt><trkpt lat="43.6881226" lon="11.37702"><ele>470.0</ele><time>2026-04-18T08:09:22.122Z</time></trkpt><trkpt lat="43.6881508" lon="11.3771168"><ele>467.16666666666663</ele><time>2026-04-18T08:09:23.122Z</time></trkpt><trkpt lat="43.6881941" lon="11.3772023"><ele>464.3333333333333</ele><time>2026-04-18T08:09:24.122Z</time></trkpt><trkpt lat="43.6882506" lon="11.377277"><ele>461.5</ele><time>2026-04-18T08:09:25.122Z</time></trkpt><trkpt lat="43.6883073" lon="11.3773455"><ele>458.66666666666663</ele><time>2026-04-18T08:09:26.122Z</time></trkpt><trkpt lat="43.6883807" lon="11.3773761"><ele>455.8333333333333</ele><time>2026-04-18T08:09:27.122Z</time></trkpt><trkpt lat="43.688451" lon="11.3773807"><ele>453.0</ele><time>2026-04-18T08:09:28.122Z</time></trkpt><trkpt lat="43.6885192" lon="11.3774202"><ele>453.0</ele><time>2026-04-18T08:09:29.122Z</time></trkpt><trkpt lat="43.6885656" lon="11.3774818"><ele>453.0</ele><time>2026-04-18T08:09:30.122Z</time></trkpt><trkpt lat="43.6886111" lon="11.3775502"><ele>453.0</ele><time>2026-04-18T08:09:31.123Z</time></trkpt><trkpt lat="43.6885924" lon="11.3777209"><ele>453.0</ele><time>2026-04-18T08:09:33.122Z</time></trkpt><trkpt lat="43.6885065" lon="11.3777991"><ele>453.0</ele><time>2026-04-18T08:09:34.122Z</time></trkpt><trkpt lat="43.6884671" lon="11.3778791"><ele>453.0</ele><time>2026-04-18T08:09:35.123Z</time></trkpt><trkpt lat="43.6883816" lon="11.3779718"><ele>453.4</ele><time>2026-04-18T08:09:37.122Z</time></trkpt><trkpt lat="43.6883248" lon="11.378034"><ele>453.79999999999995</ele><time>2026-04-18T08:09:38.122Z</time></trkpt><trkpt lat="43.6882401" lon="11.378111"><ele>454.2</ele><time>2026-04-18T08:09:39.122Z</time></trkpt><trkpt lat="43.6881735" lon="11.3781794"><ele>454.6</ele><time>2026-04-18T08:09:40.123Z</time></trkpt><trkpt lat="43.6880572" lon="11.3782279"><ele>455.0</ele><time>2026-04-18T08:09:42.122Z</time></trkpt><trkpt lat="43.687966" lon="11.3782376"><ele>455.0</ele><time>2026-04-18T08:09:43.122Z</time></trkpt><trkpt lat="43.6878824" lon="11.3782452"><ele>455.0</ele><time>2026-04-18T08:09:44.122Z</time></trkpt><trkpt lat="43.6877917" lon="11.3782453"><ele>455.0</ele><time>2026-04-18T08:09:45.122Z</time></trkpt><trkpt lat="43.6876949" lon="11.3782534"><ele>455.0</ele><time>2026-04-18T08:09:46.122Z</time></trkpt><trkpt lat="43.6876058" lon="11.3782726"><ele>455.0</ele><time>2026-04-18T08:09:47.122Z</time></trkpt><trkpt lat="43.6875147" lon="11.3782914"><ele>452.16666666666663</ele><time>2026-04-18T08:09:48.122Z</time></trkpt><trkpt lat="43.6874359" lon="11.378328"><ele>449.3333333333333</ele><time>2026-04-18T08:09:49.123Z</time></trkpt><trkpt lat="43.6873658" lon="11.3783813"><ele>446.5</ele><time>2026-04-18T08:09:50.122Z</time></trkpt><trkpt lat="43.6873075" lon="11.3784246"><ele>443.66666666666663</ele><time>2026-04-18T08:09:51.122Z</time></trkpt><trkpt lat="43.6872012" lon="11.3784859"><ele>440.8333333333333</ele><time>2026-04-18T08:09:53.123Z</time></trkpt><trkpt lat="43.687139" lon="11.3785418"><ele>438.0</ele><time>2026-04-18T08:09:55.122Z</time></trkpt><trkpt lat="43.687106" lon="11.3786189"><ele>438.0</ele><time>2026-04-18T08:09:58.122Z</time></trkpt><trkpt lat="43.6870407" lon="11.3786691"><ele>438.0</ele><time>2026-04-18T08:10:00.122Z</time></trkpt><trkpt lat="43.6870302" lon="11.3788365"><ele>438.0</ele><time>2026-04-18T08:10:02.122Z</time></trkpt><trkpt lat="43.6870222" lon="11.3789287"><ele>438.0</ele><time>2026-04-18T08:10:03.122Z</time></trkpt><trkpt lat="43.6870072" lon="11.379037"><ele>438.0</ele><time>2026-04-18T08:10:04.123Z</time></trkpt><trkpt lat="43.6869729" lon="11.3791293"><ele>438.0</ele><time>2026-04-18T08:10:05.123Z</time></trkpt><trkpt lat="43.6869131" lon="11.3792188"><ele>434.59999999999997</ele><time>2026-04-18T08:10:06.122Z</time></trkpt><trkpt lat="43.6868404" lon="11.3793044"><ele>431.19999999999993</ele><time>2026-04-18T08:10:07.122Z</time></trkpt><trkpt lat="43.6867561" lon="11.3793958"><ele>427.8</ele><time>2026-04-18T08:10:08.123Z</time></trkpt><trkpt lat="43.6866838" lon="11.3794702"><ele>424.4</ele><time>2026-04-18T08:10:09.122Z</time></trkpt><trkpt lat="43.6866312" lon="11.3795629"><ele>421.0</ele><time>2026-04-18T08:10:10.122Z</time></trkpt><trkpt lat="43.6865808" lon="11.3796571"><ele>421.0</ele><time>2026-04-18T08:10:11.122Z</time></trkpt><trkpt lat="43.6865483" lon="11.3797345"><ele>421.0</ele><time>2026-04-18T08:10:12.122Z</time></trkpt><trkpt lat="43.6865391" lon="11.3799048"><ele>421.0</ele><time>2026-04-18T08:10:14.122Z</time></trkpt><trkpt lat="43.686592" lon="11.3800446"><ele>421.0</ele><time>2026-04-18T08:10:15.122Z</time></trkpt><trkpt lat="43.686623" lon="11.380165"><ele>421.0</ele><time>2026-04-18T08:10:16.122Z</time></trkpt><trkpt lat="43.6866618" lon="11.380289"><ele>421.00000000000006</ele><time>2026-04-18T08:10:17.123Z</time></trkpt><trkpt lat="43.6867043" lon="11.3804377"><ele>421.0</ele><time>2026-04-18T08:10:18.122Z</time></trkpt><trkpt lat="43.6867303" lon="11.3805382"><ele>421.0</ele><time>2026-04-18T08:10:19.122Z</time></trkpt><trkpt lat="43.6867545" lon="11.3806366"><ele>421.0</ele><time>2026-04-18T08:10:20.122Z</time></trkpt><trkpt lat="43.6867882" lon="11.3807431"><ele>421.00000000000006</ele><time>2026-04-18T08:10:21.122Z</time></trkpt><trkpt lat="43.6868109" lon="11.3808437"><ele>421.0</ele><time>2026-04-18T08:10:22.122Z</time></trkpt><trkpt lat="43.6868295" lon="11.3809565"><ele>419.4</ele><time>2026-04-18T08:10:23.122Z</time></trkpt><trkpt lat="43.6868563" lon="11.3810564"><ele>417.8</ele><time>2026-04-18T08:10:24.123Z</time></trkpt><trkpt lat="43.6868714" lon="11.3812382"><ele>416.2</ele><time>2026-04-18T08:10:26.122Z</time></trkpt><trkpt lat="43.6868558" lon="11.3813536"><ele>414.59999999999997</ele><time>2026-04-18T08:10:27.122Z</time></trkpt><trkpt lat="43.686828" lon="11.3814522"><ele>413.0</ele><time>2026-04-18T08:10:28.123Z</time></trkpt><trkpt lat="43.686802" lon="11.3815593"><ele>412.59999999999997</ele><time>2026-04-18T08:10:29.123Z</time></trkpt><trkpt lat="43.6867702" lon="11.3816943"><ele>412.2</ele><time>2026-04-18T08:10:31.122Z</time></trkpt><trkpt lat="43.6867109" lon="11.3817333"><ele>411.8</ele><time>2026-04-18T08:10:33.122Z</time></trkpt><trkpt lat="43.6866047" lon="11.3817253"><ele>411.4</ele><time>2026-04-18T08:10:35.121Z</time></trkpt><trkpt lat="43.6865052" lon="11.3817433"><ele>411.0</ele><time>2026-04-18T08:10:36.123Z</time></trkpt><trkpt lat="43.6864128" lon="11.381761"><ele>411.0</ele><time>2026-04-18T08:10:37.122Z</time></trkpt><trkpt lat="43.6863237" lon="11.3817561"><ele>411.0</ele><time>2026-04-18T08:10:38.122Z</time></trkpt><trkpt lat="43.686238" lon="11.3817557"><ele>411.0</ele><time>2026-04-18T08:10:39.123Z</time></trkpt><trkpt lat="43.6861681" lon="11.3817431"><ele>411.0</ele><time>2026-04-18T08:10:40.123Z</time></trkpt><trkpt lat="43.6860962" lon="11.3817332"><ele>411.0</ele><time>2026-04-18T08:10:41.122Z</time></trkpt><trkpt lat="43.6859911" lon="11.3816214"><ele>408.4</ele><time>2026-04-18T08:10:42.122Z</time></trkpt><trkpt lat="43.6859165" lon="11.3815712"><ele>405.8</ele><time>2026-04-18T08:10:43.122Z</time></trkpt><trkpt lat="43.6858296" lon="11.381528"><ele>403.2</ele><time>2026-04-18T08:10:44.123Z</time></trkpt><trkpt lat="43.6857348" lon="11.3815122"><ele>400.59999999999997</ele><time>2026-04-18T08:10:45.122Z</time></trkpt><trkpt lat="43.685649" lon="11.3814779"><ele>398.0</ele><time>2026-04-18T08:10:46.123Z</time></trkpt><trkpt lat="43.6855694" lon="11.3814204"><ele>398.0</ele><time>2026-04-18T08:10:47.123Z</time></trkpt><trkpt lat="43.6854823" lon="11.3813669"><ele>398.0</ele><time>2026-04-18T08:10:48.123Z</time></trkpt><trkpt lat="43.6854141" lon="11.3813385"><ele>398.0</ele><time>2026-04-18T08:10:49.122Z</time></trkpt><trkpt lat="43.6853432" lon="11.3813158"><ele>398.0</ele><time>2026-04-18T08:10:50.122Z</time></trkpt><trkpt lat="43.6852746" lon="11.3813843"><ele>398.0</ele><time>2026-04-18T08:10:52.122Z</time></trkpt><trkpt lat="43.685399" lon="11.3815452"><ele>397.99999999999994</ele><time>2026-04-18T08:10:54.123Z</time></trkpt><trkpt lat="43.6854538" lon="11.3816554"><ele>398.0</ele><time>2026-04-18T08:10:55.123Z</time></trkpt><trkpt lat="43.6854952" lon="11.3817457"><ele>398.0</ele><time>2026-04-18T08:10:56.122Z</time></trkpt><trkpt lat="43.6855011" lon="11.3818494"><ele>398.0</ele><time>2026-04-18T08:10:57.122Z</time></trkpt><trkpt lat="43.6855083" lon="11.3819536"><ele>397.99999999999994</ele><time>2026-04-18T08:10:58.122Z</time></trkpt><trkpt lat="43.6855044" lon="11.3820616"><ele>398.0</ele><time>2026-04-18T08:10:59.122Z</time></trkpt><trkpt lat="43.6855809" lon="11.3821472"><ele>396.8333333333333</ele><time>2026-04-18T08:11:05.122Z</time></trkpt><trkpt lat="43.685621" lon="11.3822537"><ele>395.66666666666663</ele><time>2026-04-18T08:11:07.123Z</time></trkpt><trkpt lat="43.6856634" lon="11.3823382"><ele>394.5</ele><time>2026-04-18T08:11:08.122Z</time></trkpt><trkpt lat="43.6857045" lon="11.3824086"><ele>393.33333333333337</ele><time>2026-04-18T08:11:09.122Z</time></trkpt><trkpt lat="43.6857624" lon="11.3824727"><ele>392.1666666666667</ele><time>2026-04-18T08:11:10.123Z</time></trkpt><trkpt lat="43.6858269" lon="11.382546"><ele>391.0</ele><time>2026-04-18T08:11:11.122Z</time></trkpt><trkpt lat="43.685902" lon="11.3825763"><ele>391.0</ele><time>2026-04-18T08:11:12.122Z</time></trkpt><trkpt lat="43.6859802" lon="11.3826433"><ele>391.0</ele><time>2026-04-18T08:11:13.122Z</time></trkpt><trkpt lat="43.6860907" lon="11.3827281"><ele>391.0</ele><time>2026-04-18T08:11:14.122Z</time></trkpt><trkpt lat="43.6861524" lon="11.3828048"><ele>391.0</ele><time>2026-04-18T08:11:15.122Z</time></trkpt><trkpt lat="43.686193" lon="11.382942"><ele>391.0</ele><time>2026-04-18T08:11:17.122Z</time></trkpt><trkpt lat="43.6861553" lon="11.3830304"><ele>390.20000000000005</ele><time>2026-04-18T08:11:18.123Z</time></trkpt><trkpt lat="43.68611" lon="11.3831242"><ele>389.40000000000003</ele><time>2026-04-18T08:11:19.122Z</time></trkpt><trkpt lat="43.6860677" lon="11.3832087"><ele>388.6</ele><time>2026-04-18T08:11:20.123Z</time></trkpt><trkpt lat="43.686027" lon="11.3832866"><ele>387.8</ele><time>2026-04-18T08:11:21.122Z</time></trkpt><trkpt lat="43.6860422" lon="11.3834869"><ele>387.0</ele><time>2026-04-18T08:11:23.122Z</time></trkpt><trkpt lat="43.6861178" lon="11.3836248"><ele>388.1666666666667</ele><time>2026-04-18T08:11:24.122Z</time></trkpt><trkpt lat="43.6861509" lon="11.3837284"><ele>389.33333333333337</ele><time>2026-04-18T08:11:25.122Z</time></trkpt><trkpt lat="43.6861801" lon="11.383838"><ele>390.5</ele><time>2026-04-18T08:11:26.122Z</time></trkpt><trkpt lat="43.6862109" lon="11.3839289"><ele>391.6666666666667</ele><time>2026-04-18T08:11:27.121Z</time></trkpt><trkpt lat="43.6862353" lon="11.3840204"><ele>392.83333333333337</ele><time>2026-04-18T08:11:28.123Z</time></trkpt><trkpt lat="43.6862075" lon="11.3841781"><ele>394.0</ele><time>2026-04-18T08:11:30.122Z</time></trkpt><trkpt lat="43.6861683" lon="11.3842706"><ele>394.00000000000006</ele><time>2026-04-18T08:11:31.122Z</time></trkpt><trkpt lat="43.6861003" lon="11.3843669"><ele>394.0</ele><time>2026-04-18T08:11:32.122Z</time></trkpt><trkpt lat="43.686042" lon="11.3844598"><ele>394.0</ele><time>2026-04-18T08:11:33.123Z</time></trkpt><trkpt lat="43.6859747" lon="11.3845301"><ele>394.0</ele><time>2026-04-18T08:11:34.123Z</time></trkpt><trkpt lat="43.6859086" lon="11.3845922"><ele>394.00000000000006</ele><time>2026-04-18T08:11:35.122Z</time></trkpt><trkpt lat="43.6858442" lon="11.3846491"><ele>394.0</ele><time>2026-04-18T08:11:36.122Z</time></trkpt><trkpt lat="43.6857691" lon="11.3847285"><ele>393.00000000000006</ele><time>2026-04-18T08:11:38.122Z</time></trkpt><trkpt lat="43.6857197" lon="11.3848021"><ele>392.0</ele><time>2026-04-18T08:29:36.122Z</time></trkpt><trkpt lat="43.6857305" lon="11.3848987"><ele>391.0</ele><time>2026-04-18T08:29:39.122Z</time></trkpt><trkpt lat="43.6857846" lon="11.3850134"><ele>390.0</ele><time>2026-04-18T08:29:41.122Z</time></trkpt><trkpt lat="43.6858136" lon="11.3850961"><ele>389.00000000000006</ele><time>2026-04-18T08:29:42.122Z</time></trkpt><trkpt lat="43.6858522" lon="11.3852253"><ele>388.0</ele><time>2026-04-18T08:29:43.123Z</time></trkpt><trkpt lat="43.6858963" lon="11.3853986"><ele>389.25</ele><time>2026-04-18T08:29:44.122Z</time></trkpt><trkpt lat="43.6859426" lon="11.385577"><ele>390.5</ele><time>2026-04-18T08:29:45.122Z</time></trkpt><trkpt lat="43.6859916" lon="11.3857007"><ele>391.75</ele><time>2026-04-18T08:29:46.122Z</time></trkpt><trkpt lat="43.6860776" lon="11.3858632"><ele>393.0</ele><time>2026-04-18T08:29:47.122Z</time></trkpt><trkpt lat="43.6861179" lon="11.385956"><ele>391.0</ele><time>2026-04-18T08:29:48.122Z</time></trkpt><trkpt lat="43.6861651" lon="11.3860486"><ele>389.0</ele><time>2026-04-18T08:29:49.122Z</time></trkpt><trkpt lat="43.6862166" lon="11.3861018"><ele>387.0</ele><time>2026-04-18T08:29:50.122Z</time></trkpt><trkpt lat="43.6863194" lon="11.3862054"><ele>385.0</ele><time>2026-04-18T08:29:52.122Z</time></trkpt><trkpt lat="43.6863408" lon="11.386294"><ele>383.0</ele><time>2026-04-18T08:29:53.122Z</time></trkpt><trkpt lat="43.6863134" lon="11.3863928"><ele>381.0</ele><time>2026-04-18T08:29:54.123Z</time></trkpt><trkpt lat="43.6862861" lon="11.3866093"><ele>380.0</ele><time>2026-04-18T08:29:55.123Z</time></trkpt><trkpt lat="43.6862646" lon="11.386775"><ele>379.0</ele><time>2026-04-18T08:29:56.122Z</time></trkpt><trkpt lat="43.6862665" lon="11.3868933"><ele>378.0</ele><time>2026-04-18T08:29:57.122Z</time></trkpt><trkpt lat="43.6862557" lon="11.3870408"><ele>377.0</ele><time>2026-04-18T08:29:58.122Z</time></trkpt><trkpt lat="43.6862118" lon="11.3871248"><ele>376.0</ele><time>2026-04-18T08:29:59.122Z</time></trkpt><trkpt lat="43.6861919" lon="11.3872139"><ele>375.3333333333333</ele><time>2026-04-18T08:30:00.122Z</time></trkpt><trkpt lat="43.6861703" lon="11.387299"><ele>374.66666666666663</ele><time>2026-04-18T08:30:01.122Z</time></trkpt><trkpt lat="43.6861511" lon="11.3873948"><ele>374.0</ele><time>2026-04-18T08:30:02.12Z</time></trkpt><trkpt lat="43.6861062" lon="11.3875032"><ele>373.3333333333333</ele><time>2026-04-18T08:30:03.121Z</time></trkpt><trkpt lat="43.6860344" lon="11.3876516"><ele>372.6666666666667</ele><time>2026-04-18T08:30:04.121Z</time></trkpt><trkpt lat="43.6859799" lon="11.3877452"><ele>372.0</ele><time>2026-04-18T08:30:05.122Z</time></trkpt><trkpt lat="43.6859136" lon="11.3878256"><ele>372.6</ele><time>2026-04-18T08:30:06.121Z</time></trkpt><trkpt lat="43.6858258" lon="11.3878867"><ele>373.20000000000005</ele><time>2026-04-18T08:30:07.121Z</time></trkpt><trkpt lat="43.6857437" lon="11.3879493"><ele>373.8</ele><time>2026-04-18T08:30:08.121Z</time></trkpt><trkpt lat="43.6856677" lon="11.3879782"><ele>374.4</ele><time>2026-04-18T08:30:09.122Z</time></trkpt><trkpt lat="43.6855933" lon="11.3880326"><ele>375.0</ele><time>2026-04-18T08:30:10.122Z</time></trkpt><trkpt lat="43.6854713" lon="11.3880947"><ele>375.0</ele><time>2026-04-18T08:30:12.12Z</time></trkpt><trkpt lat="43.6853985" lon="11.3881806"><ele>375.0</ele><time>2026-04-18T08:30:14.121Z</time></trkpt><trkpt lat="43.6854447" lon="11.38826"><ele>375.0</ele><time>2026-04-18T08:30:16.121Z</time></trkpt><trkpt lat="43.6855528" lon="11.3882402"><ele>375.0</ele><time>2026-04-18T08:30:17.121Z</time></trkpt><trkpt lat="43.6856209" lon="11.3882646"><ele>375.0</ele><time>2026-04-18T08:30:18.121Z</time></trkpt><trkpt lat="43.6856978" lon="11.388273"><ele>375.0</ele><time>2026-04-18T08:30:19.121Z</time></trkpt><trkpt lat="43.6857748" lon="11.3883301"><ele>375.0</ele><time>2026-04-18T08:30:20.121Z</time></trkpt><trkpt lat="43.6858547" lon="11.3883745"><ele>375.0</ele><time>2026-04-18T08:30:21.121Z</time></trkpt><trkpt lat="43.6858913" lon="11.3884509"><ele>375.0</ele><time>2026-04-18T08:30:22.121Z</time></trkpt><trkpt lat="43.6859247" lon="11.3885256"><ele>375.0</ele><time>2026-04-18T08:30:23.121Z</time></trkpt><trkpt lat="43.6859688" lon="11.3886198"><ele>375.0</ele><time>2026-04-18T08:30:24.121Z</time></trkpt><trkpt lat="43.6860342" lon="11.388662"><ele>375.0</ele><time>2026-04-18T08:30:26.122Z</time></trkpt><trkpt lat="43.6861" lon="11.3886826"><ele>375.0</ele><time>2026-04-18T08:30:27.122Z</time></trkpt><trkpt lat="43.6861634" lon="11.3886991"><ele>373.0</ele><time>2026-04-18T08:30:28.121Z</time></trkpt><trkpt lat="43.6862536" lon="11.3887339"><ele>371.0</ele><time>2026-04-18T08:30:29.121Z</time></trkpt><trkpt lat="43.6863811" lon="11.3888073"><ele>369.0</ele><time>2026-04-18T08:30:30.121Z</time></trkpt><trkpt lat="43.6864764" lon="11.3888789"><ele>367.0</ele><time>2026-04-18T08:30:31.121Z</time></trkpt><trkpt lat="43.686564" lon="11.3889609"><ele>365.0</ele><time>2026-04-18T08:30:32.122Z</time></trkpt><trkpt lat="43.6866359" lon="11.3890626"><ele>365.0</ele><time>2026-04-18T08:30:33.121Z</time></trkpt><trkpt lat="43.6866769" lon="11.3891737"><ele>365.0</ele><time>2026-04-18T08:30:34.121Z</time></trkpt><trkpt lat="43.686731" lon="11.3892752"><ele>365.0</ele><time>2026-04-18T08:30:35.121Z</time></trkpt><trkpt lat="43.6867619" lon="11.3893739"><ele>365.0</ele><time>2026-04-18T08:30:36.122Z</time></trkpt><trkpt lat="43.6867988" lon="11.3895063"><ele>365.0</ele><time>2026-04-18T08:30:38.122Z</time></trkpt><trkpt lat="43.6867746" lon="11.3896525"><ele>366.0</ele><time>2026-04-18T08:30:39.121Z</time></trkpt><trkpt lat="43.6867391" lon="11.3898319"><ele>367.0</ele><time>2026-04-18T08:30:40.121Z</time></trkpt><trkpt lat="43.6867167" lon="11.3899689"><ele>368.0</ele><time>2026-04-18T08:30:41.121Z</time></trkpt><trkpt lat="43.6867042" lon="11.3901084"><ele>369.0</ele><time>2026-04-18T08:30:42.121Z</time></trkpt><trkpt lat="43.6866813" lon="11.3902254"><ele>370.0</ele><time>2026-04-18T08:30:43.121Z</time></trkpt><trkpt lat="43.6867641" lon="11.3902815"><ele>370.0</ele><time>2026-04-18T08:30:44.121Z</time></trkpt><trkpt lat="43.6868552" lon="11.3903771"><ele>370.0</ele><time>2026-04-18T08:30:45.12Z</time></trkpt><trkpt lat="43.6869488" lon="11.3904855"><ele>370.0</ele><time>2026-04-18T08:30:46.122Z</time></trkpt><trkpt lat="43.6870248" lon="11.3905736"><ele>370.0</ele><time>2026-04-18T08:30:47.121Z</time></trkpt><trkpt lat="43.6871001" lon="11.3906806"><ele>370.0</ele><time>2026-04-18T08:30:48.121Z</time></trkpt><trkpt lat="43.6871773" lon="11.3907875"><ele>369.8</ele><time>2026-04-18T08:30:49.121Z</time></trkpt><trkpt lat="43.6872416" lon="11.3908723"><ele>369.6</ele><time>2026-04-18T08:30:50.121Z</time></trkpt><trkpt lat="43.6872775" lon="11.3909822"><ele>369.4</ele><time>2026-04-18T08:30:51.121Z</time></trkpt><trkpt lat="43.6873226" lon="11.3911132"><ele>369.2</ele><time>2026-04-18T08:30:52.121Z</time></trkpt><trkpt lat="43.6873682" lon="11.391236"><ele>369.0</ele><time>2026-04-18T08:30:53.122Z</time></trkpt><trkpt lat="43.6874172" lon="11.3913717"><ele>369.0</ele><time>2026-04-18T08:30:54.121Z</time></trkpt><trkpt lat="43.6874488" lon="11.3914955"><ele>369.0</ele><time>2026-04-18T08:30:55.122Z</time></trkpt><trkpt lat="43.6874871" lon="11.3916218"><ele>369.0</ele><time>2026-04-18T08:30:56.122Z</time></trkpt><trkpt lat="43.6874693" lon="11.3917596"><ele>369.0</ele><time>2026-04-18T08:30:57.121Z</time></trkpt><trkpt lat="43.6874764" lon="11.3918898"><ele>369.0</ele><time>2026-04-18T08:30:58.121Z</time></trkpt><trkpt lat="43.6874875" lon="11.3920215"><ele>370.75</ele><time>2026-04-18T08:30:59.121Z</time></trkpt><trkpt lat="43.6875436" lon="11.3921884"><ele>372.5</ele><time>2026-04-18T08:31:00.121Z</time></trkpt><trkpt lat="43.687587" lon="11.3923328"><ele>374.25</ele><time>2026-04-18T08:31:01.122Z</time></trkpt><trkpt lat="43.6876289" lon="11.3924771"><ele>376.0</ele><time>2026-04-18T08:31:02.122Z</time></trkpt><trkpt lat="43.6876612" lon="11.3926131"><ele>376.0</ele><time>2026-04-18T08:31:03.121Z</time></trkpt><trkpt lat="43.6876993" lon="11.3927443"><ele>376.0</ele><time>2026-04-18T08:31:04.121Z</time></trkpt><trkpt lat="43.6877329" lon="11.3928831"><ele>376.0</ele><time>2026-04-18T08:31:05.121Z</time></trkpt><trkpt lat="43.6877457" lon="11.39305"><ele>376.0</ele><time>2026-04-18T08:31:06.121Z</time></trkpt><trkpt lat="43.6877748" lon="11.3931945"><ele>376.0</ele><time>2026-04-18T08:31:07.121Z</time></trkpt><trkpt lat="43.6877771" lon="11.3933273"><ele>374.5</ele><time>2026-04-18T08:31:08.12Z</time></trkpt><trkpt lat="43.6877814" lon="11.3934549"><ele>373.0</ele><time>2026-04-18T08:31:09.121Z</time></trkpt><trkpt lat="43.6877871" lon="11.3935533"><ele>371.5</ele><time>2026-04-18T08:31:10.121Z</time></trkpt><trkpt lat="43.6877885" lon="11.393641"><ele>370.0</ele><time>2026-04-18T08:31:11.121Z</time></trkpt><trkpt lat="43.6877812" lon="11.3937556"><ele>368.5</ele><time>2026-04-18T08:31:12.121Z</time></trkpt><trkpt lat="43.6877639" lon="11.3938742"><ele>367.0</ele><time>2026-04-18T08:31:13.121Z</time></trkpt><trkpt lat="43.6877274" lon="11.394006"><ele>367.0</ele><time>2026-04-18T08:31:14.121Z</time></trkpt><trkpt lat="43.6876801" lon="11.3941229"><ele>367.0</ele><time>2026-04-18T08:31:15.121Z</time></trkpt><trkpt lat="43.6876021" lon="11.3942349"><ele>367.0</ele><time>2026-04-18T08:31:16.121Z</time></trkpt><trkpt lat="43.6875066" lon="11.3943118"><ele>367.0</ele><time>2026-04-18T08:31:17.121Z</time></trkpt><trkpt lat="43.6874477" lon="11.3943764"><ele>367.0</ele><time>2026-04-18T08:31:18.122Z</time></trkpt><trkpt lat="43.6873937" lon="11.3944552"><ele>367.0</ele><time>2026-04-18T08:31:19.121Z</time></trkpt><trkpt lat="43.6873929" lon="11.394547"><ele>367.0</ele><time>2026-04-18T08:31:20.121Z</time></trkpt><trkpt lat="43.6873869" lon="11.3946896"><ele>367.0</ele><time>2026-04-18T08:31:21.121Z</time></trkpt><trkpt lat="43.6873832" lon="11.3948101"><ele>367.0</ele><time>2026-04-18T08:31:22.121Z</time></trkpt><trkpt lat="43.6873782" lon="11.3948987"><ele>367.0</ele><time>2026-04-18T08:31:23.122Z</time></trkpt><trkpt lat="43.687355" lon="11.3949819"><ele>367.0</ele><time>2026-04-18T08:31:24.121Z</time></trkpt><trkpt lat="43.6872696" lon="11.3950616"><ele>362.75</ele><time>2026-04-18T08:31:25.122Z</time></trkpt><trkpt lat="43.6871921" lon="11.3952686"><ele>358.5</ele><time>2026-04-18T08:31:27.122Z</time></trkpt><trkpt lat="43.6871453" lon="11.3953849"><ele>354.25</ele><time>2026-04-18T08:31:28.121Z</time></trkpt><trkpt lat="43.6870681" lon="11.3954935"><ele>350.0</ele><time>2026-04-18T08:31:29.121Z</time></trkpt><trkpt lat="43.6870139" lon="11.3956002"><ele>349.33333333333337</ele><time>2026-04-18T08:31:30.121Z</time></trkpt><trkpt lat="43.6869674" lon="11.3957185"><ele>348.6666666666667</ele><time>2026-04-18T08:31:31.121Z</time></trkpt><trkpt lat="43.686931" lon="11.3957975"><ele>348.0</ele><time>2026-04-18T08:31:32.121Z</time></trkpt><trkpt lat="43.6868554" lon="11.3958616"><ele>347.3333333333333</ele><time>2026-04-18T08:31:33.121Z</time></trkpt><trkpt lat="43.6867797" lon="11.3958958"><ele>346.66666666666663</ele><time>2026-04-18T08:31:34.121Z</time></trkpt><trkpt lat="43.686693" lon="11.3959017"><ele>346.0</ele><time>2026-04-18T08:31:35.121Z</time></trkpt><trkpt lat="43.686609" lon="11.3958967"><ele>346.0</ele><time>2026-04-18T08:31:36.121Z</time></trkpt><trkpt lat="43.6864659" lon="11.3958167"><ele>346.0</ele><time>2026-04-18T08:31:37.121Z</time></trkpt><trkpt lat="43.6863407" lon="11.3957526"><ele>346.0</ele><time>2026-04-18T08:31:38.121Z</time></trkpt><trkpt lat="43.6862615" lon="11.3957059"><ele>346.0</ele><time>2026-04-18T08:31:39.121Z</time></trkpt><trkpt lat="43.6861747" lon="11.3956556"><ele>348.20000000000005</ele><time>2026-04-18T08:31:40.121Z</time></trkpt><trkpt lat="43.6860792" lon="11.3956011"><ele>350.40000000000003</ele><time>2026-04-18T08:31:41.121Z</time></trkpt><trkpt lat="43.6860033" lon="11.3955948"><ele>352.6</ele><time>2026-04-18T08:31:42.121Z</time></trkpt><trkpt lat="43.6859233" lon="11.3955467"><ele>354.8</ele><time>2026-04-18T08:31:44.121Z</time></trkpt><trkpt lat="43.6858675" lon="11.3956447"><ele>357.0</ele><time>2026-04-18T08:31:46.121Z</time></trkpt><trkpt lat="43.6858678" lon="11.3958919"><ele>357.0</ele><time>2026-04-18T08:31:48.122Z</time></trkpt><trkpt lat="43.685864" lon="11.3960068"><ele>357.0</ele><time>2026-04-18T08:31:49.122Z</time></trkpt><trkpt lat="43.6858785" lon="11.3961583"><ele>357.0</ele><time>2026-04-18T08:31:50.121Z</time></trkpt><trkpt lat="43.6858514" lon="11.3962844"><ele>357.0</ele><time>2026-04-18T08:31:51.122Z</time></trkpt><trkpt lat="43.6858205" lon="11.3964059"><ele>357.0</ele><time>2026-04-18T08:31:52.121Z</time></trkpt><trkpt lat="43.6857897" lon="11.3965286"><ele>355.40000000000003</ele><time>2026-04-18T08:31:53.121Z</time></trkpt><trkpt lat="43.6857524" lon="11.3966472"><ele>353.8</ele><time>2026-04-18T08:31:54.122Z</time></trkpt><trkpt lat="43.6857118" lon="11.3967581"><ele>352.2</ele><time>2026-04-18T08:31:55.121Z</time></trkpt><trkpt lat="43.6856651" lon="11.3968732"><ele>350.6</ele><time>2026-04-18T08:31:56.121Z</time></trkpt><trkpt lat="43.6856173" lon="11.3969921"><ele>349.0</ele><time>2026-04-18T08:31:57.12Z</time></trkpt><trkpt lat="43.685584" lon="11.397099"><ele>348.5</ele><time>2026-04-18T08:31:58.122Z</time></trkpt><trkpt lat="43.685563" lon="11.3972027"><ele>348.0</ele><time>2026-04-18T08:31:59.122Z</time></trkpt><trkpt lat="43.6854978" lon="11.3972632"><ele>347.5</ele><time>2026-04-18T08:32:00.121Z</time></trkpt><trkpt lat="43.6854149" lon="11.3973389"><ele>347.0</ele><time>2026-04-18T08:32:01.121Z</time></trkpt><trkpt lat="43.6853466" lon="11.3973937"><ele>346.5</ele><time>2026-04-18T08:32:02.122Z</time></trkpt><trkpt lat="43.6852792" lon="11.3974136"><ele>346.0</ele><time>2026-04-18T08:32:03.121Z</time></trkpt><trkpt lat="43.685208" lon="11.397437"><ele>346.0</ele><time>2026-04-18T08:32:04.122Z</time></trkpt><trkpt lat="43.6851119" lon="11.3974707"><ele>346.0</ele><time>2026-04-18T08:32:05.121Z</time></trkpt><trkpt lat="43.6850191" lon="11.3974623"><ele>346.0</ele><time>2026-04-18T08:32:06.121Z</time></trkpt><trkpt lat="43.684915" lon="11.3974761"><ele>346.0</ele><time>2026-04-18T08:32:07.121Z</time></trkpt><trkpt lat="43.6848416" lon="11.3974917"><ele>346.0</ele><time>2026-04-18T08:32:08.121Z</time></trkpt><trkpt lat="43.6847327" lon="11.3974983"><ele>346.0</ele><time>2026-04-18T08:32:10.122Z</time></trkpt><trkpt lat="43.6846578" lon="11.3974767"><ele>346.0</ele><time>2026-04-18T08:32:12.121Z</time></trkpt><trkpt lat="43.6845425" lon="11.3974688"><ele>346.0</ele><time>2026-04-18T08:32:14.122Z</time></trkpt><trkpt lat="43.6844337" lon="11.3973638"><ele>346.0</ele><time>2026-04-18T08:32:16.121Z</time></trkpt><trkpt lat="43.6843649" lon="11.3972919"><ele>346.0</ele><time>2026-04-18T08:32:17.121Z</time></trkpt><trkpt lat="43.6842384" lon="11.3971913"><ele>347.4</ele><time>2026-04-18T08:32:18.121Z</time></trkpt><trkpt lat="43.684168" lon="11.3971015"><ele>348.8</ele><time>2026-04-18T08:32:19.12Z</time></trkpt><trkpt lat="43.6841081" lon="11.3969928"><ele>350.2</ele><time>2026-04-18T08:32:20.12Z</time></trkpt><trkpt lat="43.6840432" lon="11.3968856"><ele>351.59999999999997</ele><time>2026-04-18T08:32:21.121Z</time></trkpt><trkpt lat="43.6839806" lon="11.3967896"><ele>353.0</ele><time>2026-04-18T08:32:22.121Z</time></trkpt><trkpt lat="43.6839081" lon="11.3967078"><ele>353.0</ele><time>2026-04-18T08:32:23.121Z</time></trkpt><trkpt lat="43.6838382" lon="11.3966108"><ele>353.0</ele><time>2026-04-18T08:32:24.122Z</time></trkpt><trkpt lat="43.6837869" lon="11.3965191"><ele>353.0</ele><time>2026-04-18T08:32:25.122Z</time></trkpt><trkpt lat="43.683741" lon="11.3964322"><ele>353.0</ele><time>2026-04-18T08:32:26.122Z</time></trkpt><trkpt lat="43.6836509" lon="11.396481"><ele>353.0</ele><time>2026-04-18T08:32:28.121Z</time></trkpt><trkpt lat="43.6836031" lon="11.3965581"><ele>353.0</ele><time>2026-04-18T08:32:29.122Z</time></trkpt><trkpt lat="43.6835516" lon="11.3966553"><ele>352.83333333333337</ele><time>2026-04-18T08:32:30.121Z</time></trkpt><trkpt lat="43.6835046" lon="11.3967135"><ele>352.6666666666667</ele><time>2026-04-18T08:32:31.121Z</time></trkpt><trkpt lat="43.6834357" lon="11.396788"><ele>352.5</ele><time>2026-04-18T08:32:32.121Z</time></trkpt><trkpt lat="43.6833387" lon="11.3968418"><ele>352.3333333333333</ele><time>2026-04-18T08:32:34.121Z</time></trkpt><trkpt lat="43.6833032" lon="11.3969718"><ele>352.16666666666663</ele><time>2026-04-18T08:32:35.12Z</time></trkpt><trkpt lat="43.6832845" lon="11.3970853"><ele>352.0</ele><time>2026-04-18T08:32:36.121Z</time></trkpt><trkpt lat="43.6832635" lon="11.3972452"><ele>350.0</ele><time>2026-04-18T08:32:37.122Z</time></trkpt><trkpt lat="43.6832542" lon="11.3973853"><ele>348.0</ele><time>2026-04-18T08:32:38.121Z</time></trkpt><trkpt lat="43.6832308" lon="11.3975336"><ele>346.0</ele><time>2026-04-18T08:32:39.121Z</time></trkpt><trkpt lat="43.6832316" lon="11.3976677"><ele>344.0</ele><time>2026-04-18T08:32:40.122Z</time></trkpt><trkpt lat="43.6831791" lon="11.397789"><ele>342.0</ele><time>2026-04-18T08:32:41.121Z</time></trkpt><trkpt lat="43.6831001" lon="11.3979117"><ele>340.6</ele><time>2026-04-18T08:32:42.121Z</time></trkpt><trkpt lat="43.6830377" lon="11.3980406"><ele>339.20000000000005</ele><time>2026-04-18T08:32:43.121Z</time></trkpt><trkpt lat="43.6830032" lon="11.3981623"><ele>337.8</ele><time>2026-04-18T08:32:44.122Z</time></trkpt><trkpt lat="43.6830061" lon="11.3982685"><ele>336.4</ele><time>2026-04-18T08:32:45.121Z</time></trkpt><trkpt lat="43.6830075" lon="11.3984022"><ele>335.0</ele><time>2026-04-18T08:32:46.121Z</time></trkpt><trkpt lat="43.6830019" lon="11.3985216"><ele>335.0</ele><time>2026-04-18T08:32:47.121Z</time></trkpt><trkpt lat="43.6830086" lon="11.3986285"><ele>335.0</ele><time>2026-04-18T08:32:48.121Z</time></trkpt><trkpt lat="43.6830209" lon="11.3987392"><ele>335.0</ele><time>2026-04-18T08:32:49.122Z</time></trkpt><trkpt lat="43.6831106" lon="11.3987872"><ele>335.0</ele><time>2026-04-18T08:32:50.121Z</time></trkpt><trkpt lat="43.6831387" lon="11.3988893"><ele>335.0</ele><time>2026-04-18T08:32:51.121Z</time></trkpt><trkpt lat="43.6831578" lon="11.3990008"><ele>335.0</ele><time>2026-04-18T08:32:52.121Z</time></trkpt><trkpt lat="43.6831845" lon="11.3991043"><ele>333.6666666666667</ele><time>2026-04-18T08:32:53.122Z</time></trkpt><trkpt lat="43.6832129" lon="11.3992095"><ele>332.33333333333337</ele><time>2026-04-18T08:32:54.121Z</time></trkpt><trkpt lat="43.683243" lon="11.3993008"><ele>331.0</ele><time>2026-04-18T08:32:55.121Z</time></trkpt><trkpt lat="43.683276" lon="11.3993933"><ele>329.6666666666667</ele><time>2026-04-18T08:32:56.121Z</time></trkpt><trkpt lat="43.6832926" lon="11.3995006"><ele>328.3333333333333</ele><time>2026-04-18T08:32:57.121Z</time></trkpt><trkpt lat="43.6833021" lon="11.3996228"><ele>327.0</ele><time>2026-04-18T08:32:58.121Z</time></trkpt><trkpt lat="43.6833134" lon="11.3997226"><ele>324.8</ele><time>2026-04-18T08:32:59.121Z</time></trkpt><trkpt lat="43.6834042" lon="11.3998209"><ele>322.6</ele><time>2026-04-18T08:33:01.121Z</time></trkpt><trkpt lat="43.6834977" lon="11.3999165"><ele>320.40000000000003</ele><time>2026-04-18T08:33:03.122Z</time></trkpt><trkpt lat="43.6835685" lon="11.4000097"><ele>318.20000000000005</ele><time>2026-04-18T08:33:05.121Z</time></trkpt><trkpt lat="43.6836441" lon="11.4001126"><ele>316.0</ele><time>2026-04-18T08:33:07.121Z</time></trkpt><trkpt lat="43.6836933" lon="11.4002332"><ele>314.0</ele><time>2026-04-18T08:33:09.121Z</time></trkpt><trkpt lat="43.6837656" lon="11.4003092"><ele>312.0</ele><time>2026-04-18T08:33:11.121Z</time></trkpt><trkpt lat="43.683873" lon="11.4003745"><ele>310.0</ele><time>2026-04-18T08:33:13.121Z</time></trkpt><trkpt lat="43.6839261" lon="11.4004213"><ele>308.0</ele><time>2026-04-18T08:33:14.122Z</time></trkpt><trkpt lat="43.6839823" lon="11.4004737"><ele>306.0</ele><time>2026-04-18T08:33:15.121Z</time></trkpt><trkpt lat="43.6840325" lon="11.4005312"><ele>304.0</ele><time>2026-04-18T08:33:16.121Z</time></trkpt><trkpt lat="43.6840934" lon="11.4005838"><ele>302.2</ele><time>2026-04-18T08:33:17.122Z</time></trkpt><trkpt lat="43.6841513" lon="11.4006649"><ele>300.4</ele><time>2026-04-18T08:33:19.121Z</time></trkpt><trkpt lat="43.6841083" lon="11.4007629"><ele>298.6</ele><time>2026-04-18T08:33:22.122Z</time></trkpt><trkpt lat="43.6840276" lon="11.4007791"><ele>296.8</ele><time>2026-04-18T08:34:14.122Z</time></trkpt><trkpt lat="43.6839144" lon="11.4007793"><ele>295.0</ele><time>2026-04-18T08:34:15.12Z</time></trkpt><trkpt lat="43.6838198" lon="11.4008031"><ele>295.0</ele><time>2026-04-18T08:34:16.121Z</time></trkpt><trkpt lat="43.6837194" lon="11.4008417"><ele>295.0</ele><time>2026-04-18T08:34:17.122Z</time></trkpt><trkpt lat="43.6836148" lon="11.4008692"><ele>295.0</ele><time>2026-04-18T08:34:18.122Z</time></trkpt><trkpt lat="43.683518" lon="11.400907"><ele>295.0</ele><time>2026-04-18T08:34:19.121Z</time></trkpt><trkpt lat="43.6834321" lon="11.4009093"><ele>295.0</ele><time>2026-04-18T08:34:20.121Z</time></trkpt><trkpt lat="43.6833563" lon="11.4008227"><ele>296.0</ele><time>2026-04-18T08:34:21.122Z</time></trkpt><trkpt lat="43.6832674" lon="11.4007875"><ele>297.0</ele><time>2026-04-18T08:34:22.122Z</time></trkpt><trkpt lat="43.6831937" lon="11.4007471"><ele>298.0</ele><time>2026-04-18T08:34:23.121Z</time></trkpt><trkpt lat="43.683121" lon="11.4007145"><ele>299.0</ele><time>2026-04-18T08:34:24.122Z</time></trkpt><trkpt lat="43.6830475" lon="11.4006465"><ele>300.0</ele><time>2026-04-18T08:34:25.121Z</time></trkpt><trkpt lat="43.6830254" lon="11.4005402"><ele>301.0</ele><time>2026-04-18T08:34:26.121Z</time></trkpt><trkpt lat="43.6829305" lon="11.4004781"><ele>301.0</ele><time>2026-04-18T08:34:28.121Z</time></trkpt><trkpt lat="43.6829128" lon="11.4005962"><ele>301.0</ele><time>2026-04-18T08:34:32.121Z</time></trkpt><trkpt lat="43.6829167" lon="11.4007586"><ele>301.0</ele><time>2026-04-18T08:34:34.122Z</time></trkpt><trkpt lat="43.6829375" lon="11.4009001"><ele>301.0</ele><time>2026-04-18T08:34:36.122Z</time></trkpt><trkpt lat="43.682964" lon="11.4010045"><ele>301.0</ele><time>2026-04-18T08:34:37.121Z</time></trkpt><trkpt lat="43.6829862" lon="11.4011155"><ele>301.0</ele><time>2026-04-18T08:34:38.122Z</time></trkpt><trkpt lat="43.683019" lon="11.4012209"><ele>301.0</ele><time>2026-04-18T08:34:39.122Z</time></trkpt><trkpt lat="43.6831009" lon="11.4012574"><ele>301.0</ele><time>2026-04-18T08:34:40.121Z</time></trkpt><trkpt lat="43.6831595" lon="11.4013391"><ele>301.0</ele><time>2026-04-18T08:34:41.122Z</time></trkpt><trkpt lat="43.6832185" lon="11.4014203"><ele>301.0</ele><time>2026-04-18T08:34:42.121Z</time></trkpt><trkpt lat="43.6832653" lon="11.4014818"><ele>301.0</ele><time>2026-04-18T08:34:43.122Z</time></trkpt><trkpt lat="43.6832913" lon="11.4015963"><ele>300.2</ele><time>2026-04-18T08:34:45.122Z</time></trkpt><trkpt lat="43.6832915" lon="11.4017397"><ele>299.40000000000003</ele><time>2026-04-18T08:34:47.122Z</time></trkpt><trkpt lat="43.6832159" lon="11.4018327"><ele>298.6</ele><time>2026-04-18T08:34:49.121Z</time></trkpt><trkpt lat="43.6831032" lon="11.4018657"><ele>297.8</ele><time>2026-04-18T08:34:51.12Z</time></trkpt><trkpt lat="43.6830375" lon="11.4018616"><ele>297.0</ele><time>2026-04-18T08:34:52.122Z</time></trkpt><trkpt lat="43.6829562" lon="11.4018574"><ele>297.0</ele><time>2026-04-18T08:34:53.122Z</time></trkpt><trkpt lat="43.6828768" lon="11.4018505"><ele>297.0</ele><time>2026-04-18T08:34:54.121Z</time></trkpt><trkpt lat="43.6827973" lon="11.4018548"><ele>297.0</ele><time>2026-04-18T08:34:55.121Z</time></trkpt><trkpt lat="43.6827179" lon="11.4018509"><ele>297.0</ele><time>2026-04-18T08:34:56.121Z</time></trkpt><trkpt lat="43.682634" lon="11.4018463"><ele>297.0</ele><time>2026-04-18T08:34:57.121Z</time></trkpt><trkpt lat="43.6825586" lon="11.4018528"><ele>297.0</ele><time>2026-04-18T08:34:58.121Z</time></trkpt><trkpt lat="43.6824803" lon="11.4018785"><ele>297.0</ele><time>2026-04-18T08:34:59.122Z</time></trkpt><trkpt lat="43.6824042" lon="11.4019092"><ele>297.0</ele><time>2026-04-18T08:35:00.122Z</time></trkpt><trkpt lat="43.6823377" lon="11.4019584"><ele>297.0</ele><time>2026-04-18T08:35:01.122Z</time></trkpt><trkpt lat="43.6822706" lon="11.4020473"><ele>297.0</ele><time>2026-04-18T08:35:02.122Z</time></trkpt><trkpt lat="43.6821941" lon="11.4021238"><ele>297.0</ele><time>2026-04-18T08:35:03.122Z</time></trkpt><trkpt lat="43.6821207" lon="11.4021956"><ele>297.0</ele><time>2026-04-18T08:35:04.122Z</time></trkpt><trkpt lat="43.6820387" lon="11.4022564"><ele>297.0</ele><time>2026-04-18T08:35:05.121Z</time></trkpt><trkpt lat="43.6819486" lon="11.4022953"><ele>297.0</ele><time>2026-04-18T08:35:06.122Z</time></trkpt><trkpt lat="43.6818569" lon="11.4023321"><ele>297.0</ele><time>2026-04-18T08:35:07.121Z</time></trkpt><trkpt lat="43.6817669" lon="11.4023676"><ele>297.0</ele><time>2026-04-18T08:35:08.121Z</time></trkpt><trkpt lat="43.6816921" lon="11.4023986"><ele>297.0</ele><time>2026-04-18T08:35:09.122Z</time></trkpt><trkpt lat="43.6816251" lon="11.4024274"><ele>297.0</ele><time>2026-04-18T08:35:10.121Z</time></trkpt><trkpt lat="43.681563" lon="11.4024629"><ele>298.1666666666667</ele><time>2026-04-18T08:35:11.121Z</time></trkpt><trkpt lat="43.6814929" lon="11.4024865"><ele>299.3333333333333</ele><time>2026-04-18T08:35:12.121Z</time></trkpt><trkpt lat="43.6814194" lon="11.4025026"><ele>300.5</ele><time>2026-04-18T08:35:13.122Z</time></trkpt><trkpt lat="43.6813425" lon="11.4025303"><ele>301.66666666666663</ele><time>2026-04-18T08:35:14.121Z</time></trkpt><trkpt lat="43.6812581" lon="11.4025666"><ele>302.8333333333333</ele><time>2026-04-18T08:35:15.121Z</time></trkpt><trkpt lat="43.6811785" lon="11.4026046"><ele>304.0</ele><time>2026-04-18T08:35:16.122Z</time></trkpt><trkpt lat="43.6811157" lon="11.4026604"><ele>306.75</ele><time>2026-04-18T08:35:17.121Z</time></trkpt><trkpt lat="43.6810619" lon="11.4027239"><ele>309.5</ele><time>2026-04-18T08:35:18.121Z</time></trkpt><trkpt lat="43.6808974" lon="11.4029016"><ele>312.25</ele><time>2026-04-18T08:35:21.121Z</time></trkpt><trkpt lat="43.6808067" lon="11.4029185"><ele>315.0</ele><time>2026-04-18T08:35:22.121Z</time></trkpt><trkpt lat="43.6806997" lon="11.4029002"><ele>315.0</ele><time>2026-04-18T08:35:23.122Z</time></trkpt><trkpt lat="43.6805721" lon="11.4028717"><ele>315.0</ele><time>2026-04-18T08:35:24.122Z</time></trkpt><trkpt lat="43.6804579" lon="11.402869"><ele>315.0</ele><time>2026-04-18T08:35:25.121Z</time></trkpt><trkpt lat="43.6803414" lon="11.4028857"><ele>315.0</ele><time>2026-04-18T08:35:26.121Z</time></trkpt><trkpt lat="43.6802369" lon="11.4029077"><ele>314.8</ele><time>2026-04-18T08:35:27.121Z</time></trkpt><trkpt lat="43.6801422" lon="11.4029185"><ele>314.6</ele><time>2026-04-18T08:35:28.122Z</time></trkpt><trkpt lat="43.6800447" lon="11.402918"><ele>314.4</ele><time>2026-04-18T08:35:29.121Z</time></trkpt><trkpt lat="43.6799447" lon="11.4028872"><ele>314.2</ele><time>2026-04-18T08:35:30.121Z</time></trkpt><trkpt lat="43.6798455" lon="11.4028655"><ele>314.0</ele><time>2026-04-18T08:35:31.122Z</time></trkpt><trkpt lat="43.6797173" lon="11.4028492"><ele>314.0</ele><time>2026-04-18T08:35:32.121Z</time></trkpt><trkpt lat="43.679595" lon="11.4028374"><ele>314.0</ele><time>2026-04-18T08:35:33.121Z</time></trkpt><trkpt lat="43.6794782" lon="11.4028128"><ele>314.0</ele><time>2026-04-18T08:35:34.121Z</time></trkpt><trkpt lat="43.6793576" lon="11.4027884"><ele>314.0</ele><time>2026-04-18T08:35:35.121Z</time></trkpt><trkpt lat="43.6792456" lon="11.4027696"><ele>313.33333333333337</ele><time>2026-04-18T08:35:36.122Z</time></trkpt><trkpt lat="43.6791394" lon="11.4027423"><ele>312.6666666666667</ele><time>2026-04-18T08:35:37.122Z</time></trkpt><trkpt lat="43.6790482" lon="11.4027054"><ele>312.0</ele><time>2026-04-18T08:35:38.122Z</time></trkpt><trkpt lat="43.6789722" lon="11.4026509"><ele>311.3333333333333</ele><time>2026-04-18T08:35:39.121Z</time></trkpt><trkpt lat="43.6789101" lon="11.4025856"><ele>310.66666666666663</ele><time>2026-04-18T08:35:40.121Z</time></trkpt><trkpt lat="43.6788557" lon="11.402533"><ele>310.0</ele><time>2026-04-18T08:35:41.121Z</time></trkpt><trkpt lat="43.6787646" lon="11.4025451"><ele>310.0</ele><time>2026-04-18T08:35:43.12Z</time></trkpt><trkpt lat="43.6787553" lon="11.4026904"><ele>310.0</ele><time>2026-04-18T08:35:45.121Z</time></trkpt><trkpt lat="43.6787903" lon="11.4029697"><ele>310.0</ele><time>2026-04-18T08:35:47.121Z</time></trkpt><trkpt lat="43.6788071" lon="11.4031396"><ele>310.0</ele><time>2026-04-18T08:35:48.121Z</time></trkpt><trkpt lat="43.6787994" lon="11.4033181"><ele>311.6</ele><time>2026-04-18T08:35:49.122Z</time></trkpt><trkpt lat="43.6787991" lon="11.403485"><ele>313.2</ele><time>2026-04-18T08:35:50.122Z</time></trkpt><trkpt lat="43.6787865" lon="11.4036248"><ele>314.8</ele><time>2026-04-18T08:35:51.122Z</time></trkpt><trkpt lat="43.6787045" lon="11.4036547"><ele>316.4</ele><time>2026-04-18T08:35:52.122Z</time></trkpt><trkpt lat="43.6786523" lon="11.4037258"><ele>318.0</ele><time>2026-04-18T08:35:53.121Z</time></trkpt><trkpt lat="43.6785697" lon="11.4037362"><ele>318.0</ele><time>2026-04-18T08:35:54.122Z</time></trkpt><trkpt lat="43.6784876" lon="11.4037542"><ele>318.0</ele><time>2026-04-18T08:35:55.121Z</time></trkpt><trkpt lat="43.6783765" lon="11.4037625"><ele>318.0</ele><time>2026-04-18T08:35:56.121Z</time></trkpt><trkpt lat="43.6782817" lon="11.4037483"><ele>318.0</ele><time>2026-04-18T08:35:57.12Z</time></trkpt><trkpt lat="43.6781873" lon="11.4037133"><ele>318.0</ele><time>2026-04-18T08:35:58.121Z</time></trkpt><trkpt lat="43.6780905" lon="11.4036466"><ele>318.0</ele><time>2026-04-18T08:35:59.121Z</time></trkpt><trkpt lat="43.6780089" lon="11.4035765"><ele>318.0</ele><time>2026-04-18T08:36:00.121Z</time></trkpt><trkpt lat="43.6779312" lon="11.4035167"><ele>318.0</ele><time>2026-04-18T08:36:01.121Z</time></trkpt><trkpt lat="43.6778564" lon="11.4034702"><ele>318.0</ele><time>2026-04-18T08:36:02.121Z</time></trkpt><trkpt lat="43.6777852" lon="11.4034593"><ele>318.0</ele><time>2026-04-18T08:36:03.121Z</time></trkpt><trkpt lat="43.6777184" lon="11.4034906"><ele>318.0</ele><time>2026-04-18T08:36:04.121Z</time></trkpt><trkpt lat="43.6776724" lon="11.4035593"><ele>318.1666666666667</ele><time>2026-04-18T08:36:05.121Z</time></trkpt><trkpt lat="43.6776476" lon="11.4036537"><ele>318.3333333333333</ele><time>2026-04-18T08:36:06.121Z</time></trkpt><trkpt lat="43.6776438" lon="11.4037662"><ele>318.5</ele><time>2026-04-18T08:36:07.12Z</time></trkpt><trkpt lat="43.6776471" lon="11.4038917"><ele>318.66666666666663</ele><time>2026-04-18T08:36:08.122Z</time></trkpt><trkpt lat="43.6776404" lon="11.4040184"><ele>318.8333333333333</ele><time>2026-04-18T08:36:09.122Z</time></trkpt><trkpt lat="43.6776294" lon="11.4041473"><ele>319.0</ele><time>2026-04-18T08:36:10.121Z</time></trkpt><trkpt lat="43.6775907" lon="11.4042666"><ele>318.0</ele><time>2026-04-18T08:36:11.122Z</time></trkpt><trkpt lat="43.6775535" lon="11.4043664"><ele>317.0</ele><time>2026-04-18T08:36:12.121Z</time></trkpt><trkpt lat="43.6775272" lon="11.4044702"><ele>316.0</ele><time>2026-04-18T08:36:13.121Z</time></trkpt><trkpt lat="43.6774734" lon="11.4045741"><ele>315.0</ele><time>2026-04-18T08:36:14.121Z</time></trkpt><trkpt lat="43.6774113" lon="11.404678"><ele>314.0</ele><time>2026-04-18T08:36:15.122Z</time></trkpt><trkpt lat="43.677327" lon="11.404779"><ele>314.83333333333337</ele><time>2026-04-18T08:36:16.121Z</time></trkpt><trkpt lat="43.6772626" lon="11.4048515"><ele>315.6666666666667</ele><time>2026-04-18T08:36:17.121Z</time></trkpt><trkpt lat="43.6771967" lon="11.4049281"><ele>316.5</ele><time>2026-04-18T08:36:18.122Z</time></trkpt><trkpt lat="43.6771332" lon="11.404981"><ele>317.3333333333333</ele><time>2026-04-18T08:36:19.121Z</time></trkpt><trkpt lat="43.6770448" lon="11.4050031"><ele>318.16666666666663</ele><time>2026-04-18T08:36:20.122Z</time></trkpt><trkpt lat="43.6769548" lon="11.4050264"><ele>319.0</ele><time>2026-04-18T08:36:21.122Z</time></trkpt><trkpt lat="43.6768653" lon="11.4050235"><ele>319.0</ele><time>2026-04-18T08:36:22.122Z</time></trkpt><trkpt lat="43.6767808" lon="11.4050544"><ele>319.0</ele><time>2026-04-18T08:36:23.121Z</time></trkpt><trkpt lat="43.6767083" lon="11.405115"><ele>319.0</ele><time>2026-04-18T08:36:24.122Z</time></trkpt><trkpt lat="43.6766476" lon="11.4051846"><ele>319.0</ele><time>2026-04-18T08:36:25.121Z</time></trkpt><trkpt lat="43.676603" lon="11.4052802"><ele>319.0</ele><time>2026-04-18T08:36:26.121Z</time></trkpt><trkpt lat="43.6765512" lon="11.405357"><ele>319.0</ele><time>2026-04-18T08:36:27.121Z</time></trkpt><trkpt lat="43.6764884" lon="11.4054196"><ele>319.0</ele><time>2026-04-18T08:36:28.122Z</time></trkpt><trkpt lat="43.6764277" lon="11.405454"><ele>319.0</ele><time>2026-04-18T08:36:29.121Z</time></trkpt><trkpt lat="43.6763324" lon="11.4054937"><ele>319.0</ele><time>2026-04-18T08:36:31.122Z</time></trkpt><trkpt lat="43.6763642" lon="11.4055919"><ele>319.0</ele><time>2026-04-18T08:36:48.122Z</time></trkpt><trkpt lat="43.676411" lon="11.4056715"><ele>319.0</ele><time>2026-04-18T08:36:50.121Z</time></trkpt><trkpt lat="43.6764446" lon="11.4058072"><ele>319.0</ele><time>2026-04-18T08:36:52.122Z</time></trkpt><trkpt lat="43.6764673" lon="11.4058974"><ele>318.2</ele><time>2026-04-18T08:36:53.122Z</time></trkpt><trkpt lat="43.6764866" lon="11.4059927"><ele>317.4</ele><time>2026-04-18T08:36:54.122Z</time></trkpt><trkpt lat="43.6765091" lon="11.4061089"><ele>316.6</ele><time>2026-04-18T08:36:55.122Z</time></trkpt><trkpt lat="43.6765269" lon="11.4062216"><ele>315.8</ele><time>2026-04-18T08:36:56.122Z</time></trkpt><trkpt lat="43.6765488" lon="11.4063525"><ele>315.0</ele><time>2026-04-18T08:36:57.121Z</time></trkpt><trkpt lat="43.6765671" lon="11.4065055"><ele>315.0</ele><time>2026-04-18T08:36:58.121Z</time></trkpt><trkpt lat="43.6765851" lon="11.4066488"><ele>315.0</ele><time>2026-04-18T08:36:59.121Z</time></trkpt><trkpt lat="43.6765951" lon="11.4067864"><ele>315.0</ele><time>2026-04-18T08:37:00.122Z</time></trkpt><trkpt lat="43.6765908" lon="11.4069181"><ele>315.0</ele><time>2026-04-18T08:37:01.122Z</time></trkpt><trkpt lat="43.6765831" lon="11.4070417"><ele>315.0</ele><time>2026-04-18T08:37:02.122Z</time></trkpt><trkpt lat="43.676604" lon="11.4071378"><ele>314.57142857142856</ele><time>2026-04-18T08:37:03.12Z</time></trkpt><trkpt lat="43.6766532" lon="11.4072165"><ele>314.1428571428571</ele><time>2026-04-18T08:37:04.121Z</time></trkpt><trkpt lat="43.6766933" lon="11.4072943"><ele>313.7142857142857</ele><time>2026-04-18T08:37:05.121Z</time></trkpt><trkpt lat="43.6767457" lon="11.407348"><ele>313.2857142857143</ele><time>2026-04-18T08:37:06.122Z</time></trkpt><trkpt lat="43.6767593" lon="11.4074336"><ele>312.85714285714283</ele><time>2026-04-18T08:37:07.121Z</time></trkpt><trkpt lat="43.6767954" lon="11.407544"><ele>312.42857142857144</ele><time>2026-04-18T08:37:08.122Z</time></trkpt><trkpt lat="43.6768231" lon="11.4076332"><ele>312.0</ele><time>2026-04-18T08:37:09.121Z</time></trkpt><trkpt lat="43.6768409" lon="11.4077261"><ele>312.0</ele><time>2026-04-18T08:37:10.122Z</time></trkpt><trkpt lat="43.676863" lon="11.4078425"><ele>312.0</ele><time>2026-04-18T08:37:11.121Z</time></trkpt><trkpt lat="43.6768958" lon="11.4079415"><ele>312.0</ele><time>2026-04-18T08:37:12.121Z</time></trkpt><trkpt lat="43.676927" lon="11.4080316"><ele>312.0</ele><time>2026-04-18T08:37:13.121Z</time></trkpt><trkpt lat="43.6769569" lon="11.4081324"><ele>312.0</ele><time>2026-04-18T08:37:14.122Z</time></trkpt><trkpt lat="43.6770022" lon="11.4082359"><ele>312.0</ele><time>2026-04-18T08:37:15.121Z</time></trkpt><trkpt lat="43.6770567" lon="11.4083221"><ele>311.4</ele><time>2026-04-18T08:37:16.122Z</time></trkpt><trkpt lat="43.6771251" lon="11.4084116"><ele>310.79999999999995</ele><time>2026-04-18T08:37:17.122Z</time></trkpt><trkpt lat="43.6772036" lon="11.4085013"><ele>310.2</ele><time>2026-04-18T08:37:18.121Z</time></trkpt><trkpt lat="43.6772848" lon="11.4085986"><ele>309.59999999999997</ele><time>2026-04-18T08:37:19.122Z</time></trkpt><trkpt lat="43.6773718" lon="11.4086696"><ele>309.0</ele><time>2026-04-18T08:37:20.121Z</time></trkpt><trkpt lat="43.6774522" lon="11.4087555"><ele>308.4</ele><time>2026-04-18T08:37:21.122Z</time></trkpt><trkpt lat="43.6775099" lon="11.4088438"><ele>307.79999999999995</ele><time>2026-04-18T08:37:22.121Z</time></trkpt><trkpt lat="43.6775553" lon="11.4089079"><ele>307.20000000000005</ele><time>2026-04-18T08:37:23.121Z</time></trkpt><trkpt lat="43.6776252" lon="11.4090157"><ele>306.6</ele><time>2026-04-18T08:37:25.121Z</time></trkpt><trkpt lat="43.6776446" lon="11.4092051"><ele>306.0</ele><time>2026-04-18T08:37:27.121Z</time></trkpt><trkpt lat="43.6776709" lon="11.4092895"><ele>306.0</ele><time>2026-04-18T08:37:28.122Z</time></trkpt><trkpt lat="43.6777068" lon="11.4093642"><ele>306.0</ele><time>2026-04-18T08:37:29.121Z</time></trkpt><trkpt lat="43.6777781" lon="11.4095173"><ele>306.0</ele><time>2026-04-18T08:37:31.121Z</time></trkpt><trkpt lat="43.6778216" lon="11.4095998"><ele>306.0</ele><time>2026-04-18T08:37:32.121Z</time></trkpt><trkpt lat="43.6778528" lon="11.4096862"><ele>306.0</ele><time>2026-04-18T08:37:33.121Z</time></trkpt><trkpt lat="43.677876" lon="11.409855"><ele>304.2</ele><time>2026-04-18T08:37:35.122Z</time></trkpt><trkpt lat="43.6778883" lon="11.4099518"><ele>302.40000000000003</ele><time>2026-04-18T08:37:36.121Z</time></trkpt><trkpt lat="43.6778859" lon="11.410058"><ele>300.6</ele><time>2026-04-18T08:37:37.121Z</time></trkpt><trkpt lat="43.6779079" lon="11.4102189"><ele>298.8</ele><time>2026-04-18T08:37:39.122Z</time></trkpt><trkpt lat="43.6779378" lon="11.4103038"><ele>297.0</ele><time>2026-04-18T08:37:40.122Z</time></trkpt><trkpt lat="43.6779659" lon="11.4104868"><ele>295.0</ele><time>2026-04-18T08:37:42.121Z</time></trkpt><trkpt lat="43.6779831" lon="11.4105732"><ele>293.0</ele><time>2026-04-18T08:37:43.121Z</time></trkpt><trkpt lat="43.6779703" lon="11.4106764"><ele>291.0</ele><time>2026-04-18T08:37:44.121Z</time></trkpt><trkpt lat="43.6779686" lon="11.4107682"><ele>289.0</ele><time>2026-04-18T08:37:45.122Z</time></trkpt><trkpt lat="43.6779707" lon="11.4108569"><ele>287.0</ele><time>2026-04-18T08:37:46.122Z</time></trkpt><trkpt lat="43.6779703" lon="11.4109571"><ele>285.0</ele><time>2026-04-18T08:37:47.122Z</time></trkpt><trkpt lat="43.6779728" lon="11.4110481"><ele>283.0</ele><time>2026-04-18T08:37:48.122Z</time></trkpt><trkpt lat="43.6779731" lon="11.4111361"><ele>283.0</ele><time>2026-04-18T08:37:49.121Z</time></trkpt><trkpt lat="43.6779793" lon="11.4113032"><ele>283.0</ele><time>2026-04-18T08:37:51.121Z</time></trkpt><trkpt lat="43.6779861" lon="11.4113898"><ele>283.0</ele><time>2026-04-18T08:37:52.122Z</time></trkpt><trkpt lat="43.6779934" lon="11.4114788"><ele>283.0</ele><time>2026-04-18T08:37:53.122Z</time></trkpt><trkpt lat="43.6779986" lon="11.4116632"><ele>283.0</ele><time>2026-04-18T08:37:55.121Z</time></trkpt><trkpt lat="43.6780036" lon="11.4117515"><ele>283.0</ele><time>2026-04-18T08:37:56.121Z</time></trkpt><trkpt lat="43.6780104" lon="11.4118395"><ele>281.16666666666663</ele><time>2026-04-18T08:37:57.121Z</time></trkpt><trkpt lat="43.6780376" lon="11.4119957"><ele>279.3333333333333</ele><time>2026-04-18T08:37:59.122Z</time></trkpt><trkpt lat="43.6780467" lon="11.4120848"><ele>277.5</ele><time>2026-04-18T08:38:00.122Z</time></trkpt><trkpt lat="43.6780549" lon="11.4121721"><ele>275.6666666666667</ele><time>2026-04-18T08:38:01.121Z</time></trkpt><trkpt lat="43.6780564" lon="11.4122609"><ele>273.83333333333337</ele><time>2026-04-18T08:38:04.122Z</time></trkpt><trkpt lat="43.6780419" lon="11.4123975"><ele>272.0</ele><time>2026-04-18T08:38:06.122Z</time></trkpt><trkpt lat="43.6780394" lon="11.4124915"><ele>270.6666666666667</ele><time>2026-04-18T08:38:08.12Z</time></trkpt><trkpt lat="43.6780361" lon="11.4125798"><ele>269.33333333333337</ele><time>2026-04-18T08:38:12.12Z</time></trkpt><trkpt lat="43.6779934" lon="11.4126546"><ele>268.0</ele><time>2026-04-18T08:38:16.121Z</time></trkpt><trkpt lat="43.6779786" lon="11.412773"><ele>266.6666666666667</ele><time>2026-04-18T08:38:19.121Z</time></trkpt><trkpt lat="43.678021" lon="11.4128617"><ele>265.3333333333333</ele><time>2026-04-18T08:38:20.121Z</time></trkpt><trkpt lat="43.6780481" lon="11.4130007"><ele>264.0</ele><time>2026-04-18T08:38:23.122Z</time></trkpt><trkpt lat="43.6780478" lon="11.4131106"><ele>263.1428571428571</ele><time>2026-04-18T08:38:25.122Z</time></trkpt><trkpt lat="43.6779893" lon="11.4131592"><ele>262.2857142857143</ele><time>2026-04-18T08:38:38.121Z</time></trkpt><trkpt lat="43.6779257" lon="11.4131863"><ele>261.42857142857144</ele><time>2026-04-18T08:38:51.121Z</time></trkpt><trkpt lat="43.6778624" lon="11.4131912"><ele>260.57142857142856</ele><time>2026-04-18T08:39:02.121Z</time></trkpt><trkpt lat="43.6777972" lon="11.4132137"><ele>259.7142857142857</ele><time>2026-04-18T08:39:30.121Z</time></trkpt><trkpt lat="43.6777298" lon="11.4132073"><ele>258.85714285714283</ele><time>2026-04-18T08:39:36.122Z</time></trkpt><trkpt lat="43.6776556" lon="11.4132134"><ele>258.0</ele><time>2026-04-18T08:39:40.122Z</time></trkpt><trkpt lat="43.6775922" lon="11.413221"><ele>257.0</ele><time>2026-04-18T08:39:48.121Z</time></trkpt><trkpt lat="43.6775149" lon="11.413222"><ele>256.0</ele><time>2026-04-18T08:39:51.121Z</time></trkpt><trkpt lat="43.6774487" lon="11.4132686"><ele>255.0</ele><time>2026-04-18T08:39:55.121Z</time></trkpt><trkpt lat="43.6773852" lon="11.4133159"><ele>254.0</ele><time>2026-04-18T08:39:58.122Z</time></trkpt><trkpt lat="43.6773192" lon="11.4133437"><ele>253.0</ele><time>2026-04-18T08:40:59.121Z</time></trkpt><trkpt lat="43.677259" lon="11.4134401"><ele>252.0</ele><time>2026-04-18T08:41:02.121Z</time></trkpt><trkpt lat="43.6772084" lon="11.4135068"><ele>252.0</ele><time>2026-04-18T08:41:05.121Z</time></trkpt><trkpt lat="43.6772168" lon="11.4134138"><ele>252.0</ele><time>2026-04-18T08:41:15.121Z</time></trkpt><trkpt lat="43.6771689" lon="11.4133396"><ele>252.0</ele><time>2026-04-18T08:41:21.122Z</time></trkpt><trkpt lat="43.6771149" lon="11.4132653"><ele>252.0</ele><time>2026-04-18T08:41:24.122Z</time></trkpt><trkpt lat="43.6770412" lon="11.4132394"><ele>252.0</ele><time>2026-04-18T08:41:38.121Z</time></trkpt><trkpt lat="43.6769775" lon="11.4132091"><ele>252.0</ele><time>2026-04-18T08:41:45.121Z</time></trkpt><trkpt lat="43.6769119" lon="11.413246"><ele>252.0</ele><time>2026-04-18T08:41:47.121Z</time></trkpt><trkpt lat="43.6768797" lon="11.4133224"><ele>252.0</ele><time>2026-04-18T08:42:11.121Z</time></trkpt><trkpt lat="43.6768919" lon="11.4134141"><ele>252.0</ele><time>2026-04-18T08:42:17.121Z</time></trkpt><trkpt lat="43.6769213" lon="11.4135277"><ele>252.0</ele><time>2026-04-18T08:43:26.12Z</time></trkpt><trkpt lat="43.6769371" lon="11.4136251"><ele>252.0</ele><time>2026-04-18T08:43:31.121Z</time></trkpt><trkpt lat="43.6770102" lon="11.4137029"><ele>252.0</ele><time>2026-04-18T08:43:41.12Z</time></trkpt><trkpt lat="43.6770886" lon="11.4137293"><ele>252.0</ele><time>2026-04-18T08:43:47.12Z</time></trkpt><trkpt lat="43.6771036" lon="11.4138443"><ele>252.0</ele><time>2026-04-18T08:43:54.12Z</time></trkpt><trkpt lat="43.6770982" lon="11.4139412"><ele>252.0</ele><time>2026-04-18T08:43:57.121Z</time></trkpt><trkpt lat="43.677061" lon="11.4140171"><ele>252.0</ele><time>2026-04-18T08:44:02.12Z</time></trkpt><trkpt lat="43.6769962" lon="11.4139882"><ele>252.0</ele><time>2026-04-18T08:44:36.12Z</time></trkpt><trkpt lat="43.6769294" lon="11.4139796"><ele>252.0</ele><time>2026-04-18T08:44:50.12Z</time></trkpt><trkpt lat="43.676921" lon="11.414104"><ele>252.0</ele><time>2026-04-18T08:47:28.12Z</time></trkpt><trkpt lat="43.6769008" lon="11.4141883"><ele>252.0</ele><time>2026-04-18T08:47:43.12Z</time></trkpt><trkpt lat="43.6769173" lon="11.4142742"><ele>252.0</ele><time>2026-04-18T08:47:47.12Z</time></trkpt><trkpt lat="43.6769172" lon="11.4143863"><ele>252.0</ele><time>2026-04-18T08:47:50.121Z</time></trkpt><trkpt lat="43.6769506" lon="11.4144839"><ele>252.0</ele><time>2026-04-18T08:52:13.119Z</time></trkpt><trkpt lat="43.6769138" lon="11.4145782"><ele>252.0</ele><time>2026-04-18T08:52:56.12Z</time></trkpt><trkpt lat="43.6768793" lon="11.414652"><ele>252.0</ele><time>2026-04-18T08:53:00.12Z</time></trkpt><trkpt lat="43.6767937" lon="11.4146859"><ele>252.0</ele><time>2026-04-18T08:53:03.12Z</time></trkpt><trkpt lat="43.676737" lon="11.4147275"><ele>252.0</ele><time>2026-04-18T08:53:06.12Z</time></trkpt><trkpt lat="43.6766717" lon="11.4147111"><ele>252.0</ele><time>2026-04-18T08:53:14.119Z</time></trkpt><trkpt lat="43.6765932" lon="11.4147112"><ele>252.0</ele><time>2026-04-18T08:53:18.12Z</time></trkpt><trkpt lat="43.6765301" lon="11.414714"><ele>252.0</ele><time>2026-04-18T08:53:22.119Z</time></trkpt><trkpt lat="43.6764666" lon="11.4147248"><ele>252.0</ele><time>2026-04-18T08:53:31.119Z</time></trkpt><trkpt lat="43.6764236" lon="11.4146583"><ele>252.0</ele><time>2026-04-18T08:54:03.119Z</time></trkpt><trkpt lat="43.6763552" lon="11.4146333"><ele>252.0</ele><time>2026-04-18T08:54:07.119Z</time></trkpt><trkpt lat="43.6762891" lon="11.4146727"><ele>252.0</ele><time>2026-04-18T08:54:09.119Z</time></trkpt><trkpt lat="43.6761815" lon="11.4147077"><ele>252.0</ele><time>2026-04-18T08:54:11.12Z</time></trkpt><trkpt lat="43.6761182" lon="11.4147314"><ele>252.0</ele><time>2026-04-18T08:54:13.119Z</time></trkpt><trkpt lat="43.6760336" lon="11.4147323"><ele>252.0</ele><time>2026-04-18T08:54:15.12Z</time></trkpt><trkpt lat="43.675958" lon="11.4147034"><ele>252.0</ele><time>2026-04-18T08:54:17.12Z</time></trkpt><trkpt lat="43.6758928" lon="11.4146841"><ele>252.0</ele><time>2026-04-18T08:54:19.12Z</time></trkpt><trkpt lat="43.675826" lon="11.4147271"><ele>252.0</ele><time>2026-04-18T08:54:24.12Z</time></trkpt><trkpt lat="43.6757591" lon="11.4147232"><ele>252.0</ele><time>2026-04-18T08:54:31.119Z</time></trkpt><trkpt lat="43.6756984" lon="11.4146925"><ele>252.0</ele><time>2026-04-18T08:54:33.119Z</time></trkpt><trkpt lat="43.6756156" lon="11.4146784"><ele>252.0</ele><time>2026-04-18T08:54:36.119Z</time></trkpt><trkpt lat="43.6755294" lon="11.4146759"><ele>252.0</ele><time>2026-04-18T08:54:38.119Z</time></trkpt><trkpt lat="43.6754446" lon="11.4146852"><ele>252.0</ele><time>2026-04-18T08:54:40.119Z</time></trkpt><trkpt lat="43.6753775" lon="11.4146583"><ele>253.0</ele><time>2026-04-18T08:54:42.118Z</time></trkpt><trkpt lat="43.6753019" lon="11.4146139"><ele>254.0</ele><time>2026-04-18T08:54:44.119Z</time></trkpt><trkpt lat="43.675233" lon="11.4145786"><ele>255.0</ele><time>2026-04-18T08:54:46.119Z</time></trkpt><trkpt lat="43.675211" lon="11.4144885"><ele>256.0</ele><time>2026-04-18T08:54:49.119Z</time></trkpt><trkpt lat="43.6751598" lon="11.4145665"><ele>257.0</ele><time>2026-04-18T08:54:55.12Z</time></trkpt><trkpt lat="43.6751765" lon="11.4146899"><ele>258.0</ele><time>2026-04-18T08:55:21.119Z</time></trkpt><trkpt lat="43.6752202" lon="11.4148138"><ele>258.8</ele><time>2026-04-18T08:55:23.119Z</time></trkpt><trkpt lat="43.6752434" lon="11.4148986"><ele>259.6</ele><time>2026-04-18T08:55:24.119Z</time></trkpt><trkpt lat="43.6752907" lon="11.4149927"><ele>260.4</ele><time>2026-04-18T08:55:25.12Z</time></trkpt><trkpt lat="43.6753563" lon="11.4151162"><ele>261.2</ele><time>2026-04-18T08:55:26.118Z</time></trkpt><trkpt lat="43.6754053" lon="11.4152571"><ele>262.0</ele><time>2026-04-18T08:55:27.12Z</time></trkpt><trkpt lat="43.6754583" lon="11.4153735"><ele>262.0</ele><time>2026-04-18T08:55:28.12Z</time></trkpt><trkpt lat="43.6755654" lon="11.4154145"><ele>262.0</ele><time>2026-04-18T08:55:29.119Z</time></trkpt><trkpt lat="43.6756537" lon="11.4154756"><ele>262.0</ele><time>2026-04-18T08:55:30.119Z</time></trkpt><trkpt lat="43.6757308" lon="11.4155307"><ele>262.0</ele><time>2026-04-18T08:55:31.119Z</time></trkpt><trkpt lat="43.6758077" lon="11.415548"><ele>262.0</ele><time>2026-04-18T08:55:32.119Z</time></trkpt><trkpt lat="43.6758788" lon="11.4155657"><ele>262.0</ele><time>2026-04-18T08:55:33.119Z</time></trkpt><trkpt lat="43.6759469" lon="11.4155736"><ele>262.0</ele><time>2026-04-18T08:55:34.119Z</time></trkpt><trkpt lat="43.6759966" lon="11.4156296"><ele>262.0</ele><time>2026-04-18T08:55:35.119Z</time></trkpt><trkpt lat="43.6760741" lon="11.4156778"><ele>262.0</ele><time>2026-04-18T08:55:36.12Z</time></trkpt><trkpt lat="43.6761364" lon="11.4157286"><ele>262.0</ele><time>2026-04-18T08:55:37.119Z</time></trkpt><trkpt lat="43.676245" lon="11.4157358"><ele>262.0</ele><time>2026-04-18T08:55:39.119Z</time></trkpt><trkpt lat="43.6763439" lon="11.4157491"><ele>262.0</ele><time>2026-04-18T08:55:41.12Z</time></trkpt><trkpt lat="43.6763742" lon="11.4158283"><ele>262.6</ele><time>2026-04-18T08:55:42.12Z</time></trkpt><trkpt lat="43.6763927" lon="11.4159522"><ele>263.2</ele><time>2026-04-18T08:55:43.119Z</time></trkpt><trkpt lat="43.6763956" lon="11.4160704"><ele>263.8</ele><time>2026-04-18T08:55:44.119Z</time></trkpt><trkpt lat="43.6763595" lon="11.4162177"><ele>264.4</ele><time>2026-04-18T08:55:45.119Z</time></trkpt><trkpt lat="43.6762458" lon="11.416305"><ele>265.0</ele><time>2026-04-18T08:55:46.119Z</time></trkpt><trkpt lat="43.6761904" lon="11.4163968"><ele>265.75</ele><time>2026-04-18T08:55:47.119Z</time></trkpt><trkpt lat="43.6760403" lon="11.416441"><ele>266.5</ele><time>2026-04-18T08:55:48.119Z</time></trkpt><trkpt lat="43.6759165" lon="11.4164881"><ele>267.25</ele><time>2026-04-18T08:55:49.119Z</time></trkpt><trkpt lat="43.6758086" lon="11.4165373"><ele>268.0</ele><time>2026-04-18T08:55:50.119Z</time></trkpt><trkpt lat="43.6757142" lon="11.4165747"><ele>268.0</ele><time>2026-04-18T08:55:51.119Z</time></trkpt><trkpt lat="43.6756299" lon="11.4165956"><ele>268.0</ele><time>2026-04-18T08:55:52.12Z</time></trkpt><trkpt lat="43.6755556" lon="11.4166167"><ele>268.0</ele><time>2026-04-18T08:55:53.119Z</time></trkpt><trkpt lat="43.6754907" lon="11.416643"><ele>268.0</ele><time>2026-04-18T08:55:54.119Z</time></trkpt><trkpt lat="43.6753843" lon="11.4166755"><ele>268.0</ele><time>2026-04-18T08:55:56.119Z</time></trkpt><trkpt lat="43.6752683" lon="11.4167202"><ele>267.7142857142857</ele><time>2026-04-18T08:55:58.12Z</time></trkpt><trkpt lat="43.6751899" lon="11.4167572"><ele>267.42857142857144</ele><time>2026-04-18T08:55:59.12Z</time></trkpt><trkpt lat="43.6751222" lon="11.4167939"><ele>267.1428571428571</ele><time>2026-04-18T08:56:00.12Z</time></trkpt><trkpt lat="43.6750503" lon="11.4168363"><ele>266.8571428571429</ele><time>2026-04-18T08:56:01.12Z</time></trkpt><trkpt lat="43.6749912" lon="11.4168771"><ele>266.57142857142856</ele><time>2026-04-18T08:56:02.118Z</time></trkpt><trkpt lat="43.6749359" lon="11.4169233"><ele>266.2857142857143</ele><time>2026-04-18T08:56:03.119Z</time></trkpt><trkpt lat="43.6748676" lon="11.4169566"><ele>266.0</ele><time>2026-04-18T08:56:04.119Z</time></trkpt><trkpt lat="43.6747964" lon="11.4169818"><ele>266.0</ele><time>2026-04-18T08:56:05.119Z</time></trkpt><trkpt lat="43.6747221" lon="11.4170088"><ele>266.0</ele><time>2026-04-18T08:56:06.119Z</time></trkpt><trkpt lat="43.6746522" lon="11.4170299"><ele>266.0</ele><time>2026-04-18T08:56:07.119Z</time></trkpt><trkpt lat="43.6745764" lon="11.4170676"><ele>266.0</ele><time>2026-04-18T08:56:08.12Z</time></trkpt><trkpt lat="43.6744997" lon="11.4171164"><ele>266.0</ele><time>2026-04-18T08:56:09.119Z</time></trkpt><trkpt lat="43.6744246" lon="11.4171568"><ele>266.0</ele><time>2026-04-18T08:56:10.119Z</time></trkpt><trkpt lat="43.6743512" lon="11.4171982"><ele>265.85714285714283</ele><time>2026-04-18T08:56:11.119Z</time></trkpt><trkpt lat="43.6742762" lon="11.417244"><ele>265.7142857142857</ele><time>2026-04-18T08:56:12.119Z</time></trkpt><trkpt lat="43.6742007" lon="11.4172825"><ele>265.57142857142856</ele><time>2026-04-18T08:56:13.119Z</time></trkpt><trkpt lat="43.6741312" lon="11.4173222"><ele>265.42857142857144</ele><time>2026-04-18T08:56:14.119Z</time></trkpt><trkpt lat="43.6740637" lon="11.4173555"><ele>265.2857142857143</ele><time>2026-04-18T08:56:15.119Z</time></trkpt><trkpt lat="43.6740028" lon="11.4173992"><ele>265.1428571428571</ele><time>2026-04-18T08:56:16.119Z</time></trkpt><trkpt lat="43.6739506" lon="11.4174599"><ele>265.0</ele><time>2026-04-18T08:56:17.119Z</time></trkpt><trkpt lat="43.6739048" lon="11.4175287"><ele>265.0</ele><time>2026-04-18T08:56:18.119Z</time></trkpt><trkpt lat="43.6738255" lon="11.4176189"><ele>265.0</ele><time>2026-04-18T08:56:20.12Z</time></trkpt><trkpt lat="43.6737468" lon="11.417663"><ele>265.0</ele><time>2026-04-18T08:56:23.119Z</time></trkpt><trkpt lat="43.6736726" lon="11.4176419"><ele>265.0</ele><time>2026-04-18T08:56:25.119Z</time></trkpt><trkpt lat="43.6736349" lon="11.4175289"><ele>265.0</ele><time>2026-04-18T08:56:27.119Z</time></trkpt><trkpt lat="43.6736194" lon="11.4173323"><ele>264.2</ele><time>2026-04-18T08:56:29.119Z</time></trkpt><trkpt lat="43.6735851" lon="11.417202"><ele>263.4</ele><time>2026-04-18T08:56:30.119Z</time></trkpt><trkpt lat="43.673541" lon="11.4170907"><ele>262.6</ele><time>2026-04-18T08:56:31.12Z</time></trkpt><trkpt lat="43.6734542" lon="11.4170381"><ele>261.8</ele><time>2026-04-18T08:56:32.119Z</time></trkpt><trkpt lat="43.6733946" lon="11.4169714"><ele>261.0</ele><time>2026-04-18T08:56:33.119Z</time></trkpt><trkpt lat="43.6732942" lon="11.416953"><ele>261.0</ele><time>2026-04-18T08:56:34.119Z</time></trkpt><trkpt lat="43.673199" lon="11.41699"><ele>261.0</ele><time>2026-04-18T08:56:35.119Z</time></trkpt><trkpt lat="43.6731078" lon="11.4170201"><ele>261.0</ele><time>2026-04-18T08:56:36.119Z</time></trkpt><trkpt lat="43.6730091" lon="11.4170598"><ele>261.0</ele><time>2026-04-18T08:56:37.12Z</time></trkpt><trkpt lat="43.6729221" lon="11.4171011"><ele>261.0</ele><time>2026-04-18T08:56:38.12Z</time></trkpt><trkpt lat="43.6728379" lon="11.4171476"><ele>260.8333333333333</ele><time>2026-04-18T08:56:39.119Z</time></trkpt><trkpt lat="43.6727639" lon="11.4171913"><ele>260.6666666666667</ele><time>2026-04-18T08:56:40.119Z</time></trkpt><trkpt lat="43.6726854" lon="11.4172346"><ele>260.5</ele><time>2026-04-18T08:56:41.119Z</time></trkpt><trkpt lat="43.6726167" lon="11.4172838"><ele>260.33333333333337</ele><time>2026-04-18T08:56:42.119Z</time></trkpt><trkpt lat="43.6725395" lon="11.4173374"><ele>260.1666666666667</ele><time>2026-04-18T08:56:43.119Z</time></trkpt><trkpt lat="43.6724566" lon="11.4174013"><ele>260.0</ele><time>2026-04-18T08:56:44.119Z</time></trkpt><trkpt lat="43.6723705" lon="11.4174427"><ele>260.0</ele><time>2026-04-18T08:56:45.12Z</time></trkpt><trkpt lat="43.6722861" lon="11.4174773"><ele>260.0</ele><time>2026-04-18T08:56:46.119Z</time></trkpt><trkpt lat="43.6721937" lon="11.4175043"><ele>260.0</ele><time>2026-04-18T08:56:47.12Z</time></trkpt><trkpt lat="43.6721113" lon="11.4174768"><ele>260.0</ele><time>2026-04-18T08:56:48.119Z</time></trkpt><trkpt lat="43.6720164" lon="11.4174686"><ele>260.0</ele><time>2026-04-18T08:56:49.119Z</time></trkpt><trkpt lat="43.6719266" lon="11.4174429"><ele>258.8</ele><time>2026-04-18T08:56:50.12Z</time></trkpt><trkpt lat="43.671832" lon="11.4174217"><ele>257.6</ele><time>2026-04-18T08:56:51.119Z</time></trkpt><trkpt lat="43.6717484" lon="11.417387"><ele>256.4</ele><time>2026-04-18T08:56:52.118Z</time></trkpt><trkpt lat="43.6716635" lon="11.4173391"><ele>255.2</ele><time>2026-04-18T08:56:53.119Z</time></trkpt><trkpt lat="43.6715805" lon="11.4172768"><ele>254.0</ele><time>2026-04-18T08:56:54.119Z</time></trkpt><trkpt lat="43.6715003" lon="11.417196"><ele>255.2</ele><time>2026-04-18T08:56:55.119Z</time></trkpt><trkpt lat="43.6714269" lon="11.4171027"><ele>256.4</ele><time>2026-04-18T08:56:56.119Z</time></trkpt><trkpt lat="43.6713638" lon="11.4170076"><ele>257.6</ele><time>2026-04-18T08:56:57.119Z</time></trkpt><trkpt lat="43.6713039" lon="11.4169095"><ele>258.8</ele><time>2026-04-18T08:56:58.119Z</time></trkpt><trkpt lat="43.6712463" lon="11.4168129"><ele>260.0</ele><time>2026-04-18T08:56:59.119Z</time></trkpt><trkpt lat="43.6711894" lon="11.4167205"><ele>260.0</ele><time>2026-04-18T08:57:00.119Z</time></trkpt><trkpt lat="43.6711347" lon="11.4166422"><ele>260.0</ele><time>2026-04-18T08:57:01.118Z</time></trkpt><trkpt lat="43.6710776" lon="11.4165964"><ele>260.0</ele><time>2026-04-18T08:57:02.119Z</time></trkpt><trkpt lat="43.6710077" lon="11.4165635"><ele>260.0</ele><time>2026-04-18T08:57:03.118Z</time></trkpt><trkpt lat="43.6709301" lon="11.4165539"><ele>260.0</ele><time>2026-04-18T08:57:04.118Z</time></trkpt><trkpt lat="43.6708488" lon="11.4165688"><ele>260.0</ele><time>2026-04-18T08:57:05.118Z</time></trkpt><trkpt lat="43.6707729" lon="11.4165939"><ele>259.2</ele><time>2026-04-18T08:57:06.118Z</time></trkpt><trkpt lat="43.6707129" lon="11.4166608"><ele>258.4</ele><time>2026-04-18T08:57:07.118Z</time></trkpt><trkpt lat="43.6706536" lon="11.4167235"><ele>257.6</ele><time>2026-04-18T08:57:08.119Z</time></trkpt><trkpt lat="43.6706464" lon="11.4168245"><ele>256.8</ele><time>2026-04-18T08:57:09.119Z</time></trkpt><trkpt lat="43.6706395" lon="11.4169986"><ele>256.0</ele><time>2026-04-18T08:57:11.119Z</time></trkpt><trkpt lat="43.6707194" lon="11.4170832"><ele>256.3333333333333</ele><time>2026-04-18T08:57:12.118Z</time></trkpt><trkpt lat="43.6707615" lon="11.4171795"><ele>256.66666666666663</ele><time>2026-04-18T08:57:13.118Z</time></trkpt><trkpt lat="43.6708252" lon="11.4172851"><ele>257.0</ele><time>2026-04-18T08:57:14.118Z</time></trkpt><trkpt lat="43.6708846" lon="11.4173692"><ele>257.3333333333333</ele><time>2026-04-18T08:57:15.118Z</time></trkpt><trkpt lat="43.6709283" lon="11.4174801"><ele>257.6666666666667</ele><time>2026-04-18T08:57:16.118Z</time></trkpt><trkpt lat="43.670964" lon="11.4175888"><ele>258.0</ele><time>2026-04-18T08:57:17.118Z</time></trkpt><trkpt lat="43.6709952" lon="11.4176887"><ele>258.0</ele><time>2026-04-18T08:57:18.118Z</time></trkpt><trkpt lat="43.6710217" lon="11.417792"><ele>258.0</ele><time>2026-04-18T08:57:19.118Z</time></trkpt><trkpt lat="43.6710498" lon="11.4178928"><ele>258.0</ele><time>2026-04-18T08:57:20.118Z</time></trkpt><trkpt lat="43.6710687" lon="11.4179945"><ele>258.0</ele><time>2026-04-18T08:57:21.118Z</time></trkpt><trkpt lat="43.6710878" lon="11.4181024"><ele>258.0</ele><time>2026-04-18T08:57:22.119Z</time></trkpt><trkpt lat="43.6710981" lon="11.418214"><ele>258.0</ele><time>2026-04-18T08:57:23.119Z</time></trkpt><trkpt lat="43.6711052" lon="11.4183214"><ele>256.5</ele><time>2026-04-18T08:57:24.118Z</time></trkpt><trkpt lat="43.6711134" lon="11.4184276"><ele>255.0</ele><time>2026-04-18T08:57:25.119Z</time></trkpt><trkpt lat="43.6711301" lon="11.4185294"><ele>253.5</ele><time>2026-04-18T08:57:26.119Z</time></trkpt><trkpt lat="43.6711668" lon="11.4186275"><ele>252.0</ele><time>2026-04-18T08:57:27.118Z</time></trkpt><trkpt lat="43.6712124" lon="11.4187172"><ele>250.5</ele><time>2026-04-18T08:57:28.118Z</time></trkpt><trkpt lat="43.671261" lon="11.4188011"><ele>249.0</ele><time>2026-04-18T08:57:29.118Z</time></trkpt><trkpt lat="43.6713148" lon="11.4188882"><ele>249.0</ele><time>2026-04-18T08:57:30.118Z</time></trkpt><trkpt lat="43.6713769" lon="11.4189769"><ele>249.0</ele><time>2026-04-18T08:57:31.118Z</time></trkpt><trkpt lat="43.6714028" lon="11.4190691"><ele>249.0</ele><time>2026-04-18T08:57:32.118Z</time></trkpt><trkpt lat="43.6714147" lon="11.4191741"><ele>249.0</ele><time>2026-04-18T08:57:33.118Z</time></trkpt><trkpt lat="43.6714194" lon="11.4192752"><ele>249.0</ele><time>2026-04-18T08:57:34.119Z</time></trkpt><trkpt lat="43.6714003" lon="11.4193939"><ele>249.0</ele><time>2026-04-18T08:57:35.118Z</time></trkpt><trkpt lat="43.6713873" lon="11.4195048"><ele>249.0</ele><time>2026-04-18T08:57:36.118Z</time></trkpt><trkpt lat="43.6713845" lon="11.4196219"><ele>249.0</ele><time>2026-04-18T08:57:37.118Z</time></trkpt><trkpt lat="43.6713872" lon="11.4197361"><ele>249.0</ele><time>2026-04-18T08:57:38.118Z</time></trkpt><trkpt lat="43.671396" lon="11.4198534"><ele>249.0</ele><time>2026-04-18T08:57:39.118Z</time></trkpt><trkpt lat="43.6714062" lon="11.4199771"><ele>249.0</ele><time>2026-04-18T08:57:40.118Z</time></trkpt><trkpt lat="43.6714208" lon="11.4201037"><ele>249.0</ele><time>2026-04-18T08:57:41.118Z</time></trkpt><trkpt lat="43.6714306" lon="11.4202308"><ele>249.39999999999998</ele><time>2026-04-18T08:57:42.119Z</time></trkpt><trkpt lat="43.671442" lon="11.4203598"><ele>249.79999999999998</ele><time>2026-04-18T08:57:43.118Z</time></trkpt><trkpt lat="43.6714558" lon="11.420488"><ele>250.20000000000002</ele><time>2026-04-18T08:57:44.119Z</time></trkpt><trkpt lat="43.6714773" lon="11.4206127"><ele>250.60000000000002</ele><time>2026-04-18T08:57:45.119Z</time></trkpt><trkpt lat="43.6715084" lon="11.4207355"><ele>251.0</ele><time>2026-04-18T08:57:46.118Z</time></trkpt><trkpt lat="43.6715596" lon="11.4208484"><ele>252.20000000000002</ele><time>2026-04-18T08:57:47.118Z</time></trkpt><trkpt lat="43.6716101" lon="11.4209537"><ele>253.40000000000003</ele><time>2026-04-18T08:57:48.119Z</time></trkpt><trkpt lat="43.67166" lon="11.4210564"><ele>254.6</ele><time>2026-04-18T08:57:49.119Z</time></trkpt><trkpt lat="43.6717148" lon="11.4211551"><ele>255.8</ele><time>2026-04-18T08:57:50.119Z</time></trkpt><trkpt lat="43.6717757" lon="11.4212536"><ele>257.0</ele><time>2026-04-18T08:57:51.118Z</time></trkpt><trkpt lat="43.6718379" lon="11.4213452"><ele>256.5</ele><time>2026-04-18T08:57:52.118Z</time></trkpt><trkpt lat="43.6719043" lon="11.4214312"><ele>256.0</ele><time>2026-04-18T08:57:53.118Z</time></trkpt><trkpt lat="43.6719611" lon="11.4215305"><ele>255.5</ele><time>2026-04-18T08:57:54.118Z</time></trkpt><trkpt lat="43.6720243" lon="11.421615"><ele>255.0</ele><time>2026-04-18T08:57:55.119Z</time></trkpt><trkpt lat="43.6720828" lon="11.4217017"><ele>254.50000000000003</ele><time>2026-04-18T08:57:56.118Z</time></trkpt><trkpt lat="43.6721414" lon="11.4217966"><ele>254.0</ele><time>2026-04-18T08:57:57.118Z</time></trkpt><trkpt lat="43.6721677" lon="11.4219062"><ele>254.0</ele><time>2026-04-18T08:57:58.119Z</time></trkpt><trkpt lat="43.6721847" lon="11.4220084"><ele>253.99999999999997</ele><time>2026-04-18T08:57:59.118Z</time></trkpt><trkpt lat="43.672195" lon="11.4221255"><ele>253.99999999999997</ele><time>2026-04-18T08:58:00.117Z</time></trkpt><trkpt lat="43.6721534" lon="11.4222941"><ele>254.0</ele><time>2026-04-18T08:58:02.118Z</time></trkpt><trkpt lat="43.672118" lon="11.4223886"><ele>254.0</ele><time>2026-04-18T08:58:03.118Z</time></trkpt><trkpt lat="43.6720767" lon="11.4224944"><ele>255.2</ele><time>2026-04-18T08:58:04.119Z</time></trkpt><trkpt lat="43.6720374" lon="11.4226041"><ele>256.4</ele><time>2026-04-18T08:58:05.118Z</time></trkpt><trkpt lat="43.671985" lon="11.4227127"><ele>257.6</ele><time>2026-04-18T08:58:06.118Z</time></trkpt><trkpt lat="43.6719267" lon="11.4228232"><ele>258.8</ele><time>2026-04-18T08:58:07.118Z</time></trkpt><trkpt lat="43.6718697" lon="11.4229269"><ele>260.0</ele><time>2026-04-18T08:58:08.118Z</time></trkpt><trkpt lat="43.6718063" lon="11.423039"><ele>260.6</ele><time>2026-04-18T08:58:09.117Z</time></trkpt><trkpt lat="43.6717444" lon="11.4231461"><ele>261.2</ele><time>2026-04-18T08:58:10.119Z</time></trkpt><trkpt lat="43.671681" lon="11.4232573"><ele>261.8</ele><time>2026-04-18T08:58:11.118Z</time></trkpt><trkpt lat="43.6716177" lon="11.4233609"><ele>262.4</ele><time>2026-04-18T08:58:12.118Z</time></trkpt><trkpt lat="43.6715575" lon="11.4234631"><ele>263.0</ele><time>2026-04-18T08:58:13.119Z</time></trkpt><trkpt lat="43.6714918" lon="11.4235696"><ele>263.0</ele><time>2026-04-18T08:58:14.118Z</time></trkpt><trkpt lat="43.671428" lon="11.4236775"><ele>263.0</ele><time>2026-04-18T08:58:15.118Z</time></trkpt><trkpt lat="43.6713595" lon="11.4237913"><ele>263.0</ele><time>2026-04-18T08:58:16.118Z</time></trkpt><trkpt lat="43.6712893" lon="11.4239105"><ele>263.0</ele><time>2026-04-18T08:58:17.118Z</time></trkpt><trkpt lat="43.6712178" lon="11.4240286"><ele>263.0</ele><time>2026-04-18T08:58:18.118Z</time></trkpt><trkpt lat="43.6711449" lon="11.4241477"><ele>262.8</ele><time>2026-04-18T08:58:19.119Z</time></trkpt><trkpt lat="43.6710722" lon="11.4242731"><ele>262.6</ele><time>2026-04-18T08:58:20.118Z</time></trkpt><trkpt lat="43.6710023" lon="11.4243874"><ele>262.4</ele><time>2026-04-18T08:58:21.118Z</time></trkpt><trkpt lat="43.6709451" lon="11.4244856"><ele>262.2</ele><time>2026-04-18T08:58:22.119Z</time></trkpt><trkpt lat="43.6708663" lon="11.4245735"><ele>262.0</ele><time>2026-04-18T08:58:24.118Z</time></trkpt><trkpt lat="43.6708122" lon="11.4245219"><ele>262.0</ele><time>2026-04-18T08:58:35.119Z</time></trkpt><trkpt lat="43.6707663" lon="11.4243949"><ele>262.0</ele><time>2026-04-18T08:58:37.118Z</time></trkpt><trkpt lat="43.6707249" lon="11.4242305"><ele>262.0</ele><time>2026-04-18T08:58:39.118Z</time></trkpt><trkpt lat="43.6706987" lon="11.4241336"><ele>262.0</ele><time>2026-04-18T08:58:40.119Z</time></trkpt><trkpt lat="43.6706737" lon="11.4240272"><ele>262.0</ele><time>2026-04-18T08:58:41.118Z</time></trkpt><trkpt lat="43.6706468" lon="11.4239196"><ele>262.0</ele><time>2026-04-18T08:58:42.118Z</time></trkpt><trkpt lat="43.6706193" lon="11.4238013"><ele>262.0</ele><time>2026-04-18T08:58:43.118Z</time></trkpt><trkpt lat="43.6705883" lon="11.4236831"><ele>262.0</ele><time>2026-04-18T08:58:44.118Z</time></trkpt><trkpt lat="43.670553" lon="11.4235575"><ele>262.0</ele><time>2026-04-18T08:58:45.118Z</time></trkpt><trkpt lat="43.6705169" lon="11.4234217"><ele>262.0</ele><time>2026-04-18T08:58:46.118Z</time></trkpt><trkpt lat="43.6704817" lon="11.4232829"><ele>262.0</ele><time>2026-04-18T08:58:47.118Z</time></trkpt><trkpt lat="43.6704452" lon="11.4231429"><ele>262.0</ele><time>2026-04-18T08:58:48.118Z</time></trkpt><trkpt lat="43.6704082" lon="11.4230009"><ele>262.0</ele><time>2026-04-18T08:58:49.118Z</time></trkpt><trkpt lat="43.6703682" lon="11.4228537"><ele>262.0</ele><time>2026-04-18T08:58:50.118Z</time></trkpt><trkpt lat="43.6703252" lon="11.4227021"><ele>262.0</ele><time>2026-04-18T08:58:51.118Z</time></trkpt><trkpt lat="43.6702802" lon="11.4225469"><ele>262.0</ele><time>2026-04-18T08:58:52.118Z</time></trkpt><trkpt lat="43.6702333" lon="11.422385"><ele>262.0</ele><time>2026-04-18T08:58:53.118Z</time></trkpt><trkpt lat="43.6701936" lon="11.4222381"><ele>262.0</ele><time>2026-04-18T08:58:54.119Z</time></trkpt><trkpt lat="43.6701561" lon="11.4221026"><ele>262.0</ele><time>2026-04-18T08:58:55.118Z</time></trkpt><trkpt lat="43.6701169" lon="11.4219601"><ele>262.75</ele><time>2026-04-18T08:58:56.119Z</time></trkpt><trkpt lat="43.6700755" lon="11.4218178"><ele>263.5</ele><time>2026-04-18T08:58:57.118Z</time></trkpt><trkpt lat="43.6700348" lon="11.4216727"><ele>264.25</ele><time>2026-04-18T08:58:58.118Z</time></trkpt><trkpt lat="43.6699947" lon="11.4215244"><ele>265.0</ele><time>2026-04-18T08:58:59.118Z</time></trkpt><trkpt lat="43.6699553" lon="11.4213753"><ele>265.2</ele><time>2026-04-18T08:59:00.118Z</time></trkpt><trkpt lat="43.6699158" lon="11.421229"><ele>265.4</ele><time>2026-04-18T08:59:01.118Z</time></trkpt><trkpt lat="43.669874" lon="11.421084"><ele>265.6</ele><time>2026-04-18T08:59:02.118Z</time></trkpt><trkpt lat="43.6698334" lon="11.420939"><ele>265.8</ele><time>2026-04-18T08:59:03.118Z</time></trkpt><trkpt lat="43.6697959" lon="11.4207967"><ele>266.0</ele><time>2026-04-18T08:59:04.118Z</time></trkpt><trkpt lat="43.6697605" lon="11.4206524"><ele>266.0</ele><time>2026-04-18T08:59:05.118Z</time></trkpt><trkpt lat="43.6697226" lon="11.4205126"><ele>266.0</ele><time>2026-04-18T08:59:06.118Z</time></trkpt><trkpt lat="43.6696821" lon="11.4203816"><ele>266.0</ele><time>2026-04-18T08:59:07.118Z</time></trkpt><trkpt lat="43.6696488" lon="11.4202453"><ele>266.0</ele><time>2026-04-18T08:59:08.118Z</time></trkpt><trkpt lat="43.6696119" lon="11.4201147"><ele>266.0</ele><time>2026-04-18T08:59:09.118Z</time></trkpt><trkpt lat="43.6695787" lon="11.4199794"><ele>266.40000000000003</ele><time>2026-04-18T08:59:10.119Z</time></trkpt><trkpt lat="43.6695411" lon="11.4198478"><ele>266.8</ele><time>2026-04-18T08:59:11.118Z</time></trkpt><trkpt lat="43.6695027" lon="11.4197155"><ele>267.20000000000005</ele><time>2026-04-18T08:59:12.119Z</time></trkpt><trkpt lat="43.6694664" lon="11.4195788"><ele>267.6</ele><time>2026-04-18T08:59:13.118Z</time></trkpt><trkpt lat="43.6694315" lon="11.4194394"><ele>268.0</ele><time>2026-04-18T08:59:14.118Z</time></trkpt><trkpt lat="43.6693961" lon="11.4193003"><ele>269.4</ele><time>2026-04-18T08:59:15.118Z</time></trkpt><trkpt lat="43.6693568" lon="11.4191615"><ele>270.8</ele><time>2026-04-18T08:59:16.118Z</time></trkpt><trkpt lat="43.6693187" lon="11.419024"><ele>272.2</ele><time>2026-04-18T08:59:17.119Z</time></trkpt><trkpt lat="43.6692808" lon="11.4188895"><ele>273.6</ele><time>2026-04-18T08:59:18.118Z</time></trkpt><trkpt lat="43.6692463" lon="11.4187537"><ele>275.0</ele><time>2026-04-18T08:59:19.118Z</time></trkpt><trkpt lat="43.669208" lon="11.4186224"><ele>276.2</ele><time>2026-04-18T08:59:20.119Z</time></trkpt><trkpt lat="43.66917" lon="11.418492"><ele>277.4</ele><time>2026-04-18T08:59:21.118Z</time></trkpt><trkpt lat="43.669133" lon="11.4183661"><ele>278.6</ele><time>2026-04-18T08:59:22.119Z</time></trkpt><trkpt lat="43.6690919" lon="11.4182398"><ele>279.8</ele><time>2026-04-18T08:59:23.119Z</time></trkpt><trkpt lat="43.6690494" lon="11.418116"><ele>281.0</ele><time>2026-04-18T08:59:24.118Z</time></trkpt><trkpt lat="43.669011" lon="11.4180009"><ele>281.33333333333337</ele><time>2026-04-18T08:59:25.118Z</time></trkpt><trkpt lat="43.6689745" lon="11.4178952"><ele>281.6666666666667</ele><time>2026-04-18T08:59:26.118Z</time></trkpt><trkpt lat="43.6689391" lon="11.4177987"><ele>282.0</ele><time>2026-04-18T08:59:27.119Z</time></trkpt><trkpt lat="43.6688964" lon="11.417707"><ele>282.3333333333333</ele><time>2026-04-18T08:59:28.118Z</time></trkpt><trkpt lat="43.6688388" lon="11.4176346"><ele>282.66666666666663</ele><time>2026-04-18T08:59:29.118Z</time></trkpt><trkpt lat="43.6687666" lon="11.417575"><ele>283.0</ele><time>2026-04-18T08:59:30.119Z</time></trkpt><trkpt lat="43.6686824" lon="11.4175291"><ele>283.6</ele><time>2026-04-18T08:59:31.118Z</time></trkpt><trkpt lat="43.6685902" lon="11.4174897"><ele>284.20000000000005</ele><time>2026-04-18T08:59:32.118Z</time></trkpt><trkpt lat="43.6685012" lon="11.4174512"><ele>284.8</ele><time>2026-04-18T08:59:33.118Z</time></trkpt><trkpt lat="43.6684132" lon="11.4174139"><ele>285.40000000000003</ele><time>2026-04-18T08:59:34.118Z</time></trkpt><trkpt lat="43.6683193" lon="11.417374"><ele>286.0</ele><time>2026-04-18T08:59:35.118Z</time></trkpt><trkpt lat="43.6682305" lon="11.4173352"><ele>286.0</ele><time>2026-04-18T08:59:36.118Z</time></trkpt><trkpt lat="43.6681427" lon="11.4172978"><ele>286.0</ele><time>2026-04-18T08:59:37.118Z</time></trkpt><trkpt lat="43.668052" lon="11.4172628"><ele>286.0</ele><time>2026-04-18T08:59:38.118Z</time></trkpt><trkpt lat="43.667963" lon="11.4172253"><ele>286.0</ele><time>2026-04-18T08:59:39.118Z</time></trkpt><trkpt lat="43.6678752" lon="11.4171859"><ele>286.0</ele><time>2026-04-18T08:59:40.119Z</time></trkpt><trkpt lat="43.6677864" lon="11.4171442"><ele>286.6</ele><time>2026-04-18T08:59:41.118Z</time></trkpt><trkpt lat="43.667696" lon="11.4171052"><ele>287.20000000000005</ele><time>2026-04-18T08:59:42.118Z</time></trkpt><trkpt lat="43.6676006" lon="11.4170645"><ele>287.79999999999995</ele><time>2026-04-18T08:59:43.119Z</time></trkpt><trkpt lat="43.667504" lon="11.4170247"><ele>288.4</ele><time>2026-04-18T08:59:44.119Z</time></trkpt><trkpt lat="43.6674058" lon="11.4169821"><ele>289.0</ele><time>2026-04-18T08:59:45.119Z</time></trkpt><trkpt lat="43.6673035" lon="11.4169404"><ele>289.0</ele><time>2026-04-18T08:59:46.118Z</time></trkpt><trkpt lat="43.667202" lon="11.4168964"><ele>289.0</ele><time>2026-04-18T08:59:47.118Z</time></trkpt><trkpt lat="43.6670939" lon="11.4168511"><ele>289.0</ele><time>2026-04-18T08:59:48.119Z</time></trkpt><trkpt lat="43.666988" lon="11.416801"><ele>289.0</ele><time>2026-04-18T08:59:49.118Z</time></trkpt><trkpt lat="43.6668842" lon="11.416757"><ele>289.0</ele><time>2026-04-18T08:59:50.118Z</time></trkpt><trkpt lat="43.6667796" lon="11.4167225"><ele>290.0</ele><time>2026-04-18T08:59:51.118Z</time></trkpt><trkpt lat="43.6666809" lon="11.4166998"><ele>291.0</ele><time>2026-04-18T08:59:52.118Z</time></trkpt><trkpt lat="43.6665874" lon="11.4166778"><ele>292.0</ele><time>2026-04-18T08:59:53.118Z</time></trkpt><trkpt lat="43.6665076" lon="11.4166342"><ele>293.0</ele><time>2026-04-18T08:59:54.117Z</time></trkpt><trkpt lat="43.6664327" lon="11.4165748"><ele>294.0</ele><time>2026-04-18T08:59:55.118Z</time></trkpt><trkpt lat="43.6663613" lon="11.4164939"><ele>294.0</ele><time>2026-04-18T08:59:56.119Z</time></trkpt><trkpt lat="43.666289" lon="11.4163966"><ele>294.0</ele><time>2026-04-18T08:59:57.118Z</time></trkpt><trkpt lat="43.6662126" lon="11.4162908"><ele>294.0</ele><time>2026-04-18T08:59:58.119Z</time></trkpt><trkpt lat="43.6661367" lon="11.4161759"><ele>294.0</ele><time>2026-04-18T08:59:59.118Z</time></trkpt><trkpt lat="43.6660627" lon="11.4160627"><ele>294.0</ele><time>2026-04-18T09:00:00.119Z</time></trkpt><trkpt lat="43.6659854" lon="11.4159474"><ele>293.2</ele><time>2026-04-18T09:00:01.118Z</time></trkpt><trkpt lat="43.665909" lon="11.4158333"><ele>292.4</ele><time>2026-04-18T09:00:02.118Z</time></trkpt><trkpt lat="43.6658314" lon="11.4157199"><ele>291.6</ele><time>2026-04-18T09:00:03.119Z</time></trkpt><trkpt lat="43.6657565" lon="11.4156087"><ele>290.8</ele><time>2026-04-18T09:00:04.118Z</time></trkpt><trkpt lat="43.6656824" lon="11.4154958"><ele>290.0</ele><time>2026-04-18T09:00:05.118Z</time></trkpt><trkpt lat="43.6656087" lon="11.4153845"><ele>289.2</ele><time>2026-04-18T09:00:06.118Z</time></trkpt><trkpt lat="43.665534" lon="11.4152803"><ele>288.4</ele><time>2026-04-18T09:00:07.119Z</time></trkpt><trkpt lat="43.6654599" lon="11.4151788"><ele>287.6</ele><time>2026-04-18T09:00:08.118Z</time></trkpt><trkpt lat="43.6653815" lon="11.4150818"><ele>286.8</ele><time>2026-04-18T09:00:09.118Z</time></trkpt><trkpt lat="43.6653006" lon="11.4149874"><ele>286.0</ele><time>2026-04-18T09:00:10.119Z</time></trkpt><trkpt lat="43.6652222" lon="11.4149092"><ele>286.0</ele><time>2026-04-18T09:00:11.118Z</time></trkpt><trkpt lat="43.6651552" lon="11.4148417"><ele>286.0</ele><time>2026-04-18T09:00:12.118Z</time></trkpt><trkpt lat="43.6650973" lon="11.4147871"><ele>286.0</ele><time>2026-04-18T09:00:13.118Z</time></trkpt><trkpt lat="43.6650307" lon="11.4147336"><ele>286.0</ele><time>2026-04-18T09:00:14.118Z</time></trkpt><trkpt lat="43.6649404" lon="11.4146618"><ele>286.0</ele><time>2026-04-18T09:00:16.119Z</time></trkpt><trkpt lat="43.6648736" lon="11.4145941"><ele>286.0</ele><time>2026-04-18T09:00:18.117Z</time></trkpt><trkpt lat="43.6648681" lon="11.414485"><ele>286.0</ele><time>2026-04-18T09:00:40.119Z</time></trkpt><trkpt lat="43.6648959" lon="11.4143255"><ele>286.0</ele><time>2026-04-18T09:00:43.119Z</time></trkpt><trkpt lat="43.6649249" lon="11.4142227"><ele>286.0</ele><time>2026-04-18T09:00:44.119Z</time></trkpt><trkpt lat="43.6649621" lon="11.4141098"><ele>286.0</ele><time>2026-04-18T09:00:45.118Z</time></trkpt><trkpt lat="43.6649915" lon="11.41401"><ele>286.0</ele><time>2026-04-18T09:00:46.119Z</time></trkpt><trkpt lat="43.6650104" lon="11.413864"><ele>286.3333333333333</ele><time>2026-04-18T09:00:48.119Z</time></trkpt><trkpt lat="43.6649938" lon="11.4137744"><ele>286.66666666666663</ele><time>2026-04-18T09:00:57.118Z</time></trkpt><trkpt lat="43.664979" lon="11.4136596"><ele>287.0</ele><time>2026-04-18T09:00:59.119Z</time></trkpt><trkpt lat="43.6649675" lon="11.4135652"><ele>287.3333333333333</ele><time>2026-04-18T09:01:00.119Z</time></trkpt><trkpt lat="43.6649637" lon="11.4134624"><ele>287.6666666666667</ele><time>2026-04-18T09:01:01.119Z</time></trkpt><trkpt lat="43.6649644" lon="11.4133367"><ele>288.0</ele><time>2026-04-18T09:01:02.118Z</time></trkpt><trkpt lat="43.6649537" lon="11.413226"><ele>288.0</ele><time>2026-04-18T09:01:03.118Z</time></trkpt><trkpt lat="43.6649392" lon="11.41312"><ele>288.0</ele><time>2026-04-18T09:01:04.119Z</time></trkpt><trkpt lat="43.6648919" lon="11.4129897"><ele>288.0</ele><time>2026-04-18T09:01:05.118Z</time></trkpt><trkpt lat="43.6648544" lon="11.4128787"><ele>288.0</ele><time>2026-04-18T09:01:06.118Z</time></trkpt><trkpt lat="43.6648138" lon="11.4127879"><ele>288.0</ele><time>2026-04-18T09:01:07.117Z</time></trkpt><trkpt lat="43.6647959" lon="11.4126164"><ele>289.0</ele><time>2026-04-18T09:01:09.118Z</time></trkpt><trkpt lat="43.6647635" lon="11.4124982"><ele>290.0</ele><time>2026-04-18T09:01:10.118Z</time></trkpt><trkpt lat="43.6647491" lon="11.412379"><ele>291.0</ele><time>2026-04-18T09:01:11.118Z</time></trkpt><trkpt lat="43.6647343" lon="11.4122705"><ele>292.0</ele><time>2026-04-18T09:01:12.119Z</time></trkpt><trkpt lat="43.6647425" lon="11.4121721"><ele>293.0</ele><time>2026-04-18T09:01:13.118Z</time></trkpt><trkpt lat="43.6647483" lon="11.4120545"><ele>294.0</ele><time>2026-04-18T09:01:14.118Z</time></trkpt><trkpt lat="43.6647749" lon="11.4119418"><ele>295.0</ele><time>2026-04-18T09:01:15.118Z</time></trkpt><trkpt lat="43.664813" lon="11.4118478"><ele>296.0</ele><time>2026-04-18T09:01:16.118Z</time></trkpt><trkpt lat="43.664826" lon="11.4117586"><ele>297.0</ele><time>2026-04-18T09:01:17.119Z</time></trkpt><trkpt lat="43.6648348" lon="11.4115802"><ele>298.0</ele><time>2026-04-18T09:01:19.119Z</time></trkpt><trkpt lat="43.6648234" lon="11.4114912"><ele>299.0</ele><time>2026-04-18T09:01:20.118Z</time></trkpt><trkpt lat="43.6648115" lon="11.411399"><ele>300.0</ele><time>2026-04-18T09:01:21.118Z</time></trkpt><trkpt lat="43.6647176" lon="11.411358"><ele>300.0</ele><time>2026-04-18T09:01:22.119Z</time></trkpt><trkpt lat="43.6646133" lon="11.4113207"><ele>300.0</ele><time>2026-04-18T09:01:23.118Z</time></trkpt><trkpt lat="43.6645098" lon="11.4112785"><ele>300.0</ele><time>2026-04-18T09:01:24.118Z</time></trkpt><trkpt lat="43.6643987" lon="11.4112438"><ele>300.0</ele><time>2026-04-18T09:01:25.118Z</time></trkpt><trkpt lat="43.6643371" lon="11.4112036"><ele>300.0</ele><time>2026-04-18T09:01:26.119Z</time></trkpt><trkpt lat="43.6642208" lon="11.4111434"><ele>303.8</ele><time>2026-04-18T09:01:28.118Z</time></trkpt><trkpt lat="43.6641172" lon="11.4110504"><ele>307.6</ele><time>2026-04-18T09:01:30.118Z</time></trkpt><trkpt lat="43.664058" lon="11.4109909"><ele>311.4</ele><time>2026-04-18T09:01:31.118Z</time></trkpt><trkpt lat="43.6640007" lon="11.4108582"><ele>315.2</ele><time>2026-04-18T09:01:33.118Z</time></trkpt><trkpt lat="43.664024" lon="11.4107281"><ele>319.0</ele><time>2026-04-18T09:01:34.118Z</time></trkpt><trkpt lat="43.6640195" lon="11.410635"><ele>319.0</ele><time>2026-04-18T09:01:35.118Z</time></trkpt><trkpt lat="43.6639803" lon="11.4104925"><ele>319.0</ele><time>2026-04-18T09:01:37.119Z</time></trkpt><trkpt lat="43.663931" lon="11.4104029"><ele>319.0</ele><time>2026-04-18T09:01:38.118Z</time></trkpt><trkpt lat="43.6638813" lon="11.4103107"><ele>319.0</ele><time>2026-04-18T09:01:39.118Z</time></trkpt><trkpt lat="43.6638138" lon="11.4102"><ele>319.0</ele><time>2026-04-18T09:01:40.118Z</time></trkpt><trkpt lat="43.6637594" lon="11.4101101"><ele>318.5714285714286</ele><time>2026-04-18T09:01:41.119Z</time></trkpt><trkpt lat="43.6636929" lon="11.4100332"><ele>318.1428571428571</ele><time>2026-04-18T09:01:42.119Z</time></trkpt><trkpt lat="43.6636266" lon="11.4099677"><ele>317.7142857142857</ele><time>2026-04-18T09:01:43.118Z</time></trkpt><trkpt lat="43.663559" lon="11.4099374"><ele>317.28571428571433</ele><time>2026-04-18T09:01:44.119Z</time></trkpt><trkpt lat="43.663494" lon="11.4099201"><ele>316.8571428571429</ele><time>2026-04-18T09:01:45.118Z</time></trkpt><trkpt lat="43.6634214" lon="11.4099377"><ele>316.42857142857144</ele><time>2026-04-18T09:01:46.118Z</time></trkpt><trkpt lat="43.6633621" lon="11.4099752"><ele>316.0</ele><time>2026-04-18T09:01:47.118Z</time></trkpt><trkpt lat="43.6632926" lon="11.4100134"><ele>318.8</ele><time>2026-04-18T09:01:48.119Z</time></trkpt><trkpt lat="43.6632142" lon="11.410023"><ele>321.6</ele><time>2026-04-18T09:01:49.118Z</time></trkpt><trkpt lat="43.6631423" lon="11.4100293"><ele>324.4</ele><time>2026-04-18T09:01:50.118Z</time></trkpt><trkpt lat="43.6631011" lon="11.4099407"><ele>327.2</ele><time>2026-04-18T09:01:51.118Z</time></trkpt><trkpt lat="43.6630127" lon="11.4098371"><ele>330.0</ele><time>2026-04-18T09:01:53.118Z</time></trkpt><trkpt lat="43.6629359" lon="11.4097166"><ele>331.4</ele><time>2026-04-18T09:01:55.119Z</time></trkpt><trkpt lat="43.6628934" lon="11.4096428"><ele>332.8</ele><time>2026-04-18T09:01:56.119Z</time></trkpt><trkpt lat="43.6628172" lon="11.4095122"><ele>334.20000000000005</ele><time>2026-04-18T09:01:58.118Z</time></trkpt><trkpt lat="43.6627593" lon="11.4093937"><ele>335.6</ele><time>2026-04-18T09:02:00.119Z</time></trkpt><trkpt lat="43.6627051" lon="11.409321"><ele>337.0</ele><time>2026-04-18T09:02:01.118Z</time></trkpt><trkpt lat="43.6626356" lon="11.4092505"><ele>338.8333333333333</ele><time>2026-04-18T09:02:02.118Z</time></trkpt><trkpt lat="43.6625659" lon="11.409193"><ele>340.66666666666663</ele><time>2026-04-18T09:02:03.118Z</time></trkpt><trkpt lat="43.6625056" lon="11.4091326"><ele>342.5</ele><time>2026-04-18T09:02:04.119Z</time></trkpt><trkpt lat="43.6624459" lon="11.409062"><ele>344.3333333333333</ele><time>2026-04-18T09:02:05.119Z</time></trkpt><trkpt lat="43.6624028" lon="11.4089829"><ele>346.1666666666667</ele><time>2026-04-18T09:02:06.118Z</time></trkpt><trkpt lat="43.6623594" lon="11.4089019"><ele>348.0</ele><time>2026-04-18T09:02:07.118Z</time></trkpt><trkpt lat="43.6623069" lon="11.4088256"><ele>350.3333333333333</ele><time>2026-04-18T09:02:08.118Z</time></trkpt><trkpt lat="43.6622588" lon="11.4087508"><ele>352.6666666666667</ele><time>2026-04-18T09:02:09.118Z</time></trkpt><trkpt lat="43.6622103" lon="11.4086799"><ele>355.0</ele><time>2026-04-18T09:02:10.118Z</time></trkpt><trkpt lat="43.6621483" lon="11.4086057"><ele>357.33333333333337</ele><time>2026-04-18T09:02:11.118Z</time></trkpt><trkpt lat="43.66209" lon="11.4085421"><ele>359.6666666666667</ele><time>2026-04-18T09:02:12.118Z</time></trkpt><trkpt lat="43.6620248" lon="11.4084338"><ele>362.0</ele><time>2026-04-18T09:02:14.119Z</time></trkpt><trkpt lat="43.6620159" lon="11.408245"><ele>362.0</ele><time>2026-04-18T09:02:16.118Z</time></trkpt><trkpt lat="43.6620128" lon="11.4081331"><ele>362.0</ele><time>2026-04-18T09:02:17.118Z</time></trkpt><trkpt lat="43.6619967" lon="11.4080355"><ele>362.0</ele><time>2026-04-18T09:02:18.119Z</time></trkpt><trkpt lat="43.6619485" lon="11.4079469"><ele>362.0</ele><time>2026-04-18T09:02:19.119Z</time></trkpt><trkpt lat="43.6618953" lon="11.4078597"><ele>362.0</ele><time>2026-04-18T09:02:20.118Z</time></trkpt><trkpt lat="43.6618473" lon="11.4077776"><ele>362.0</ele><time>2026-04-18T09:02:21.118Z</time></trkpt><trkpt lat="43.6618139" lon="11.4076974"><ele>364.83333333333337</ele><time>2026-04-18T09:02:22.118Z</time></trkpt><trkpt lat="43.6617594" lon="11.4075511"><ele>367.6666666666667</ele><time>2026-04-18T09:02:24.119Z</time></trkpt><trkpt lat="43.6616852" lon="11.407421"><ele>370.5</ele><time>2026-04-18T09:02:26.118Z</time></trkpt><trkpt lat="43.6616335" lon="11.4073643"><ele>373.3333333333333</ele><time>2026-04-18T09:02:27.118Z</time></trkpt><trkpt lat="43.6615744" lon="11.4073265"><ele>376.16666666666663</ele><time>2026-04-18T09:02:28.119Z</time></trkpt><trkpt lat="43.6615078" lon="11.4072953"><ele>379.0</ele><time>2026-04-18T09:02:29.118Z</time></trkpt><trkpt lat="43.6614429" lon="11.4072599"><ele>379.0</ele><time>2026-04-18T09:02:30.118Z</time></trkpt><trkpt lat="43.6613681" lon="11.4072411"><ele>379.0</ele><time>2026-04-18T09:02:31.118Z</time></trkpt><trkpt lat="43.6612877" lon="11.4072376"><ele>379.0</ele><time>2026-04-18T09:02:32.119Z</time></trkpt><trkpt lat="43.66119" lon="11.4072425"><ele>379.0</ele><time>2026-04-18T09:02:33.118Z</time></trkpt><trkpt lat="43.6611075" lon="11.4072419"><ele>379.0</ele><time>2026-04-18T09:02:34.118Z</time></trkpt><trkpt lat="43.6610418" lon="11.4072289"><ele>379.0</ele><time>2026-04-18T09:02:35.118Z</time></trkpt><trkpt lat="43.6609366" lon="11.4071311"><ele>381.5</ele><time>2026-04-18T09:02:37.118Z</time></trkpt><trkpt lat="43.6608626" lon="11.4070319"><ele>384.0</ele><time>2026-04-18T09:02:38.118Z</time></trkpt><trkpt lat="43.6607607" lon="11.4069144"><ele>386.5</ele><time>2026-04-18T09:02:39.119Z</time></trkpt><trkpt lat="43.66066" lon="11.4068042"><ele>389.0</ele><time>2026-04-18T09:02:40.118Z</time></trkpt><trkpt lat="43.6605666" lon="11.4067317"><ele>389.0</ele><time>2026-04-18T09:02:41.118Z</time></trkpt><trkpt lat="43.6604548" lon="11.4066834"><ele>389.0</ele><time>2026-04-18T09:02:42.117Z</time></trkpt><trkpt lat="43.6603114" lon="11.4066282"><ele>389.0</ele><time>2026-04-18T09:02:43.117Z</time></trkpt><trkpt lat="43.6601516" lon="11.4065735"><ele>389.0</ele><time>2026-04-18T09:02:44.117Z</time></trkpt><trkpt lat="43.6600104" lon="11.4065408"><ele>391.66666666666663</ele><time>2026-04-18T09:02:45.117Z</time></trkpt><trkpt lat="43.6599177" lon="11.4065375"><ele>394.3333333333333</ele><time>2026-04-18T09:02:46.118Z</time></trkpt><trkpt lat="43.6598534" lon="11.4065683"><ele>397.0</ele><time>2026-04-18T09:02:47.118Z</time></trkpt><trkpt lat="43.659792" lon="11.4066375"><ele>399.66666666666663</ele><time>2026-04-18T09:02:48.117Z</time></trkpt><trkpt lat="43.6597412" lon="11.406723"><ele>402.3333333333333</ele><time>2026-04-18T09:02:49.118Z</time></trkpt><trkpt lat="43.6596886" lon="11.406799"><ele>405.0</ele><time>2026-04-18T09:02:50.117Z</time></trkpt><trkpt lat="43.6596215" lon="11.4068713"><ele>405.0</ele><time>2026-04-18T09:02:51.118Z</time></trkpt><trkpt lat="43.6595536" lon="11.4069481"><ele>405.0</ele><time>2026-04-18T09:02:52.117Z</time></trkpt><trkpt lat="43.659487" lon="11.4070353"><ele>405.0</ele><time>2026-04-18T09:02:53.118Z</time></trkpt><trkpt lat="43.6594266" lon="11.4071256"><ele>405.0</ele><time>2026-04-18T09:02:54.116Z</time></trkpt><trkpt lat="43.6593782" lon="11.4072201"><ele>405.0</ele><time>2026-04-18T09:02:55.117Z</time></trkpt><trkpt lat="43.6593354" lon="11.4073128"><ele>405.0</ele><time>2026-04-18T09:02:56.117Z</time></trkpt><trkpt lat="43.6593136" lon="11.4074241"><ele>407.0</ele><time>2026-04-18T09:02:57.118Z</time></trkpt><trkpt lat="43.6592877" lon="11.4075397"><ele>409.0</ele><time>2026-04-18T09:02:58.117Z</time></trkpt><trkpt lat="43.6592444" lon="11.4076508"><ele>411.0</ele><time>2026-04-18T09:02:59.117Z</time></trkpt><trkpt lat="43.6591994" lon="11.407748"><ele>413.0</ele><time>2026-04-18T09:03:00.117Z</time></trkpt><trkpt lat="43.6591511" lon="11.4078699"><ele>415.0</ele><time>2026-04-18T09:03:02.117Z</time></trkpt><trkpt lat="43.6590904" lon="11.4079328"><ele>417.0</ele><time>2026-04-18T09:03:05.118Z</time></trkpt><trkpt lat="43.659013" lon="11.4078689"><ele>417.0</ele><time>2026-04-18T09:03:08.118Z</time></trkpt><trkpt lat="43.6589561" lon="11.4078309"><ele>417.0</ele><time>2026-04-18T09:03:42.118Z</time></trkpt><trkpt lat="43.6588903" lon="11.4077957"><ele>417.0</ele><time>2026-04-18T09:03:44.118Z</time></trkpt><trkpt lat="43.6587924" lon="11.407695"><ele>417.0</ele><time>2026-04-18T09:03:46.117Z</time></trkpt><trkpt lat="43.6586878" lon="11.4076529"><ele>417.0</ele><time>2026-04-18T09:03:48.116Z</time></trkpt><trkpt lat="43.6585788" lon="11.4077387"><ele>416.0</ele><time>2026-04-18T09:03:50.118Z</time></trkpt><trkpt lat="43.658529" lon="11.40782"><ele>415.0</ele><time>2026-04-18T09:03:51.118Z</time></trkpt><trkpt lat="43.6584618" lon="11.4079138"><ele>414.0</ele><time>2026-04-18T09:03:52.117Z</time></trkpt><trkpt lat="43.6583932" lon="11.4080109"><ele>413.0</ele><time>2026-04-18T09:03:53.117Z</time></trkpt><trkpt lat="43.6583314" lon="11.4080804"><ele>412.0</ele><time>2026-04-18T09:03:54.117Z</time></trkpt><trkpt lat="43.6582571" lon="11.4081406"><ele>411.0</ele><time>2026-04-18T09:03:55.118Z</time></trkpt><trkpt lat="43.6581819" lon="11.4081532"><ele>411.0</ele><time>2026-04-18T09:03:56.118Z</time></trkpt><trkpt lat="43.6580826" lon="11.4081422"><ele>411.0</ele><time>2026-04-18T09:03:57.117Z</time></trkpt><trkpt lat="43.6579767" lon="11.4081186"><ele>411.0</ele><time>2026-04-18T09:03:58.117Z</time></trkpt><trkpt lat="43.6578719" lon="11.4081287"><ele>411.0</ele><time>2026-04-18T09:03:59.117Z</time></trkpt><trkpt lat="43.6577896" lon="11.4081111"><ele>411.0</ele><time>2026-04-18T09:04:00.117Z</time></trkpt><trkpt lat="43.6577012" lon="11.4080708"><ele>412.20000000000005</ele><time>2026-04-18T09:04:01.118Z</time></trkpt><trkpt lat="43.6576207" lon="11.4080274"><ele>413.40000000000003</ele><time>2026-04-18T09:04:02.118Z</time></trkpt><trkpt lat="43.657559" lon="11.4079143"><ele>414.6</ele><time>2026-04-18T09:04:03.117Z</time></trkpt><trkpt lat="43.6575002" lon="11.4078083"><ele>415.8</ele><time>2026-04-18T09:04:04.117Z</time></trkpt><trkpt lat="43.6574448" lon="11.4077084"><ele>417.0</ele><time>2026-04-18T09:04:05.118Z</time></trkpt><trkpt lat="43.6574172" lon="11.4075769"><ele>419.8333333333333</ele><time>2026-04-18T09:04:07.118Z</time></trkpt><trkpt lat="43.6573566" lon="11.4075182"><ele>422.66666666666663</ele><time>2026-04-18T09:04:14.117Z</time></trkpt><trkpt lat="43.6572648" lon="11.4075448"><ele>425.5</ele><time>2026-04-18T09:04:16.117Z</time></trkpt><trkpt lat="43.6571897" lon="11.4075408"><ele>428.3333333333333</ele><time>2026-04-18T09:04:17.117Z</time></trkpt><trkpt lat="43.6571189" lon="11.4075408"><ele>431.16666666666663</ele><time>2026-04-18T09:04:18.118Z</time></trkpt><trkpt lat="43.6570419" lon="11.4075349"><ele>434.0</ele><time>2026-04-18T09:04:19.117Z</time></trkpt><trkpt lat="43.6569468" lon="11.4075126"><ele>433.99999999999994</ele><time>2026-04-18T09:04:20.118Z</time></trkpt><trkpt lat="43.656839" lon="11.4074777"><ele>434.0</ele><time>2026-04-18T09:04:21.118Z</time></trkpt><trkpt lat="43.6567411" lon="11.4074924"><ele>434.0</ele><time>2026-04-18T09:04:22.117Z</time></trkpt><trkpt lat="43.65667" lon="11.407483"><ele>434.0</ele><time>2026-04-18T09:04:23.117Z</time></trkpt><trkpt lat="43.65659" lon="11.4074658"><ele>433.99999999999994</ele><time>2026-04-18T09:04:24.118Z</time></trkpt><trkpt lat="43.6565286" lon="11.4074457"><ele>434.0</ele><time>2026-04-18T09:04:25.117Z</time></trkpt><trkpt lat="43.6564223" lon="11.4074389"><ele>433.99999999999994</ele><time>2026-04-18T09:04:27.118Z</time></trkpt><trkpt lat="43.6563164" lon="11.4074629"><ele>434.0</ele><time>2026-04-18T09:04:29.117Z</time></trkpt><trkpt lat="43.6562713" lon="11.4075451"><ele>434.0</ele><time>2026-04-18T09:04:31.118Z</time></trkpt><trkpt lat="43.6562563" lon="11.407633"><ele>434.0</ele><time>2026-04-18T09:04:32.117Z</time></trkpt><trkpt lat="43.6562039" lon="11.4077474"><ele>433.99999999999994</ele><time>2026-04-18T09:04:34.118Z</time></trkpt><trkpt lat="43.6561375" lon="11.4078259"><ele>434.0</ele><time>2026-04-18T09:04:36.117Z</time></trkpt><trkpt lat="43.6560609" lon="11.4078701"><ele>430.0</ele><time>2026-04-18T09:04:38.118Z</time></trkpt><trkpt lat="43.6559638" lon="11.4079369"><ele>426.0</ele><time>2026-04-18T09:04:40.116Z</time></trkpt><trkpt lat="43.6559849" lon="11.4080585"><ele>422.0</ele><time>2026-04-18T09:04:42.116Z</time></trkpt><trkpt lat="43.6560155" lon="11.4081846"><ele>418.0</ele><time>2026-04-18T09:04:44.117Z</time></trkpt><trkpt lat="43.6560194" lon="11.4083526"><ele>414.0</ele><time>2026-04-18T09:04:46.116Z</time></trkpt><trkpt lat="43.6560229" lon="11.4084606"><ele>414.0</ele><time>2026-04-18T09:04:47.118Z</time></trkpt><trkpt lat="43.6560696" lon="11.4085282"><ele>414.0</ele><time>2026-04-18T09:04:48.118Z</time></trkpt><trkpt lat="43.6560994" lon="11.4086095"><ele>414.0</ele><time>2026-04-18T09:04:49.118Z</time></trkpt><trkpt lat="43.6561366" lon="11.408691"><ele>414.0</ele><time>2026-04-18T09:04:50.117Z</time></trkpt><trkpt lat="43.6561743" lon="11.4088734"><ele>414.0</ele><time>2026-04-18T09:04:52.118Z</time></trkpt><trkpt lat="43.6561263" lon="11.4089965"><ele>414.0</ele><time>2026-04-18T09:04:53.117Z</time></trkpt><trkpt lat="43.656084" lon="11.4090871"><ele>412.79999999999995</ele><time>2026-04-18T09:04:54.117Z</time></trkpt><trkpt lat="43.6560409" lon="11.409157"><ele>411.59999999999997</ele><time>2026-04-18T09:04:55.118Z</time></trkpt><trkpt lat="43.6559786" lon="11.4092477"><ele>410.4</ele><time>2026-04-18T09:04:56.118Z</time></trkpt><trkpt lat="43.6558879" lon="11.4093112"><ele>409.2</ele><time>2026-04-18T09:04:58.117Z</time></trkpt><trkpt lat="43.6557761" lon="11.4093286"><ele>408.0</ele><time>2026-04-18T09:05:00.118Z</time></trkpt><trkpt lat="43.6556858" lon="11.4093408"><ele>408.0</ele><time>2026-04-18T09:05:02.117Z</time></trkpt><trkpt lat="43.6555866" lon="11.4093771"><ele>408.0</ele><time>2026-04-18T09:05:04.117Z</time></trkpt><trkpt lat="43.6555652" lon="11.4094654"><ele>408.0</ele><time>2026-04-18T09:05:05.117Z</time></trkpt><trkpt lat="43.6555459" lon="11.409556"><ele>408.0</ele><time>2026-04-18T09:05:06.117Z</time></trkpt><trkpt lat="43.6555254" lon="11.4097247"><ele>408.0</ele><time>2026-04-18T09:05:08.117Z</time></trkpt><trkpt lat="43.6555285" lon="11.4098226"><ele>408.0</ele><time>2026-04-18T09:05:10.117Z</time></trkpt><trkpt lat="43.6555398" lon="11.4099293"><ele>406.59999999999997</ele><time>2026-04-18T09:05:12.117Z</time></trkpt><trkpt lat="43.6555127" lon="11.4100386"><ele>405.2</ele><time>2026-04-18T09:05:14.117Z</time></trkpt><trkpt lat="43.655453" lon="11.4101137"><ele>403.8</ele><time>2026-04-18T09:05:16.117Z</time></trkpt><trkpt lat="43.6553833" lon="11.4102209"><ele>402.4</ele><time>2026-04-18T09:05:18.117Z</time></trkpt><trkpt lat="43.6553201" lon="11.4103035"><ele>401.0</ele><time>2026-04-18T09:05:20.118Z</time></trkpt><trkpt lat="43.6552629" lon="11.4104231"><ele>397.99999999999994</ele><time>2026-04-18T09:05:22.117Z</time></trkpt><trkpt lat="43.6551905" lon="11.4105614"><ele>395.0</ele><time>2026-04-18T09:05:24.117Z</time></trkpt><trkpt lat="43.6551488" lon="11.4106436"><ele>392.0</ele><time>2026-04-18T09:05:25.117Z</time></trkpt><trkpt lat="43.6550954" lon="11.4107381"><ele>389.0</ele><time>2026-04-18T09:05:26.117Z</time></trkpt><trkpt lat="43.6550481" lon="11.410826"><ele>386.0</ele><time>2026-04-18T09:05:27.117Z</time></trkpt><trkpt lat="43.6550049" lon="11.4109196"><ele>383.0</ele><time>2026-04-18T09:05:28.118Z</time></trkpt><trkpt lat="43.6549641" lon="11.4110037"><ele>383.0</ele><time>2026-04-18T09:05:29.117Z</time></trkpt><trkpt lat="43.6548919" lon="11.4111322"><ele>383.0</ele><time>2026-04-18T09:05:31.117Z</time></trkpt><trkpt lat="43.6548241" lon="11.4112424"><ele>383.0</ele><time>2026-04-18T09:05:33.117Z</time></trkpt><trkpt lat="43.6547737" lon="11.4113254"><ele>383.0</ele><time>2026-04-18T09:05:35.117Z</time></trkpt><trkpt lat="43.6547079" lon="11.4113789"><ele>383.0</ele><time>2026-04-18T09:05:37.117Z</time></trkpt><trkpt lat="43.6546591" lon="11.4114759"><ele>382.83333333333337</ele><time>2026-04-18T09:05:39.117Z</time></trkpt><trkpt lat="43.6546242" lon="11.4115713"><ele>382.6666666666667</ele><time>2026-04-18T09:05:41.118Z</time></trkpt><trkpt lat="43.6545921" lon="11.4117328"><ele>382.5</ele><time>2026-04-18T09:05:43.117Z</time></trkpt><trkpt lat="43.6545964" lon="11.4118476"><ele>382.3333333333333</ele><time>2026-04-18T09:05:44.117Z</time></trkpt><trkpt lat="43.6545914" lon="11.4119516"><ele>382.16666666666663</ele><time>2026-04-18T09:05:45.118Z</time></trkpt><trkpt lat="43.6545791" lon="11.4120526"><ele>382.0</ele><time>2026-04-18T09:05:46.118Z</time></trkpt><trkpt lat="43.6545662" lon="11.4121629"><ele>381.5</ele><time>2026-04-18T09:05:47.118Z</time></trkpt><trkpt lat="43.654548" lon="11.4122781"><ele>381.0</ele><time>2026-04-18T09:05:48.118Z</time></trkpt><trkpt lat="43.65452" lon="11.4123905"><ele>380.5</ele><time>2026-04-18T09:05:49.118Z</time></trkpt><trkpt lat="43.6544794" lon="11.4125042"><ele>380.0</ele><time>2026-04-18T09:05:50.118Z</time></trkpt><trkpt lat="43.6544376" lon="11.4126167"><ele>379.5</ele><time>2026-04-18T09:05:51.117Z</time></trkpt><trkpt lat="43.6544048" lon="11.4127207"><ele>379.0</ele><time>2026-04-18T09:05:52.117Z</time></trkpt><trkpt lat="43.654373" lon="11.4128081"><ele>379.6</ele><time>2026-04-18T09:05:53.117Z</time></trkpt><trkpt lat="43.6543304" lon="11.4129399"><ele>380.2</ele><time>2026-04-18T09:05:55.118Z</time></trkpt><trkpt lat="43.6543337" lon="11.4130482"><ele>380.8</ele><time>2026-04-18T09:05:58.117Z</time></trkpt><trkpt lat="43.6543841" lon="11.4131793"><ele>381.40000000000003</ele><time>2026-04-18T09:06:00.118Z</time></trkpt><trkpt lat="43.6544224" lon="11.4132729"><ele>382.0</ele><time>2026-04-18T09:06:01.118Z</time></trkpt><trkpt lat="43.6544677" lon="11.4133839"><ele>380.40000000000003</ele><time>2026-04-18T09:06:02.117Z</time></trkpt><trkpt lat="43.6545127" lon="11.4134963"><ele>378.8</ele><time>2026-04-18T09:06:03.118Z</time></trkpt><trkpt lat="43.654555" lon="11.4136077"><ele>377.2</ele><time>2026-04-18T09:06:04.117Z</time></trkpt><trkpt lat="43.6546072" lon="11.4137379"><ele>375.6</ele><time>2026-04-18T09:06:05.117Z</time></trkpt><trkpt lat="43.6546631" lon="11.4138707"><ele>374.0</ele><time>2026-04-18T09:06:06.118Z</time></trkpt><trkpt lat="43.6547009" lon="11.4140121"><ele>373.2</ele><time>2026-04-18T09:06:07.117Z</time></trkpt><trkpt lat="43.6547158" lon="11.414172"><ele>372.4</ele><time>2026-04-18T09:06:08.118Z</time></trkpt><trkpt lat="43.6547053" lon="11.4143145"><ele>371.6</ele><time>2026-04-18T09:06:09.117Z</time></trkpt><trkpt lat="43.6547098" lon="11.4144515"><ele>370.8</ele><time>2026-04-18T09:06:10.117Z</time></trkpt><trkpt lat="43.6547132" lon="11.4145866"><ele>370.0</ele><time>2026-04-18T09:06:11.118Z</time></trkpt><trkpt lat="43.6547025" lon="11.4147218"><ele>370.0</ele><time>2026-04-18T09:06:12.117Z</time></trkpt><trkpt lat="43.654689" lon="11.4148753"><ele>370.0</ele><time>2026-04-18T09:06:13.117Z</time></trkpt><trkpt lat="43.6547379" lon="11.4149366"><ele>370.0</ele><time>2026-04-18T09:06:14.118Z</time></trkpt><trkpt lat="43.6548548" lon="11.4150408"><ele>370.0</ele><time>2026-04-18T09:06:15.118Z</time></trkpt><trkpt lat="43.6549103" lon="11.4151356"><ele>370.0</ele><time>2026-04-18T09:06:16.116Z</time></trkpt><trkpt lat="43.6549682" lon="11.4152138"><ele>370.0</ele><time>2026-04-18T09:06:17.117Z</time></trkpt><trkpt lat="43.6550273" lon="11.4152672"><ele>370.0</ele><time>2026-04-18T09:06:18.118Z</time></trkpt><trkpt lat="43.6551112" lon="11.4152882"><ele>370.0</ele><time>2026-04-18T09:06:19.117Z</time></trkpt><trkpt lat="43.6552434" lon="11.415378"><ele>370.0</ele><time>2026-04-18T09:06:21.118Z</time></trkpt><trkpt lat="43.655313" lon="11.4154607"><ele>370.0</ele><time>2026-04-18T09:06:22.118Z</time></trkpt><trkpt lat="43.65537" lon="11.4155583"><ele>366.8333333333333</ele><time>2026-04-18T09:06:23.117Z</time></trkpt><trkpt lat="43.6554021" lon="11.4156557"><ele>363.66666666666663</ele><time>2026-04-18T09:06:24.117Z</time></trkpt><trkpt lat="43.6554377" lon="11.4157477"><ele>360.5</ele><time>2026-04-18T09:06:25.117Z</time></trkpt><trkpt lat="43.6554683" lon="11.4158426"><ele>357.3333333333333</ele><time>2026-04-18T09:06:26.117Z</time></trkpt><trkpt lat="43.6555134" lon="11.415938"><ele>354.1666666666667</ele><time>2026-04-18T09:06:27.117Z</time></trkpt><trkpt lat="43.6555457" lon="11.4160937"><ele>351.0</ele><time>2026-04-18T09:06:29.118Z</time></trkpt><trkpt lat="43.6555208" lon="11.4162088"><ele>350.8</ele><time>2026-04-18T09:06:30.118Z</time></trkpt><trkpt lat="43.6555089" lon="11.4163556"><ele>350.6</ele><time>2026-04-18T09:06:31.118Z</time></trkpt><trkpt lat="43.6554997" lon="11.4164964"><ele>350.4</ele><time>2026-04-18T09:06:32.118Z</time></trkpt><trkpt lat="43.6555146" lon="11.416614"><ele>350.2</ele><time>2026-04-18T09:06:33.116Z</time></trkpt><trkpt lat="43.6555371" lon="11.4167525"><ele>350.0</ele><time>2026-04-18T09:06:34.117Z</time></trkpt><trkpt lat="43.6555718" lon="11.4169237"><ele>350.0</ele><time>2026-04-18T09:06:35.117Z</time></trkpt><trkpt lat="43.6555823" lon="11.4170936"><ele>350.0</ele><time>2026-04-18T09:06:36.117Z</time></trkpt><trkpt lat="43.6555904" lon="11.4172742"><ele>350.0</ele><time>2026-04-18T09:06:37.117Z</time></trkpt><trkpt lat="43.6555997" lon="11.41745"><ele>350.0</ele><time>2026-04-18T09:06:38.118Z</time></trkpt><trkpt lat="43.6556006" lon="11.4176082"><ele>349.8</ele><time>2026-04-18T09:06:39.117Z</time></trkpt><trkpt lat="43.6556095" lon="11.4177539"><ele>349.6</ele><time>2026-04-18T09:06:40.117Z</time></trkpt><trkpt lat="43.655607" lon="11.4179023"><ele>349.4</ele><time>2026-04-18T09:06:41.117Z</time></trkpt><trkpt lat="43.6556137" lon="11.4180433"><ele>349.2</ele><time>2026-04-18T09:06:42.118Z</time></trkpt><trkpt lat="43.6556115" lon="11.4181723"><ele>349.0</ele><time>2026-04-18T09:06:43.117Z</time></trkpt><trkpt lat="43.6556041" lon="11.4182841"><ele>348.4</ele><time>2026-04-18T09:06:44.118Z</time></trkpt><trkpt lat="43.6555861" lon="11.4183779"><ele>347.79999999999995</ele><time>2026-04-18T09:06:45.117Z</time></trkpt><trkpt lat="43.6555498" lon="11.4184642"><ele>347.20000000000005</ele><time>2026-04-18T09:06:46.118Z</time></trkpt><trkpt lat="43.6555089" lon="11.4185442"><ele>346.6</ele><time>2026-04-18T09:06:47.118Z</time></trkpt><trkpt lat="43.6554814" lon="11.4187024"><ele>346.0</ele><time>2026-04-18T09:06:49.118Z</time></trkpt><trkpt lat="43.6555107" lon="11.4189009"><ele>344.0</ele><time>2026-04-18T09:06:51.118Z</time></trkpt><trkpt lat="43.6555264" lon="11.4190059"><ele>342.0</ele><time>2026-04-18T09:06:52.117Z</time></trkpt><trkpt lat="43.6555319" lon="11.4191279"><ele>340.0</ele><time>2026-04-18T09:06:53.117Z</time></trkpt><trkpt lat="43.6555593" lon="11.4192425"><ele>338.0</ele><time>2026-04-18T09:06:54.117Z</time></trkpt><trkpt lat="43.6555974" lon="11.4193619"><ele>336.0</ele><time>2026-04-18T09:06:55.117Z</time></trkpt><trkpt lat="43.6556357" lon="11.41947"><ele>334.0</ele><time>2026-04-18T09:06:56.117Z</time></trkpt><trkpt lat="43.6556762" lon="11.4195704"><ele>332.4</ele><time>2026-04-18T09:06:57.117Z</time></trkpt><trkpt lat="43.6557155" lon="11.4197378"><ele>330.79999999999995</ele><time>2026-04-18T09:06:59.117Z</time></trkpt><trkpt lat="43.655723" lon="11.4198702"><ele>329.20000000000005</ele><time>2026-04-18T09:07:01.118Z</time></trkpt><trkpt lat="43.6556711" lon="11.4199412"><ele>327.6</ele><time>2026-04-18T09:07:04.117Z</time></trkpt><trkpt lat="43.6555848" lon="11.4198579"><ele>326.0</ele><time>2026-04-18T09:07:18.117Z</time></trkpt><trkpt lat="43.6555308" lon="11.4197715"><ele>326.0</ele><time>2026-04-18T09:07:19.117Z</time></trkpt><trkpt lat="43.6554691" lon="11.4196721"><ele>326.0</ele><time>2026-04-18T09:07:20.118Z</time></trkpt><trkpt lat="43.6554017" lon="11.4195689"><ele>326.0</ele><time>2026-04-18T09:07:21.117Z</time></trkpt><trkpt lat="43.6553367" lon="11.4194675"><ele>326.0</ele><time>2026-04-18T09:07:22.117Z</time></trkpt><trkpt lat="43.655279" lon="11.4193756"><ele>326.0</ele><time>2026-04-18T09:07:23.117Z</time></trkpt><trkpt lat="43.6552145" lon="11.4192996"><ele>327.20000000000005</ele><time>2026-04-18T09:07:24.117Z</time></trkpt><trkpt lat="43.6551314" lon="11.4192672"><ele>328.40000000000003</ele><time>2026-04-18T09:07:25.117Z</time></trkpt><trkpt lat="43.65505" lon="11.419234"><ele>329.6</ele><time>2026-04-18T09:07:26.117Z</time></trkpt><trkpt lat="43.6549415" lon="11.4192404"><ele>330.8</ele><time>2026-04-18T09:07:27.117Z</time></trkpt><trkpt lat="43.6548232" lon="11.41923"><ele>332.0</ele><time>2026-04-18T09:07:28.118Z</time></trkpt><trkpt lat="43.6547063" lon="11.419219"><ele>332.0</ele><time>2026-04-18T09:07:29.118Z</time></trkpt><trkpt lat="43.6545829" lon="11.4192151"><ele>332.0</ele><time>2026-04-18T09:07:30.117Z</time></trkpt><trkpt lat="43.6544693" lon="11.4192235"><ele>332.0</ele><time>2026-04-18T09:07:31.117Z</time></trkpt><trkpt lat="43.6543727" lon="11.4192259"><ele>332.0</ele><time>2026-04-18T09:07:32.118Z</time></trkpt><trkpt lat="43.6542838" lon="11.4192324"><ele>332.0</ele><time>2026-04-18T09:07:33.118Z</time></trkpt><trkpt lat="43.6541957" lon="11.4192374"><ele>332.1666666666667</ele><time>2026-04-18T09:07:34.117Z</time></trkpt><trkpt lat="43.654164" lon="11.4193639"><ele>332.33333333333337</ele><time>2026-04-18T09:07:35.118Z</time></trkpt><trkpt lat="43.6541276" lon="11.4194612"><ele>332.5</ele><time>2026-04-18T09:07:36.117Z</time></trkpt><trkpt lat="43.6540963" lon="11.4195603"><ele>332.6666666666667</ele><time>2026-04-18T09:07:37.118Z</time></trkpt><trkpt lat="43.6540819" lon="11.4196677"><ele>332.8333333333333</ele><time>2026-04-18T09:07:38.118Z</time></trkpt><trkpt lat="43.6540691" lon="11.4197618"><ele>333.0</ele><time>2026-04-18T09:07:39.118Z</time></trkpt><trkpt lat="43.6540582" lon="11.4199021"><ele>333.0</ele><time>2026-04-18T09:07:41.117Z</time></trkpt><trkpt lat="43.6540044" lon="11.4197769"><ele>333.0</ele><time>2026-04-18T09:07:46.117Z</time></trkpt><trkpt lat="43.6540031" lon="11.4195009"><ele>333.0</ele><time>2026-04-18T09:07:48.117Z</time></trkpt><trkpt lat="43.6540063" lon="11.4193561"><ele>333.0</ele><time>2026-04-18T09:07:49.117Z</time></trkpt><trkpt lat="43.6539889" lon="11.4191945"><ele>333.5</ele><time>2026-04-18T09:07:50.118Z</time></trkpt><trkpt lat="43.6539775" lon="11.4190241"><ele>334.0</ele><time>2026-04-18T09:07:51.117Z</time></trkpt><trkpt lat="43.6539597" lon="11.4188418"><ele>334.5</ele><time>2026-04-18T09:07:52.117Z</time></trkpt><trkpt lat="43.6539755" lon="11.418701"><ele>335.0</ele><time>2026-04-18T09:07:53.117Z</time></trkpt><trkpt lat="43.6539716" lon="11.4185609"><ele>337.33333333333337</ele><time>2026-04-18T09:07:55.117Z</time></trkpt><trkpt lat="43.6539423" lon="11.418479"><ele>339.6666666666667</ele><time>2026-04-18T09:07:56.117Z</time></trkpt><trkpt lat="43.6538755" lon="11.4184044"><ele>342.0</ele><time>2026-04-18T09:07:57.117Z</time></trkpt><trkpt lat="43.6538341" lon="11.4183304"><ele>344.3333333333333</ele><time>2026-04-18T09:07:58.118Z</time></trkpt><trkpt lat="43.653825" lon="11.4181315"><ele>346.66666666666663</ele><time>2026-04-18T09:08:00.117Z</time></trkpt><trkpt lat="43.6538208" lon="11.4180258"><ele>349.0</ele><time>2026-04-18T09:08:01.117Z</time></trkpt><trkpt lat="43.6538106" lon="11.4178828"><ele>353.0</ele><time>2026-04-18T09:08:02.117Z</time></trkpt><trkpt lat="43.6538061" lon="11.4177558"><ele>357.0</ele><time>2026-04-18T09:08:03.117Z</time></trkpt><trkpt lat="43.6537734" lon="11.4176429"><ele>361.0</ele><time>2026-04-18T09:08:04.117Z</time></trkpt><trkpt lat="43.6537486" lon="11.4175155"><ele>365.0</ele><time>2026-04-18T09:08:05.118Z</time></trkpt><trkpt lat="43.6537226" lon="11.4173902"><ele>369.0</ele><time>2026-04-18T09:08:06.117Z</time></trkpt><trkpt lat="43.6536925" lon="11.4172762"><ele>369.0</ele><time>2026-04-18T09:08:07.118Z</time></trkpt><trkpt lat="43.6536503" lon="11.4171585"><ele>369.0</ele><time>2026-04-18T09:08:08.117Z</time></trkpt><trkpt lat="43.6535544" lon="11.417064"><ele>369.0</ele><time>2026-04-18T09:08:09.118Z</time></trkpt><trkpt lat="43.6534419" lon="11.4169583"><ele>369.0</ele><time>2026-04-18T09:08:10.117Z</time></trkpt><trkpt lat="43.6533384" lon="11.4168469"><ele>368.25</ele><time>2026-04-18T09:08:11.118Z</time></trkpt><trkpt lat="43.6532521" lon="11.416746"><ele>367.5</ele><time>2026-04-18T09:08:12.118Z</time></trkpt><trkpt lat="43.6531653" lon="11.4166342"><ele>366.75</ele><time>2026-04-18T09:08:13.117Z</time></trkpt><trkpt lat="43.6530702" lon="11.4165335"><ele>366.0</ele><time>2026-04-18T09:08:14.118Z</time></trkpt><trkpt lat="43.652977" lon="11.4164383"><ele>366.0</ele><time>2026-04-18T09:08:15.118Z</time></trkpt><trkpt lat="43.6529108" lon="11.416349"><ele>366.0</ele><time>2026-04-18T09:08:16.117Z</time></trkpt><trkpt lat="43.652849" lon="11.4163297"><ele>366.0</ele><time>2026-04-18T09:08:19.117Z</time></trkpt><trkpt lat="43.6528134" lon="11.416214"><ele>366.0</ele><time>2026-04-18T09:08:26.118Z</time></trkpt><trkpt lat="43.6527578" lon="11.4160944"><ele>366.0</ele><time>2026-04-18T09:08:28.116Z</time></trkpt><trkpt lat="43.6527537" lon="11.4159335"><ele>366.8333333333333</ele><time>2026-04-18T09:08:30.118Z</time></trkpt><trkpt lat="43.652753" lon="11.4158323"><ele>367.6666666666667</ele><time>2026-04-18T09:08:31.118Z</time></trkpt><trkpt lat="43.6527575" lon="11.4157216"><ele>368.5</ele><time>2026-04-18T09:08:32.118Z</time></trkpt><trkpt lat="43.6527683" lon="11.4156287"><ele>369.33333333333337</ele><time>2026-04-18T09:08:33.118Z</time></trkpt><trkpt lat="43.6528133" lon="11.4154787"><ele>370.1666666666667</ele><time>2026-04-18T09:08:34.117Z</time></trkpt><trkpt lat="43.6528362" lon="11.4153664"><ele>371.0</ele><time>2026-04-18T09:08:35.118Z</time></trkpt><trkpt lat="43.6528771" lon="11.4152681"><ele>371.0</ele><time>2026-04-18T09:08:36.117Z</time></trkpt><trkpt lat="43.6529157" lon="11.415172"><ele>371.0</ele><time>2026-04-18T09:08:37.117Z</time></trkpt><trkpt lat="43.6529589" lon="11.4150752"><ele>371.0</ele><time>2026-04-18T09:08:38.117Z</time></trkpt><trkpt lat="43.6529933" lon="11.4149758"><ele>371.0</ele><time>2026-04-18T09:08:39.117Z</time></trkpt><trkpt lat="43.6530141" lon="11.4148556"><ele>371.0</ele><time>2026-04-18T09:08:40.117Z</time></trkpt><trkpt lat="43.6530152" lon="11.4147237"><ele>371.0</ele><time>2026-04-18T09:08:41.118Z</time></trkpt><trkpt lat="43.6530162" lon="11.4146224"><ele>369.4</ele><time>2026-04-18T09:08:42.117Z</time></trkpt><trkpt lat="43.6530183" lon="11.4145157"><ele>367.8</ele><time>2026-04-18T09:08:43.118Z</time></trkpt><trkpt lat="43.6530219" lon="11.4144151"><ele>366.2</ele><time>2026-04-18T09:08:44.118Z</time></trkpt><trkpt lat="43.6530606" lon="11.4142499"><ele>364.59999999999997</ele><time>2026-04-18T09:08:46.117Z</time></trkpt><trkpt lat="43.6531739" lon="11.4141289"><ele>363.0</ele><time>2026-04-18T09:08:48.118Z</time></trkpt><trkpt lat="43.6532687" lon="11.4140242"><ele>363.0</ele><time>2026-04-18T09:08:50.118Z</time></trkpt><trkpt lat="43.6532466" lon="11.4138484"><ele>363.0</ele><time>2026-04-18T09:08:52.116Z</time></trkpt><trkpt lat="43.6532266" lon="11.4137542"><ele>363.0</ele><time>2026-04-18T09:08:53.117Z</time></trkpt><trkpt lat="43.6531814" lon="11.4136748"><ele>363.0</ele><time>2026-04-18T09:08:54.118Z</time></trkpt><trkpt lat="43.6531762" lon="11.413577"><ele>363.0</ele><time>2026-04-18T09:08:55.117Z</time></trkpt><trkpt lat="43.6531562" lon="11.4134815"><ele>363.0</ele><time>2026-04-18T09:08:56.117Z</time></trkpt><trkpt lat="43.6532165" lon="11.4133568"><ele>361.6666666666667</ele><time>2026-04-18T09:08:57.117Z</time></trkpt><trkpt lat="43.6532315" lon="11.4132475"><ele>360.3333333333333</ele><time>2026-04-18T09:08:58.116Z</time></trkpt><trkpt lat="43.6532475" lon="11.4131633"><ele>359.0</ele><time>2026-04-18T09:08:59.116Z</time></trkpt><trkpt lat="43.6532813" lon="11.4130556"><ele>357.66666666666663</ele><time>2026-04-18T09:09:00.117Z</time></trkpt><trkpt lat="43.6532831" lon="11.4129422"><ele>356.3333333333333</ele><time>2026-04-18T09:09:01.116Z</time></trkpt><trkpt lat="43.6532641" lon="11.4128362"><ele>355.0</ele><time>2026-04-18T09:09:02.117Z</time></trkpt><trkpt lat="43.6532625" lon="11.4127394"><ele>353.8333333333333</ele><time>2026-04-18T09:09:03.117Z</time></trkpt><trkpt lat="43.6532681" lon="11.4126309"><ele>352.66666666666663</ele><time>2026-04-18T09:09:04.117Z</time></trkpt><trkpt lat="43.6532871" lon="11.4125241"><ele>351.5</ele><time>2026-04-18T09:09:05.116Z</time></trkpt><trkpt lat="43.6533012" lon="11.4124302"><ele>350.3333333333333</ele><time>2026-04-18T09:09:06.116Z</time></trkpt><trkpt lat="43.6533548" lon="11.4123298"><ele>349.1666666666667</ele><time>2026-04-18T09:09:08.116Z</time></trkpt><trkpt lat="43.6533347" lon="11.4121982"><ele>348.0</ele><time>2026-04-18T09:09:10.117Z</time></trkpt><trkpt lat="43.6533501" lon="11.4121079"><ele>347.79999999999995</ele><time>2026-04-18T09:09:11.116Z</time></trkpt><trkpt lat="43.6533528" lon="11.4120172"><ele>347.6</ele><time>2026-04-18T09:09:12.116Z</time></trkpt><trkpt lat="43.6533645" lon="11.4118862"><ele>347.4</ele><time>2026-04-18T09:09:13.117Z</time></trkpt><trkpt lat="43.6533889" lon="11.4117475"><ele>347.20000000000005</ele><time>2026-04-18T09:09:14.116Z</time></trkpt><trkpt lat="43.6534088" lon="11.4116143"><ele>347.0</ele><time>2026-04-18T09:09:15.117Z</time></trkpt><trkpt lat="43.6534402" lon="11.4114794"><ele>347.0</ele><time>2026-04-18T09:09:16.116Z</time></trkpt><trkpt lat="43.6534937" lon="11.4113053"><ele>347.0</ele><time>2026-04-18T09:09:18.117Z</time></trkpt><trkpt lat="43.6534682" lon="11.4112092"><ele>347.0</ele><time>2026-04-18T09:09:20.116Z</time></trkpt><trkpt lat="43.6534132" lon="11.4113079"><ele>347.0</ele><time>2026-04-18T09:09:22.116Z</time></trkpt><trkpt lat="43.6533361" lon="11.41145"><ele>347.0</ele><time>2026-04-18T09:09:24.116Z</time></trkpt><trkpt lat="43.6532026" lon="11.4114882"><ele>347.0</ele><time>2026-04-18T09:09:25.116Z</time></trkpt><trkpt lat="43.6531343" lon="11.4115379"><ele>347.0</ele><time>2026-04-18T09:09:26.116Z</time></trkpt><trkpt lat="43.653064" lon="11.4115978"><ele>347.0</ele><time>2026-04-18T09:09:27.116Z</time></trkpt><trkpt lat="43.6529974" lon="11.4116855"><ele>347.0</ele><time>2026-04-18T09:09:28.117Z</time></trkpt><trkpt lat="43.6529305" lon="11.4117757"><ele>347.0</ele><time>2026-04-18T09:09:29.116Z</time></trkpt><trkpt lat="43.6528643" lon="11.411857"><ele>347.0</ele><time>2026-04-18T09:09:30.117Z</time></trkpt><trkpt lat="43.652794" lon="11.4119353"><ele>347.33333333333337</ele><time>2026-04-18T09:09:31.116Z</time></trkpt><trkpt lat="43.6527264" lon="11.4120269"><ele>347.6666666666667</ele><time>2026-04-18T09:09:32.116Z</time></trkpt><trkpt lat="43.6526584" lon="11.4121126"><ele>348.0</ele><time>2026-04-18T09:09:33.116Z</time></trkpt><trkpt lat="43.6525934" lon="11.4121883"><ele>348.3333333333333</ele><time>2026-04-18T09:09:34.116Z</time></trkpt><trkpt lat="43.6525463" lon="11.4122566"><ele>348.66666666666663</ele><time>2026-04-18T09:09:35.116Z</time></trkpt><trkpt lat="43.6524782" lon="11.4123293"><ele>349.0</ele><time>2026-04-18T09:09:36.116Z</time></trkpt><trkpt lat="43.6523953" lon="11.412366"><ele>349.0</ele><time>2026-04-18T09:09:37.116Z</time></trkpt><trkpt lat="43.6523189" lon="11.4124328"><ele>349.0</ele><time>2026-04-18T09:09:38.116Z</time></trkpt><trkpt lat="43.6522298" lon="11.4124938"><ele>349.0</ele><time>2026-04-18T09:09:39.117Z</time></trkpt><trkpt lat="43.6521431" lon="11.4125213"><ele>349.0</ele><time>2026-04-18T09:09:40.116Z</time></trkpt><trkpt lat="43.6520892" lon="11.4125767"><ele>349.0</ele><time>2026-04-18T09:09:41.117Z</time></trkpt><trkpt lat="43.6520131" lon="11.4126326"><ele>349.0</ele><time>2026-04-18T09:09:42.117Z</time></trkpt><trkpt lat="43.6519453" lon="11.412686"><ele>349.2</ele><time>2026-04-18T09:09:43.117Z</time></trkpt><trkpt lat="43.6518845" lon="11.412765"><ele>349.4</ele><time>2026-04-18T09:09:44.116Z</time></trkpt><trkpt lat="43.6518231" lon="11.4129132"><ele>349.6</ele><time>2026-04-18T09:09:46.117Z</time></trkpt><trkpt lat="43.6517608" lon="11.4129844"><ele>349.8</ele><time>2026-04-18T09:09:47.116Z</time></trkpt><trkpt lat="43.6516967" lon="11.4130417"><ele>350.0</ele><time>2026-04-18T09:09:48.116Z</time></trkpt><trkpt lat="43.6515985" lon="11.4130834"><ele>350.0</ele><time>2026-04-18T09:09:49.117Z</time></trkpt><trkpt lat="43.6514764" lon="11.4130745"><ele>350.0</ele><time>2026-04-18T09:09:51.116Z</time></trkpt><trkpt lat="43.651412" lon="11.4130907"><ele>350.0</ele><time>2026-04-18T09:09:52.116Z</time></trkpt><trkpt lat="43.6513314" lon="11.4130912"><ele>350.0</ele><time>2026-04-18T09:09:53.116Z</time></trkpt><trkpt lat="43.6512614" lon="11.4130728"><ele>350.0</ele><time>2026-04-18T09:09:54.117Z</time></trkpt><trkpt lat="43.6511697" lon="11.4130514"><ele>350.0</ele><time>2026-04-18T09:09:55.116Z</time></trkpt><trkpt lat="43.6510935" lon="11.4130506"><ele>350.7142857142857</ele><time>2026-04-18T09:09:56.116Z</time></trkpt><trkpt lat="43.6510307" lon="11.4130408"><ele>351.42857142857144</ele><time>2026-04-18T09:09:57.117Z</time></trkpt><trkpt lat="43.6509559" lon="11.4130355"><ele>352.1428571428571</ele><time>2026-04-18T09:09:59.116Z</time></trkpt><trkpt lat="43.6509492" lon="11.4129321"><ele>352.8571428571429</ele><time>2026-04-18T09:10:02.117Z</time></trkpt><trkpt lat="43.6510085" lon="11.4128735"><ele>353.57142857142856</ele><time>2026-04-18T09:10:05.116Z</time></trkpt><trkpt lat="43.6510735" lon="11.4128853"><ele>354.2857142857143</ele><time>2026-04-18T09:10:07.117Z</time></trkpt><trkpt lat="43.6511428" lon="11.4128695"><ele>355.0</ele><time>2026-04-18T09:10:27.116Z</time></trkpt><trkpt lat="43.6512092" lon="11.4128134"><ele>359.0</ele><time>2026-04-18T09:10:30.116Z</time></trkpt><trkpt lat="43.6512933" lon="11.4128282"><ele>363.0</ele><time>2026-04-18T09:10:31.115Z</time></trkpt><trkpt lat="43.6513864" lon="11.4127614"><ele>367.0</ele><time>2026-04-18T09:10:33.117Z</time></trkpt><trkpt lat="43.6513366" lon="11.4126486"><ele>371.0</ele><time>2026-04-18T09:10:36.117Z</time></trkpt><trkpt lat="43.651258" lon="11.4126005"><ele>375.0</ele><time>2026-04-18T09:10:38.117Z</time></trkpt><trkpt lat="43.6511951" lon="11.4125273"><ele>375.0</ele><time>2026-04-18T09:10:39.116Z</time></trkpt><trkpt lat="43.6512197" lon="11.4124125"><ele>375.0</ele><time>2026-04-18T09:10:42.116Z</time></trkpt><trkpt lat="43.651297" lon="11.4123113"><ele>375.0</ele><time>2026-04-18T09:10:44.116Z</time></trkpt><trkpt lat="43.6513481" lon="11.4122492"><ele>375.0</ele><time>2026-04-18T09:10:45.116Z</time></trkpt><trkpt lat="43.6513776" lon="11.4121611"><ele>375.0</ele><time>2026-04-18T09:10:46.116Z</time></trkpt><trkpt lat="43.6514446" lon="11.4120601"><ele>375.0</ele><time>2026-04-18T09:10:47.116Z</time></trkpt><trkpt lat="43.6514973" lon="11.4119062"><ele>378.6</ele><time>2026-04-18T09:10:48.116Z</time></trkpt><trkpt lat="43.6515559" lon="11.4117737"><ele>382.2</ele><time>2026-04-18T09:10:49.116Z</time></trkpt><trkpt lat="43.6516324" lon="11.4115929"><ele>385.79999999999995</ele><time>2026-04-18T09:10:51.117Z</time></trkpt><trkpt lat="43.6516791" lon="11.4114959"><ele>389.4</ele><time>2026-04-18T09:10:52.117Z</time></trkpt><trkpt lat="43.6517206" lon="11.4114076"><ele>393.0</ele><time>2026-04-18T09:10:53.117Z</time></trkpt><trkpt lat="43.6517407" lon="11.4112918"><ele>394.1666666666667</ele><time>2026-04-18T09:10:54.116Z</time></trkpt><trkpt lat="43.6517757" lon="11.4111976"><ele>395.33333333333337</ele><time>2026-04-18T09:10:55.116Z</time></trkpt><trkpt lat="43.6517919" lon="11.411092"><ele>396.5</ele><time>2026-04-18T09:10:56.116Z</time></trkpt><trkpt lat="43.6517828" lon="11.4109707"><ele>397.6666666666667</ele><time>2026-04-18T09:10:57.117Z</time></trkpt><trkpt lat="43.6517729" lon="11.4108565"><ele>398.83333333333337</ele><time>2026-04-18T09:10:58.116Z</time></trkpt><trkpt lat="43.651756" lon="11.410729"><ele>400.0</ele><time>2026-04-18T09:10:59.116Z</time></trkpt><trkpt lat="43.6517371" lon="11.4106226"><ele>400.00000000000006</ele><time>2026-04-18T09:11:00.116Z</time></trkpt><trkpt lat="43.6517154" lon="11.410537"><ele>400.0</ele><time>2026-04-18T09:11:01.116Z</time></trkpt><trkpt lat="43.6517139" lon="11.4104181"><ele>400.0</ele><time>2026-04-18T09:11:03.116Z</time></trkpt><trkpt lat="43.6517403" lon="11.4102911"><ele>400.0</ele><time>2026-04-18T09:11:05.116Z</time></trkpt><trkpt lat="43.6517984" lon="11.4101278"><ele>400.00000000000006</ele><time>2026-04-18T09:11:07.116Z</time></trkpt><trkpt lat="43.6518357" lon="11.4100507"><ele>400.0</ele><time>2026-04-18T09:11:08.115Z</time></trkpt><trkpt lat="43.6518702" lon="11.4099777"><ele>400.1666666666667</ele><time>2026-04-18T09:11:09.116Z</time></trkpt><trkpt lat="43.6518949" lon="11.4098962"><ele>400.33333333333337</ele><time>2026-04-18T09:11:10.116Z</time></trkpt><trkpt lat="43.6519086" lon="11.4098011"><ele>400.5</ele><time>2026-04-18T09:11:11.116Z</time></trkpt><trkpt lat="43.651933" lon="11.4096162"><ele>400.66666666666663</ele><time>2026-04-18T09:11:13.116Z</time></trkpt><trkpt lat="43.651962" lon="11.4095173"><ele>400.8333333333333</ele><time>2026-04-18T09:11:14.116Z</time></trkpt><trkpt lat="43.6519885" lon="11.4094034"><ele>401.0</ele><time>2026-04-18T09:11:15.116Z</time></trkpt><trkpt lat="43.6520215" lon="11.4093001"><ele>403.3333333333333</ele><time>2026-04-18T09:11:16.117Z</time></trkpt><trkpt lat="43.6520612" lon="11.4092013"><ele>405.66666666666663</ele><time>2026-04-18T09:11:17.116Z</time></trkpt><trkpt lat="43.652117" lon="11.4091343"><ele>408.0</ele><time>2026-04-18T09:11:18.116Z</time></trkpt><trkpt lat="43.6521669" lon="11.4090513"><ele>410.33333333333337</ele><time>2026-04-18T09:11:19.116Z</time></trkpt><trkpt lat="43.652237" lon="11.4089599"><ele>412.6666666666667</ele><time>2026-04-18T09:11:20.117Z</time></trkpt><trkpt lat="43.6522758" lon="11.4088314"><ele>415.0</ele><time>2026-04-18T09:11:21.117Z</time></trkpt><trkpt lat="43.6523155" lon="11.408729"><ele>416.50000000000006</ele><time>2026-04-18T09:11:22.117Z</time></trkpt><trkpt lat="43.652326" lon="11.4085892"><ele>418.0</ele><time>2026-04-18T09:11:23.117Z</time></trkpt><trkpt lat="43.6523554" lon="11.4084814"><ele>419.5</ele><time>2026-04-18T09:11:24.116Z</time></trkpt><trkpt lat="43.6523847" lon="11.408392"><ele>421.0</ele><time>2026-04-18T09:11:25.116Z</time></trkpt><trkpt lat="43.6524356" lon="11.4083073"><ele>422.50000000000006</ele><time>2026-04-18T09:11:26.116Z</time></trkpt><trkpt lat="43.6524959" lon="11.4082163"><ele>424.0</ele><time>2026-04-18T09:11:27.117Z</time></trkpt><trkpt lat="43.6525648" lon="11.4081224"><ele>424.00000000000006</ele><time>2026-04-18T09:11:28.116Z</time></trkpt><trkpt lat="43.6526433" lon="11.4080609"><ele>424.0</ele><time>2026-04-18T09:11:29.116Z</time></trkpt><trkpt lat="43.6527291" lon="11.4080212"><ele>424.0</ele><time>2026-04-18T09:11:30.116Z</time></trkpt><trkpt lat="43.6528105" lon="11.4079568"><ele>424.0</ele><time>2026-04-18T09:11:31.117Z</time></trkpt><trkpt lat="43.6528756" lon="11.4078997"><ele>424.00000000000006</ele><time>2026-04-18T09:11:32.117Z</time></trkpt><trkpt lat="43.6529466" lon="11.4078347"><ele>424.0</ele><time>2026-04-18T09:11:33.117Z</time></trkpt><trkpt lat="43.6530192" lon="11.407793"><ele>424.50000000000006</ele><time>2026-04-18T09:11:34.116Z</time></trkpt><trkpt lat="43.6530898" lon="11.4077522"><ele>425.0</ele><time>2026-04-18T09:11:35.116Z</time></trkpt><trkpt lat="43.6531603" lon="11.4077208"><ele>425.5</ele><time>2026-04-18T09:11:36.116Z</time></trkpt><trkpt lat="43.6532244" lon="11.4076662"><ele>426.0</ele><time>2026-04-18T09:11:37.116Z</time></trkpt><trkpt lat="43.6532747" lon="11.4075724"><ele>426.50000000000006</ele><time>2026-04-18T09:11:38.117Z</time></trkpt><trkpt lat="43.6533215" lon="11.4074724"><ele>427.0</ele><time>2026-04-18T09:11:39.116Z</time></trkpt><trkpt lat="43.6533754" lon="11.4073658"><ele>427.00000000000006</ele><time>2026-04-18T09:11:40.116Z</time></trkpt><trkpt lat="43.6534251" lon="11.40726"><ele>427.0</ele><time>2026-04-18T09:11:41.116Z</time></trkpt><trkpt lat="43.6534652" lon="11.4071624"><ele>427.0</ele><time>2026-04-18T09:11:42.117Z</time></trkpt><trkpt lat="43.6535127" lon="11.4070819"><ele>427.0</ele><time>2026-04-18T09:11:43.116Z</time></trkpt><trkpt lat="43.653571" lon="11.4070139"><ele>427.00000000000006</ele><time>2026-04-18T09:11:44.117Z</time></trkpt><trkpt lat="43.653627" lon="11.4069643"><ele>427.0</ele><time>2026-04-18T09:11:45.117Z</time></trkpt><trkpt lat="43.6537071" lon="11.4068943"><ele>428.1666666666667</ele><time>2026-04-18T09:11:46.117Z</time></trkpt><trkpt lat="43.6537988" lon="11.4068153"><ele>429.33333333333337</ele><time>2026-04-18T09:11:47.117Z</time></trkpt><trkpt lat="43.6538797" lon="11.4067399"><ele>430.5</ele><time>2026-04-18T09:11:48.116Z</time></trkpt><trkpt lat="43.6539501" lon="11.4066774"><ele>431.66666666666663</ele><time>2026-04-18T09:11:49.116Z</time></trkpt><trkpt lat="43.6540038" lon="11.4066006"><ele>432.8333333333333</ele><time>2026-04-18T09:11:50.116Z</time></trkpt><trkpt lat="43.6540605" lon="11.4065359"><ele>434.0</ele><time>2026-04-18T09:11:51.116Z</time></trkpt><trkpt lat="43.6540584" lon="11.406404"><ele>435.4</ele><time>2026-04-18T09:11:52.117Z</time></trkpt><trkpt lat="43.6539899" lon="11.40632"><ele>436.79999999999995</ele><time>2026-04-18T09:11:53.117Z</time></trkpt><trkpt lat="43.6539656" lon="11.4061708"><ele>438.20000000000005</ele><time>2026-04-18T09:11:54.117Z</time></trkpt><trkpt lat="43.653926" lon="11.4060409"><ele>439.6</ele><time>2026-04-18T09:11:55.117Z</time></trkpt><trkpt lat="43.6538934" lon="11.4058719"><ele>441.0</ele><time>2026-04-18T09:11:56.116Z</time></trkpt><trkpt lat="43.6538627" lon="11.4057155"><ele>441.0</ele><time>2026-04-18T09:11:57.116Z</time></trkpt><trkpt lat="43.6537903" lon="11.4055542"><ele>441.0</ele><time>2026-04-18T09:11:58.116Z</time></trkpt><trkpt lat="43.6537676" lon="11.4054155"><ele>441.0</ele><time>2026-04-18T09:11:59.117Z</time></trkpt><trkpt lat="43.6537844" lon="11.4052848"><ele>441.0</ele><time>2026-04-18T09:12:00.117Z</time></trkpt><trkpt lat="43.6538195" lon="11.4051736"><ele>441.0</ele><time>2026-04-18T09:12:01.117Z</time></trkpt><trkpt lat="43.6538986" lon="11.4050809"><ele>443.4</ele><time>2026-04-18T09:12:02.116Z</time></trkpt><trkpt lat="43.6539667" lon="11.404992"><ele>445.8</ele><time>2026-04-18T09:12:03.117Z</time></trkpt><trkpt lat="43.654033" lon="11.4048997"><ele>448.19999999999993</ele><time>2026-04-18T09:12:04.116Z</time></trkpt><trkpt lat="43.654082" lon="11.4047511"><ele>450.59999999999997</ele><time>2026-04-18T09:12:06.116Z</time></trkpt><trkpt lat="43.6540254" lon="11.4046964"><ele>453.0</ele><time>2026-04-18T09:12:09.116Z</time></trkpt><trkpt lat="43.6539429" lon="11.4047003"><ele>453.0</ele><time>2026-04-18T09:12:12.117Z</time></trkpt><trkpt lat="43.6538345" lon="11.4047214"><ele>453.0</ele><time>2026-04-18T09:12:14.116Z</time></trkpt><trkpt lat="43.6537665" lon="11.4047046"><ele>453.0</ele><time>2026-04-18T09:12:16.116Z</time></trkpt><trkpt lat="43.653706" lon="11.4046665"><ele>453.0</ele><time>2026-04-18T09:12:19.116Z</time></trkpt><trkpt lat="43.6536393" lon="11.4045792"><ele>453.0</ele><time>2026-04-18T09:12:21.116Z</time></trkpt><trkpt lat="43.6535944" lon="11.4045181"><ele>453.0</ele><time>2026-04-18T09:12:22.116Z</time></trkpt><trkpt lat="43.6535483" lon="11.4044484"><ele>454.3333333333333</ele><time>2026-04-18T09:12:23.117Z</time></trkpt><trkpt lat="43.6535072" lon="11.4043662"><ele>455.66666666666663</ele><time>2026-04-18T09:12:24.117Z</time></trkpt><trkpt lat="43.6534696" lon="11.4042701"><ele>457.0</ele><time>2026-04-18T09:12:25.116Z</time></trkpt><trkpt lat="43.6534368" lon="11.4041636"><ele>458.3333333333333</ele><time>2026-04-18T09:12:26.116Z</time></trkpt><trkpt lat="43.6534107" lon="11.404055"><ele>459.66666666666663</ele><time>2026-04-18T09:12:27.116Z</time></trkpt><trkpt lat="43.6533848" lon="11.4039486"><ele>461.0</ele><time>2026-04-18T09:12:28.116Z</time></trkpt><trkpt lat="43.6533631" lon="11.403841"><ele>463.20000000000005</ele><time>2026-04-18T09:12:29.116Z</time></trkpt><trkpt lat="43.653341" lon="11.4037236"><ele>465.40000000000003</ele><time>2026-04-18T09:12:30.116Z</time></trkpt><trkpt lat="43.6533273" lon="11.4035995"><ele>467.6</ele><time>2026-04-18T09:12:31.116Z</time></trkpt><trkpt lat="43.653311" lon="11.4034706"><ele>469.8</ele><time>2026-04-18T09:12:32.116Z</time></trkpt><trkpt lat="43.6532859" lon="11.4033451"><ele>472.0</ele><time>2026-04-18T09:12:33.116Z</time></trkpt><trkpt lat="43.653254" lon="11.4032362"><ele>472.00000000000006</ele><time>2026-04-18T09:12:34.116Z</time></trkpt><trkpt lat="43.6532366" lon="11.4031206"><ele>472.0</ele><time>2026-04-18T09:12:35.117Z</time></trkpt><trkpt lat="43.653225" lon="11.4029953"><ele>472.0</ele><time>2026-04-18T09:12:36.117Z</time></trkpt><trkpt lat="43.6532074" lon="11.402874"><ele>472.0</ele><time>2026-04-18T09:12:37.116Z</time></trkpt><trkpt lat="43.6531836" lon="11.4027582"><ele>472.00000000000006</ele><time>2026-04-18T09:12:38.116Z</time></trkpt><trkpt lat="43.6531477" lon="11.4026642"><ele>472.0</ele><time>2026-04-18T09:12:39.117Z</time></trkpt><trkpt lat="43.6531019" lon="11.4025719"><ele>475.6</ele><time>2026-04-18T09:12:40.117Z</time></trkpt><trkpt lat="43.6530538" lon="11.4024692"><ele>479.20000000000005</ele><time>2026-04-18T09:12:41.117Z</time></trkpt><trkpt lat="43.6530118" lon="11.4023568"><ele>482.8</ele><time>2026-04-18T09:12:42.116Z</time></trkpt><trkpt lat="43.6529703" lon="11.4022409"><ele>486.4</ele><time>2026-04-18T09:12:43.117Z</time></trkpt><trkpt lat="43.652932" lon="11.402128"><ele>490.0</ele><time>2026-04-18T09:12:44.117Z</time></trkpt><trkpt lat="43.6529011" lon="11.4019997"><ele>486.8</ele><time>2026-04-18T09:12:45.116Z</time></trkpt><trkpt lat="43.6528876" lon="11.4018626"><ele>483.6</ele><time>2026-04-18T09:12:46.116Z</time></trkpt><trkpt lat="43.6528689" lon="11.4017225"><ele>480.4</ele><time>2026-04-18T09:12:47.116Z</time></trkpt><trkpt lat="43.6528395" lon="11.4015926"><ele>477.2</ele><time>2026-04-18T09:12:48.116Z</time></trkpt><trkpt lat="43.6528043" lon="11.4014681"><ele>474.0</ele><time>2026-04-18T09:12:49.117Z</time></trkpt><trkpt lat="43.6527619" lon="11.4013573"><ele>477.8333333333333</ele><time>2026-04-18T09:12:50.117Z</time></trkpt><trkpt lat="43.6527027" lon="11.4013003"><ele>481.66666666666663</ele><time>2026-04-18T09:12:51.116Z</time></trkpt><trkpt lat="43.6526309" lon="11.4012523"><ele>485.5</ele><time>2026-04-18T09:12:52.116Z</time></trkpt><trkpt lat="43.6525258" lon="11.4012058"><ele>489.3333333333333</ele><time>2026-04-18T09:12:53.116Z</time></trkpt><trkpt lat="43.6524477" lon="11.401127"><ele>493.16666666666663</ele><time>2026-04-18T09:12:54.116Z</time></trkpt><trkpt lat="43.6523908" lon="11.4010308"><ele>497.0</ele><time>2026-04-18T09:12:55.116Z</time></trkpt><trkpt lat="43.6523341" lon="11.4009219"><ele>497.0</ele><time>2026-04-18T09:12:56.117Z</time></trkpt><trkpt lat="43.6522848" lon="11.40081"><ele>497.00000000000006</ele><time>2026-04-18T09:12:57.116Z</time></trkpt><trkpt lat="43.6522433" lon="11.40069"><ele>497.00000000000006</ele><time>2026-04-18T09:12:58.116Z</time></trkpt><trkpt lat="43.6521958" lon="11.4005564"><ele>497.0</ele><time>2026-04-18T09:12:59.116Z</time></trkpt><trkpt lat="43.6521539" lon="11.4004177"><ele>497.0</ele><time>2026-04-18T09:13:00.117Z</time></trkpt><trkpt lat="43.6521173" lon="11.4002791"><ele>500.0</ele><time>2026-04-18T09:13:01.117Z</time></trkpt><trkpt lat="43.6520694" lon="11.4001378"><ele>503.00000000000006</ele><time>2026-04-18T09:13:02.116Z</time></trkpt><trkpt lat="43.6520113" lon="11.4000042"><ele>506.00000000000006</ele><time>2026-04-18T09:13:03.117Z</time></trkpt><trkpt lat="43.6519453" lon="11.3998713"><ele>509.0</ele><time>2026-04-18T09:13:04.117Z</time></trkpt><trkpt lat="43.6518881" lon="11.399757"><ele>512.0</ele><time>2026-04-18T09:13:05.116Z</time></trkpt><trkpt lat="43.6518297" lon="11.3996611"><ele>505.99999999999994</ele><time>2026-04-18T09:13:06.117Z</time></trkpt><trkpt lat="43.6517806" lon="11.3995683"><ele>500.0</ele><time>2026-04-18T09:13:07.117Z</time></trkpt><trkpt lat="43.6517399" lon="11.3994706"><ele>494.0</ele><time>2026-04-18T09:13:08.116Z</time></trkpt><trkpt lat="43.6517113" lon="11.3993627"><ele>488.0</ele><time>2026-04-18T09:13:09.117Z</time></trkpt><trkpt lat="43.6516921" lon="11.3992469"><ele>481.99999999999994</ele><time>2026-04-18T09:13:10.117Z</time></trkpt><trkpt lat="43.6516872" lon="11.3991196"><ele>476.0</ele><time>2026-04-18T09:13:11.116Z</time></trkpt><trkpt lat="43.6516926" lon="11.3989912"><ele>476.0</ele><time>2026-04-18T09:13:12.116Z</time></trkpt><trkpt lat="43.6517128" lon="11.3988616"><ele>476.0</ele><time>2026-04-18T09:13:13.116Z</time></trkpt><trkpt lat="43.6517466" lon="11.3987286"><ele>476.0</ele><time>2026-04-18T09:13:14.116Z</time></trkpt><trkpt lat="43.651782" lon="11.3985883"><ele>476.0</ele><time>2026-04-18T09:13:15.116Z</time></trkpt><trkpt lat="43.6518003" lon="11.3984273"><ele>476.0</ele><time>2026-04-18T09:13:16.116Z</time></trkpt><trkpt lat="43.6518199" lon="11.3982736"><ele>474.8</ele><time>2026-04-18T09:13:17.117Z</time></trkpt><trkpt lat="43.6518463" lon="11.3981184"><ele>473.6</ele><time>2026-04-18T09:13:18.116Z</time></trkpt><trkpt lat="43.6518791" lon="11.3979647"><ele>472.4</ele><time>2026-04-18T09:13:19.116Z</time></trkpt><trkpt lat="43.6519023" lon="11.3978204"><ele>471.2</ele><time>2026-04-18T09:13:20.116Z</time></trkpt><trkpt lat="43.6519088" lon="11.3976998"><ele>470.0</ele><time>2026-04-18T09:13:21.116Z</time></trkpt><trkpt lat="43.6519112" lon="11.3975911"><ele>469.8333333333333</ele><time>2026-04-18T09:13:22.116Z</time></trkpt><trkpt lat="43.6519065" lon="11.39749"><ele>469.66666666666663</ele><time>2026-04-18T09:13:23.117Z</time></trkpt><trkpt lat="43.6519083" lon="11.3973898"><ele>469.5</ele><time>2026-04-18T09:13:24.116Z</time></trkpt><trkpt lat="43.6519135" lon="11.3972867"><ele>469.33333333333337</ele><time>2026-04-18T09:13:25.117Z</time></trkpt><trkpt lat="43.6519233" lon="11.3971836"><ele>469.1666666666667</ele><time>2026-04-18T09:13:26.115Z</time></trkpt><trkpt lat="43.6519345" lon="11.3970799"><ele>469.0</ele><time>2026-04-18T09:13:27.116Z</time></trkpt><trkpt lat="43.6519633" lon="11.396979"><ele>476.6666666666667</ele><time>2026-04-18T09:13:28.116Z</time></trkpt><trkpt lat="43.6520045" lon="11.3968785"><ele>484.33333333333337</ele><time>2026-04-18T09:13:29.117Z</time></trkpt><trkpt lat="43.6520361" lon="11.3967684"><ele>492.0</ele><time>2026-04-18T09:13:30.116Z</time></trkpt><trkpt lat="43.6520593" lon="11.3966663"><ele>499.66666666666663</ele><time>2026-04-18T09:13:31.116Z</time></trkpt><trkpt lat="43.6520832" lon="11.3965588"><ele>507.3333333333333</ele><time>2026-04-18T09:13:32.116Z</time></trkpt><trkpt lat="43.6521089" lon="11.3964542"><ele>515.0</ele><time>2026-04-18T09:13:33.117Z</time></trkpt><trkpt lat="43.6521283" lon="11.3963444"><ele>514.8333333333333</ele><time>2026-04-18T09:13:34.116Z</time></trkpt><trkpt lat="43.6521429" lon="11.3962446"><ele>514.6666666666666</ele><time>2026-04-18T09:13:35.116Z</time></trkpt><trkpt lat="43.6521306" lon="11.3961432"><ele>514.5</ele><time>2026-04-18T09:13:36.117Z</time></trkpt><trkpt lat="43.6521478" lon="11.3960323"><ele>514.3333333333334</ele><time>2026-04-18T09:13:37.117Z</time></trkpt><trkpt lat="43.6521542" lon="11.3959246"><ele>514.1666666666667</ele><time>2026-04-18T09:13:38.116Z</time></trkpt><trkpt lat="43.6521512" lon="11.3958147"><ele>514.0</ele><time>2026-04-18T09:13:39.116Z</time></trkpt><trkpt lat="43.6521481" lon="11.3957049"><ele>514.0</ele><time>2026-04-18T09:13:40.115Z</time></trkpt><trkpt lat="43.6521436" lon="11.3955921"><ele>514.0</ele><time>2026-04-18T09:13:41.117Z</time></trkpt><trkpt lat="43.6521421" lon="11.3954832"><ele>514.0</ele><time>2026-04-18T09:13:42.117Z</time></trkpt><trkpt lat="43.652143" lon="11.3953875"><ele>514.0</ele><time>2026-04-18T09:13:43.117Z</time></trkpt><trkpt lat="43.6521614" lon="11.3952276"><ele>514.0</ele><time>2026-04-18T09:13:45.116Z</time></trkpt><trkpt lat="43.6521686" lon="11.3950983"><ele>514.0</ele><time>2026-04-18T09:13:47.117Z</time></trkpt><trkpt lat="43.6521466" lon="11.3949912"><ele>513.6666666666667</ele><time>2026-04-18T09:13:49.116Z</time></trkpt><trkpt lat="43.6520793" lon="11.3949106"><ele>513.3333333333334</ele><time>2026-04-18T09:13:52.116Z</time></trkpt><trkpt lat="43.6520089" lon="11.3948517"><ele>513.0</ele><time>2026-04-18T09:13:56.117Z</time></trkpt><trkpt lat="43.6519634" lon="11.3947834"><ele>512.6666666666666</ele><time>2026-04-18T09:13:59.117Z</time></trkpt><trkpt lat="43.6518965" lon="11.3946996"><ele>512.3333333333333</ele><time>2026-04-18T09:14:02.116Z</time></trkpt><trkpt lat="43.6518756" lon="11.3945904"><ele>512.0</ele><time>2026-04-18T09:14:04.116Z</time></trkpt><trkpt lat="43.6518544" lon="11.3944619"><ele>508.99999999999994</ele><time>2026-04-18T09:14:06.117Z</time></trkpt><trkpt lat="43.6518233" lon="11.3943853"><ele>506.0</ele><time>2026-04-18T09:14:10.114Z</time></trkpt><trkpt lat="43.6517598" lon="11.3944375"><ele>503.0</ele><time>2026-04-18T09:14:17.116Z</time></trkpt><trkpt lat="43.6516971" lon="11.3944183"><ele>500.0</ele><time>2026-04-18T09:15:16.116Z</time></trkpt><trkpt lat="43.6516332" lon="11.3944217"><ele>496.99999999999994</ele><time>2026-04-18T09:15:20.115Z</time></trkpt><trkpt lat="43.6515396" lon="11.3944859"><ele>494.0</ele><time>2026-04-18T09:15:23.115Z</time></trkpt><trkpt lat="43.6514311" lon="11.3944759"><ele>494.0</ele><time>2026-04-18T09:15:25.116Z</time></trkpt><trkpt lat="43.651367" lon="11.3944556"><ele>494.0</ele><time>2026-04-18T09:15:26.115Z</time></trkpt><trkpt lat="43.6513036" lon="11.3944205"><ele>494.0</ele><time>2026-04-18T09:15:27.115Z</time></trkpt><trkpt lat="43.6512351" lon="11.3943953"><ele>494.0</ele><time>2026-04-18T09:15:28.116Z</time></trkpt><trkpt lat="43.6511594" lon="11.3943771"><ele>494.0</ele><time>2026-04-18T09:15:29.116Z</time></trkpt><trkpt lat="43.6510852" lon="11.3943674"><ele>494.0</ele><time>2026-04-18T09:15:30.116Z</time></trkpt><trkpt lat="43.6510148" lon="11.3943561"><ele>494.0</ele><time>2026-04-18T09:15:31.116Z</time></trkpt><trkpt lat="43.650949" lon="11.3943361"><ele>494.66666666666663</ele><time>2026-04-18T09:15:32.116Z</time></trkpt><trkpt lat="43.650883" lon="11.3943069"><ele>495.3333333333333</ele><time>2026-04-18T09:15:33.116Z</time></trkpt><trkpt lat="43.6508153" lon="11.3942654"><ele>496.0</ele><time>2026-04-18T09:15:34.114Z</time></trkpt><trkpt lat="43.6507522" lon="11.3942092"><ele>496.66666666666663</ele><time>2026-04-18T09:15:35.116Z</time></trkpt><trkpt lat="43.6506916" lon="11.3941552"><ele>497.3333333333333</ele><time>2026-04-18T09:15:36.116Z</time></trkpt><trkpt lat="43.6506249" lon="11.3940838"><ele>498.0</ele><time>2026-04-18T09:15:37.115Z</time></trkpt><trkpt lat="43.6505594" lon="11.3940081"><ele>498.0</ele><time>2026-04-18T09:15:38.115Z</time></trkpt><trkpt lat="43.6505007" lon="11.3939379"><ele>498.0</ele><time>2026-04-18T09:15:39.115Z</time></trkpt><trkpt lat="43.6504513" lon="11.3938579"><ele>498.0</ele><time>2026-04-18T09:15:40.115Z</time></trkpt><trkpt lat="43.6504089" lon="11.3937709"><ele>498.0</ele><time>2026-04-18T09:15:41.115Z</time></trkpt><trkpt lat="43.6503721" lon="11.3936777"><ele>498.0</ele><time>2026-04-18T09:15:42.115Z</time></trkpt><trkpt lat="43.6503404" lon="11.3935781"><ele>498.0</ele><time>2026-04-18T09:15:43.115Z</time></trkpt><trkpt lat="43.6503135" lon="11.3934743"><ele>498.0</ele><time>2026-04-18T09:15:44.115Z</time></trkpt><trkpt lat="43.6502893" lon="11.3933683"><ele>498.0</ele><time>2026-04-18T09:15:45.115Z</time></trkpt><trkpt lat="43.6502628" lon="11.3932632"><ele>498.0</ele><time>2026-04-18T09:15:46.116Z</time></trkpt><trkpt lat="43.6502393" lon="11.3931595"><ele>498.0</ele><time>2026-04-18T09:15:47.115Z</time></trkpt><trkpt lat="43.650217" lon="11.3930611"><ele>498.0</ele><time>2026-04-18T09:15:48.115Z</time></trkpt><trkpt lat="43.6501957" lon="11.3929643"><ele>498.0</ele><time>2026-04-18T09:15:49.115Z</time></trkpt><trkpt lat="43.6501705" lon="11.3928645"><ele>498.0</ele><time>2026-04-18T09:15:50.115Z</time></trkpt><trkpt lat="43.6501432" lon="11.3927736"><ele>498.0</ele><time>2026-04-18T09:15:51.115Z</time></trkpt><trkpt lat="43.6501178" lon="11.3926783"><ele>498.0</ele><time>2026-04-18T09:15:52.116Z</time></trkpt><trkpt lat="43.6500968" lon="11.3925835"><ele>498.0</ele><time>2026-04-18T09:15:53.115Z</time></trkpt><trkpt lat="43.6500722" lon="11.392496"><ele>498.0</ele><time>2026-04-18T09:15:54.115Z</time></trkpt><trkpt lat="43.6500303" lon="11.3923524"><ele>498.0</ele><time>2026-04-18T09:15:56.115Z</time></trkpt><trkpt lat="43.6500001" lon="11.3922644"><ele>498.0</ele><time>2026-04-18T09:16:40.116Z</time></trkpt><trkpt lat="43.649924" lon="11.3921862"><ele>497.99999999999994</ele><time>2026-04-18T09:16:43.115Z</time></trkpt><trkpt lat="43.6498541" lon="11.3921631"><ele>497.99999999999994</ele><time>2026-04-18T09:16:44.115Z</time></trkpt><trkpt lat="43.6497609" lon="11.3921345"><ele>498.0</ele><time>2026-04-18T09:16:45.116Z</time></trkpt><trkpt lat="43.6496511" lon="11.3920889"><ele>498.0</ele><time>2026-04-18T09:16:46.116Z</time></trkpt><trkpt lat="43.6495109" lon="11.3920185"><ele>499.75</ele><time>2026-04-18T09:16:47.115Z</time></trkpt><trkpt lat="43.6493856" lon="11.3919549"><ele>501.5</ele><time>2026-04-18T09:16:48.116Z</time></trkpt><trkpt lat="43.6492601" lon="11.3918834"><ele>503.25</ele><time>2026-04-18T09:16:49.114Z</time></trkpt><trkpt lat="43.6491565" lon="11.3918156"><ele>505.0</ele><time>2026-04-18T09:16:50.116Z</time></trkpt><trkpt lat="43.6490451" lon="11.3917492"><ele>505.0</ele><time>2026-04-18T09:16:51.115Z</time></trkpt><trkpt lat="43.6489443" lon="11.3916826"><ele>505.0</ele><time>2026-04-18T09:16:52.115Z</time></trkpt><trkpt lat="43.6488516" lon="11.3916011"><ele>505.0</ele><time>2026-04-18T09:16:53.115Z</time></trkpt><trkpt lat="43.6487635" lon="11.3915219"><ele>505.0</ele><time>2026-04-18T09:16:54.115Z</time></trkpt><trkpt lat="43.6486724" lon="11.3914491"><ele>505.0</ele><time>2026-04-18T09:16:55.115Z</time></trkpt><trkpt lat="43.6485916" lon="11.3913908"><ele>505.1666666666667</ele><time>2026-04-18T09:16:56.115Z</time></trkpt><trkpt lat="43.6485118" lon="11.3913445"><ele>505.33333333333337</ele><time>2026-04-18T09:16:57.115Z</time></trkpt><trkpt lat="43.6484246" lon="11.3913027"><ele>505.5</ele><time>2026-04-18T09:16:58.115Z</time></trkpt><trkpt lat="43.6483552" lon="11.3912663"><ele>505.66666666666663</ele><time>2026-04-18T09:16:59.115Z</time></trkpt><trkpt lat="43.6482884" lon="11.3912325"><ele>505.8333333333333</ele><time>2026-04-18T09:17:00.116Z</time></trkpt><trkpt lat="43.6482195" lon="11.3912002"><ele>506.0</ele><time>2026-04-18T09:17:01.116Z</time></trkpt><trkpt lat="43.6481696" lon="11.3911171"><ele>507.0</ele><time>2026-04-18T09:17:02.116Z</time></trkpt><trkpt lat="43.6481115" lon="11.3910445"><ele>508.0</ele><time>2026-04-18T09:17:03.115Z</time></trkpt><trkpt lat="43.6480546" lon="11.3909588"><ele>509.0</ele><time>2026-04-18T09:17:04.116Z</time></trkpt><trkpt lat="43.6479946" lon="11.3908686"><ele>510.0</ele><time>2026-04-18T09:17:05.115Z</time></trkpt><trkpt lat="43.6479397" lon="11.3907939"><ele>511.0</ele><time>2026-04-18T09:17:06.115Z</time></trkpt><trkpt lat="43.6478299" lon="11.3909068"><ele>519.25</ele><time>2026-04-18T09:17:08.115Z</time></trkpt><trkpt lat="43.6476635" lon="11.3910012"><ele>527.5</ele><time>2026-04-18T09:17:10.115Z</time></trkpt><trkpt lat="43.6475339" lon="11.3910129"><ele>535.75</ele><time>2026-04-18T09:17:12.116Z</time></trkpt><trkpt lat="43.6475261" lon="11.3908549"><ele>544.0</ele><time>2026-04-18T09:17:14.116Z</time></trkpt><trkpt lat="43.64755" lon="11.3907531"><ele>544.0</ele><time>2026-04-18T09:17:15.116Z</time></trkpt><trkpt lat="43.6476123" lon="11.39068"><ele>544.0</ele><time>2026-04-18T09:17:16.115Z</time></trkpt><trkpt lat="43.6476398" lon="11.3905969"><ele>544.0</ele><time>2026-04-18T09:17:17.115Z</time></trkpt><trkpt lat="43.6476737" lon="11.390495"><ele>544.0</ele><time>2026-04-18T09:17:18.115Z</time></trkpt><trkpt lat="43.6477147" lon="11.3903933"><ele>544.0</ele><time>2026-04-18T09:17:19.116Z</time></trkpt><trkpt lat="43.6477261" lon="11.3903056"><ele>544.0</ele><time>2026-04-18T09:17:20.115Z</time></trkpt><trkpt lat="43.6477122" lon="11.3901861"><ele>545.4</ele><time>2026-04-18T09:17:21.116Z</time></trkpt><trkpt lat="43.6476995" lon="11.3901004"><ele>546.8</ele><time>2026-04-18T09:17:22.116Z</time></trkpt><trkpt lat="43.6476656" lon="11.3899509"><ele>548.2</ele><time>2026-04-18T09:17:24.115Z</time></trkpt><trkpt lat="43.647618" lon="11.3898158"><ele>549.6</ele><time>2026-04-18T09:17:26.115Z</time></trkpt><trkpt lat="43.6475648" lon="11.3896727"><ele>551.0</ele><time>2026-04-18T09:17:28.115Z</time></trkpt><trkpt lat="43.6474572" lon="11.389629"><ele>551.0</ele><time>2026-04-18T09:17:30.115Z</time></trkpt><trkpt lat="43.6473995" lon="11.3895576"><ele>551.0</ele><time>2026-04-18T09:17:31.115Z</time></trkpt><trkpt lat="43.6473457" lon="11.3894774"><ele>551.0</ele><time>2026-04-18T09:17:32.116Z</time></trkpt><trkpt lat="43.6472774" lon="11.3893867"><ele>551.0</ele><time>2026-04-18T09:17:33.116Z</time></trkpt><trkpt lat="43.6472052" lon="11.3893174"><ele>551.0</ele><time>2026-04-18T09:17:34.116Z</time></trkpt><trkpt lat="43.6471443" lon="11.3892461"><ele>551.0</ele><time>2026-04-18T09:17:35.115Z</time></trkpt><trkpt lat="43.6470766" lon="11.3891952"><ele>551.0</ele><time>2026-04-18T09:17:36.115Z</time></trkpt><trkpt lat="43.6469629" lon="11.3891341"><ele>551.0</ele><time>2026-04-18T09:17:38.116Z</time></trkpt><trkpt lat="43.6468322" lon="11.3891678"><ele>551.0</ele><time>2026-04-18T09:17:40.116Z</time></trkpt><trkpt lat="43.6467684" lon="11.3891491"><ele>551.0</ele><time>2026-04-18T09:17:41.115Z</time></trkpt><trkpt lat="43.6467098" lon="11.3890784"><ele>551.0</ele><time>2026-04-18T09:17:42.116Z</time></trkpt><trkpt lat="43.6466619" lon="11.3890173"><ele>557.0</ele><time>2026-04-18T09:17:43.116Z</time></trkpt><trkpt lat="43.6466456" lon="11.3889229"><ele>563.0</ele><time>2026-04-18T09:17:44.115Z</time></trkpt><trkpt lat="43.6466247" lon="11.3888098"><ele>569.0</ele><time>2026-04-18T09:17:45.116Z</time></trkpt><trkpt lat="43.6466269" lon="11.388707"><ele>575.0</ele><time>2026-04-18T09:17:46.115Z</time></trkpt><trkpt lat="43.6465719" lon="11.3886397"><ele>581.0</ele><time>2026-04-18T09:17:47.116Z</time></trkpt><trkpt lat="43.6465231" lon="11.3885591"><ele>587.0</ele><time>2026-04-18T09:17:48.115Z</time></trkpt><trkpt lat="43.6464319" lon="11.3885154"><ele>587.0</ele><time>2026-04-18T09:17:50.116Z</time></trkpt><trkpt lat="43.6463641" lon="11.3884687"><ele>587.0</ele><time>2026-04-18T09:17:51.116Z</time></trkpt><trkpt lat="43.6462985" lon="11.3884211"><ele>587.0</ele><time>2026-04-18T09:17:52.116Z</time></trkpt><trkpt lat="43.6462371" lon="11.3883336"><ele>587.0</ele><time>2026-04-18T09:17:53.115Z</time></trkpt><trkpt lat="43.6461715" lon="11.3882661"><ele>587.0</ele><time>2026-04-18T09:17:54.116Z</time></trkpt><trkpt lat="43.6461219" lon="11.3882121"><ele>587.0</ele><time>2026-04-18T09:17:55.116Z</time></trkpt><trkpt lat="43.646194" lon="11.3881787"><ele>587.0</ele><time>2026-04-18T09:17:56.115Z</time></trkpt><trkpt lat="43.6462597" lon="11.3881567"><ele>587.0</ele><time>2026-04-18T09:17:58.115Z</time></trkpt><trkpt lat="43.6463239" lon="11.3881354"><ele>587.0</ele><time>2026-04-18T09:17:59.115Z</time></trkpt><trkpt lat="43.6464065" lon="11.3880842"><ele>587.0</ele><time>2026-04-18T09:18:00.115Z</time></trkpt><trkpt lat="43.6464963" lon="11.3880184"><ele>587.0</ele><time>2026-04-18T09:18:01.115Z</time></trkpt><trkpt lat="43.6465908" lon="11.3879378"><ele>587.0</ele><time>2026-04-18T09:18:02.115Z</time></trkpt><trkpt lat="43.6466963" lon="11.3878561"><ele>586.25</ele><time>2026-04-18T09:18:03.116Z</time></trkpt><trkpt lat="43.646797" lon="11.3878219"><ele>585.5</ele><time>2026-04-18T09:18:04.115Z</time></trkpt><trkpt lat="43.64689" lon="11.3877971"><ele>584.75</ele><time>2026-04-18T09:18:05.116Z</time></trkpt><trkpt lat="43.6469947" lon="11.3877864"><ele>584.0</ele><time>2026-04-18T09:18:06.115Z</time></trkpt><trkpt lat="43.647171" lon="11.3878059"><ele>584.0</ele><time>2026-04-18T09:18:08.115Z</time></trkpt><trkpt lat="43.64725" lon="11.3877977"><ele>584.0</ele><time>2026-04-18T09:18:09.116Z</time></trkpt><trkpt lat="43.6473281" lon="11.3876904"><ele>584.0</ele><time>2026-04-18T09:18:11.116Z</time></trkpt><trkpt lat="43.6473213" lon="11.3875314"><ele>584.0</ele><time>2026-04-18T09:18:13.115Z</time></trkpt><trkpt lat="43.6472386" lon="11.3874281"><ele>584.0</ele><time>2026-04-18T09:18:14.115Z</time></trkpt><trkpt lat="43.6471989" lon="11.3873201"><ele>584.0</ele><time>2026-04-18T09:18:15.114Z</time></trkpt><trkpt lat="43.6471706" lon="11.3872065"><ele>584.0</ele><time>2026-04-18T09:18:16.116Z</time></trkpt><trkpt lat="43.6471368" lon="11.387077"><ele>584.0</ele><time>2026-04-18T09:18:17.115Z</time></trkpt><trkpt lat="43.6470943" lon="11.3869155"><ele>584.0</ele><time>2026-04-18T09:18:18.115Z</time></trkpt><trkpt lat="43.6470632" lon="11.3867645"><ele>584.0</ele><time>2026-04-18T09:18:19.115Z</time></trkpt><trkpt lat="43.6470418" lon="11.3866194"><ele>584.8</ele><time>2026-04-18T09:18:20.115Z</time></trkpt><trkpt lat="43.6470294" lon="11.3864845"><ele>585.5999999999999</ele><time>2026-04-18T09:18:21.116Z</time></trkpt><trkpt lat="43.647043" lon="11.3863674"><ele>586.4</ele><time>2026-04-18T09:18:22.116Z</time></trkpt><trkpt lat="43.6470533" lon="11.3862471"><ele>587.1999999999999</ele><time>2026-04-18T09:18:23.115Z</time></trkpt><trkpt lat="43.647079" lon="11.3861226"><ele>588.0</ele><time>2026-04-18T09:18:24.116Z</time></trkpt><trkpt lat="43.6471073" lon="11.3859938"><ele>590.0</ele><time>2026-04-18T09:18:25.116Z</time></trkpt><trkpt lat="43.6472111" lon="11.385943"><ele>592.0</ele><time>2026-04-18T09:18:27.115Z</time></trkpt><trkpt lat="43.6472963" lon="11.3858544"><ele>594.0</ele><time>2026-04-18T09:18:29.116Z</time></trkpt><trkpt lat="43.647291" lon="11.385755"><ele>596.0</ele><time>2026-04-18T09:18:30.116Z</time></trkpt><trkpt lat="43.647284" lon="11.3856364"><ele>598.0</ele><time>2026-04-18T09:18:31.115Z</time></trkpt><trkpt lat="43.6472714" lon="11.3855128"><ele>600.1999999999999</ele><time>2026-04-18T09:18:32.116Z</time></trkpt><trkpt lat="43.6472325" lon="11.3854059"><ele>602.4</ele><time>2026-04-18T09:18:33.115Z</time></trkpt><trkpt lat="43.6471985" lon="11.3853066"><ele>604.5999999999999</ele><time>2026-04-18T09:18:34.115Z</time></trkpt><trkpt lat="43.647187" lon="11.3851939"><ele>606.8</ele><time>2026-04-18T09:18:35.115Z</time></trkpt><trkpt lat="43.6471881" lon="11.3850264"><ele>609.0</ele><time>2026-04-18T09:18:36.115Z</time></trkpt><trkpt lat="43.6471868" lon="11.3848421"><ele>609.0</ele><time>2026-04-18T09:18:37.115Z</time></trkpt><trkpt lat="43.6471787" lon="11.3846911"><ele>609.0</ele><time>2026-04-18T09:18:38.115Z</time></trkpt><trkpt lat="43.6471575" lon="11.3845548"><ele>609.0</ele><time>2026-04-18T09:18:39.116Z</time></trkpt><trkpt lat="43.6471506" lon="11.3844546"><ele>609.0</ele><time>2026-04-18T09:18:40.116Z</time></trkpt><trkpt lat="43.6471598" lon="11.3843558"><ele>609.0</ele><time>2026-04-18T09:18:41.115Z</time></trkpt><trkpt lat="43.6472399" lon="11.3842807"><ele>612.4</ele><time>2026-04-18T09:18:42.115Z</time></trkpt><trkpt lat="43.6473477" lon="11.3842058"><ele>615.8</ele><time>2026-04-18T09:18:43.115Z</time></trkpt><trkpt lat="43.6474471" lon="11.3841229"><ele>619.2</ele><time>2026-04-18T09:18:44.115Z</time></trkpt><trkpt lat="43.6475133" lon="11.3840622"><ele>622.6</ele><time>2026-04-18T09:18:45.116Z</time></trkpt><trkpt lat="43.647571" lon="11.3839832"><ele>626.0</ele><time>2026-04-18T09:18:46.116Z</time></trkpt><trkpt lat="43.6476098" lon="11.3838828"><ele>627.4</ele><time>2026-04-18T09:18:47.116Z</time></trkpt><trkpt lat="43.6476325" lon="11.3837701"><ele>628.8</ele><time>2026-04-18T09:18:48.116Z</time></trkpt><trkpt lat="43.6476198" lon="11.3836434"><ele>630.1999999999999</ele><time>2026-04-18T09:18:49.115Z</time></trkpt><trkpt lat="43.6475721" lon="11.3835312"><ele>631.6</ele><time>2026-04-18T09:18:50.115Z</time></trkpt><trkpt lat="43.6475272" lon="11.3834132"><ele>633.0</ele><time>2026-04-18T09:18:51.115Z</time></trkpt><trkpt lat="43.6474783" lon="11.3833115"><ele>633.0</ele><time>2026-04-18T09:18:52.116Z</time></trkpt><trkpt lat="43.647358" lon="11.3833048"><ele>633.0</ele><time>2026-04-18T09:18:53.116Z</time></trkpt><trkpt lat="43.6472302" lon="11.3832855"><ele>633.0</ele><time>2026-04-18T09:18:54.116Z</time></trkpt><trkpt lat="43.64712" lon="11.3832554"><ele>633.0</ele><time>2026-04-18T09:18:55.116Z</time></trkpt><trkpt lat="43.6470277" lon="11.383207"><ele>635.8</ele><time>2026-04-18T09:18:56.115Z</time></trkpt><trkpt lat="43.6469436" lon="11.3831403"><ele>638.5999999999999</ele><time>2026-04-18T09:18:57.115Z</time></trkpt><trkpt lat="43.6469258" lon="11.3830352"><ele>641.4000000000001</ele><time>2026-04-18T09:18:58.115Z</time></trkpt><trkpt lat="43.6468526" lon="11.3828982"><ele>644.2</ele><time>2026-04-18T09:19:00.116Z</time></trkpt><trkpt lat="43.6467656" lon="11.3829085"><ele>647.0</ele><time>2026-04-18T09:19:01.115Z</time></trkpt><trkpt lat="43.6466847" lon="11.3829303"><ele>647.0</ele><time>2026-04-18T09:19:02.115Z</time></trkpt><trkpt lat="43.6466055" lon="11.3829586"><ele>647.0</ele><time>2026-04-18T09:19:03.114Z</time></trkpt><trkpt lat="43.6465278" lon="11.3829871"><ele>647.0</ele><time>2026-04-18T09:19:04.115Z</time></trkpt><trkpt lat="43.6465146" lon="11.3828866"><ele>647.0</ele><time>2026-04-18T09:19:12.116Z</time></trkpt><trkpt lat="43.646461" lon="11.382715"><ele>647.0</ele><time>2026-04-18T09:19:14.115Z</time></trkpt><trkpt lat="43.6464059" lon="11.3826244"><ele>647.0</ele><time>2026-04-18T09:19:15.116Z</time></trkpt><trkpt lat="43.6462874" lon="11.3826481"><ele>647.0</ele><time>2026-04-18T09:19:16.116Z</time></trkpt><trkpt lat="43.6461843" lon="11.3826586"><ele>647.0</ele><time>2026-04-18T09:19:17.115Z</time></trkpt><trkpt lat="43.6461257" lon="11.3825838"><ele>647.0</ele><time>2026-04-18T09:19:19.115Z</time></trkpt><trkpt lat="43.6461559" lon="11.3824454"><ele>647.0</ele><time>2026-04-18T09:19:21.115Z</time></trkpt><trkpt lat="43.6461902" lon="11.3823437"><ele>647.0</ele><time>2026-04-18T09:19:22.115Z</time></trkpt><trkpt lat="43.6462496" lon="11.3822318"><ele>647.0</ele><time>2026-04-18T09:19:23.115Z</time></trkpt><trkpt lat="43.6462779" lon="11.3820507"><ele>647.0</ele><time>2026-04-18T09:19:25.115Z</time></trkpt><trkpt lat="43.6462495" lon="11.3818589"><ele>647.0</ele><time>2026-04-18T09:19:27.115Z</time></trkpt><trkpt lat="43.6461583" lon="11.381792"><ele>650.6</ele><time>2026-04-18T09:19:28.116Z</time></trkpt><trkpt lat="43.6461165" lon="11.3816946"><ele>654.2</ele><time>2026-04-18T09:19:29.115Z</time></trkpt><trkpt lat="43.6460773" lon="11.3815819"><ele>657.8</ele><time>2026-04-18T09:19:30.115Z</time></trkpt><trkpt lat="43.6460308" lon="11.3814552"><ele>661.4</ele><time>2026-04-18T09:19:31.116Z</time></trkpt><trkpt lat="43.6459919" lon="11.3813278"><ele>665.0</ele><time>2026-04-18T09:19:32.115Z</time></trkpt><trkpt lat="43.6459412" lon="11.3812088"><ele>665.0</ele><time>2026-04-18T09:19:33.115Z</time></trkpt><trkpt lat="43.645893" lon="11.3810735"><ele>665.0</ele><time>2026-04-18T09:19:34.115Z</time></trkpt><trkpt lat="43.6458536" lon="11.3809549"><ele>665.0</ele><time>2026-04-18T09:19:35.115Z</time></trkpt><trkpt lat="43.6457566" lon="11.3808654"><ele>665.0</ele><time>2026-04-18T09:19:36.115Z</time></trkpt><trkpt lat="43.6456884" lon="11.3808052"><ele>665.0</ele><time>2026-04-18T09:19:37.115Z</time></trkpt><trkpt lat="43.6456382" lon="11.3807247"><ele>665.0</ele><time>2026-04-18T09:19:38.115Z</time></trkpt><trkpt lat="43.64559" lon="11.3806163"><ele>665.0</ele><time>2026-04-18T09:19:39.116Z</time></trkpt><trkpt lat="43.6456449" lon="11.3804722"><ele>665.0</ele><time>2026-04-18T09:19:40.115Z</time></trkpt><trkpt lat="43.6456443" lon="11.3803467"><ele>665.0</ele><time>2026-04-18T09:19:41.116Z</time></trkpt><trkpt lat="43.64565" lon="11.3802311"><ele>665.0</ele><time>2026-04-18T09:19:42.116Z</time></trkpt><trkpt lat="43.6456096" lon="11.380125"><ele>664.0</ele><time>2026-04-18T09:19:43.115Z</time></trkpt><trkpt lat="43.6455349" lon="11.3800385"><ele>663.0</ele><time>2026-04-18T09:19:44.116Z</time></trkpt><trkpt lat="43.645417" lon="11.3799239"><ele>662.0</ele><time>2026-04-18T09:19:45.115Z</time></trkpt><trkpt lat="43.6453009" lon="11.379782"><ele>661.0</ele><time>2026-04-18T09:19:46.115Z</time></trkpt><trkpt lat="43.645197" lon="11.3796454"><ele>662.8</ele><time>2026-04-18T09:19:47.115Z</time></trkpt><trkpt lat="43.645091" lon="11.3795524"><ele>664.5999999999999</ele><time>2026-04-18T09:19:48.115Z</time></trkpt><trkpt lat="43.6449895" lon="11.3794565"><ele>666.4</ele><time>2026-04-18T09:19:49.115Z</time></trkpt><trkpt lat="43.644896" lon="11.3793675"><ele>668.2</ele><time>2026-04-18T09:19:50.115Z</time></trkpt><trkpt lat="43.6448418" lon="11.3792996"><ele>670.0</ele><time>2026-04-18T09:19:51.115Z</time></trkpt><trkpt lat="43.6447929" lon="11.3792154"><ele>670.0</ele><time>2026-04-18T09:19:52.115Z</time></trkpt><trkpt lat="43.6447547" lon="11.3791369"><ele>670.0</ele><time>2026-04-18T09:19:53.116Z</time></trkpt><trkpt lat="43.6447082" lon="11.3790509"><ele>670.0</ele><time>2026-04-18T09:19:54.115Z</time></trkpt><trkpt lat="43.6446456" lon="11.3789986"><ele>670.0</ele><time>2026-04-18T09:19:55.115Z</time></trkpt><trkpt lat="43.6445402" lon="11.3789563"><ele>670.0</ele><time>2026-04-18T09:19:56.115Z</time></trkpt><trkpt lat="43.6444587" lon="11.3788877"><ele>670.0</ele><time>2026-04-18T09:19:57.115Z</time></trkpt><trkpt lat="43.6443793" lon="11.3787915"><ele>673.25</ele><time>2026-04-18T09:19:58.115Z</time></trkpt><trkpt lat="43.6443047" lon="11.3787034"><ele>676.5</ele><time>2026-04-18T09:19:59.116Z</time></trkpt><trkpt lat="43.6442141" lon="11.3785962"><ele>679.75</ele><time>2026-04-18T09:20:00.115Z</time></trkpt><trkpt lat="43.6441169" lon="11.3784781"><ele>683.0</ele><time>2026-04-18T09:20:01.115Z</time></trkpt><trkpt lat="43.6440229" lon="11.3783585"><ele>683.0</ele><time>2026-04-18T09:20:02.115Z</time></trkpt><trkpt lat="43.6439344" lon="11.3782635"><ele>683.0</ele><time>2026-04-18T09:20:03.115Z</time></trkpt><trkpt lat="43.6438555" lon="11.3781717"><ele>683.0</ele><time>2026-04-18T09:20:04.115Z</time></trkpt><trkpt lat="43.6437671" lon="11.3780823"><ele>683.0</ele><time>2026-04-18T09:20:05.115Z</time></trkpt><trkpt lat="43.6436504" lon="11.3779822"><ele>685.5</ele><time>2026-04-18T09:20:06.115Z</time></trkpt><trkpt lat="43.6435089" lon="11.3778832"><ele>688.0</ele><time>2026-04-18T09:20:07.116Z</time></trkpt><trkpt lat="43.6433815" lon="11.377783"><ele>690.5</ele><time>2026-04-18T09:20:08.115Z</time></trkpt><trkpt lat="43.6432785" lon="11.3777009"><ele>693.0</ele><time>2026-04-18T09:20:09.115Z</time></trkpt><trkpt lat="43.6431892" lon="11.3776409"><ele>693.0</ele><time>2026-04-18T09:20:10.115Z</time></trkpt><trkpt lat="43.6431072" lon="11.3776218"><ele>693.0</ele><time>2026-04-18T09:20:11.115Z</time></trkpt><trkpt lat="43.6430289" lon="11.3776038"><ele>693.0</ele><time>2026-04-18T09:20:12.115Z</time></trkpt><trkpt lat="43.6429627" lon="11.377565"><ele>693.0</ele><time>2026-04-18T09:20:13.115Z</time></trkpt><trkpt lat="43.6428997" lon="11.377518"><ele>693.0</ele><time>2026-04-18T09:20:14.115Z</time></trkpt><trkpt lat="43.6428353" lon="11.3774688"><ele>693.0</ele><time>2026-04-18T09:20:15.115Z</time></trkpt><trkpt lat="43.6427423" lon="11.3774209"><ele>694.8</ele><time>2026-04-18T09:20:17.115Z</time></trkpt><trkpt lat="43.6426714" lon="11.3773961"><ele>696.5999999999999</ele><time>2026-04-18T09:20:18.115Z</time></trkpt><trkpt lat="43.6425622" lon="11.3773423"><ele>698.4000000000001</ele><time>2026-04-18T09:20:19.116Z</time></trkpt><trkpt lat="43.6424487" lon="11.3772828"><ele>700.2</ele><time>2026-04-18T09:20:20.115Z</time></trkpt><trkpt lat="43.642399" lon="11.3772199"><ele>702.0</ele><time>2026-04-18T09:20:21.116Z</time></trkpt><trkpt lat="43.6423122" lon="11.3771288"><ele>702.4000000000001</ele><time>2026-04-18T09:20:23.115Z</time></trkpt><trkpt lat="43.6422267" lon="11.3770445"><ele>702.8000000000001</ele><time>2026-04-18T09:20:25.114Z</time></trkpt><trkpt lat="43.6421543" lon="11.3769678"><ele>703.2</ele><time>2026-04-18T09:20:26.115Z</time></trkpt><trkpt lat="43.6420799" lon="11.3768727"><ele>703.6</ele><time>2026-04-18T09:20:27.116Z</time></trkpt><trkpt lat="43.6420343" lon="11.3767548"><ele>704.0</ele><time>2026-04-18T09:20:28.116Z</time></trkpt><trkpt lat="43.6419902" lon="11.3766372"><ele>704.4000000000001</ele><time>2026-04-18T09:20:29.115Z</time></trkpt><trkpt lat="43.6419221" lon="11.376527"><ele>704.8</ele><time>2026-04-18T09:20:30.115Z</time></trkpt><trkpt lat="43.6418433" lon="11.376408"><ele>705.2</ele><time>2026-04-18T09:20:31.115Z</time></trkpt><trkpt lat="43.6417828" lon="11.3762826"><ele>705.5999999999999</ele><time>2026-04-18T09:20:32.115Z</time></trkpt><trkpt lat="43.6417441" lon="11.3761483"><ele>706.0</ele><time>2026-04-18T09:20:33.115Z</time></trkpt><trkpt lat="43.641703" lon="11.3760377"><ele>706.0</ele><time>2026-04-18T09:20:34.115Z</time></trkpt><trkpt lat="43.6416657" lon="11.3759228"><ele>706.0</ele><time>2026-04-18T09:20:35.116Z</time></trkpt><trkpt lat="43.6416227" lon="11.3758248"><ele>706.0</ele><time>2026-04-18T09:20:36.115Z</time></trkpt><trkpt lat="43.6415635" lon="11.3757541"><ele>706.0</ele><time>2026-04-18T09:20:37.115Z</time></trkpt><trkpt lat="43.6414947" lon="11.3757185"><ele>706.0</ele><time>2026-04-18T09:20:38.115Z</time></trkpt><trkpt lat="43.6414189" lon="11.3757766"><ele>706.0</ele><time>2026-04-18T09:20:39.115Z</time></trkpt><trkpt lat="43.6413389" lon="11.3758175"><ele>706.0</ele><time>2026-04-18T09:20:40.115Z</time></trkpt><trkpt lat="43.6412587" lon="11.3758666"><ele>706.0</ele><time>2026-04-18T09:20:41.116Z</time></trkpt><trkpt lat="43.6411962" lon="11.3759072"><ele>706.0</ele><time>2026-04-18T09:20:42.115Z</time></trkpt><trkpt lat="43.6411234" lon="11.3759483"><ele>706.0</ele><time>2026-04-18T09:20:44.115Z</time></trkpt><trkpt lat="43.6410361" lon="11.3759953"><ele>706.0</ele><time>2026-04-18T09:20:48.115Z</time></trkpt><trkpt lat="43.640955" lon="11.3759873"><ele>706.0</ele><time>2026-04-18T09:20:50.115Z</time></trkpt><trkpt lat="43.6408992" lon="11.3759406"><ele>705.8</ele><time>2026-04-18T09:20:53.114Z</time></trkpt><trkpt lat="43.6408323" lon="11.3758862"><ele>705.5999999999999</ele><time>2026-04-18T09:48:53.112Z</time></trkpt><trkpt lat="43.6407588" lon="11.3757937"><ele>705.4</ele><time>2026-04-18T09:48:56.112Z</time></trkpt><trkpt lat="43.640705" lon="11.3757132"><ele>705.2</ele><time>2026-04-18T09:48:58.111Z</time></trkpt><trkpt lat="43.640614" lon="11.3756125"><ele>705.0</ele><time>2026-04-18T09:49:00.111Z</time></trkpt><trkpt lat="43.6405195" lon="11.3755179"><ele>704.5</ele><time>2026-04-18T09:49:01.111Z</time></trkpt><trkpt lat="43.6404301" lon="11.3754555"><ele>704.0</ele><time>2026-04-18T09:49:02.111Z</time></trkpt><trkpt lat="43.6403282" lon="11.3753905"><ele>703.5</ele><time>2026-04-18T09:49:03.111Z</time></trkpt><trkpt lat="43.6402144" lon="11.3753625"><ele>703.0</ele><time>2026-04-18T09:49:04.111Z</time></trkpt><trkpt lat="43.6400867" lon="11.3753118"><ele>703.0</ele><time>2026-04-18T09:49:05.112Z</time></trkpt><trkpt lat="43.6399721" lon="11.375272"><ele>703.0</ele><time>2026-04-18T09:49:06.112Z</time></trkpt><trkpt lat="43.6398561" lon="11.3752339"><ele>703.0</ele><time>2026-04-18T09:49:07.111Z</time></trkpt><trkpt lat="43.6397448" lon="11.3752025"><ele>703.0</ele><time>2026-04-18T09:49:08.111Z</time></trkpt><trkpt lat="43.6396371" lon="11.3751871"><ele>703.0</ele><time>2026-04-18T09:49:09.111Z</time></trkpt><trkpt lat="43.639566" lon="11.3751679"><ele>703.0</ele><time>2026-04-18T09:49:10.111Z</time></trkpt><trkpt lat="43.6394806" lon="11.3751412"><ele>703.0</ele><time>2026-04-18T09:49:12.112Z</time></trkpt><trkpt lat="43.6393457" lon="11.3751336"><ele>703.0</ele><time>2026-04-18T09:49:14.112Z</time></trkpt><trkpt lat="43.639265" lon="11.3751298"><ele>703.0</ele><time>2026-04-18T09:49:15.111Z</time></trkpt><trkpt lat="43.6391522" lon="11.3751148"><ele>703.0</ele><time>2026-04-18T09:49:16.111Z</time></trkpt><trkpt lat="43.6390489" lon="11.3751222"><ele>703.0</ele><time>2026-04-18T09:49:17.111Z</time></trkpt><trkpt lat="43.6389467" lon="11.3751294"><ele>703.0</ele><time>2026-04-18T09:49:18.111Z</time></trkpt><trkpt lat="43.6388621" lon="11.3751367"><ele>703.0</ele><time>2026-04-18T09:49:19.112Z</time></trkpt><trkpt lat="43.6387752" lon="11.3751511"><ele>703.0</ele><time>2026-04-18T09:49:20.112Z</time></trkpt><trkpt lat="43.6387042" lon="11.3751596"><ele>703.0</ele><time>2026-04-18T09:49:21.111Z</time></trkpt><trkpt lat="43.6386099" lon="11.3751531"><ele>701.7142857142857</ele><time>2026-04-18T09:49:22.111Z</time></trkpt><trkpt lat="43.6385275" lon="11.3751546"><ele>700.4285714285714</ele><time>2026-04-18T09:49:23.111Z</time></trkpt><trkpt lat="43.6384612" lon="11.3751258"><ele>699.1428571428571</ele><time>2026-04-18T09:49:24.112Z</time></trkpt><trkpt lat="43.6383932" lon="11.3750664"><ele>697.8571428571429</ele><time>2026-04-18T09:49:25.111Z</time></trkpt><trkpt lat="43.6383285" lon="11.3750093"><ele>696.5714285714286</ele><time>2026-04-18T09:49:26.112Z</time></trkpt><trkpt lat="43.6382769" lon="11.3749585"><ele>695.2857142857143</ele><time>2026-04-18T09:49:27.112Z</time></trkpt><trkpt lat="43.6382131" lon="11.3748991"><ele>694.0</ele><time>2026-04-18T09:49:28.112Z</time></trkpt><trkpt lat="43.6381262" lon="11.3749411"><ele>694.0</ele><time>2026-04-18T09:49:29.111Z</time></trkpt><trkpt lat="43.6380531" lon="11.3749628"><ele>694.0</ele><time>2026-04-18T09:49:30.111Z</time></trkpt><trkpt lat="43.6379623" lon="11.3749993"><ele>694.0</ele><time>2026-04-18T09:49:31.112Z</time></trkpt><trkpt lat="43.6378679" lon="11.3750309"><ele>694.0</ele><time>2026-04-18T09:49:32.111Z</time></trkpt><trkpt lat="43.6377816" lon="11.3750389"><ele>694.0</ele><time>2026-04-18T09:49:33.11Z</time></trkpt><trkpt lat="43.6376946" lon="11.3749869"><ele>694.0</ele><time>2026-04-18T09:49:34.11Z</time></trkpt><trkpt lat="43.6376105" lon="11.3749388"><ele>693.1666666666667</ele><time>2026-04-18T09:49:35.11Z</time></trkpt><trkpt lat="43.6375257" lon="11.374894"><ele>692.3333333333334</ele><time>2026-04-18T09:49:36.11Z</time></trkpt><trkpt lat="43.6374262" lon="11.3748307"><ele>691.5</ele><time>2026-04-18T09:49:37.11Z</time></trkpt><trkpt lat="43.6373421" lon="11.3748236"><ele>690.6666666666666</ele><time>2026-04-18T09:49:38.109Z</time></trkpt><trkpt lat="43.6372547" lon="11.3748232"><ele>689.8333333333333</ele><time>2026-04-18T09:49:39.111Z</time></trkpt><trkpt lat="43.6371886" lon="11.37487"><ele>689.0</ele><time>2026-04-18T09:49:40.111Z</time></trkpt><trkpt lat="43.6371013" lon="11.374938"><ele>689.0</ele><time>2026-04-18T09:49:41.11Z</time></trkpt><trkpt lat="43.6370193" lon="11.374935"><ele>689.0</ele><time>2026-04-18T09:49:42.11Z</time></trkpt><trkpt lat="43.636911" lon="11.3748838"><ele>689.0</ele><time>2026-04-18T09:49:43.11Z</time></trkpt><trkpt lat="43.6368114" lon="11.3747898"><ele>689.0</ele><time>2026-04-18T09:49:44.109Z</time></trkpt><trkpt lat="43.6367166" lon="11.3747038"><ele>689.0</ele><time>2026-04-18T09:49:45.11Z</time></trkpt><trkpt lat="43.6366353" lon="11.3746122"><ele>686.1666666666666</ele><time>2026-04-18T09:49:46.11Z</time></trkpt><trkpt lat="43.6365756" lon="11.3745627"><ele>683.3333333333333</ele><time>2026-04-18T09:49:47.11Z</time></trkpt><trkpt lat="43.6365051" lon="11.3745047"><ele>680.5</ele><time>2026-04-18T09:49:48.11Z</time></trkpt><trkpt lat="43.6364367" lon="11.3745414"><ele>677.6666666666666</ele><time>2026-04-18T09:49:49.111Z</time></trkpt><trkpt lat="43.6363726" lon="11.3745169"><ele>674.8333333333334</ele><time>2026-04-18T09:49:50.111Z</time></trkpt><trkpt lat="43.6362857" lon="11.3744956"><ele>672.0</ele><time>2026-04-18T09:49:51.11Z</time></trkpt><trkpt lat="43.636203" lon="11.3744251"><ele>672.0</ele><time>2026-04-18T09:49:52.11Z</time></trkpt><trkpt lat="43.6361387" lon="11.3743479"><ele>672.0</ele><time>2026-04-18T09:49:53.11Z</time></trkpt><trkpt lat="43.6360629" lon="11.3742589"><ele>672.0</ele><time>2026-04-18T09:49:54.11Z</time></trkpt><trkpt lat="43.6359853" lon="11.3741654"><ele>672.0</ele><time>2026-04-18T09:49:55.11Z</time></trkpt><trkpt lat="43.6358892" lon="11.374081"><ele>672.0</ele><time>2026-04-18T09:49:56.111Z</time></trkpt><trkpt lat="43.6358126" lon="11.3740041"><ele>670.6</ele><time>2026-04-18T09:49:57.111Z</time></trkpt><trkpt lat="43.6357199" lon="11.3739307"><ele>669.2</ele><time>2026-04-18T09:49:58.111Z</time></trkpt><trkpt lat="43.635623" lon="11.3739247"><ele>667.8</ele><time>2026-04-18T09:49:59.111Z</time></trkpt><trkpt lat="43.635535" lon="11.3739061"><ele>666.4</ele><time>2026-04-18T09:50:00.11Z</time></trkpt><trkpt lat="43.6354328" lon="11.3738754"><ele>665.0</ele><time>2026-04-18T09:50:01.111Z</time></trkpt><trkpt lat="43.6353368" lon="11.3738296"><ele>667.5</ele><time>2026-04-18T09:50:02.11Z</time></trkpt><trkpt lat="43.6352566" lon="11.3737934"><ele>670.0</ele><time>2026-04-18T09:50:03.11Z</time></trkpt><trkpt lat="43.6351885" lon="11.3737632"><ele>672.5</ele><time>2026-04-18T09:50:04.11Z</time></trkpt><trkpt lat="43.6351023" lon="11.373684"><ele>675.0</ele><time>2026-04-18T09:50:06.11Z</time></trkpt><trkpt lat="43.6350503" lon="11.373616"><ele>677.5</ele><time>2026-04-18T09:50:08.111Z</time></trkpt><trkpt lat="43.6350001" lon="11.3735501"><ele>680.0</ele><time>2026-04-18T09:50:10.111Z</time></trkpt><trkpt lat="43.6349667" lon="11.3734754"><ele>680.0</ele><time>2026-04-18T09:50:12.11Z</time></trkpt><trkpt lat="43.6349169" lon="11.3733879"><ele>680.0</ele><time>2026-04-18T09:50:15.111Z</time></trkpt><trkpt lat="43.6348575" lon="11.3734293"><ele>680.0</ele><time>2026-04-18T09:50:26.11Z</time></trkpt><trkpt lat="43.6347709" lon="11.3734375"><ele>680.0</ele><time>2026-04-18T09:50:32.11Z</time></trkpt><trkpt lat="43.6346376" lon="11.3734159"><ele>680.0</ele><time>2026-04-18T09:50:34.111Z</time></trkpt><trkpt lat="43.6345659" lon="11.3734064"><ele>680.0</ele><time>2026-04-18T09:50:35.11Z</time></trkpt><trkpt lat="43.6344808" lon="11.3734104"><ele>681.7142857142858</ele><time>2026-04-18T09:50:36.11Z</time></trkpt><trkpt lat="43.6344164" lon="11.373417"><ele>683.4285714285713</ele><time>2026-04-18T09:50:37.111Z</time></trkpt><trkpt lat="43.6343343" lon="11.3734264"><ele>685.1428571428571</ele><time>2026-04-18T09:50:38.11Z</time></trkpt><trkpt lat="43.6342652" lon="11.3734251"><ele>686.8571428571429</ele><time>2026-04-18T09:50:39.11Z</time></trkpt><trkpt lat="43.6341943" lon="11.3734106"><ele>688.5714285714287</ele><time>2026-04-18T09:50:40.11Z</time></trkpt><trkpt lat="43.6341248" lon="11.3734136"><ele>690.2857142857142</ele><time>2026-04-18T09:50:41.11Z</time></trkpt><trkpt lat="43.6340586" lon="11.3734423"><ele>692.0</ele><time>2026-04-18T09:50:42.11Z</time></trkpt><trkpt lat="43.6339457" lon="11.3734386"><ele>692.0</ele><time>2026-04-18T09:50:44.111Z</time></trkpt><trkpt lat="43.6338804" lon="11.3734316"><ele>692.0</ele><time>2026-04-18T09:50:45.111Z</time></trkpt><trkpt lat="43.6337853" lon="11.3734535"><ele>692.0</ele><time>2026-04-18T09:50:47.11Z</time></trkpt><trkpt lat="43.63366" lon="11.3734033"><ele>692.0</ele><time>2026-04-18T09:50:49.111Z</time></trkpt><trkpt lat="43.6335905" lon="11.3733783"><ele>692.0</ele><time>2026-04-18T09:50:50.11Z</time></trkpt><trkpt lat="43.6334954" lon="11.3733928"><ele>690.8</ele><time>2026-04-18T09:50:53.111Z</time></trkpt><trkpt lat="43.6334294" lon="11.3735249"><ele>689.6</ele><time>2026-04-18T09:50:55.11Z</time></trkpt><trkpt lat="43.633385" lon="11.3737023"><ele>688.4</ele><time>2026-04-18T09:50:57.11Z</time></trkpt><trkpt lat="43.6333581" lon="11.3738077"><ele>687.1999999999999</ele><time>2026-04-18T09:50:58.111Z</time></trkpt><trkpt lat="43.6333317" lon="11.3739108"><ele>686.0</ele><time>2026-04-18T09:50:59.11Z</time></trkpt><trkpt lat="43.6333068" lon="11.3740168"><ele>684.8333333333333</ele><time>2026-04-18T09:51:00.111Z</time></trkpt><trkpt lat="43.6332828" lon="11.3741135"><ele>683.6666666666666</ele><time>2026-04-18T09:51:01.111Z</time></trkpt><trkpt lat="43.6332562" lon="11.3742223"><ele>682.5</ele><time>2026-04-18T09:51:02.11Z</time></trkpt><trkpt lat="43.633227" lon="11.3743201"><ele>681.3333333333334</ele><time>2026-04-18T09:51:03.11Z</time></trkpt><trkpt lat="43.633213" lon="11.3744125"><ele>680.1666666666667</ele><time>2026-04-18T09:51:04.11Z</time></trkpt><trkpt lat="43.6331787" lon="11.3745497"><ele>679.0</ele><time>2026-04-18T09:51:06.11Z</time></trkpt><trkpt lat="43.6331435" lon="11.3746231"><ele>676.6666666666667</ele><time>2026-04-18T09:51:08.111Z</time></trkpt><trkpt lat="43.63306" lon="11.374713"><ele>674.3333333333334</ele><time>2026-04-18T09:51:10.11Z</time></trkpt><trkpt lat="43.6329937" lon="11.3747726"><ele>672.0</ele><time>2026-04-18T09:51:11.11Z</time></trkpt><trkpt lat="43.6329434" lon="11.3748561"><ele>669.6666666666666</ele><time>2026-04-18T09:51:12.11Z</time></trkpt><trkpt lat="43.6328914" lon="11.3749283"><ele>667.3333333333333</ele><time>2026-04-18T09:51:13.111Z</time></trkpt><trkpt lat="43.6328371" lon="11.3749784"><ele>665.0</ele><time>2026-04-18T09:51:14.111Z</time></trkpt><trkpt lat="43.6327668" lon="11.375"><ele>664.0</ele><time>2026-04-18T09:51:15.11Z</time></trkpt><trkpt lat="43.6326671" lon="11.3749602"><ele>663.0</ele><time>2026-04-18T09:51:17.111Z</time></trkpt><trkpt lat="43.6325939" lon="11.3748586"><ele>662.0</ele><time>2026-04-18T09:51:19.11Z</time></trkpt><trkpt lat="43.632493" lon="11.3747819"><ele>661.0</ele><time>2026-04-18T09:51:21.111Z</time></trkpt><trkpt lat="43.6324353" lon="11.3747397"><ele>660.0</ele><time>2026-04-18T09:51:22.111Z</time></trkpt><trkpt lat="43.6323715" lon="11.3746835"><ele>660.0</ele><time>2026-04-18T09:51:23.111Z</time></trkpt><trkpt lat="43.6323121" lon="11.374608"><ele>660.0</ele><time>2026-04-18T09:51:24.11Z</time></trkpt><trkpt lat="43.6322532" lon="11.3745386"><ele>660.0</ele><time>2026-04-18T09:51:25.11Z</time></trkpt><trkpt lat="43.6321673" lon="11.3744468"><ele>660.0</ele><time>2026-04-18T09:51:27.11Z</time></trkpt><trkpt lat="43.6320858" lon="11.3744591"><ele>660.0</ele><time>2026-04-18T09:51:30.11Z</time></trkpt><trkpt lat="43.6319799" lon="11.3746348"><ele>657.8333333333334</ele><time>2026-04-18T09:51:49.11Z</time></trkpt><trkpt lat="43.6319328" lon="11.3747391"><ele>655.6666666666666</ele><time>2026-04-18T09:51:50.11Z</time></trkpt><trkpt lat="43.6319245" lon="11.3748522"><ele>653.5</ele><time>2026-04-18T09:51:51.11Z</time></trkpt><trkpt lat="43.6319076" lon="11.3749701"><ele>651.3333333333333</ele><time>2026-04-18T09:51:52.11Z</time></trkpt><trkpt lat="43.63189" lon="11.3750894"><ele>649.1666666666666</ele><time>2026-04-18T09:51:53.11Z</time></trkpt><trkpt lat="43.6318693" lon="11.3752222"><ele>647.0</ele><time>2026-04-18T09:51:54.111Z</time></trkpt><trkpt lat="43.631846" lon="11.375332"><ele>647.0</ele><time>2026-04-18T09:51:55.111Z</time></trkpt><trkpt lat="43.6318105" lon="11.3754415"><ele>647.0</ele><time>2026-04-18T09:51:56.111Z</time></trkpt><trkpt lat="43.6317605" lon="11.3755412"><ele>647.0</ele><time>2026-04-18T09:51:57.111Z</time></trkpt><trkpt lat="43.6317075" lon="11.3756443"><ele>647.0</ele><time>2026-04-18T09:51:58.109Z</time></trkpt><trkpt lat="43.6316469" lon="11.3757273"><ele>647.0</ele><time>2026-04-18T09:51:59.11Z</time></trkpt><trkpt lat="43.6315831" lon="11.3758194"><ele>647.0</ele><time>2026-04-18T09:52:00.11Z</time></trkpt><trkpt lat="43.6315102" lon="11.3759411"><ele>644.6666666666666</ele><time>2026-04-18T09:52:01.11Z</time></trkpt><trkpt lat="43.6314611" lon="11.3760404"><ele>642.3333333333333</ele><time>2026-04-18T09:52:02.111Z</time></trkpt><trkpt lat="43.6314087" lon="11.3761361"><ele>640.0</ele><time>2026-04-18T09:52:03.11Z</time></trkpt><trkpt lat="43.6313726" lon="11.3762281"><ele>637.6666666666666</ele><time>2026-04-18T09:52:04.11Z</time></trkpt><trkpt lat="43.6313255" lon="11.3763173"><ele>635.3333333333334</ele><time>2026-04-18T09:52:05.111Z</time></trkpt><trkpt lat="43.631282" lon="11.3764037"><ele>633.0</ele><time>2026-04-18T09:52:06.11Z</time></trkpt><trkpt lat="43.6312175" lon="11.3764913"><ele>630.3333333333334</ele><time>2026-04-18T09:52:07.11Z</time></trkpt><trkpt lat="43.6311475" lon="11.3765595"><ele>627.6666666666666</ele><time>2026-04-18T09:52:08.11Z</time></trkpt><trkpt lat="43.6310822" lon="11.3766329"><ele>625.0</ele><time>2026-04-18T09:52:09.111Z</time></trkpt><trkpt lat="43.6310189" lon="11.3767092"><ele>622.3333333333333</ele><time>2026-04-18T09:52:10.111Z</time></trkpt><trkpt lat="43.6309537" lon="11.3768017"><ele>619.6666666666666</ele><time>2026-04-18T09:52:11.111Z</time></trkpt><trkpt lat="43.6308864" lon="11.3769035"><ele>617.0</ele><time>2026-04-18T09:52:12.11Z</time></trkpt><trkpt lat="43.6308317" lon="11.3770124"><ele>616.3333333333333</ele><time>2026-04-18T09:52:13.11Z</time></trkpt><trkpt lat="43.6307844" lon="11.3771194"><ele>615.6666666666666</ele><time>2026-04-18T09:52:14.11Z</time></trkpt><trkpt lat="43.6307505" lon="11.3772226"><ele>615.0</ele><time>2026-04-18T09:52:15.11Z</time></trkpt><trkpt lat="43.6307178" lon="11.3773334"><ele>614.3333333333334</ele><time>2026-04-18T09:52:16.111Z</time></trkpt><trkpt lat="43.6306801" lon="11.3774361"><ele>613.6666666666667</ele><time>2026-04-18T09:52:17.11Z</time></trkpt><trkpt lat="43.6306465" lon="11.3775483"><ele>613.0</ele><time>2026-04-18T09:52:18.11Z</time></trkpt><trkpt lat="43.6306073" lon="11.3776465"><ele>611.3333333333334</ele><time>2026-04-18T09:52:19.11Z</time></trkpt><trkpt lat="43.6305763" lon="11.3777326"><ele>609.6666666666667</ele><time>2026-04-18T09:52:20.111Z</time></trkpt><trkpt lat="43.6305745" lon="11.3778683"><ele>608.0</ele><time>2026-04-18T09:52:22.11Z</time></trkpt><trkpt lat="43.6306218" lon="11.3780051"><ele>606.3333333333334</ele><time>2026-04-18T09:52:24.111Z</time></trkpt><trkpt lat="43.6306631" lon="11.3780873"><ele>604.6666666666666</ele><time>2026-04-18T09:52:26.11Z</time></trkpt><trkpt lat="43.6306264" lon="11.3781969"><ele>603.0</ele><time>2026-04-18T09:52:28.111Z</time></trkpt><trkpt lat="43.6305579" lon="11.3782998"><ele>603.5</ele><time>2026-04-18T09:52:30.109Z</time></trkpt><trkpt lat="43.6305082" lon="11.378378"><ele>604.0</ele><time>2026-04-18T09:52:31.111Z</time></trkpt><trkpt lat="43.6304584" lon="11.3784671"><ele>604.5</ele><time>2026-04-18T09:52:32.11Z</time></trkpt><trkpt lat="43.6303775" lon="11.3785506"><ele>605.0</ele><time>2026-04-18T09:52:33.111Z</time></trkpt><trkpt lat="43.6303135" lon="11.378638"><ele>605.5</ele><time>2026-04-18T09:52:34.111Z</time></trkpt><trkpt lat="43.6302789" lon="11.3787352"><ele>606.0</ele><time>2026-04-18T09:52:35.111Z</time></trkpt><trkpt lat="43.6302439" lon="11.3788252"><ele>602.4</ele><time>2026-04-18T09:52:36.111Z</time></trkpt><trkpt lat="43.6302082" lon="11.3789188"><ele>598.8</ele><time>2026-04-18T09:52:37.111Z</time></trkpt><trkpt lat="43.63019" lon="11.3790825"><ele>595.1999999999999</ele><time>2026-04-18T09:52:39.11Z</time></trkpt><trkpt lat="43.6300988" lon="11.3791689"><ele>591.6</ele><time>2026-04-18T09:52:41.11Z</time></trkpt><trkpt lat="43.6300364" lon="11.3792082"><ele>588.0</ele><time>2026-04-18T09:52:42.111Z</time></trkpt><trkpt lat="43.629955" lon="11.3792343"><ele>588.0</ele><time>2026-04-18T09:52:43.11Z</time></trkpt><trkpt lat="43.6298825" lon="11.3793127"><ele>588.0</ele><time>2026-04-18T09:52:44.11Z</time></trkpt><trkpt lat="43.6297785" lon="11.3794383"><ele>588.0</ele><time>2026-04-18T09:52:46.111Z</time></trkpt><trkpt lat="43.6297165" lon="11.3795293"><ele>588.0</ele><time>2026-04-18T09:52:47.111Z</time></trkpt><trkpt lat="43.6296368" lon="11.3795946"><ele>588.0</ele><time>2026-04-18T09:52:48.11Z</time></trkpt><trkpt lat="43.6295514" lon="11.3796671"><ele>585.0</ele><time>2026-04-18T09:52:49.11Z</time></trkpt><trkpt lat="43.6294653" lon="11.3797378"><ele>582.0</ele><time>2026-04-18T09:52:50.11Z</time></trkpt><trkpt lat="43.6293322" lon="11.379805"><ele>579.0</ele><time>2026-04-18T09:52:51.111Z</time></trkpt><trkpt lat="43.6292282" lon="11.3798401"><ele>576.0</ele><time>2026-04-18T09:52:52.111Z</time></trkpt><trkpt lat="43.6291404" lon="11.3798558"><ele>573.0</ele><time>2026-04-18T09:52:53.11Z</time></trkpt><trkpt lat="43.6290392" lon="11.3798814"><ele>573.0</ele><time>2026-04-18T09:52:54.11Z</time></trkpt><trkpt lat="43.628978" lon="11.3799089"><ele>573.0</ele><time>2026-04-18T09:52:55.109Z</time></trkpt><trkpt lat="43.62892" lon="11.3799888"><ele>573.0</ele><time>2026-04-18T09:52:57.111Z</time></trkpt><trkpt lat="43.629002" lon="11.3801109"><ele>573.0</ele><time>2026-04-18T09:52:59.111Z</time></trkpt><trkpt lat="43.6289999" lon="11.3802719"><ele>573.0</ele><time>2026-04-18T09:53:01.111Z</time></trkpt><trkpt lat="43.6289326" lon="11.3802726"><ele>573.0</ele><time>2026-04-18T09:53:02.11Z</time></trkpt><trkpt lat="43.6288316" lon="11.3802858"><ele>573.0</ele><time>2026-04-18T09:53:03.109Z</time></trkpt><trkpt lat="43.6287418" lon="11.3803197"><ele>573.0</ele><time>2026-04-18T09:53:04.111Z</time></trkpt><trkpt lat="43.6286196" lon="11.3803557"><ele>573.0</ele><time>2026-04-18T09:53:05.11Z</time></trkpt><trkpt lat="43.6285251" lon="11.3804027"><ele>573.0</ele><time>2026-04-18T09:53:06.109Z</time></trkpt><trkpt lat="43.6284323" lon="11.3804444"><ele>574.0</ele><time>2026-04-18T09:53:07.11Z</time></trkpt><trkpt lat="43.6283503" lon="11.3805147"><ele>575.0</ele><time>2026-04-18T09:53:08.111Z</time></trkpt><trkpt lat="43.6282541" lon="11.3806313"><ele>576.0</ele><time>2026-04-18T09:53:09.111Z</time></trkpt><trkpt lat="43.6281906" lon="11.3807307"><ele>577.0</ele><time>2026-04-18T09:53:10.11Z</time></trkpt><trkpt lat="43.6281077" lon="11.3808112"><ele>578.0</ele><time>2026-04-18T09:53:11.11Z</time></trkpt><trkpt lat="43.6280275" lon="11.3808638"><ele>573.6</ele><time>2026-04-18T09:53:12.11Z</time></trkpt><trkpt lat="43.6279282" lon="11.3809178"><ele>569.1999999999999</ele><time>2026-04-18T09:53:13.11Z</time></trkpt><trkpt lat="43.627824" lon="11.380923"><ele>564.8</ele><time>2026-04-18T09:53:14.11Z</time></trkpt><trkpt lat="43.6277221" lon="11.3809335"><ele>560.4</ele><time>2026-04-18T09:53:15.111Z</time></trkpt><trkpt lat="43.6276509" lon="11.3809699"><ele>556.0</ele><time>2026-04-18T09:53:16.109Z</time></trkpt><trkpt lat="43.6275677" lon="11.380998"><ele>556.0</ele><time>2026-04-18T09:53:17.11Z</time></trkpt><trkpt lat="43.6274949" lon="11.3810564"><ele>556.0</ele><time>2026-04-18T09:53:18.11Z</time></trkpt><trkpt lat="43.6274307" lon="11.3810846"><ele>556.0</ele><time>2026-04-18T09:53:19.111Z</time></trkpt><trkpt lat="43.6273668" lon="11.3811326"><ele>556.0</ele><time>2026-04-18T09:53:20.111Z</time></trkpt><trkpt lat="43.6273178" lon="11.3812993"><ele>556.0</ele><time>2026-04-18T09:53:22.111Z</time></trkpt><trkpt lat="43.6273086" lon="11.3814267"><ele>556.0</ele><time>2026-04-18T09:53:23.11Z</time></trkpt><trkpt lat="43.6273107" lon="11.3815239"><ele>551.1666666666667</ele><time>2026-04-18T09:53:24.111Z</time></trkpt><trkpt lat="43.6272915" lon="11.3816339"><ele>546.3333333333334</ele><time>2026-04-18T09:53:25.11Z</time></trkpt><trkpt lat="43.6272776" lon="11.3817337"><ele>541.5</ele><time>2026-04-18T09:53:26.11Z</time></trkpt><trkpt lat="43.6272489" lon="11.3818268"><ele>536.6666666666666</ele><time>2026-04-18T09:53:27.111Z</time></trkpt><trkpt lat="43.6271782" lon="11.3818501"><ele>531.8333333333333</ele><time>2026-04-18T09:53:29.11Z</time></trkpt><trkpt lat="43.6271026" lon="11.3818675"><ele>527.0</ele><time>2026-04-18T09:53:31.11Z</time></trkpt><trkpt lat="43.627007" lon="11.3818653"><ele>528.4</ele><time>2026-04-18T09:53:34.111Z</time></trkpt><trkpt lat="43.6269095" lon="11.3818688"><ele>529.8000000000001</ele><time>2026-04-18T09:53:36.11Z</time></trkpt><trkpt lat="43.6268255" lon="11.3819188"><ele>531.2</ele><time>2026-04-18T09:53:38.111Z</time></trkpt><trkpt lat="43.6267128" lon="11.3819875"><ele>532.6</ele><time>2026-04-18T09:53:40.11Z</time></trkpt><trkpt lat="43.6266589" lon="11.3820567"><ele>534.0</ele><time>2026-04-18T09:53:41.111Z</time></trkpt><trkpt lat="43.6265728" lon="11.3821258"><ele>534.0</ele><time>2026-04-18T09:53:43.11Z</time></trkpt><trkpt lat="43.6264606" lon="11.3821811"><ele>534.0</ele><time>2026-04-18T09:53:45.111Z</time></trkpt><trkpt lat="43.6263978" lon="11.3822261"><ele>534.0</ele><time>2026-04-18T09:53:46.111Z</time></trkpt><trkpt lat="43.6263346" lon="11.382256"><ele>534.0</ele><time>2026-04-18T09:53:47.111Z</time></trkpt><trkpt lat="43.6262536" lon="11.3822721"><ele>534.0</ele><time>2026-04-18T09:53:48.11Z</time></trkpt><trkpt lat="43.6261771" lon="11.3822665"><ele>534.0</ele><time>2026-04-18T09:53:49.11Z</time></trkpt><trkpt lat="43.6260812" lon="11.3823078"><ele>528.3333333333334</ele><time>2026-04-18T09:53:50.11Z</time></trkpt><trkpt lat="43.6260026" lon="11.3823322"><ele>522.6666666666666</ele><time>2026-04-18T09:53:51.11Z</time></trkpt><trkpt lat="43.625928" lon="11.3823464"><ele>517.0</ele><time>2026-04-18T09:53:52.111Z</time></trkpt><trkpt lat="43.625859" lon="11.3823388"><ele>511.3333333333333</ele><time>2026-04-18T09:53:53.11Z</time></trkpt><trkpt lat="43.6257781" lon="11.3823415"><ele>505.66666666666663</ele><time>2026-04-18T09:53:55.11Z</time></trkpt><trkpt lat="43.6258423" lon="11.382392"><ele>500.0</ele><time>2026-04-18T09:53:59.111Z</time></trkpt><trkpt lat="43.6259146" lon="11.3824299"><ele>499.99999999999994</ele><time>2026-04-18T09:54:02.11Z</time></trkpt><trkpt lat="43.6259268" lon="11.382529"><ele>500.0</ele><time>2026-04-18T09:54:05.11Z</time></trkpt><trkpt lat="43.6258192" lon="11.3825287"><ele>500.0</ele><time>2026-04-18T09:54:08.11Z</time></trkpt><trkpt lat="43.6257031" lon="11.3825249"><ele>500.0</ele><time>2026-04-18T09:54:10.11Z</time></trkpt><trkpt lat="43.6256317" lon="11.3825254"><ele>499.99999999999994</ele><time>2026-04-18T09:54:11.11Z</time></trkpt><trkpt lat="43.6255588" lon="11.3824958"><ele>500.0</ele><time>2026-04-18T09:54:12.111Z</time></trkpt><trkpt lat="43.6254931" lon="11.3824944"><ele>500.0</ele><time>2026-04-18T09:54:13.111Z</time></trkpt><trkpt lat="43.6254055" lon="11.3825272"><ele>500.0</ele><time>2026-04-18T09:54:15.11Z</time></trkpt><trkpt lat="43.6254799" lon="11.3825816"><ele>500.0</ele><time>2026-04-18T09:54:17.11Z</time></trkpt><trkpt lat="43.6255718" lon="11.3826431"><ele>500.0</ele><time>2026-04-18T09:54:19.11Z</time></trkpt><trkpt lat="43.6254704" lon="11.3827113"><ele>500.0</ele><time>2026-04-18T09:54:22.109Z</time></trkpt><trkpt lat="43.6253596" lon="11.3827504"><ele>498.2</ele><time>2026-04-18T09:54:24.111Z</time></trkpt><trkpt lat="43.6252886" lon="11.3827733"><ele>496.4</ele><time>2026-04-18T09:54:25.111Z</time></trkpt><trkpt lat="43.6251551" lon="11.3828252"><ele>494.6</ele><time>2026-04-18T09:54:27.109Z</time></trkpt><trkpt lat="43.625055" lon="11.3828933"><ele>492.8</ele><time>2026-04-18T09:54:29.11Z</time></trkpt><trkpt lat="43.624981" lon="11.3829577"><ele>491.0</ele><time>2026-04-18T09:54:31.111Z</time></trkpt><trkpt lat="43.62491" lon="11.3829741"><ele>489.6</ele><time>2026-04-18T09:56:22.11Z</time></trkpt><trkpt lat="43.6248273" lon="11.3830366"><ele>488.20000000000005</ele><time>2026-04-18T09:56:25.108Z</time></trkpt><trkpt lat="43.6247167" lon="11.3830718"><ele>486.79999999999995</ele><time>2026-04-18T09:56:27.109Z</time></trkpt><trkpt lat="43.6246254" lon="11.383186"><ele>485.4</ele><time>2026-04-18T09:56:29.11Z</time></trkpt><trkpt lat="43.6245818" lon="11.3832515"><ele>484.0</ele><time>2026-04-18T09:56:30.109Z</time></trkpt><trkpt lat="43.6245189" lon="11.3833909"><ele>486.0</ele><time>2026-04-18T09:56:31.11Z</time></trkpt><trkpt lat="43.6244662" lon="11.3835007"><ele>488.0</ele><time>2026-04-18T09:56:32.11Z</time></trkpt><trkpt lat="43.6244327" lon="11.3836391"><ele>490.0</ele><time>2026-04-18T09:56:33.11Z</time></trkpt><trkpt lat="43.624407" lon="11.3837576"><ele>492.0</ele><time>2026-04-18T09:56:34.109Z</time></trkpt><trkpt lat="43.6243746" lon="11.3838616"><ele>494.0</ele><time>2026-04-18T09:56:35.11Z</time></trkpt><trkpt lat="43.6243588" lon="11.3839699"><ele>494.2</ele><time>2026-04-18T09:56:36.108Z</time></trkpt><trkpt lat="43.6243056" lon="11.3841188"><ele>494.4</ele><time>2026-04-18T09:56:38.109Z</time></trkpt><trkpt lat="43.6242666" lon="11.384218"><ele>494.6</ele><time>2026-04-18T09:56:39.109Z</time></trkpt><trkpt lat="43.6242185" lon="11.3843376"><ele>494.8</ele><time>2026-04-18T09:56:40.109Z</time></trkpt><trkpt lat="43.6241743" lon="11.3844471"><ele>495.0</ele><time>2026-04-18T09:56:41.11Z</time></trkpt><trkpt lat="43.6241195" lon="11.3845411"><ele>495.0</ele><time>2026-04-18T09:56:42.109Z</time></trkpt><trkpt lat="43.6240649" lon="11.3846418"><ele>495.0</ele><time>2026-04-18T09:56:43.109Z</time></trkpt><trkpt lat="43.6240147" lon="11.384768"><ele>495.0</ele><time>2026-04-18T09:56:44.109Z</time></trkpt><trkpt lat="43.6239773" lon="11.3848967"><ele>495.0</ele><time>2026-04-18T09:56:45.109Z</time></trkpt><trkpt lat="43.6239722" lon="11.3849858"><ele>495.0</ele><time>2026-04-18T09:56:46.109Z</time></trkpt><trkpt lat="43.6239457" lon="11.3850992"><ele>495.0</ele><time>2026-04-18T09:56:48.109Z</time></trkpt><trkpt lat="43.623892" lon="11.3851488"><ele>497.0</ele><time>2026-04-18T09:56:49.109Z</time></trkpt><trkpt lat="43.6237791" lon="11.3851601"><ele>499.0</ele><time>2026-04-18T09:56:50.11Z</time></trkpt><trkpt lat="43.6236764" lon="11.3851646"><ele>501.0</ele><time>2026-04-18T09:56:51.11Z</time></trkpt><trkpt lat="43.6235476" lon="11.3851873"><ele>503.0</ele><time>2026-04-18T09:56:52.109Z</time></trkpt><trkpt lat="43.6234183" lon="11.3852111"><ele>503.79999999999995</ele><time>2026-04-18T09:56:53.109Z</time></trkpt><trkpt lat="43.6232951" lon="11.3852339"><ele>504.59999999999997</ele><time>2026-04-18T09:56:54.109Z</time></trkpt><trkpt lat="43.6231789" lon="11.3852659"><ele>505.40000000000003</ele><time>2026-04-18T09:56:55.109Z</time></trkpt><trkpt lat="43.6230849" lon="11.3853085"><ele>506.20000000000005</ele><time>2026-04-18T09:56:56.109Z</time></trkpt><trkpt lat="43.622993" lon="11.3853496"><ele>507.0</ele><time>2026-04-18T09:56:57.109Z</time></trkpt><trkpt lat="43.622889" lon="11.3854228"><ele>507.0</ele><time>2026-04-18T09:56:59.109Z</time></trkpt><trkpt lat="43.6228195" lon="11.3854719"><ele>507.00000000000006</ele><time>2026-04-18T09:57:00.109Z</time></trkpt><trkpt lat="43.6227165" lon="11.385515"><ele>507.00000000000006</ele><time>2026-04-18T09:57:01.109Z</time></trkpt><trkpt lat="43.6226149" lon="11.385552"><ele>507.0</ele><time>2026-04-18T09:57:02.11Z</time></trkpt><trkpt lat="43.6225081" lon="11.3855936"><ele>507.0</ele><time>2026-04-18T09:57:03.109Z</time></trkpt><trkpt lat="43.6223838" lon="11.3856429"><ele>510.6666666666667</ele><time>2026-04-18T09:57:04.109Z</time></trkpt><trkpt lat="43.6222766" lon="11.3856818"><ele>514.3333333333334</ele><time>2026-04-18T09:57:05.11Z</time></trkpt><trkpt lat="43.6221942" lon="11.3857132"><ele>518.0</ele><time>2026-04-18T09:57:06.109Z</time></trkpt><trkpt lat="43.6221017" lon="11.3857398"><ele>521.6666666666667</ele><time>2026-04-18T09:57:08.109Z</time></trkpt><trkpt lat="43.6220545" lon="11.3856657"><ele>525.3333333333334</ele><time>2026-04-18T09:57:23.109Z</time></trkpt><trkpt lat="43.6219891" lon="11.3856612"><ele>529.0</ele><time>2026-04-18T09:57:26.109Z</time></trkpt><trkpt lat="43.6219123" lon="11.38567"><ele>529.5714285714286</ele><time>2026-04-18T09:57:28.11Z</time></trkpt><trkpt lat="43.6218462" lon="11.3857088"><ele>530.1428571428571</ele><time>2026-04-18T09:57:31.109Z</time></trkpt><trkpt lat="43.6217845" lon="11.3857369"><ele>530.7142857142857</ele><time>2026-04-18T09:58:27.109Z</time></trkpt><trkpt lat="43.6216947" lon="11.3857308"><ele>531.2857142857142</ele><time>2026-04-18T09:58:30.11Z</time></trkpt><trkpt lat="43.6216239" lon="11.3857241"><ele>531.8571428571428</ele><time>2026-04-18T09:58:32.109Z</time></trkpt><trkpt lat="43.6215448" lon="11.3856827"><ele>532.4285714285714</ele><time>2026-04-18T09:58:34.109Z</time></trkpt><trkpt lat="43.621486" lon="11.3856384"><ele>533.0</ele><time>2026-04-18T09:58:36.11Z</time></trkpt><trkpt lat="43.6214608" lon="11.385544"><ele>535.4285714285714</ele><time>2026-04-18T09:58:39.11Z</time></trkpt><trkpt lat="43.6214521" lon="11.3854478"><ele>537.8571428571428</ele><time>2026-04-18T09:58:42.11Z</time></trkpt><trkpt lat="43.6213874" lon="11.3854003"><ele>540.2857142857142</ele><time>2026-04-18T09:58:59.109Z</time></trkpt><trkpt lat="43.6213375" lon="11.3853427"><ele>542.7142857142857</ele><time>2026-04-18T09:59:03.109Z</time></trkpt><trkpt lat="43.6213007" lon="11.3852411"><ele>545.1428571428571</ele><time>2026-04-18T09:59:09.099Z</time></trkpt><trkpt lat="43.6212271" lon="11.3852693"><ele>547.5714285714286</ele><time>2026-04-18T09:59:12.109Z</time></trkpt><trkpt lat="43.6211883" lon="11.3853542"><ele>550.0</ele><time>2026-04-18T09:59:19.11Z</time></trkpt><trkpt lat="43.6211199" lon="11.3853467"><ele>553.4</ele><time>2026-04-18T09:59:22.109Z</time></trkpt><trkpt lat="43.6210117" lon="11.3852737"><ele>556.8</ele><time>2026-04-18T09:59:24.109Z</time></trkpt><trkpt lat="43.6209424" lon="11.3852654"><ele>560.2</ele><time>2026-04-18T09:59:25.109Z</time></trkpt><trkpt lat="43.6208454" lon="11.3852175"><ele>563.6</ele><time>2026-04-18T09:59:27.109Z</time></trkpt><trkpt lat="43.6208305" lon="11.3851019"><ele>567.0</ele><time>2026-04-18T09:59:29.11Z</time></trkpt><trkpt lat="43.6208181" lon="11.3849904"><ele>567.0</ele><time>2026-04-18T09:59:31.11Z</time></trkpt><trkpt lat="43.6208166" lon="11.3848914"><ele>567.0</ele><time>2026-04-18T09:59:35.11Z</time></trkpt><trkpt lat="43.620821" lon="11.3847692"><ele>567.0</ele><time>2026-04-18T09:59:39.109Z</time></trkpt><trkpt lat="43.6207861" lon="11.3846148"><ele>567.0</ele><time>2026-04-18T09:59:41.109Z</time></trkpt><trkpt lat="43.6207687" lon="11.3845182"><ele>567.0</ele><time>2026-04-18T09:59:42.109Z</time></trkpt><trkpt lat="43.6207586" lon="11.3844217"><ele>567.0</ele><time>2026-04-18T09:59:43.11Z</time></trkpt><trkpt lat="43.6207256" lon="11.3843285"><ele>570.8000000000001</ele><time>2026-04-18T09:59:45.109Z</time></trkpt><trkpt lat="43.6206825" lon="11.3841961"><ele>574.6</ele><time>2026-04-18T09:59:47.109Z</time></trkpt><trkpt lat="43.6206254" lon="11.3840849"><ele>578.4000000000001</ele><time>2026-04-18T09:59:49.11Z</time></trkpt><trkpt lat="43.6205748" lon="11.3839602"><ele>582.2</ele><time>2026-04-18T09:59:51.109Z</time></trkpt><trkpt lat="43.6205353" lon="11.3838442"><ele>586.0</ele><time>2026-04-18T09:59:54.11Z</time></trkpt><trkpt lat="43.6204646" lon="11.3838701"><ele>586.0</ele><time>2026-04-18T10:05:52.108Z</time></trkpt><trkpt lat="43.6204041" lon="11.3839154"><ele>586.0</ele><time>2026-04-18T10:06:50.109Z</time></trkpt><trkpt lat="43.6203384" lon="11.3839223"><ele>586.0</ele><time>2026-04-18T10:07:18.108Z</time></trkpt><trkpt lat="43.6202386" lon="11.3839243"><ele>586.0</ele><time>2026-04-18T10:07:20.108Z</time></trkpt><trkpt lat="43.620138" lon="11.3839208"><ele>586.0</ele><time>2026-04-18T10:07:22.109Z</time></trkpt><trkpt lat="43.6200468" lon="11.3839157"><ele>586.0</ele><time>2026-04-18T10:07:24.108Z</time></trkpt><trkpt lat="43.6199813" lon="11.3838324"><ele>588.4285714285713</ele><time>2026-04-18T10:07:27.108Z</time></trkpt><trkpt lat="43.6199132" lon="11.3837687"><ele>590.8571428571429</ele><time>2026-04-18T10:07:30.108Z</time></trkpt><trkpt lat="43.6198794" lon="11.3836806"><ele>593.2857142857142</ele><time>2026-04-18T10:07:33.108Z</time></trkpt><trkpt lat="43.6198663" lon="11.3835921"><ele>595.7142857142857</ele><time>2026-04-18T10:07:35.108Z</time></trkpt><trkpt lat="43.6198237" lon="11.3835054"><ele>598.1428571428571</ele><time>2026-04-18T10:07:37.108Z</time></trkpt><trkpt lat="43.6197556" lon="11.3834452"><ele>600.5714285714286</ele><time>2026-04-18T10:07:39.109Z</time></trkpt><trkpt lat="43.6196958" lon="11.3833902"><ele>603.0</ele><time>2026-04-18T10:07:41.108Z</time></trkpt><trkpt lat="43.6196325" lon="11.3833635"><ele>603.0</ele><time>2026-04-18T10:07:43.108Z</time></trkpt><trkpt lat="43.6195661" lon="11.3833221"><ele>603.0</ele><time>2026-04-18T10:07:45.108Z</time></trkpt><trkpt lat="43.6194775" lon="11.3833025"><ele>603.0</ele><time>2026-04-18T10:07:47.109Z</time></trkpt><trkpt lat="43.6193712" lon="11.3833109"><ele>603.0</ele><time>2026-04-18T10:07:49.108Z</time></trkpt><trkpt lat="43.6192826" lon="11.3832914"><ele>603.0</ele><time>2026-04-18T10:07:51.082Z</time></trkpt><trkpt lat="43.6192027" lon="11.3832272"><ele>603.2857142857143</ele><time>2026-04-18T10:07:53.108Z</time></trkpt><trkpt lat="43.6191483" lon="11.3831707"><ele>603.5714285714286</ele><time>2026-04-18T10:07:55.108Z</time></trkpt><trkpt lat="43.6191157" lon="11.3830939"><ele>603.8571428571429</ele><time>2026-04-18T10:08:00.108Z</time></trkpt><trkpt lat="43.6190537" lon="11.3830247"><ele>604.1428571428571</ele><time>2026-04-18T10:08:06.109Z</time></trkpt><trkpt lat="43.6189853" lon="11.3829944"><ele>604.4285714285714</ele><time>2026-04-18T10:08:36.107Z</time></trkpt><trkpt lat="43.6189095" lon="11.3830602"><ele>604.7142857142857</ele><time>2026-04-18T10:08:38.107Z</time></trkpt><trkpt lat="43.6188867" lon="11.3831469"><ele>605.0</ele><time>2026-04-18T10:08:39.107Z</time></trkpt><trkpt lat="43.6188053" lon="11.3832794"><ele>605.8333333333333</ele><time>2026-04-18T10:08:41.107Z</time></trkpt><trkpt lat="43.6187638" lon="11.3833599"><ele>606.6666666666666</ele><time>2026-04-18T10:08:42.108Z</time></trkpt><trkpt lat="43.6187048" lon="11.3834221"><ele>607.5</ele><time>2026-04-18T10:08:43.107Z</time></trkpt><trkpt lat="43.6186313" lon="11.3834813"><ele>608.3333333333334</ele><time>2026-04-18T10:08:44.107Z</time></trkpt><trkpt lat="43.6185546" lon="11.3835511"><ele>609.1666666666667</ele><time>2026-04-18T10:08:45.107Z</time></trkpt><trkpt lat="43.618489" lon="11.3835697"><ele>610.0</ele><time>2026-04-18T10:08:46.107Z</time></trkpt><trkpt lat="43.6184131" lon="11.3835737"><ele>610.1666666666667</ele><time>2026-04-18T10:08:47.107Z</time></trkpt><trkpt lat="43.6183358" lon="11.383572"><ele>610.3333333333334</ele><time>2026-04-18T10:08:48.107Z</time></trkpt><trkpt lat="43.6182654" lon="11.3835929"><ele>610.5</ele><time>2026-04-18T10:08:49.107Z</time></trkpt><trkpt lat="43.61819" lon="11.3836556"><ele>610.6666666666666</ele><time>2026-04-18T10:08:50.107Z</time></trkpt><trkpt lat="43.6181109" lon="11.3837384"><ele>610.8333333333333</ele><time>2026-04-18T10:08:51.107Z</time></trkpt><trkpt lat="43.6180233" lon="11.3837963"><ele>611.0</ele><time>2026-04-18T10:08:52.108Z</time></trkpt><trkpt lat="43.6179202" lon="11.3838475"><ele>610.6666666666666</ele><time>2026-04-18T10:08:53.108Z</time></trkpt><trkpt lat="43.6178251" lon="11.3838992"><ele>610.3333333333333</ele><time>2026-04-18T10:08:54.107Z</time></trkpt><trkpt lat="43.6177555" lon="11.3839307"><ele>610.0</ele><time>2026-04-18T10:08:55.107Z</time></trkpt><trkpt lat="43.6176837" lon="11.3839426"><ele>609.6666666666666</ele><time>2026-04-18T10:08:56.107Z</time></trkpt><trkpt lat="43.6175995" lon="11.3839573"><ele>609.3333333333334</ele><time>2026-04-18T10:08:57.107Z</time></trkpt><trkpt lat="43.6175128" lon="11.3839831"><ele>609.0</ele><time>2026-04-18T10:08:58.107Z</time></trkpt><trkpt lat="43.6174277" lon="11.3840132"><ele>609.0</ele><time>2026-04-18T10:08:59.108Z</time></trkpt><trkpt lat="43.6173396" lon="11.3840415"><ele>609.0</ele><time>2026-04-18T10:09:00.107Z</time></trkpt><trkpt lat="43.6172529" lon="11.3840688"><ele>609.0</ele><time>2026-04-18T10:09:01.107Z</time></trkpt><trkpt lat="43.6171699" lon="11.3840981"><ele>609.0</ele><time>2026-04-18T10:09:02.108Z</time></trkpt><trkpt lat="43.617085" lon="11.3841355"><ele>609.0</ele><time>2026-04-18T10:09:03.107Z</time></trkpt><trkpt lat="43.6169976" lon="11.384187"><ele>609.0</ele><time>2026-04-18T10:09:04.108Z</time></trkpt><trkpt lat="43.6169169" lon="11.3842546"><ele>607.6666666666666</ele><time>2026-04-18T10:09:05.108Z</time></trkpt><trkpt lat="43.6168545" lon="11.3843295"><ele>606.3333333333334</ele><time>2026-04-18T10:09:06.108Z</time></trkpt><trkpt lat="43.6168119" lon="11.3844276"><ele>605.0</ele><time>2026-04-18T10:09:07.108Z</time></trkpt><trkpt lat="43.6167764" lon="11.3845375"><ele>603.6666666666667</ele><time>2026-04-18T10:09:08.108Z</time></trkpt><trkpt lat="43.6167326" lon="11.3846369"><ele>602.3333333333334</ele><time>2026-04-18T10:09:09.107Z</time></trkpt><trkpt lat="43.616691" lon="11.3847145"><ele>601.0</ele><time>2026-04-18T10:09:10.107Z</time></trkpt><trkpt lat="43.6166031" lon="11.3847451"><ele>601.0</ele><time>2026-04-18T10:09:12.107Z</time></trkpt><trkpt lat="43.6164698" lon="11.3846533"><ele>601.0</ele><time>2026-04-18T10:09:14.107Z</time></trkpt><trkpt lat="43.6163949" lon="11.3846087"><ele>601.0</ele><time>2026-04-18T10:09:15.108Z</time></trkpt><trkpt lat="43.6163243" lon="11.3845959"><ele>601.0</ele><time>2026-04-18T10:09:16.108Z</time></trkpt><trkpt lat="43.6162026" lon="11.3845371"><ele>601.0</ele><time>2026-04-18T10:09:18.108Z</time></trkpt><trkpt lat="43.6161457" lon="11.3844813"><ele>598.2</ele><time>2026-04-18T10:09:19.107Z</time></trkpt><trkpt lat="43.6160743" lon="11.3844548"><ele>595.4000000000001</ele><time>2026-04-18T10:09:20.107Z</time></trkpt><trkpt lat="43.6159572" lon="11.3844741"><ele>592.6</ele><time>2026-04-18T10:09:22.107Z</time></trkpt><trkpt lat="43.6158679" lon="11.3844539"><ele>589.8000000000001</ele><time>2026-04-18T10:09:24.107Z</time></trkpt><trkpt lat="43.6157634" lon="11.3843658"><ele>587.0</ele><time>2026-04-18T10:09:26.107Z</time></trkpt><trkpt lat="43.6156656" lon="11.3843126"><ele>587.0</ele><time>2026-04-18T10:09:28.107Z</time></trkpt><trkpt lat="43.6155738" lon="11.3843707"><ele>587.0</ele><time>2026-04-18T10:09:30.107Z</time></trkpt><trkpt lat="43.6154946" lon="11.3843904"><ele>587.0</ele><time>2026-04-18T10:09:32.108Z</time></trkpt><trkpt lat="43.6154283" lon="11.3842917"><ele>587.0</ele><time>2026-04-18T10:09:34.107Z</time></trkpt><trkpt lat="43.615406" lon="11.3841935"><ele>587.0</ele><time>2026-04-18T10:09:35.108Z</time></trkpt><trkpt lat="43.6153832" lon="11.3840935"><ele>587.0</ele><time>2026-04-18T10:09:36.108Z</time></trkpt><trkpt lat="43.6153549" lon="11.3840057"><ele>584.0</ele><time>2026-04-18T10:09:37.107Z</time></trkpt><trkpt lat="43.6152706" lon="11.3839055"><ele>581.0</ele><time>2026-04-18T10:09:39.107Z</time></trkpt><trkpt lat="43.6152057" lon="11.3839078"><ele>578.0</ele><time>2026-04-18T10:09:40.108Z</time></trkpt><trkpt lat="43.6151387" lon="11.3839109"><ele>575.0</ele><time>2026-04-18T10:09:41.108Z</time></trkpt><trkpt lat="43.6150671" lon="11.3839361"><ele>572.0</ele><time>2026-04-18T10:09:42.107Z</time></trkpt><trkpt lat="43.6149601" lon="11.3840053"><ele>569.0</ele><time>2026-04-18T10:09:44.107Z</time></trkpt><trkpt lat="43.6149185" lon="11.3840709"><ele>569.0</ele><time>2026-04-18T10:09:45.107Z</time></trkpt><trkpt lat="43.6148515" lon="11.3841886"><ele>569.0</ele><time>2026-04-18T10:09:47.107Z</time></trkpt><trkpt lat="43.6147948" lon="11.3843456"><ele>569.0</ele><time>2026-04-18T10:09:49.108Z</time></trkpt><trkpt lat="43.6147512" lon="11.3844388"><ele>569.0</ele><time>2026-04-18T10:09:50.107Z</time></trkpt><trkpt lat="43.6147057" lon="11.3845042"><ele>569.0</ele><time>2026-04-18T10:09:51.107Z</time></trkpt><trkpt lat="43.6146611" lon="11.3845785"><ele>569.0</ele><time>2026-04-18T10:09:52.107Z</time></trkpt><trkpt lat="43.6146095" lon="11.3846462"><ele>569.0</ele><time>2026-04-18T10:09:53.107Z</time></trkpt><trkpt lat="43.6145554" lon="11.3847136"><ele>569.0</ele><time>2026-04-18T10:09:54.108Z</time></trkpt><trkpt lat="43.6144944" lon="11.3847783"><ele>569.0</ele><time>2026-04-18T10:09:55.107Z</time></trkpt><trkpt lat="43.6144477" lon="11.3848456"><ele>569.0</ele><time>2026-04-18T10:09:56.107Z</time></trkpt><trkpt lat="43.6144216" lon="11.3850142"><ele>569.0</ele><time>2026-04-18T10:09:58.107Z</time></trkpt><trkpt lat="43.6144193" lon="11.3851055"><ele>565.5</ele><time>2026-04-18T10:09:59.107Z</time></trkpt><trkpt lat="43.6144161" lon="11.3851981"><ele>562.0</ele><time>2026-04-18T10:10:00.107Z</time></trkpt><trkpt lat="43.6144028" lon="11.3852843"><ele>558.5</ele><time>2026-04-18T10:10:01.107Z</time></trkpt><trkpt lat="43.6143758" lon="11.3854259"><ele>555.0</ele><time>2026-04-18T10:10:03.108Z</time></trkpt><trkpt lat="43.6143302" lon="11.3855005"><ele>551.5</ele><time>2026-04-18T10:10:52.107Z</time></trkpt><trkpt lat="43.6142877" lon="11.3856287"><ele>548.0</ele><time>2026-04-18T10:10:54.107Z</time></trkpt><trkpt lat="43.6142449" lon="11.3857359"><ele>548.0</ele><time>2026-04-18T10:10:55.107Z</time></trkpt><trkpt lat="43.614189" lon="11.3858604"><ele>548.0</ele><time>2026-04-18T10:10:56.108Z</time></trkpt><trkpt lat="43.6141196" lon="11.3860436"><ele>548.0</ele><time>2026-04-18T10:10:57.107Z</time></trkpt><trkpt lat="43.6140139" lon="11.3862469"><ele>548.0</ele><time>2026-04-18T10:10:58.107Z</time></trkpt><trkpt lat="43.6139565" lon="11.386392"><ele>548.0</ele><time>2026-04-18T10:10:59.108Z</time></trkpt><trkpt lat="43.6139004" lon="11.3865535"><ele>548.0</ele><time>2026-04-18T10:11:00.107Z</time></trkpt><trkpt lat="43.6138859" lon="11.3867709"><ele>548.0</ele><time>2026-04-18T10:11:01.108Z</time></trkpt><trkpt lat="43.6138731" lon="11.3869144"><ele>548.0</ele><time>2026-04-18T10:11:02.108Z</time></trkpt><trkpt lat="43.6138502" lon="11.3870347"><ele>548.0</ele><time>2026-04-18T10:11:03.107Z</time></trkpt><trkpt lat="43.6137935" lon="11.3871731"><ele>548.0</ele><time>2026-04-18T10:11:04.107Z</time></trkpt><trkpt lat="43.6137165" lon="11.3872905"><ele>548.0</ele><time>2026-04-18T10:11:05.107Z</time></trkpt><trkpt lat="43.6136068" lon="11.3873834"><ele>548.0</ele><time>2026-04-18T10:11:06.108Z</time></trkpt><trkpt lat="43.6135073" lon="11.3874579"><ele>547.75</ele><time>2026-04-18T10:11:07.107Z</time></trkpt><trkpt lat="43.6133904" lon="11.3875395"><ele>547.5</ele><time>2026-04-18T10:11:08.108Z</time></trkpt><trkpt lat="43.6132724" lon="11.3875971"><ele>547.25</ele><time>2026-04-18T10:11:09.107Z</time></trkpt><trkpt lat="43.6131453" lon="11.3876627"><ele>547.0</ele><time>2026-04-18T10:11:10.108Z</time></trkpt><trkpt lat="43.6129921" lon="11.3877365"><ele>547.0</ele><time>2026-04-18T10:11:11.107Z</time></trkpt><trkpt lat="43.6128731" lon="11.387816"><ele>547.0</ele><time>2026-04-18T10:11:12.107Z</time></trkpt><trkpt lat="43.6127502" lon="11.387902"><ele>547.0</ele><time>2026-04-18T10:11:13.107Z</time></trkpt><trkpt lat="43.6126451" lon="11.3879687"><ele>547.0</ele><time>2026-04-18T10:11:14.106Z</time></trkpt><trkpt lat="43.6125366" lon="11.3880112"><ele>546.8333333333334</ele><time>2026-04-18T10:11:15.107Z</time></trkpt><trkpt lat="43.612444" lon="11.3880145"><ele>546.6666666666667</ele><time>2026-04-18T10:11:16.107Z</time></trkpt><trkpt lat="43.6123508" lon="11.3879823"><ele>546.5</ele><time>2026-04-18T10:11:17.107Z</time></trkpt><trkpt lat="43.6122596" lon="11.3879459"><ele>546.3333333333334</ele><time>2026-04-18T10:11:18.107Z</time></trkpt><trkpt lat="43.6121816" lon="11.3879523"><ele>546.1666666666666</ele><time>2026-04-18T10:11:19.107Z</time></trkpt><trkpt lat="43.6121036" lon="11.3880024"><ele>546.0</ele><time>2026-04-18T10:11:20.107Z</time></trkpt><trkpt lat="43.6120302" lon="11.3880735"><ele>545.0</ele><time>2026-04-18T10:11:21.108Z</time></trkpt><trkpt lat="43.6119517" lon="11.3881436"><ele>544.0</ele><time>2026-04-18T10:11:22.108Z</time></trkpt><trkpt lat="43.6118628" lon="11.3881921"><ele>543.0</ele><time>2026-04-18T10:11:23.108Z</time></trkpt><trkpt lat="43.6117771" lon="11.3882358"><ele>542.0</ele><time>2026-04-18T10:11:24.108Z</time></trkpt><trkpt lat="43.6116912" lon="11.3882786"><ele>541.0</ele><time>2026-04-18T10:11:25.107Z</time></trkpt><trkpt lat="43.6116018" lon="11.3883234"><ele>541.0</ele><time>2026-04-18T10:11:26.108Z</time></trkpt><trkpt lat="43.611525" lon="11.388384"><ele>541.0</ele><time>2026-04-18T10:11:27.107Z</time></trkpt><trkpt lat="43.611457" lon="11.3884879"><ele>541.0</ele><time>2026-04-18T10:11:28.107Z</time></trkpt><trkpt lat="43.6113859" lon="11.3885636"><ele>541.0</ele><time>2026-04-18T10:11:29.107Z</time></trkpt><trkpt lat="43.6113375" lon="11.3886298"><ele>541.0</ele><time>2026-04-18T10:11:30.107Z</time></trkpt><trkpt lat="43.611281" lon="11.3887168"><ele>541.0</ele><time>2026-04-18T10:11:31.107Z</time></trkpt><trkpt lat="43.6112287" lon="11.3887972"><ele>540.8</ele><time>2026-04-18T10:11:32.107Z</time></trkpt><trkpt lat="43.6111624" lon="11.3888814"><ele>540.6</ele><time>2026-04-18T10:11:33.108Z</time></trkpt><trkpt lat="43.611105" lon="11.3889518"><ele>540.4</ele><time>2026-04-18T10:11:34.107Z</time></trkpt><trkpt lat="43.611048" lon="11.3890442"><ele>540.2</ele><time>2026-04-18T10:11:35.107Z</time></trkpt><trkpt lat="43.610981" lon="11.389154"><ele>540.0</ele><time>2026-04-18T10:11:36.108Z</time></trkpt><trkpt lat="43.6109169" lon="11.3892797"><ele>540.0</ele><time>2026-04-18T10:11:37.107Z</time></trkpt><trkpt lat="43.610849" lon="11.3893947"><ele>540.0</ele><time>2026-04-18T10:11:38.107Z</time></trkpt><trkpt lat="43.6107759" lon="11.3895145"><ele>540.0</ele><time>2026-04-18T10:11:39.107Z</time></trkpt><trkpt lat="43.6106877" lon="11.3895442"><ele>540.0</ele><time>2026-04-18T10:11:40.107Z</time></trkpt><trkpt lat="43.6105665" lon="11.389601"><ele>540.0</ele><time>2026-04-18T10:11:41.107Z</time></trkpt><trkpt lat="43.6104469" lon="11.389656"><ele>539.25</ele><time>2026-04-18T10:11:42.107Z</time></trkpt><trkpt lat="43.6103387" lon="11.3897044"><ele>538.5</ele><time>2026-04-18T10:11:43.107Z</time></trkpt><trkpt lat="43.6102325" lon="11.3897962"><ele>537.75</ele><time>2026-04-18T10:11:44.107Z</time></trkpt><trkpt lat="43.6101227" lon="11.38989"><ele>537.0</ele><time>2026-04-18T10:11:45.108Z</time></trkpt><trkpt lat="43.6100461" lon="11.3900484"><ele>537.0</ele><time>2026-04-18T10:11:46.107Z</time></trkpt><trkpt lat="43.6099673" lon="11.3901585"><ele>537.0</ele><time>2026-04-18T10:11:47.108Z</time></trkpt><trkpt lat="43.6098907" lon="11.3902775"><ele>537.0</ele><time>2026-04-18T10:11:48.108Z</time></trkpt><trkpt lat="43.609824" lon="11.390382"><ele>537.0</ele><time>2026-04-18T10:11:49.108Z</time></trkpt><trkpt lat="43.6097614" lon="11.3904816"><ele>537.0</ele><time>2026-04-18T10:11:50.108Z</time></trkpt><trkpt lat="43.6096978" lon="11.3905772"><ele>535.6</ele><time>2026-04-18T10:11:51.107Z</time></trkpt><trkpt lat="43.6096128" lon="11.3906289"><ele>534.2</ele><time>2026-04-18T10:11:52.108Z</time></trkpt><trkpt lat="43.6095254" lon="11.3906982"><ele>532.8</ele><time>2026-04-18T10:11:53.107Z</time></trkpt><trkpt lat="43.6094418" lon="11.3907636"><ele>531.4</ele><time>2026-04-18T10:11:54.107Z</time></trkpt><trkpt lat="43.6093619" lon="11.3908379"><ele>530.0</ele><time>2026-04-18T10:11:55.107Z</time></trkpt><trkpt lat="43.6093016" lon="11.3909218"><ele>530.0</ele><time>2026-04-18T10:11:56.108Z</time></trkpt><trkpt lat="43.6092289" lon="11.3909592"><ele>530.0</ele><time>2026-04-18T10:11:57.108Z</time></trkpt><trkpt lat="43.6091376" lon="11.3909836"><ele>530.0</ele><time>2026-04-18T10:11:58.108Z</time></trkpt><trkpt lat="43.6090294" lon="11.3910004"><ele>530.0</ele><time>2026-04-18T10:11:59.108Z</time></trkpt><trkpt lat="43.6089274" lon="11.3910277"><ele>530.0</ele><time>2026-04-18T10:12:00.107Z</time></trkpt><trkpt lat="43.6088226" lon="11.3910727"><ele>530.0</ele><time>2026-04-18T10:12:01.107Z</time></trkpt><trkpt lat="43.6087057" lon="11.3911182"><ele>530.0</ele><time>2026-04-18T10:12:02.108Z</time></trkpt><trkpt lat="43.6085965" lon="11.3911844"><ele>530.0</ele><time>2026-04-18T10:12:03.108Z</time></trkpt><trkpt lat="43.6084935" lon="11.3912583"><ele>530.0</ele><time>2026-04-18T10:12:04.108Z</time></trkpt><trkpt lat="43.6083849" lon="11.3913405"><ele>527.0</ele><time>2026-04-18T10:12:05.108Z</time></trkpt><trkpt lat="43.6082894" lon="11.3914224"><ele>524.0</ele><time>2026-04-18T10:12:06.108Z</time></trkpt><trkpt lat="43.6081931" lon="11.3915318"><ele>521.0</ele><time>2026-04-18T10:12:07.107Z</time></trkpt><trkpt lat="43.6081063" lon="11.3916393"><ele>518.0</ele><time>2026-04-18T10:12:08.108Z</time></trkpt><trkpt lat="43.6080251" lon="11.3917503"><ele>518.0</ele><time>2026-04-18T10:12:09.108Z</time></trkpt><trkpt lat="43.607941" lon="11.3918424"><ele>518.0</ele><time>2026-04-18T10:12:10.107Z</time></trkpt><trkpt lat="43.6078667" lon="11.3919112"><ele>518.0</ele><time>2026-04-18T10:12:11.107Z</time></trkpt><trkpt lat="43.6078071" lon="11.3919526"><ele>518.0</ele><time>2026-04-18T10:12:12.108Z</time></trkpt><trkpt lat="43.6077062" lon="11.3919695"><ele>518.0</ele><time>2026-04-18T10:12:14.108Z</time></trkpt><trkpt lat="43.6076355" lon="11.3919487"><ele>518.0</ele><time>2026-04-18T10:12:16.108Z</time></trkpt><trkpt lat="43.6075558" lon="11.3919544"><ele>517.5</ele><time>2026-04-18T10:12:18.107Z</time></trkpt><trkpt lat="43.6074532" lon="11.3919486"><ele>517.0</ele><time>2026-04-18T10:12:20.108Z</time></trkpt><trkpt lat="43.6073723" lon="11.391965"><ele>516.5</ele><time>2026-04-18T10:12:22.107Z</time></trkpt><trkpt lat="43.6073059" lon="11.3919864"><ele>516.0</ele><time>2026-04-18T10:12:30.107Z</time></trkpt><trkpt lat="43.6072418" lon="11.3920212"><ele>515.5</ele><time>2026-04-18T10:12:32.107Z</time></trkpt><trkpt lat="43.6071507" lon="11.3920829"><ele>515.0</ele><time>2026-04-18T10:12:34.108Z</time></trkpt><trkpt lat="43.6070909" lon="11.392118"><ele>515.0</ele><time>2026-04-18T10:12:35.108Z</time></trkpt><trkpt lat="43.6070186" lon="11.3921688"><ele>515.0</ele><time>2026-04-18T10:12:36.108Z</time></trkpt><trkpt lat="43.6069385" lon="11.3922262"><ele>515.0</ele><time>2026-04-18T10:12:37.108Z</time></trkpt><trkpt lat="43.6068587" lon="11.3922512"><ele>515.0</ele><time>2026-04-18T10:12:38.107Z</time></trkpt><trkpt lat="43.6067862" lon="11.3923062"><ele>515.0</ele><time>2026-04-18T10:12:39.107Z</time></trkpt><trkpt lat="43.6066989" lon="11.3923436"><ele>515.0</ele><time>2026-04-18T10:12:40.107Z</time></trkpt><trkpt lat="43.6066256" lon="11.3923658"><ele>514.2</ele><time>2026-04-18T10:12:41.108Z</time></trkpt><trkpt lat="43.6065278" lon="11.3923875"><ele>513.4</ele><time>2026-04-18T10:12:42.108Z</time></trkpt><trkpt lat="43.6064376" lon="11.3923749"><ele>512.6</ele><time>2026-04-18T10:12:43.108Z</time></trkpt><trkpt lat="43.6063222" lon="11.3922876"><ele>511.8</ele><time>2026-04-18T10:12:44.107Z</time></trkpt><trkpt lat="43.6062161" lon="11.3922636"><ele>511.0</ele><time>2026-04-18T10:12:45.107Z</time></trkpt><trkpt lat="43.6061269" lon="11.3922471"><ele>511.0</ele><time>2026-04-18T10:12:46.107Z</time></trkpt><trkpt lat="43.6060275" lon="11.3922362"><ele>511.0</ele><time>2026-04-18T10:12:47.107Z</time></trkpt><trkpt lat="43.6059033" lon="11.3922255"><ele>511.0</ele><time>2026-04-18T10:12:48.108Z</time></trkpt><trkpt lat="43.605796" lon="11.3922098"><ele>511.0</ele><time>2026-04-18T10:12:49.108Z</time></trkpt><trkpt lat="43.6056933" lon="11.3922091"><ele>511.0</ele><time>2026-04-18T10:12:50.108Z</time></trkpt><trkpt lat="43.6056007" lon="11.3922117"><ele>511.00000000000006</ele><time>2026-04-18T10:12:51.107Z</time></trkpt><trkpt lat="43.6055394" lon="11.3922346"><ele>511.0</ele><time>2026-04-18T10:12:52.107Z</time></trkpt><trkpt lat="43.6054318" lon="11.3921837"><ele>511.0</ele><time>2026-04-18T10:12:54.107Z</time></trkpt><trkpt lat="43.6053736" lon="11.3921333"><ele>511.0</ele><time>2026-04-18T10:12:55.107Z</time></trkpt><trkpt lat="43.6053042" lon="11.392072"><ele>511.00000000000006</ele><time>2026-04-18T10:12:56.108Z</time></trkpt><trkpt lat="43.6052253" lon="11.3920112"><ele>511.0</ele><time>2026-04-18T10:12:57.108Z</time></trkpt><trkpt lat="43.6051609" lon="11.3919633"><ele>508.1666666666667</ele><time>2026-04-18T10:12:58.107Z</time></trkpt><trkpt lat="43.6050812" lon="11.3919394"><ele>505.33333333333337</ele><time>2026-04-18T10:12:59.107Z</time></trkpt><trkpt lat="43.6050011" lon="11.3919369"><ele>502.5</ele><time>2026-04-18T10:13:00.107Z</time></trkpt><trkpt lat="43.6049312" lon="11.3919607"><ele>499.66666666666663</ele><time>2026-04-18T10:13:01.107Z</time></trkpt><trkpt lat="43.6048578" lon="11.3919836"><ele>496.8333333333333</ele><time>2026-04-18T10:13:02.107Z</time></trkpt><trkpt lat="43.6047955" lon="11.3920563"><ele>494.0</ele><time>2026-04-18T10:13:03.108Z</time></trkpt><trkpt lat="43.6047204" lon="11.3921165"><ele>493.49999999999994</ele><time>2026-04-18T10:13:04.108Z</time></trkpt><trkpt lat="43.6046511" lon="11.3921822"><ele>493.0</ele><time>2026-04-18T10:13:05.107Z</time></trkpt><trkpt lat="43.6045799" lon="11.3922249"><ele>492.5</ele><time>2026-04-18T10:13:06.108Z</time></trkpt><trkpt lat="43.6045079" lon="11.3922797"><ele>492.0</ele><time>2026-04-18T10:13:07.108Z</time></trkpt><trkpt lat="43.6044292" lon="11.3922948"><ele>491.49999999999994</ele><time>2026-04-18T10:13:08.107Z</time></trkpt><trkpt lat="43.6043579" lon="11.3923137"><ele>491.0</ele><time>2026-04-18T10:13:09.107Z</time></trkpt><trkpt lat="43.6042843" lon="11.3923443"><ele>488.99999999999994</ele><time>2026-04-18T10:13:10.107Z</time></trkpt><trkpt lat="43.6042078" lon="11.3923566"><ele>487.0</ele><time>2026-04-18T10:13:11.107Z</time></trkpt><trkpt lat="43.6041418" lon="11.3923556"><ele>485.0</ele><time>2026-04-18T10:13:12.107Z</time></trkpt><trkpt lat="43.6040783" lon="11.3923312"><ele>483.0</ele><time>2026-04-18T10:13:13.107Z</time></trkpt><trkpt lat="43.6039755" lon="11.3922207"><ele>480.99999999999994</ele><time>2026-04-18T10:13:15.107Z</time></trkpt><trkpt lat="43.6039239" lon="11.3921374"><ele>479.0</ele><time>2026-04-18T10:13:16.107Z</time></trkpt><trkpt lat="43.6038117" lon="11.3921616"><ele>478.8333333333333</ele><time>2026-04-18T10:13:18.108Z</time></trkpt><trkpt lat="43.6037398" lon="11.3921743"><ele>478.66666666666663</ele><time>2026-04-18T10:13:19.107Z</time></trkpt><trkpt lat="43.6036767" lon="11.3922283"><ele>478.5</ele><time>2026-04-18T10:13:20.107Z</time></trkpt><trkpt lat="43.6036103" lon="11.3922768"><ele>478.33333333333337</ele><time>2026-04-18T10:13:21.107Z</time></trkpt><trkpt lat="43.6035581" lon="11.3923609"><ele>478.1666666666667</ele><time>2026-04-18T10:13:22.107Z</time></trkpt><trkpt lat="43.603498" lon="11.3925256"><ele>478.0</ele><time>2026-04-18T10:13:23.107Z</time></trkpt><trkpt lat="43.6034396" lon="11.3926115"><ele>476.00000000000006</ele><time>2026-04-18T10:13:24.108Z</time></trkpt><trkpt lat="43.6033634" lon="11.3926956"><ele>474.0</ele><time>2026-04-18T10:13:25.108Z</time></trkpt><trkpt lat="43.603311" lon="11.3927624"><ele>472.0</ele><time>2026-04-18T10:13:26.108Z</time></trkpt><trkpt lat="43.6032515" lon="11.3928209"><ele>470.0</ele><time>2026-04-18T10:13:27.107Z</time></trkpt><trkpt lat="43.6032029" lon="11.3928784"><ele>468.00000000000006</ele><time>2026-04-18T10:13:28.107Z</time></trkpt><trkpt lat="43.6031527" lon="11.392953"><ele>466.0</ele><time>2026-04-18T10:13:29.107Z</time></trkpt><trkpt lat="43.6031088" lon="11.3930367"><ele>463.75</ele><time>2026-04-18T10:13:30.107Z</time></trkpt><trkpt lat="43.60302" lon="11.3931144"><ele>461.5</ele><time>2026-04-18T10:13:32.106Z</time></trkpt><trkpt lat="43.6029108" lon="11.3931819"><ele>459.25</ele><time>2026-04-18T10:13:34.106Z</time></trkpt><trkpt lat="43.6028125" lon="11.3932786"><ele>457.0</ele><time>2026-04-18T10:13:36.107Z</time></trkpt><trkpt lat="43.6027375" lon="11.3934081"><ele>455.6666666666667</ele><time>2026-04-18T10:13:38.107Z</time></trkpt><trkpt lat="43.6026571" lon="11.3934845"><ele>454.33333333333337</ele><time>2026-04-18T10:13:40.107Z</time></trkpt><trkpt lat="43.6025699" lon="11.3935351"><ele>453.0</ele><time>2026-04-18T10:13:42.107Z</time></trkpt><trkpt lat="43.6025044" lon="11.39356"><ele>451.66666666666663</ele><time>2026-04-18T10:13:44.107Z</time></trkpt><trkpt lat="43.6024333" lon="11.3935336"><ele>450.3333333333333</ele><time>2026-04-18T10:13:46.107Z</time></trkpt><trkpt lat="43.6023505" lon="11.393535"><ele>449.0</ele><time>2026-04-18T10:13:48.107Z</time></trkpt><trkpt lat="43.602268" lon="11.393522"><ele>448.99999999999994</ele><time>2026-04-18T10:13:50.107Z</time></trkpt><trkpt lat="43.602192" lon="11.393455"><ele>449.0</ele><time>2026-04-18T10:13:52.107Z</time></trkpt><trkpt lat="43.602122" lon="11.3934153"><ele>449.0</ele><time>2026-04-18T10:13:54.108Z</time></trkpt><trkpt lat="43.6020478" lon="11.3933952"><ele>449.0</ele><time>2026-04-18T10:13:57.107Z</time></trkpt><trkpt lat="43.6019852" lon="11.393326"><ele>448.99999999999994</ele><time>2026-04-18T10:13:59.107Z</time></trkpt><trkpt lat="43.6019258" lon="11.3932222"><ele>449.0</ele><time>2026-04-18T10:14:01.107Z</time></trkpt><trkpt lat="43.6018561" lon="11.3931171"><ele>443.79999999999995</ele><time>2026-04-18T10:14:03.107Z</time></trkpt><trkpt lat="43.601778" lon="11.3930692"><ele>438.59999999999997</ele><time>2026-04-18T10:14:05.106Z</time></trkpt><trkpt lat="43.6016578" lon="11.3930488"><ele>433.4</ele><time>2026-04-18T10:14:07.106Z</time></trkpt><trkpt lat="43.6015671" lon="11.3930163"><ele>428.2</ele><time>2026-04-18T10:14:09.106Z</time></trkpt><trkpt lat="43.6014683" lon="11.3930033"><ele>423.0</ele><time>2026-04-18T10:14:11.106Z</time></trkpt><trkpt lat="43.6014225" lon="11.393073"><ele>423.0</ele><time>2026-04-18T10:14:13.107Z</time></trkpt><trkpt lat="43.6014458" lon="11.3931571"><ele>423.0</ele><time>2026-04-18T10:14:17.106Z</time></trkpt><trkpt lat="43.6014809" lon="11.3932937"><ele>423.0</ele><time>2026-04-18T10:14:47.106Z</time></trkpt><trkpt lat="43.6015035" lon="11.3933835"><ele>423.0</ele><time>2026-04-18T10:14:48.106Z</time></trkpt><trkpt lat="43.6015051" lon="11.3934898"><ele>423.0</ele><time>2026-04-18T10:14:49.107Z</time></trkpt><trkpt lat="43.6015017" lon="11.3935993"><ele>423.0</ele><time>2026-04-18T10:14:50.107Z</time></trkpt><trkpt lat="43.6015096" lon="11.393709"><ele>423.0</ele><time>2026-04-18T10:14:51.107Z</time></trkpt><trkpt lat="43.6015138" lon="11.393809"><ele>423.0</ele><time>2026-04-18T10:14:52.106Z</time></trkpt><trkpt lat="43.6014756" lon="11.3939689"><ele>423.0</ele><time>2026-04-18T10:14:54.107Z</time></trkpt><trkpt lat="43.6014313" lon="11.3941157"><ele>423.0</ele><time>2026-04-18T10:14:56.107Z</time></trkpt><trkpt lat="43.6014056" lon="11.3942716"><ele>423.0</ele><time>2026-04-18T10:14:58.107Z</time></trkpt><trkpt lat="43.6013699" lon="11.3944254"><ele>421.8333333333333</ele><time>2026-04-18T10:15:00.106Z</time></trkpt><trkpt lat="43.6013076" lon="11.3945355"><ele>420.66666666666663</ele><time>2026-04-18T10:15:02.106Z</time></trkpt><trkpt lat="43.6012318" lon="11.3946242"><ele>419.5</ele><time>2026-04-18T10:15:04.106Z</time></trkpt><trkpt lat="43.6011581" lon="11.3946809"><ele>418.3333333333333</ele><time>2026-04-18T10:15:06.107Z</time></trkpt><trkpt lat="43.6010832" lon="11.3946836"><ele>417.16666666666663</ele><time>2026-04-18T10:15:08.107Z</time></trkpt><trkpt lat="43.6010253" lon="11.3946257"><ele>416.0</ele><time>2026-04-18T10:15:10.106Z</time></trkpt><trkpt lat="43.6009598" lon="11.3945171"><ele>410.20000000000005</ele><time>2026-04-18T10:15:12.106Z</time></trkpt><trkpt lat="43.600905" lon="11.3943987"><ele>404.40000000000003</ele><time>2026-04-18T10:15:14.106Z</time></trkpt><trkpt lat="43.6008287" lon="11.3942843"><ele>398.6</ele><time>2026-04-18T10:15:16.106Z</time></trkpt><trkpt lat="43.6007431" lon="11.3941698"><ele>392.8</ele><time>2026-04-18T10:15:18.107Z</time></trkpt><trkpt lat="43.6006513" lon="11.3941125"><ele>387.0</ele><time>2026-04-18T10:15:20.105Z</time></trkpt><trkpt lat="43.6005723" lon="11.3941533"><ele>387.0</ele><time>2026-04-18T10:15:22.106Z</time></trkpt><trkpt lat="43.6004957" lon="11.3941787"><ele>387.0</ele><time>2026-04-18T10:15:24.106Z</time></trkpt><trkpt lat="43.6004146" lon="11.3941502"><ele>387.0</ele><time>2026-04-18T10:15:26.107Z</time></trkpt><trkpt lat="43.6003344" lon="11.3941727"><ele>387.0</ele><time>2026-04-18T10:15:28.107Z</time></trkpt><trkpt lat="43.6002624" lon="11.3942279"><ele>387.0</ele><time>2026-04-18T10:15:30.107Z</time></trkpt><trkpt lat="43.6001895" lon="11.3942941"><ele>387.0</ele><time>2026-04-18T10:15:32.106Z</time></trkpt><trkpt lat="43.6001005" lon="11.3943467"><ele>382.6</ele><time>2026-04-18T10:15:34.106Z</time></trkpt><trkpt lat="43.6000204" lon="11.3944114"><ele>378.20000000000005</ele><time>2026-04-18T10:15:36.106Z</time></trkpt><trkpt lat="43.5999352" lon="11.3944499"><ele>373.8</ele><time>2026-04-18T10:15:38.106Z</time></trkpt><trkpt lat="43.5998267" lon="11.3945036"><ele>369.4</ele><time>2026-04-18T10:15:40.106Z</time></trkpt><trkpt lat="43.5997326" lon="11.3945932"><ele>365.0</ele><time>2026-04-18T10:15:42.107Z</time></trkpt><trkpt lat="43.5996961" lon="11.3946676"><ele>364.33333333333337</ele><time>2026-04-18T10:15:43.106Z</time></trkpt><trkpt lat="43.5996758" lon="11.3947881"><ele>363.6666666666667</ele><time>2026-04-18T10:15:45.106Z</time></trkpt><trkpt lat="43.5996534" lon="11.3949073"><ele>363.0</ele><time>2026-04-18T10:15:47.106Z</time></trkpt><trkpt lat="43.5996274" lon="11.3950399"><ele>362.3333333333333</ele><time>2026-04-18T10:15:49.106Z</time></trkpt><trkpt lat="43.599622" lon="11.3951303"><ele>361.66666666666663</ele><time>2026-04-18T10:15:50.107Z</time></trkpt><trkpt lat="43.5996086" lon="11.3952425"><ele>361.0</ele><time>2026-04-18T10:15:51.107Z</time></trkpt><trkpt lat="43.5995924" lon="11.3953476"><ele>361.0</ele><time>2026-04-18T10:15:52.106Z</time></trkpt><trkpt lat="43.5995709" lon="11.3954421"><ele>361.0</ele><time>2026-04-18T10:15:53.107Z</time></trkpt><trkpt lat="43.5994743" lon="11.3955624"><ele>361.0</ele><time>2026-04-18T10:15:55.107Z</time></trkpt><trkpt lat="43.5993897" lon="11.3955859"><ele>361.0</ele><time>2026-04-18T10:15:56.106Z</time></trkpt><trkpt lat="43.5992937" lon="11.3955915"><ele>361.0</ele><time>2026-04-18T10:15:57.106Z</time></trkpt><trkpt lat="43.5991944" lon="11.3955894"><ele>356.20000000000005</ele><time>2026-04-18T10:15:58.106Z</time></trkpt><trkpt lat="43.599099" lon="11.395584"><ele>351.40000000000003</ele><time>2026-04-18T10:15:59.106Z</time></trkpt><trkpt lat="43.599003" lon="11.3955831"><ele>346.6</ele><time>2026-04-18T10:16:00.106Z</time></trkpt><trkpt lat="43.5989046" lon="11.3955821"><ele>341.8</ele><time>2026-04-18T10:16:01.106Z</time></trkpt><trkpt lat="43.5988106" lon="11.395582"><ele>337.0</ele><time>2026-04-18T10:16:02.106Z</time></trkpt><trkpt lat="43.5987198" lon="11.3955739"><ele>335.5</ele><time>2026-04-18T10:16:03.106Z</time></trkpt><trkpt lat="43.5986318" lon="11.3955477"><ele>334.0</ele><time>2026-04-18T10:16:04.106Z</time></trkpt><trkpt lat="43.5985552" lon="11.3955055"><ele>332.5</ele><time>2026-04-18T10:16:05.106Z</time></trkpt><trkpt lat="43.5984856" lon="11.3954523"><ele>331.0</ele><time>2026-04-18T10:16:06.106Z</time></trkpt><trkpt lat="43.5984252" lon="11.3953983"><ele>329.5</ele><time>2026-04-18T10:16:07.107Z</time></trkpt><trkpt lat="43.5983659" lon="11.3953421"><ele>328.0</ele><time>2026-04-18T10:16:08.107Z</time></trkpt><trkpt lat="43.5983229" lon="11.3952775"><ele>328.0</ele><time>2026-04-18T10:16:09.106Z</time></trkpt><trkpt lat="43.5982509" lon="11.3951753"><ele>328.0</ele><time>2026-04-18T10:16:11.107Z</time></trkpt><trkpt lat="43.5982127" lon="11.3950871"><ele>328.0</ele><time>2026-04-18T10:16:13.107Z</time></trkpt><trkpt lat="43.5981682" lon="11.3949978"><ele>328.0</ele><time>2026-04-18T10:16:16.107Z</time></trkpt><trkpt lat="43.5981038" lon="11.394926"><ele>328.0</ele><time>2026-04-18T10:16:19.106Z</time></trkpt><trkpt lat="43.5980278" lon="11.3948787"><ele>328.0</ele><time>2026-04-18T10:17:30.107Z</time></trkpt><trkpt lat="43.5980077" lon="11.3946893"><ele>328.0</ele><time>2026-04-18T10:17:32.106Z</time></trkpt><trkpt lat="43.5979986" lon="11.3945734"><ele>328.0</ele><time>2026-04-18T10:17:33.106Z</time></trkpt><trkpt lat="43.5979893" lon="11.3944491"><ele>328.0</ele><time>2026-04-18T10:17:34.106Z</time></trkpt><trkpt lat="43.5979765" lon="11.3943216"><ele>328.0</ele><time>2026-04-18T10:17:35.107Z</time></trkpt><trkpt lat="43.5979544" lon="11.3941867"><ele>328.0</ele><time>2026-04-18T10:17:36.106Z</time></trkpt><trkpt lat="43.5979231" lon="11.394045"><ele>328.0</ele><time>2026-04-18T10:17:37.106Z</time></trkpt><trkpt lat="43.597873" lon="11.3939082"><ele>328.0</ele><time>2026-04-18T10:17:38.106Z</time></trkpt><trkpt lat="43.5977969" lon="11.3937853"><ele>328.0</ele><time>2026-04-18T10:17:39.106Z</time></trkpt><trkpt lat="43.5977008" lon="11.3936819"><ele>328.0</ele><time>2026-04-18T10:17:40.106Z</time></trkpt><trkpt lat="43.597591" lon="11.3935942"><ele>329.0</ele><time>2026-04-18T10:17:41.106Z</time></trkpt><trkpt lat="43.5974692" lon="11.3935072"><ele>330.0</ele><time>2026-04-18T10:17:42.106Z</time></trkpt><trkpt lat="43.597342" lon="11.3934047"><ele>331.0</ele><time>2026-04-18T10:17:43.106Z</time></trkpt><trkpt lat="43.5972054" lon="11.3932859"><ele>332.0</ele><time>2026-04-18T10:17:44.107Z</time></trkpt><trkpt lat="43.5970837" lon="11.3931384"><ele>332.33333333333337</ele><time>2026-04-18T10:17:45.106Z</time></trkpt><trkpt lat="43.5969849" lon="11.3929536"><ele>332.6666666666667</ele><time>2026-04-18T10:17:46.106Z</time></trkpt><trkpt lat="43.5969057" lon="11.3927506"><ele>333.0</ele><time>2026-04-18T10:17:47.105Z</time></trkpt><trkpt lat="43.596815" lon="11.3924983"><ele>333.0</ele><time>2026-04-18T10:17:48.106Z</time></trkpt><trkpt lat="43.5967147" lon="11.3922577"><ele>333.0</ele><time>2026-04-18T10:17:49.106Z</time></trkpt><trkpt lat="43.59662" lon="11.3920036"><ele>333.0</ele><time>2026-04-18T10:17:50.107Z</time></trkpt><trkpt lat="43.5965304" lon="11.3917767"><ele>336.3333333333333</ele><time>2026-04-18T10:17:51.107Z</time></trkpt><trkpt lat="43.5964469" lon="11.3915622"><ele>339.66666666666663</ele><time>2026-04-18T10:17:52.107Z</time></trkpt><trkpt lat="43.5963631" lon="11.3913524"><ele>343.0</ele><time>2026-04-18T10:17:53.106Z</time></trkpt><trkpt lat="43.5962894" lon="11.3911416"><ele>340.3333333333333</ele><time>2026-04-18T10:17:54.106Z</time></trkpt><trkpt lat="43.59622" lon="11.3909317"><ele>337.6666666666667</ele><time>2026-04-18T10:17:55.106Z</time></trkpt><trkpt lat="43.5961534" lon="11.3907251"><ele>335.0</ele><time>2026-04-18T10:17:56.106Z</time></trkpt><trkpt lat="43.5960923" lon="11.3905222"><ele>336.33333333333337</ele><time>2026-04-18T10:17:57.107Z</time></trkpt><trkpt lat="43.5960349" lon="11.3903225"><ele>337.6666666666667</ele><time>2026-04-18T10:17:58.106Z</time></trkpt><trkpt lat="43.5959754" lon="11.3901208"><ele>339.0</ele><time>2026-04-18T10:17:59.106Z</time></trkpt><trkpt lat="43.5959165" lon="11.3899173"><ele>339.0</ele><time>2026-04-18T10:18:00.106Z</time></trkpt><trkpt lat="43.595857" lon="11.3897052"><ele>339.0</ele><time>2026-04-18T10:18:01.106Z</time></trkpt><trkpt lat="43.5957918" lon="11.3894884"><ele>339.0</ele><time>2026-04-18T10:18:02.106Z</time></trkpt><trkpt lat="43.5957359" lon="11.3892792"><ele>339.3333333333333</ele><time>2026-04-18T10:18:03.106Z</time></trkpt><trkpt lat="43.5956926" lon="11.3890727"><ele>339.66666666666663</ele><time>2026-04-18T10:18:04.106Z</time></trkpt><trkpt lat="43.5956566" lon="11.388872"><ele>340.0</ele><time>2026-04-18T10:18:05.107Z</time></trkpt><trkpt lat="43.5956224" lon="11.3886777"><ele>340.0</ele><time>2026-04-18T10:18:06.107Z</time></trkpt><trkpt lat="43.595595" lon="11.3884914"><ele>340.0</ele><time>2026-04-18T10:18:07.105Z</time></trkpt><trkpt lat="43.5955763" lon="11.388301"><ele>340.0</ele><time>2026-04-18T10:18:08.107Z</time></trkpt><trkpt lat="43.5955798" lon="11.3881167"><ele>340.0</ele><time>2026-04-18T10:18:09.106Z</time></trkpt><trkpt lat="43.5956025" lon="11.3879327"><ele>340.3333333333333</ele><time>2026-04-18T10:18:10.106Z</time></trkpt><trkpt lat="43.5956437" lon="11.3877381"><ele>340.6666666666667</ele><time>2026-04-18T10:18:11.106Z</time></trkpt><trkpt lat="43.5956947" lon="11.3875193"><ele>341.0</ele><time>2026-04-18T10:18:12.106Z</time></trkpt><trkpt lat="43.5957474" lon="11.387299"><ele>341.0</ele><time>2026-04-18T10:18:13.106Z</time></trkpt><trkpt lat="43.5958037" lon="11.3870749"><ele>341.0</ele><time>2026-04-18T10:18:14.106Z</time></trkpt><trkpt lat="43.5958653" lon="11.3868462"><ele>341.0</ele><time>2026-04-18T10:18:15.106Z</time></trkpt><trkpt lat="43.5959314" lon="11.3866233"><ele>341.0</ele><time>2026-04-18T10:18:16.105Z</time></trkpt><trkpt lat="43.5960031" lon="11.3864088"><ele>341.0</ele><time>2026-04-18T10:18:17.106Z</time></trkpt><trkpt lat="43.5960701" lon="11.3862006"><ele>341.0</ele><time>2026-04-18T10:18:18.106Z</time></trkpt><trkpt lat="43.5961473" lon="11.3859992"><ele>343.6666666666667</ele><time>2026-04-18T10:18:19.106Z</time></trkpt><trkpt lat="43.5962381" lon="11.3858163"><ele>346.3333333333333</ele><time>2026-04-18T10:18:20.106Z</time></trkpt><trkpt lat="43.5963414" lon="11.3856433"><ele>349.0</ele><time>2026-04-18T10:18:21.106Z</time></trkpt><trkpt lat="43.5964531" lon="11.3854789"><ele>349.0</ele><time>2026-04-18T10:18:22.106Z</time></trkpt><trkpt lat="43.5965596" lon="11.3853205"><ele>349.0</ele><time>2026-04-18T10:18:23.106Z</time></trkpt><trkpt lat="43.5966658" lon="11.3851768"><ele>349.0</ele><time>2026-04-18T10:18:24.106Z</time></trkpt><trkpt lat="43.5967746" lon="11.3850547"><ele>349.0</ele><time>2026-04-18T10:18:25.106Z</time></trkpt><trkpt lat="43.5968828" lon="11.3849783"><ele>351.75</ele><time>2026-04-18T10:18:26.106Z</time></trkpt><trkpt lat="43.5970048" lon="11.3849418"><ele>354.5</ele><time>2026-04-18T10:18:27.106Z</time></trkpt><trkpt lat="43.5971478" lon="11.3849321"><ele>357.25</ele><time>2026-04-18T10:18:28.107Z</time></trkpt><trkpt lat="43.5973095" lon="11.3849319"><ele>360.0</ele><time>2026-04-18T10:18:29.107Z</time></trkpt><trkpt lat="43.5974798" lon="11.3849233"><ele>360.0</ele><time>2026-04-18T10:18:30.106Z</time></trkpt><trkpt lat="43.5976246" lon="11.3848993"><ele>360.0</ele><time>2026-04-18T10:18:31.106Z</time></trkpt><trkpt lat="43.5977618" lon="11.3848421"><ele>360.0</ele><time>2026-04-18T10:18:32.106Z</time></trkpt><trkpt lat="43.5978764" lon="11.3847511"><ele>360.0</ele><time>2026-04-18T10:18:33.106Z</time></trkpt><trkpt lat="43.5979752" lon="11.3846214"><ele>361.75</ele><time>2026-04-18T10:18:34.106Z</time></trkpt><trkpt lat="43.5980709" lon="11.3844974"><ele>363.5</ele><time>2026-04-18T10:18:35.106Z</time></trkpt><trkpt lat="43.5981688" lon="11.3843916"><ele>365.25</ele><time>2026-04-18T10:18:36.106Z</time></trkpt><trkpt lat="43.5982736" lon="11.3843184"><ele>367.0</ele><time>2026-04-18T10:18:37.107Z</time></trkpt><trkpt lat="43.5983839" lon="11.3842743"><ele>367.0</ele><time>2026-04-18T10:18:38.107Z</time></trkpt><trkpt lat="43.5984823" lon="11.3842254"><ele>367.0</ele><time>2026-04-18T10:18:39.106Z</time></trkpt><trkpt lat="43.5985687" lon="11.3841742"><ele>367.0</ele><time>2026-04-18T10:18:40.106Z</time></trkpt><trkpt lat="43.5986498" lon="11.3841221"><ele>367.0</ele><time>2026-04-18T10:18:41.106Z</time></trkpt><trkpt lat="43.5987264" lon="11.384065"><ele>367.0</ele><time>2026-04-18T10:18:42.107Z</time></trkpt><trkpt lat="43.5987973" lon="11.3840115"><ele>373.0</ele><time>2026-04-18T10:18:43.106Z</time></trkpt><trkpt lat="43.598895" lon="11.383936"><ele>373.0</ele><time>2026-04-18T10:18:45.107Z</time></trkpt><trkpt lat="43.5989531" lon="11.3838925"><ele>373.0</ele><time>2026-04-18T10:18:47.107Z</time></trkpt><trkpt lat="43.5990106" lon="11.383848"><ele>373.0</ele><time>2026-04-18T10:18:49.106Z</time></trkpt><trkpt lat="43.5990741" lon="11.3838062"><ele>367.0</ele><time>2026-04-18T10:18:51.106Z</time></trkpt><trkpt lat="43.5991062" lon="11.3837282"><ele>367.0</ele><time>2026-04-18T10:19:24.106Z</time></trkpt></trkseg><trkseg><trkpt lat="43.5990177" lon="11.3837601"><ele>367.0</ele><time>2026-04-18T11:29:02.101Z</time></trkpt><trkpt lat="43.598949" lon="11.3838381"><ele>367.0</ele><time>2026-04-18T11:29:04.102Z</time></trkpt><trkpt lat="43.5988694" lon="11.3838953"><ele>367.0</ele><time>2026-04-18T11:29:06.101Z</time></trkpt><trkpt lat="43.5987898" lon="11.3839671"><ele>367.0</ele><time>2026-04-18T11:29:08.102Z</time></trkpt><trkpt lat="43.5987302" lon="11.3840161"><ele>367.0</ele><time>2026-04-18T11:29:09.101Z</time></trkpt><trkpt lat="43.5986622" lon="11.3840766"><ele>367.0</ele><time>2026-04-18T11:29:10.101Z</time></trkpt><trkpt lat="43.5985711" lon="11.3841476"><ele>367.0</ele><time>2026-04-18T11:29:11.101Z</time></trkpt><trkpt lat="43.5984695" lon="11.384201"><ele>367.0</ele><time>2026-04-18T11:29:12.102Z</time></trkpt><trkpt lat="43.5983605" lon="11.3842419"><ele>367.0</ele><time>2026-04-18T11:29:13.101Z</time></trkpt><trkpt lat="43.598261" lon="11.3842947"><ele>367.0</ele><time>2026-04-18T11:29:14.101Z</time></trkpt><trkpt lat="43.5981739" lon="11.3843589"><ele>367.0</ele><time>2026-04-18T11:29:15.101Z</time></trkpt><trkpt lat="43.5980903" lon="11.3844528"><ele>367.0</ele><time>2026-04-18T11:29:16.102Z</time></trkpt><trkpt lat="43.5980127" lon="11.3845644"><ele>367.0</ele><time>2026-04-18T11:29:17.101Z</time></trkpt><trkpt lat="43.5979334" lon="11.3846793"><ele>367.0</ele><time>2026-04-18T11:29:18.102Z</time></trkpt><trkpt lat="43.5978425" lon="11.3847753"><ele>367.0</ele><time>2026-04-18T11:29:19.101Z</time></trkpt><trkpt lat="43.5977349" lon="11.3848375"><ele>365.25</ele><time>2026-04-18T11:29:20.101Z</time></trkpt><trkpt lat="43.5976107" lon="11.384878"><ele>363.5</ele><time>2026-04-18T11:29:21.101Z</time></trkpt><trkpt lat="43.5974531" lon="11.3849004"><ele>361.75</ele><time>2026-04-18T11:29:22.101Z</time></trkpt><trkpt lat="43.5973038" lon="11.3849078"><ele>360.0</ele><time>2026-04-18T11:29:23.101Z</time></trkpt><trkpt lat="43.5971555" lon="11.3849085"><ele>360.0</ele><time>2026-04-18T11:29:24.102Z</time></trkpt><trkpt lat="43.5970179" lon="11.3849207"><ele>360.0</ele><time>2026-04-18T11:29:25.101Z</time></trkpt><trkpt lat="43.5968938" lon="11.3849614"><ele>360.0</ele><time>2026-04-18T11:29:26.102Z</time></trkpt><trkpt lat="43.5967786" lon="11.3850369"><ele>360.0</ele><time>2026-04-18T11:29:27.102Z</time></trkpt><trkpt lat="43.5966799" lon="11.3851414"><ele>358.5</ele><time>2026-04-18T11:29:28.102Z</time></trkpt><trkpt lat="43.5965886" lon="11.3852594"><ele>357.0</ele><time>2026-04-18T11:29:29.101Z</time></trkpt><trkpt lat="43.5964983" lon="11.385379"><ele>355.5</ele><time>2026-04-18T11:29:30.1Z</time></trkpt><trkpt lat="43.5964102" lon="11.3855026"><ele>354.0</ele><time>2026-04-18T11:29:31.101Z</time></trkpt><trkpt lat="43.5963239" lon="11.3856265"><ele>354.0</ele><time>2026-04-18T11:29:32.101Z</time></trkpt><trkpt lat="43.5962435" lon="11.3857572"><ele>354.0</ele><time>2026-04-18T11:29:33.102Z</time></trkpt><trkpt lat="43.5961726" lon="11.3859017"><ele>354.0</ele><time>2026-04-18T11:29:34.102Z</time></trkpt><trkpt lat="43.5961122" lon="11.3860588"><ele>354.0</ele><time>2026-04-18T11:29:35.102Z</time></trkpt><trkpt lat="43.5960588" lon="11.3862242"><ele>350.75</ele><time>2026-04-18T11:29:36.102Z</time></trkpt><trkpt lat="43.5960088" lon="11.3863952"><ele>347.5</ele><time>2026-04-18T11:29:37.101Z</time></trkpt><trkpt lat="43.5959595" lon="11.3865628"><ele>344.25</ele><time>2026-04-18T11:29:38.101Z</time></trkpt><trkpt lat="43.5959133" lon="11.3867353"><ele>341.0</ele><time>2026-04-18T11:29:39.101Z</time></trkpt><trkpt lat="43.5958689" lon="11.3869076"><ele>341.0</ele><time>2026-04-18T11:29:40.1Z</time></trkpt><trkpt lat="43.5958211" lon="11.3870791"><ele>341.0</ele><time>2026-04-18T11:29:41.101Z</time></trkpt><trkpt lat="43.5957705" lon="11.3872448"><ele>341.0</ele><time>2026-04-18T11:29:42.101Z</time></trkpt><trkpt lat="43.5957215" lon="11.3874081"><ele>341.0</ele><time>2026-04-18T11:29:43.102Z</time></trkpt><trkpt lat="43.5956754" lon="11.3875765"><ele>341.0</ele><time>2026-04-18T11:29:44.101Z</time></trkpt><trkpt lat="43.5956312" lon="11.3877448"><ele>341.0</ele><time>2026-04-18T11:29:45.101Z</time></trkpt><trkpt lat="43.5955946" lon="11.3879151"><ele>341.0</ele><time>2026-04-18T11:29:46.102Z</time></trkpt><trkpt lat="43.5955722" lon="11.3880874"><ele>341.0</ele><time>2026-04-18T11:29:47.101Z</time></trkpt><trkpt lat="43.5955645" lon="11.3882597"><ele>341.0</ele><time>2026-04-18T11:29:48.101Z</time></trkpt><trkpt lat="43.5955767" lon="11.3884351"><ele>341.0</ele><time>2026-04-18T11:29:49.101Z</time></trkpt><trkpt lat="43.5955967" lon="11.3886085"><ele>341.0</ele><time>2026-04-18T11:29:50.101Z</time></trkpt><trkpt lat="43.5956216" lon="11.3887788"><ele>341.0</ele><time>2026-04-18T11:29:51.101Z</time></trkpt><trkpt lat="43.595654" lon="11.3889511"><ele>341.0</ele><time>2026-04-18T11:29:52.101Z</time></trkpt><trkpt lat="43.5956885" lon="11.3891276"><ele>341.0</ele><time>2026-04-18T11:29:53.101Z</time></trkpt><trkpt lat="43.5957322" lon="11.3893038"><ele>341.0</ele><time>2026-04-18T11:29:54.102Z</time></trkpt><trkpt lat="43.5957841" lon="11.3894844"><ele>341.0</ele><time>2026-04-18T11:29:55.101Z</time></trkpt><trkpt lat="43.59584" lon="11.3896659"><ele>340.33333333333337</ele><time>2026-04-18T11:29:56.101Z</time></trkpt><trkpt lat="43.595898" lon="11.3898687"><ele>339.6666666666667</ele><time>2026-04-18T11:29:57.101Z</time></trkpt><trkpt lat="43.5959764" lon="11.390126"><ele>339.0</ele><time>2026-04-18T11:29:58.101Z</time></trkpt><trkpt lat="43.5960484" lon="11.3903704"><ele>337.6666666666667</ele><time>2026-04-18T11:29:59.101Z</time></trkpt><trkpt lat="43.5961101" lon="11.3906009"><ele>336.33333333333337</ele><time>2026-04-18T11:30:00.102Z</time></trkpt><trkpt lat="43.5961773" lon="11.3908365"><ele>335.0</ele><time>2026-04-18T11:30:01.102Z</time></trkpt><trkpt lat="43.596261" lon="11.3910886"><ele>337.6666666666667</ele><time>2026-04-18T11:30:02.102Z</time></trkpt><trkpt lat="43.5963513" lon="11.3913361"><ele>340.3333333333333</ele><time>2026-04-18T11:30:03.101Z</time></trkpt><trkpt lat="43.5964428" lon="11.391592"><ele>343.0</ele><time>2026-04-18T11:30:04.102Z</time></trkpt><trkpt lat="43.596532" lon="11.3918265"><ele>343.0</ele><time>2026-04-18T11:30:05.101Z</time></trkpt><trkpt lat="43.5966146" lon="11.3920612"><ele>343.0</ele><time>2026-04-18T11:30:06.101Z</time></trkpt><trkpt lat="43.5966929" lon="11.3922782"><ele>343.0</ele><time>2026-04-18T11:30:07.101Z</time></trkpt><trkpt lat="43.5967718" lon="11.3924866"><ele>339.66666666666663</ele><time>2026-04-18T11:30:08.101Z</time></trkpt><trkpt lat="43.5968525" lon="11.3926889"><ele>336.3333333333333</ele><time>2026-04-18T11:30:09.101Z</time></trkpt><trkpt lat="43.5969384" lon="11.3928891"><ele>333.0</ele><time>2026-04-18T11:30:10.102Z</time></trkpt><trkpt lat="43.5970329" lon="11.3930616"><ele>332.6666666666667</ele><time>2026-04-18T11:30:11.101Z</time></trkpt><trkpt lat="43.5971283" lon="11.3932283"><ele>332.33333333333337</ele><time>2026-04-18T11:30:12.101Z</time></trkpt><trkpt lat="43.5972669" lon="11.3933642"><ele>332.0</ele><time>2026-04-18T11:30:13.101Z</time></trkpt><trkpt lat="43.5974038" lon="11.3934743"><ele>332.0</ele><time>2026-04-18T11:30:14.101Z</time></trkpt><trkpt lat="43.5975309" lon="11.3935685"><ele>332.0</ele><time>2026-04-18T11:30:15.101Z</time></trkpt><trkpt lat="43.5976459" lon="11.3936579"><ele>332.0</ele><time>2026-04-18T11:30:16.101Z</time></trkpt><trkpt lat="43.5977524" lon="11.3937481"><ele>332.0</ele><time>2026-04-18T11:30:17.102Z</time></trkpt><trkpt lat="43.5978324" lon="11.3938682"><ele>331.0</ele><time>2026-04-18T11:30:18.102Z</time></trkpt><trkpt lat="43.5979035" lon="11.3939892"><ele>330.0</ele><time>2026-04-18T11:30:19.102Z</time></trkpt><trkpt lat="43.5979303" lon="11.3941479"><ele>329.0</ele><time>2026-04-18T11:30:20.101Z</time></trkpt><trkpt lat="43.597958" lon="11.3943109"><ele>328.0</ele><time>2026-04-18T11:30:21.101Z</time></trkpt><trkpt lat="43.5979783" lon="11.3944741"><ele>328.0</ele><time>2026-04-18T11:30:22.102Z</time></trkpt><trkpt lat="43.5979878" lon="11.3946242"><ele>328.0</ele><time>2026-04-18T11:30:23.101Z</time></trkpt><trkpt lat="43.5979949" lon="11.3947473"><ele>328.0</ele><time>2026-04-18T11:30:24.102Z</time></trkpt><trkpt lat="43.5980081" lon="11.3948384"><ele>328.0</ele><time>2026-04-18T11:30:25.101Z</time></trkpt><trkpt lat="43.5980783" lon="11.3949095"><ele>328.0</ele><time>2026-04-18T11:30:27.102Z</time></trkpt><trkpt lat="43.5981474" lon="11.394852"><ele>328.0</ele><time>2026-04-18T11:30:30.102Z</time></trkpt><trkpt lat="43.5981339" lon="11.3947657"><ele>328.0</ele><time>2026-04-18T11:30:34.102Z</time></trkpt><trkpt lat="43.5981486" lon="11.394662"><ele>328.0</ele><time>2026-04-18T11:30:36.101Z</time></trkpt><trkpt lat="43.5981758" lon="11.3945311"><ele>328.0</ele><time>2026-04-18T11:30:38.101Z</time></trkpt><trkpt lat="43.5982158" lon="11.394399"><ele>328.0</ele><time>2026-04-18T11:30:40.101Z</time></trkpt><trkpt lat="43.5982644" lon="11.3942772"><ele>328.0</ele><time>2026-04-18T11:30:42.101Z</time></trkpt><trkpt lat="43.5983196" lon="11.3941417"><ele>328.0</ele><time>2026-04-18T11:30:44.102Z</time></trkpt><trkpt lat="43.5983416" lon="11.3940502"><ele>328.0</ele><time>2026-04-18T11:30:46.101Z</time></trkpt><trkpt lat="43.5983695" lon="11.3939664"><ele>328.0</ele><time>2026-04-18T11:33:18.1Z</time></trkpt><trkpt lat="43.5983955" lon="11.3938822"><ele>328.0</ele><time>2026-04-18T11:33:28.1Z</time></trkpt><trkpt lat="43.5984627" lon="11.3937747"><ele>328.0</ele><time>2026-04-18T11:33:29.1Z</time></trkpt><trkpt lat="43.598516" lon="11.393628"><ele>328.0</ele><time>2026-04-18T11:33:30.1Z</time></trkpt><trkpt lat="43.5985584" lon="11.3935027"><ele>327.79999999999995</ele><time>2026-04-18T11:33:31.101Z</time></trkpt><trkpt lat="43.5985859" lon="11.3933675"><ele>327.6</ele><time>2026-04-18T11:33:32.1Z</time></trkpt><trkpt lat="43.5986061" lon="11.393245"><ele>327.4</ele><time>2026-04-18T11:33:33.1Z</time></trkpt><trkpt lat="43.5986964" lon="11.3931008"><ele>327.20000000000005</ele><time>2026-04-18T11:33:35.1Z</time></trkpt><trkpt lat="43.598757" lon="11.3930152"><ele>327.0</ele><time>2026-04-18T11:33:36.1Z</time></trkpt><trkpt lat="43.5988541" lon="11.3929412"><ele>327.8</ele><time>2026-04-18T11:33:37.099Z</time></trkpt><trkpt lat="43.5989138" lon="11.3928804"><ele>328.6</ele><time>2026-04-18T11:33:38.1Z</time></trkpt><trkpt lat="43.598994" lon="11.39282"><ele>329.40000000000003</ele><time>2026-04-18T11:33:39.1Z</time></trkpt><trkpt lat="43.5990803" lon="11.3927512"><ele>330.20000000000005</ele><time>2026-04-18T11:33:40.1Z</time></trkpt><trkpt lat="43.5991659" lon="11.392682"><ele>331.0</ele><time>2026-04-18T11:33:41.101Z</time></trkpt><trkpt lat="43.5992327" lon="11.3925634"><ele>331.0</ele><time>2026-04-18T11:33:42.1Z</time></trkpt><trkpt lat="43.5992986" lon="11.3924685"><ele>331.0</ele><time>2026-04-18T11:33:43.1Z</time></trkpt><trkpt lat="43.5993603" lon="11.3923398"><ele>331.0</ele><time>2026-04-18T11:33:44.1Z</time></trkpt><trkpt lat="43.5994317" lon="11.3922026"><ele>331.0</ele><time>2026-04-18T11:33:45.1Z</time></trkpt><trkpt lat="43.5994929" lon="11.3920636"><ele>331.0</ele><time>2026-04-18T11:33:46.1Z</time></trkpt><trkpt lat="43.5994758" lon="11.391934"><ele>331.16666666666663</ele><time>2026-04-18T11:33:47.1Z</time></trkpt><trkpt lat="43.5994874" lon="11.3917988"><ele>331.3333333333333</ele><time>2026-04-18T11:33:48.101Z</time></trkpt><trkpt lat="43.5995125" lon="11.3917054"><ele>331.5</ele><time>2026-04-18T11:33:49.1Z</time></trkpt><trkpt lat="43.5995571" lon="11.3916127"><ele>331.6666666666667</ele><time>2026-04-18T11:33:50.101Z</time></trkpt><trkpt lat="43.5995843" lon="11.3915233"><ele>331.83333333333337</ele><time>2026-04-18T11:33:51.1Z</time></trkpt><trkpt lat="43.5996184" lon="11.3914349"><ele>332.0</ele><time>2026-04-18T11:33:52.1Z</time></trkpt><trkpt lat="43.5996677" lon="11.3913352"><ele>333.40000000000003</ele><time>2026-04-18T11:33:53.1Z</time></trkpt><trkpt lat="43.5997079" lon="11.3912033"><ele>334.8</ele><time>2026-04-18T11:33:54.1Z</time></trkpt><trkpt lat="43.5997493" lon="11.3910708"><ele>336.2</ele><time>2026-04-18T11:33:55.1Z</time></trkpt><trkpt lat="43.5997977" lon="11.3909627"><ele>337.6</ele><time>2026-04-18T11:33:56.1Z</time></trkpt><trkpt lat="43.5998363" lon="11.3908559"><ele>339.0</ele><time>2026-04-18T11:33:57.1Z</time></trkpt><trkpt lat="43.5998901" lon="11.39075"><ele>339.0</ele><time>2026-04-18T11:33:58.1Z</time></trkpt><trkpt lat="43.5999324" lon="11.3906288"><ele>339.0</ele><time>2026-04-18T11:33:59.101Z</time></trkpt><trkpt lat="43.5999815" lon="11.390513"><ele>339.0</ele><time>2026-04-18T11:34:00.1Z</time></trkpt><trkpt lat="43.6000206" lon="11.3904001"><ele>339.0</ele><time>2026-04-18T11:34:01.1Z</time></trkpt><trkpt lat="43.6000822" lon="11.3902566"><ele>339.0</ele><time>2026-04-18T11:34:03.1Z</time></trkpt><trkpt lat="43.6001448" lon="11.3901804"><ele>339.8333333333333</ele><time>2026-04-18T11:34:06.101Z</time></trkpt><trkpt lat="43.6001643" lon="11.3900911"><ele>340.6666666666667</ele><time>2026-04-18T11:34:08.1Z</time></trkpt><trkpt lat="43.6002203" lon="11.3900303"><ele>341.5</ele><time>2026-04-18T11:34:10.1Z</time></trkpt><trkpt lat="43.6002885" lon="11.3899972"><ele>342.33333333333337</ele><time>2026-04-18T11:34:12.1Z</time></trkpt><trkpt lat="43.6004196" lon="11.3899196"><ele>343.1666666666667</ele><time>2026-04-18T11:34:14.1Z</time></trkpt><trkpt lat="43.600499" lon="11.3898758"><ele>344.0</ele><time>2026-04-18T11:34:15.1Z</time></trkpt><trkpt lat="43.6005705" lon="11.3898436"><ele>344.0</ele><time>2026-04-18T11:34:16.101Z</time></trkpt><trkpt lat="43.6006934" lon="11.3897645"><ele>344.0</ele><time>2026-04-18T11:34:18.1Z</time></trkpt><trkpt lat="43.6007612" lon="11.3897151"><ele>344.0</ele><time>2026-04-18T11:34:19.1Z</time></trkpt><trkpt lat="43.6008258" lon="11.3896261"><ele>344.0</ele><time>2026-04-18T11:34:20.101Z</time></trkpt><trkpt lat="43.6008926" lon="11.3895731"><ele>344.0</ele><time>2026-04-18T11:34:21.1Z</time></trkpt><trkpt lat="43.6009531" lon="11.3895266"><ele>343.79999999999995</ele><time>2026-04-18T11:34:22.1Z</time></trkpt><trkpt lat="43.6010552" lon="11.3894667"><ele>343.59999999999997</ele><time>2026-04-18T11:34:24.1Z</time></trkpt><trkpt lat="43.6011508" lon="11.389458"><ele>343.4</ele><time>2026-04-18T11:34:26.099Z</time></trkpt><trkpt lat="43.6012248" lon="11.3894205"><ele>343.2</ele><time>2026-04-18T11:34:28.1Z</time></trkpt><trkpt lat="43.6013212" lon="11.3893513"><ele>343.0</ele><time>2026-04-18T11:34:30.101Z</time></trkpt><trkpt lat="43.6013758" lon="11.3892805"><ele>343.0</ele><time>2026-04-18T11:34:32.1Z</time></trkpt><trkpt lat="43.6014444" lon="11.3891491"><ele>343.0</ele><time>2026-04-18T11:34:34.1Z</time></trkpt><trkpt lat="43.6014856" lon="11.389072"><ele>343.0</ele><time>2026-04-18T11:34:35.1Z</time></trkpt><trkpt lat="43.6015347" lon="11.3890081"><ele>343.0</ele><time>2026-04-18T11:34:36.1Z</time></trkpt><trkpt lat="43.60158" lon="11.3889289"><ele>343.0</ele><time>2026-04-18T11:34:37.101Z</time></trkpt><trkpt lat="43.6016256" lon="11.3888531"><ele>343.0</ele><time>2026-04-18T11:34:38.1Z</time></trkpt><trkpt lat="43.6016687" lon="11.3887818"><ele>344.16666666666663</ele><time>2026-04-18T11:34:39.1Z</time></trkpt><trkpt lat="43.6017095" lon="11.3887116"><ele>345.3333333333333</ele><time>2026-04-18T11:34:40.1Z</time></trkpt><trkpt lat="43.6017888" lon="11.3886158"><ele>346.5</ele><time>2026-04-18T11:34:42.1Z</time></trkpt><trkpt lat="43.6018422" lon="11.3885291"><ele>347.6666666666667</ele><time>2026-04-18T11:34:44.101Z</time></trkpt><trkpt lat="43.6018765" lon="11.3884149"><ele>348.83333333333337</ele><time>2026-04-18T11:34:46.1Z</time></trkpt><trkpt lat="43.6019319" lon="11.3883257"><ele>350.0</ele><time>2026-04-18T11:34:48.1Z</time></trkpt><trkpt lat="43.6020295" lon="11.3882185"><ele>350.4</ele><time>2026-04-18T11:34:50.101Z</time></trkpt><trkpt lat="43.6021161" lon="11.388099"><ele>350.8</ele><time>2026-04-18T11:34:52.099Z</time></trkpt><trkpt lat="43.6022095" lon="11.3880352"><ele>351.20000000000005</ele><time>2026-04-18T11:34:54.1Z</time></trkpt><trkpt lat="43.6022771" lon="11.3879835"><ele>351.6</ele><time>2026-04-18T11:34:55.1Z</time></trkpt><trkpt lat="43.6023507" lon="11.3879669"><ele>352.0</ele><time>2026-04-18T11:34:56.1Z</time></trkpt><trkpt lat="43.6025215" lon="11.3879244"><ele>352.0</ele><time>2026-04-18T11:34:58.101Z</time></trkpt><trkpt lat="43.6026326" lon="11.3878811"><ele>352.0</ele><time>2026-04-18T11:34:59.101Z</time></trkpt><trkpt lat="43.6027497" lon="11.3878146"><ele>352.0</ele><time>2026-04-18T11:35:00.1Z</time></trkpt><trkpt lat="43.60285" lon="11.3877444"><ele>352.0</ele><time>2026-04-18T11:35:01.101Z</time></trkpt><trkpt lat="43.602966" lon="11.3876678"><ele>352.0</ele><time>2026-04-18T11:35:02.1Z</time></trkpt><trkpt lat="43.6030727" lon="11.3875932"><ele>352.0</ele><time>2026-04-18T11:35:03.101Z</time></trkpt><trkpt lat="43.6031813" lon="11.3875184"><ele>352.0</ele><time>2026-04-18T11:35:04.101Z</time></trkpt><trkpt lat="43.6032479" lon="11.3874662"><ele>352.0</ele><time>2026-04-18T11:35:05.101Z</time></trkpt><trkpt lat="43.6033079" lon="11.3874099"><ele>352.0</ele><time>2026-04-18T11:35:06.101Z</time></trkpt><trkpt lat="43.6033749" lon="11.3873565"><ele>352.0</ele><time>2026-04-18T11:35:07.1Z</time></trkpt><trkpt lat="43.603463" lon="11.3872917"><ele>352.0</ele><time>2026-04-18T11:35:08.101Z</time></trkpt><trkpt lat="43.6035596" lon="11.3872259"><ele>352.0</ele><time>2026-04-18T11:35:09.101Z</time></trkpt><trkpt lat="43.6036422" lon="11.3871546"><ele>352.0</ele><time>2026-04-18T11:35:10.1Z</time></trkpt><trkpt lat="43.6037083" lon="11.3870813"><ele>352.0</ele><time>2026-04-18T11:35:11.1Z</time></trkpt><trkpt lat="43.6037843" lon="11.3870147"><ele>353.0</ele><time>2026-04-18T11:35:12.1Z</time></trkpt><trkpt lat="43.6038599" lon="11.3869456"><ele>354.0</ele><time>2026-04-18T11:35:13.1Z</time></trkpt><trkpt lat="43.6039222" lon="11.3868707"><ele>355.0</ele><time>2026-04-18T11:35:14.101Z</time></trkpt><trkpt lat="43.6039933" lon="11.3867871"><ele>356.0</ele><time>2026-04-18T11:35:15.1Z</time></trkpt><trkpt lat="43.6040754" lon="11.3866894"><ele>357.0</ele><time>2026-04-18T11:35:16.1Z</time></trkpt><trkpt lat="43.6041587" lon="11.3866093"><ele>357.0</ele><time>2026-04-18T11:35:17.1Z</time></trkpt><trkpt lat="43.6042408" lon="11.3865543"><ele>357.0</ele><time>2026-04-18T11:35:18.1Z</time></trkpt><trkpt lat="43.6043119" lon="11.3864996"><ele>357.0</ele><time>2026-04-18T11:35:19.101Z</time></trkpt><trkpt lat="43.6043816" lon="11.3864369"><ele>357.0</ele><time>2026-04-18T11:35:20.1Z</time></trkpt><trkpt lat="43.6044506" lon="11.3863743"><ele>357.0</ele><time>2026-04-18T11:35:21.1Z</time></trkpt><trkpt lat="43.6045028" lon="11.386325"><ele>357.0</ele><time>2026-04-18T11:35:22.1Z</time></trkpt><trkpt lat="43.6045801" lon="11.3862029"><ele>356.40000000000003</ele><time>2026-04-18T11:35:24.1Z</time></trkpt><trkpt lat="43.6046748" lon="11.386072"><ele>355.8</ele><time>2026-04-18T11:35:26.1Z</time></trkpt><trkpt lat="43.6047404" lon="11.3860026"><ele>355.2</ele><time>2026-04-18T11:35:27.101Z</time></trkpt><trkpt lat="43.6047969" lon="11.3859228"><ele>354.6</ele><time>2026-04-18T11:35:28.1Z</time></trkpt><trkpt lat="43.6048638" lon="11.3858242"><ele>354.0</ele><time>2026-04-18T11:35:29.1Z</time></trkpt><trkpt lat="43.604927" lon="11.3857282"><ele>354.0</ele><time>2026-04-18T11:35:30.1Z</time></trkpt><trkpt lat="43.6049945" lon="11.3856273"><ele>354.0</ele><time>2026-04-18T11:35:31.1Z</time></trkpt><trkpt lat="43.6050526" lon="11.3855303"><ele>354.0</ele><time>2026-04-18T11:35:32.1Z</time></trkpt><trkpt lat="43.6051062" lon="11.3854508"><ele>354.0</ele><time>2026-04-18T11:35:33.1Z</time></trkpt><trkpt lat="43.6051535" lon="11.3853271"><ele>354.0</ele><time>2026-04-18T11:35:34.1Z</time></trkpt><trkpt lat="43.6052" lon="11.3852356"><ele>354.0</ele><time>2026-04-18T11:35:35.1Z</time></trkpt><trkpt lat="43.605257" lon="11.3851338"><ele>354.0</ele><time>2026-04-18T11:35:36.1Z</time></trkpt><trkpt lat="43.6052793" lon="11.3849703"><ele>354.0</ele><time>2026-04-18T11:35:37.1Z</time></trkpt><trkpt lat="43.605316" lon="11.384827"><ele>354.0</ele><time>2026-04-18T11:35:38.1Z</time></trkpt><trkpt lat="43.6053481" lon="11.38473"><ele>354.0</ele><time>2026-04-18T11:35:39.1Z</time></trkpt><trkpt lat="43.6053836" lon="11.3846217"><ele>354.5</ele><time>2026-04-18T11:35:40.1Z</time></trkpt><trkpt lat="43.6054578" lon="11.3845605"><ele>355.0</ele><time>2026-04-18T11:35:41.1Z</time></trkpt><trkpt lat="43.6055232" lon="11.3845084"><ele>355.5</ele><time>2026-04-18T11:35:42.101Z</time></trkpt><trkpt lat="43.6055987" lon="11.38446"><ele>356.0</ele><time>2026-04-18T11:35:43.101Z</time></trkpt><trkpt lat="43.6056866" lon="11.3844551"><ele>356.5</ele><time>2026-04-18T11:35:44.1Z</time></trkpt><trkpt lat="43.6057648" lon="11.3844278"><ele>357.0</ele><time>2026-04-18T11:35:45.1Z</time></trkpt><trkpt lat="43.6058517" lon="11.3844103"><ele>357.0</ele><time>2026-04-18T11:35:48.1Z</time></trkpt><trkpt lat="43.6059433" lon="11.384394"><ele>357.0</ele><time>2026-04-18T11:35:50.1Z</time></trkpt><trkpt lat="43.6060773" lon="11.3843586"><ele>357.0</ele><time>2026-04-18T11:35:52.1Z</time></trkpt><trkpt lat="43.6061403" lon="11.3843452"><ele>357.0</ele><time>2026-04-18T11:35:53.1Z</time></trkpt><trkpt lat="43.606216" lon="11.3843098"><ele>357.0</ele><time>2026-04-18T11:35:54.1Z</time></trkpt><trkpt lat="43.6063148" lon="11.3842557"><ele>357.5</ele><time>2026-04-18T11:35:55.1Z</time></trkpt><trkpt lat="43.6063989" lon="11.384192"><ele>358.0</ele><time>2026-04-18T11:35:56.1Z</time></trkpt><trkpt lat="43.6064733" lon="11.3841184"><ele>358.5</ele><time>2026-04-18T11:35:57.101Z</time></trkpt><trkpt lat="43.6065403" lon="11.3840601"><ele>359.0</ele><time>2026-04-18T11:35:58.1Z</time></trkpt><trkpt lat="43.6065903" lon="11.3839868"><ele>359.5</ele><time>2026-04-18T11:35:59.101Z</time></trkpt><trkpt lat="43.6066552" lon="11.3838906"><ele>360.0</ele><time>2026-04-18T11:36:00.1Z</time></trkpt><trkpt lat="43.6067216" lon="11.3837929"><ele>360.4</ele><time>2026-04-18T11:36:01.1Z</time></trkpt><trkpt lat="43.6067808" lon="11.3836964"><ele>360.8</ele><time>2026-04-18T11:36:02.101Z</time></trkpt><trkpt lat="43.6068224" lon="11.3835831"><ele>361.20000000000005</ele><time>2026-04-18T11:36:03.1Z</time></trkpt><trkpt lat="43.6068525" lon="11.3834684"><ele>361.6</ele><time>2026-04-18T11:36:04.1Z</time></trkpt><trkpt lat="43.6068646" lon="11.3833407"><ele>362.0</ele><time>2026-04-18T11:36:05.099Z</time></trkpt><trkpt lat="43.6068799" lon="11.3832238"><ele>362.0</ele><time>2026-04-18T11:36:06.1Z</time></trkpt><trkpt lat="43.6068846" lon="11.3831357"><ele>362.0</ele><time>2026-04-18T11:36:07.1Z</time></trkpt><trkpt lat="43.6069224" lon="11.3830296"><ele>362.0</ele><time>2026-04-18T11:36:09.1Z</time></trkpt><trkpt lat="43.6069553" lon="11.3829522"><ele>362.0</ele><time>2026-04-18T11:36:11.1Z</time></trkpt><trkpt lat="43.6070017" lon="11.3828302"><ele>362.0</ele><time>2026-04-18T11:36:13.1Z</time></trkpt><trkpt lat="43.6070292" lon="11.3827447"><ele>362.0</ele><time>2026-04-18T11:36:14.101Z</time></trkpt><trkpt lat="43.6070599" lon="11.3826378"><ele>361.6</ele><time>2026-04-18T11:36:15.1Z</time></trkpt><trkpt lat="43.6071" lon="11.3825393"><ele>361.20000000000005</ele><time>2026-04-18T11:36:16.1Z</time></trkpt><trkpt lat="43.6071496" lon="11.3824825"><ele>360.8</ele><time>2026-04-18T11:36:17.1Z</time></trkpt><trkpt lat="43.6072369" lon="11.382395"><ele>360.4</ele><time>2026-04-18T11:36:19.1Z</time></trkpt><trkpt lat="43.6073161" lon="11.3823079"><ele>360.0</ele><time>2026-04-18T11:36:21.101Z</time></trkpt><trkpt lat="43.6073318" lon="11.3821745"><ele>360.0</ele><time>2026-04-18T11:36:23.101Z</time></trkpt><trkpt lat="43.6073458" lon="11.3820446"><ele>360.0</ele><time>2026-04-18T11:36:24.101Z</time></trkpt><trkpt lat="43.6073676" lon="11.3818918"><ele>360.0</ele><time>2026-04-18T11:36:25.1Z</time></trkpt><trkpt lat="43.6073853" lon="11.3817592"><ele>360.0</ele><time>2026-04-18T11:36:26.101Z</time></trkpt><trkpt lat="43.6074184" lon="11.3816007"><ele>360.0</ele><time>2026-04-18T11:36:28.1Z</time></trkpt><trkpt lat="43.6074466" lon="11.381507"><ele>360.0</ele><time>2026-04-18T11:36:29.101Z</time></trkpt><trkpt lat="43.6074784" lon="11.3813844"><ele>360.0</ele><time>2026-04-18T11:36:30.1Z</time></trkpt><trkpt lat="43.6075177" lon="11.3812744"><ele>360.0</ele><time>2026-04-18T11:36:31.1Z</time></trkpt><trkpt lat="43.6075736" lon="11.3811833"><ele>360.0</ele><time>2026-04-18T11:36:32.1Z</time></trkpt><trkpt lat="43.6076536" lon="11.3810501"><ele>360.0</ele><time>2026-04-18T11:36:34.099Z</time></trkpt><trkpt lat="43.6077013" lon="11.3809891"><ele>360.8</ele><time>2026-04-18T11:36:35.101Z</time></trkpt><trkpt lat="43.607771" lon="11.3808525"><ele>361.6</ele><time>2026-04-18T11:36:37.1Z</time></trkpt><trkpt lat="43.6078395" lon="11.3807053"><ele>362.4</ele><time>2026-04-18T11:36:39.1Z</time></trkpt><trkpt lat="43.607875" lon="11.3806143"><ele>363.2</ele><time>2026-04-18T11:36:40.1Z</time></trkpt><trkpt lat="43.60789" lon="11.3804666"><ele>364.0</ele><time>2026-04-18T11:36:41.1Z</time></trkpt><trkpt lat="43.6079223" lon="11.3803111"><ele>366.79999999999995</ele><time>2026-04-18T11:36:42.101Z</time></trkpt><trkpt lat="43.6079353" lon="11.3801575"><ele>369.59999999999997</ele><time>2026-04-18T11:36:43.101Z</time></trkpt><trkpt lat="43.6079428" lon="11.379981"><ele>372.4</ele><time>2026-04-18T11:36:44.101Z</time></trkpt><trkpt lat="43.6079393" lon="11.379853"><ele>375.2</ele><time>2026-04-18T11:36:45.1Z</time></trkpt><trkpt lat="43.6079123" lon="11.3797638"><ele>378.0</ele><time>2026-04-18T11:36:46.101Z</time></trkpt><trkpt lat="43.6079078" lon="11.3796703"><ele>378.1666666666667</ele><time>2026-04-18T11:36:47.1Z</time></trkpt><trkpt lat="43.6078733" lon="11.379592"><ele>378.3333333333333</ele><time>2026-04-18T11:36:48.101Z</time></trkpt><trkpt lat="43.607846" lon="11.3795089"><ele>378.5</ele><time>2026-04-18T11:36:49.101Z</time></trkpt><trkpt lat="43.6077988" lon="11.3793565"><ele>378.66666666666663</ele><time>2026-04-18T11:36:51.101Z</time></trkpt><trkpt lat="43.6078086" lon="11.3792366"><ele>378.8333333333333</ele><time>2026-04-18T11:36:52.101Z</time></trkpt><trkpt lat="43.6078025" lon="11.3791311"><ele>379.0</ele><time>2026-04-18T11:36:53.1Z</time></trkpt><trkpt lat="43.6078082" lon="11.379028"><ele>379.6</ele><time>2026-04-18T11:36:54.1Z</time></trkpt><trkpt lat="43.6078221" lon="11.3789125"><ele>380.2</ele><time>2026-04-18T11:36:55.1Z</time></trkpt><trkpt lat="43.607831" lon="11.378801"><ele>380.8</ele><time>2026-04-18T11:36:56.1Z</time></trkpt><trkpt lat="43.6078472" lon="11.378664"><ele>381.40000000000003</ele><time>2026-04-18T11:36:57.1Z</time></trkpt><trkpt lat="43.6078658" lon="11.3785281"><ele>382.0</ele><time>2026-04-18T11:36:58.1Z</time></trkpt><trkpt lat="43.6078865" lon="11.3784051"><ele>382.0</ele><time>2026-04-18T11:36:59.1Z</time></trkpt><trkpt lat="43.6079068" lon="11.3782932"><ele>382.0</ele><time>2026-04-18T11:37:00.101Z</time></trkpt><trkpt lat="43.6079135" lon="11.3781704"><ele>382.0</ele><time>2026-04-18T11:37:01.101Z</time></trkpt><trkpt lat="43.6079387" lon="11.3780435"><ele>382.0</ele><time>2026-04-18T11:37:02.1Z</time></trkpt><trkpt lat="43.6079815" lon="11.3779397"><ele>382.0</ele><time>2026-04-18T11:37:03.1Z</time></trkpt><trkpt lat="43.6080738" lon="11.3778153"><ele>380.6</ele><time>2026-04-18T11:37:05.1Z</time></trkpt><trkpt lat="43.608117" lon="11.3777264"><ele>379.20000000000005</ele><time>2026-04-18T11:37:06.1Z</time></trkpt><trkpt lat="43.6081683" lon="11.3776474"><ele>377.8</ele><time>2026-04-18T11:37:07.1Z</time></trkpt><trkpt lat="43.6082565" lon="11.3775033"><ele>376.4</ele><time>2026-04-18T11:37:08.1Z</time></trkpt><trkpt lat="43.6083154" lon="11.3774025"><ele>375.0</ele><time>2026-04-18T11:37:09.1Z</time></trkpt><trkpt lat="43.6083704" lon="11.3773178"><ele>375.0</ele><time>2026-04-18T11:37:10.1Z</time></trkpt><trkpt lat="43.6084207" lon="11.3772145"><ele>375.0</ele><time>2026-04-18T11:37:11.1Z</time></trkpt><trkpt lat="43.608482" lon="11.3771012"><ele>375.0</ele><time>2026-04-18T11:37:12.101Z</time></trkpt><trkpt lat="43.6085512" lon="11.376969"><ele>375.0</ele><time>2026-04-18T11:37:13.1Z</time></trkpt><trkpt lat="43.6086089" lon="11.3768103"><ele>375.0</ele><time>2026-04-18T11:37:14.1Z</time></trkpt><trkpt lat="43.6086817" lon="11.3766753"><ele>376.8</ele><time>2026-04-18T11:37:15.1Z</time></trkpt><trkpt lat="43.6087456" lon="11.3765565"><ele>378.6</ele><time>2026-04-18T11:37:16.1Z</time></trkpt><trkpt lat="43.6088277" lon="11.3764289"><ele>380.4</ele><time>2026-04-18T11:37:17.101Z</time></trkpt><trkpt lat="43.6088787" lon="11.3762637"><ele>382.2</ele><time>2026-04-18T11:37:18.101Z</time></trkpt><trkpt lat="43.6089266" lon="11.3761764"><ele>384.0</ele><time>2026-04-18T11:37:19.1Z</time></trkpt><trkpt lat="43.6089611" lon="11.3760281"><ele>384.0</ele><time>2026-04-18T11:37:20.1Z</time></trkpt><trkpt lat="43.608991" lon="11.3759129"><ele>384.0</ele><time>2026-04-18T11:37:21.101Z</time></trkpt><trkpt lat="43.6090126" lon="11.3757898"><ele>384.0</ele><time>2026-04-18T11:37:22.1Z</time></trkpt><trkpt lat="43.6090274" lon="11.3756932"><ele>384.0</ele><time>2026-04-18T11:37:23.099Z</time></trkpt><trkpt lat="43.609066" lon="11.3756174"><ele>384.0</ele><time>2026-04-18T11:37:24.1Z</time></trkpt><trkpt lat="43.609087" lon="11.3755174"><ele>384.0</ele><time>2026-04-18T11:37:25.101Z</time></trkpt><trkpt lat="43.6091158" lon="11.3754142"><ele>383.6</ele><time>2026-04-18T11:37:26.1Z</time></trkpt><trkpt lat="43.6091212" lon="11.3752859"><ele>383.2</ele><time>2026-04-18T11:37:27.101Z</time></trkpt><trkpt lat="43.6091354" lon="11.3751501"><ele>382.8</ele><time>2026-04-18T11:37:28.1Z</time></trkpt><trkpt lat="43.6091481" lon="11.375028"><ele>382.40000000000003</ele><time>2026-04-18T11:37:29.101Z</time></trkpt><trkpt lat="43.6091809" lon="11.3748958"><ele>382.0</ele><time>2026-04-18T11:37:30.1Z</time></trkpt><trkpt lat="43.6092367" lon="11.3747144"><ele>381.6</ele><time>2026-04-18T11:37:32.1Z</time></trkpt><trkpt lat="43.609288" lon="11.374652"><ele>381.20000000000005</ele><time>2026-04-18T11:37:33.101Z</time></trkpt><trkpt lat="43.6093235" lon="11.3745537"><ele>380.8</ele><time>2026-04-18T11:37:34.1Z</time></trkpt><trkpt lat="43.6093539" lon="11.3744639"><ele>380.4</ele><time>2026-04-18T11:37:35.1Z</time></trkpt><trkpt lat="43.6094371" lon="11.3743428"><ele>380.0</ele><time>2026-04-18T11:37:37.1Z</time></trkpt><trkpt lat="43.6095092" lon="11.3742237"><ele>380.0</ele><time>2026-04-18T11:37:39.1Z</time></trkpt><trkpt lat="43.6095273" lon="11.3740755"><ele>380.0</ele><time>2026-04-18T11:37:41.101Z</time></trkpt><trkpt lat="43.6095239" lon="11.3739451"><ele>380.0</ele><time>2026-04-18T11:37:43.1Z</time></trkpt><trkpt lat="43.6095112" lon="11.3738337"><ele>380.0</ele><time>2026-04-18T11:37:45.1Z</time></trkpt><trkpt lat="43.6095376" lon="11.3737525"><ele>380.0</ele><time>2026-04-18T11:37:48.1Z</time></trkpt><trkpt lat="43.609642" lon="11.3737057"><ele>380.0</ele><time>2026-04-18T11:37:50.1Z</time></trkpt><trkpt lat="43.6097053" lon="11.3736091"><ele>380.0</ele><time>2026-04-18T11:37:52.101Z</time></trkpt><trkpt lat="43.6096809" lon="11.3735232"><ele>380.0</ele><time>2026-04-18T11:37:54.101Z</time></trkpt><trkpt lat="43.6096149" lon="11.3734504"><ele>380.0</ele><time>2026-04-18T11:37:56.1Z</time></trkpt><trkpt lat="43.6095763" lon="11.3733613"><ele>380.0</ele><time>2026-04-18T11:37:59.1Z</time></trkpt><trkpt lat="43.6096491" lon="11.3733281"><ele>380.0</ele><time>2026-04-18T11:39:03.099Z</time></trkpt><trkpt lat="43.6097421" lon="11.3733049"><ele>380.0</ele><time>2026-04-18T11:39:05.099Z</time></trkpt><trkpt lat="43.6098191" lon="11.3732808"><ele>380.0</ele><time>2026-04-18T11:39:06.1Z</time></trkpt><trkpt lat="43.6098893" lon="11.3732574"><ele>380.0</ele><time>2026-04-18T11:39:07.099Z</time></trkpt><trkpt lat="43.6099666" lon="11.3732478"><ele>380.0</ele><time>2026-04-18T11:39:08.099Z</time></trkpt><trkpt lat="43.6100408" lon="11.3732284"><ele>380.0</ele><time>2026-04-18T11:39:09.099Z</time></trkpt><trkpt lat="43.6101156" lon="11.3732001"><ele>380.0</ele><time>2026-04-18T11:39:10.099Z</time></trkpt><trkpt lat="43.6102008" lon="11.3731549"><ele>380.0</ele><time>2026-04-18T11:39:11.099Z</time></trkpt><trkpt lat="43.6102928" lon="11.3730795"><ele>380.0</ele><time>2026-04-18T11:39:12.099Z</time></trkpt><trkpt lat="43.6103818" lon="11.3729973"><ele>380.0</ele><time>2026-04-18T11:39:13.099Z</time></trkpt><trkpt lat="43.610466" lon="11.3729169"><ele>380.0</ele><time>2026-04-18T11:39:14.1Z</time></trkpt><trkpt lat="43.6105334" lon="11.372871"><ele>380.0</ele><time>2026-04-18T11:39:17.099Z</time></trkpt><trkpt lat="43.61063" lon="11.3728354"><ele>381.6666666666667</ele><time>2026-04-18T11:39:20.099Z</time></trkpt><trkpt lat="43.6106903" lon="11.372737"><ele>383.33333333333337</ele><time>2026-04-18T11:39:22.1Z</time></trkpt><trkpt lat="43.6107226" lon="11.3726295"><ele>385.0</ele><time>2026-04-18T11:39:23.1Z</time></trkpt><trkpt lat="43.6107873" lon="11.372575"><ele>386.6666666666667</ele><time>2026-04-18T11:39:24.1Z</time></trkpt><trkpt lat="43.6108655" lon="11.3724872"><ele>388.3333333333333</ele><time>2026-04-18T11:39:26.099Z</time></trkpt><trkpt lat="43.6109238" lon="11.3724163"><ele>390.0</ele><time>2026-04-18T11:39:28.099Z</time></trkpt><trkpt lat="43.6110042" lon="11.3723524"><ele>390.0</ele><time>2026-04-18T11:39:31.099Z</time></trkpt><trkpt lat="43.6110663" lon="11.3723327"><ele>390.0</ele><time>2026-04-18T11:39:33.099Z</time></trkpt><trkpt lat="43.6111559" lon="11.3723004"><ele>390.0</ele><time>2026-04-18T11:39:34.1Z</time></trkpt><trkpt lat="43.6112754" lon="11.3722471"><ele>390.0</ele><time>2026-04-18T11:39:36.098Z</time></trkpt><trkpt lat="43.611341" lon="11.3722142"><ele>390.0</ele><time>2026-04-18T11:39:37.1Z</time></trkpt><trkpt lat="43.6114227" lon="11.3721603"><ele>390.0</ele><time>2026-04-18T11:39:38.099Z</time></trkpt><trkpt lat="43.611494" lon="11.3720577"><ele>391.4</ele><time>2026-04-18T11:39:39.099Z</time></trkpt><trkpt lat="43.6115667" lon="11.3720245"><ele>392.8</ele><time>2026-04-18T11:39:40.1Z</time></trkpt><trkpt lat="43.6116309" lon="11.3719296"><ele>394.20000000000005</ele><time>2026-04-18T11:39:41.099Z</time></trkpt><trkpt lat="43.6117064" lon="11.3718418"><ele>395.6</ele><time>2026-04-18T11:39:42.099Z</time></trkpt><trkpt lat="43.6117621" lon="11.3717382"><ele>397.0</ele><time>2026-04-18T11:39:43.099Z</time></trkpt><trkpt lat="43.6118312" lon="11.3716522"><ele>397.0</ele><time>2026-04-18T11:39:44.1Z</time></trkpt><trkpt lat="43.6119209" lon="11.3715294"><ele>397.0</ele><time>2026-04-18T11:39:46.099Z</time></trkpt><trkpt lat="43.6119733" lon="11.3714581"><ele>397.0</ele><time>2026-04-18T11:39:47.099Z</time></trkpt><trkpt lat="43.612037" lon="11.3713774"><ele>397.0</ele><time>2026-04-18T11:39:48.099Z</time></trkpt><trkpt lat="43.612112" lon="11.3713195"><ele>397.0</ele><time>2026-04-18T11:39:49.1Z</time></trkpt><trkpt lat="43.6121846" lon="11.3712433"><ele>397.6</ele><time>2026-04-18T11:39:50.099Z</time></trkpt><trkpt lat="43.6122917" lon="11.371195"><ele>398.20000000000005</ele><time>2026-04-18T11:39:52.1Z</time></trkpt><trkpt lat="43.6123626" lon="11.3711944"><ele>398.8</ele><time>2026-04-18T11:39:53.099Z</time></trkpt><trkpt lat="43.6124613" lon="11.3711795"><ele>399.4</ele><time>2026-04-18T11:39:54.099Z</time></trkpt><trkpt lat="43.6125447" lon="11.3711812"><ele>400.0</ele><time>2026-04-18T11:39:55.099Z</time></trkpt><trkpt lat="43.6126718" lon="11.37119"><ele>400.00000000000006</ele><time>2026-04-18T11:39:56.1Z</time></trkpt><trkpt lat="43.6127608" lon="11.3712025"><ele>400.0</ele><time>2026-04-18T11:39:57.1Z</time></trkpt><trkpt lat="43.6128636" lon="11.371194"><ele>400.0</ele><time>2026-04-18T11:39:58.099Z</time></trkpt><trkpt lat="43.6129562" lon="11.3711574"><ele>400.0</ele><time>2026-04-18T11:39:59.099Z</time></trkpt><trkpt lat="43.6130246" lon="11.3711284"><ele>400.00000000000006</ele><time>2026-04-18T11:40:00.1Z</time></trkpt><trkpt lat="43.613097" lon="11.3711067"><ele>400.0</ele><time>2026-04-18T11:40:01.099Z</time></trkpt><trkpt lat="43.6131744" lon="11.3710514"><ele>400.2</ele><time>2026-04-18T11:40:02.099Z</time></trkpt><trkpt lat="43.6132806" lon="11.3710177"><ele>400.4</ele><time>2026-04-18T11:40:04.099Z</time></trkpt><trkpt lat="43.6133722" lon="11.3710456"><ele>400.6</ele><time>2026-04-18T11:40:06.099Z</time></trkpt><trkpt lat="43.6134728" lon="11.3710338"><ele>400.8</ele><time>2026-04-18T11:40:08.099Z</time></trkpt><trkpt lat="43.6135994" lon="11.3710096"><ele>401.0</ele><time>2026-04-18T11:40:10.1Z</time></trkpt><trkpt lat="43.613669" lon="11.3709391"><ele>401.0</ele><time>2026-04-18T11:40:11.1Z</time></trkpt><trkpt lat="43.6137653" lon="11.370895"><ele>401.0</ele><time>2026-04-18T11:40:12.1Z</time></trkpt><trkpt lat="43.6138555" lon="11.3708885"><ele>401.0</ele><time>2026-04-18T11:40:13.1Z</time></trkpt><trkpt lat="43.6139451" lon="11.3708813"><ele>401.0</ele><time>2026-04-18T11:40:14.099Z</time></trkpt><trkpt lat="43.6140325" lon="11.3708884"><ele>401.0</ele><time>2026-04-18T11:40:15.1Z</time></trkpt><trkpt lat="43.6141402" lon="11.3709362"><ele>400.99999999999994</ele><time>2026-04-18T11:40:16.099Z</time></trkpt><trkpt lat="43.6142287" lon="11.3709285"><ele>401.0</ele><time>2026-04-18T11:40:17.099Z</time></trkpt><trkpt lat="43.6143085" lon="11.3709429"><ele>401.0</ele><time>2026-04-18T11:40:18.099Z</time></trkpt><trkpt lat="43.6143515" lon="11.3708499"><ele>401.0</ele><time>2026-04-18T11:40:20.1Z</time></trkpt><trkpt lat="43.6144082" lon="11.3707542"><ele>400.99999999999994</ele><time>2026-04-18T11:40:22.099Z</time></trkpt><trkpt lat="43.6144764" lon="11.37077"><ele>401.0</ele><time>2026-04-18T11:40:23.099Z</time></trkpt><trkpt lat="43.6145606" lon="11.3707476"><ele>402.0</ele><time>2026-04-18T11:40:24.099Z</time></trkpt><trkpt lat="43.6146625" lon="11.3707223"><ele>403.0</ele><time>2026-04-18T11:40:25.099Z</time></trkpt><trkpt lat="43.6147951" lon="11.370714"><ele>404.0</ele><time>2026-04-18T11:40:26.1Z</time></trkpt><trkpt lat="43.6149098" lon="11.3707018"><ele>405.0</ele><time>2026-04-18T11:40:27.099Z</time></trkpt><trkpt lat="43.6150263" lon="11.3706717"><ele>405.0</ele><time>2026-04-18T11:40:28.099Z</time></trkpt><trkpt lat="43.6151501" lon="11.3706317"><ele>405.0</ele><time>2026-04-18T11:40:29.099Z</time></trkpt><trkpt lat="43.6152584" lon="11.370604"><ele>405.0</ele><time>2026-04-18T11:40:30.099Z</time></trkpt><trkpt lat="43.615351" lon="11.3705862"><ele>405.0</ele><time>2026-04-18T11:40:31.099Z</time></trkpt><trkpt lat="43.6154437" lon="11.370567"><ele>405.0</ele><time>2026-04-18T11:40:32.099Z</time></trkpt><trkpt lat="43.6155372" lon="11.3705316"><ele>406.0</ele><time>2026-04-18T11:40:33.099Z</time></trkpt><trkpt lat="43.6156045" lon="11.3704975"><ele>407.0</ele><time>2026-04-18T11:40:34.099Z</time></trkpt><trkpt lat="43.6155844" lon="11.3704075"><ele>408.0</ele><time>2026-04-18T11:40:35.099Z</time></trkpt><trkpt lat="43.6155369" lon="11.3703019"><ele>409.0</ele><time>2026-04-18T11:40:38.099Z</time></trkpt><trkpt lat="43.6154509" lon="11.3702983"><ele>410.0</ele><time>2026-04-18T11:40:41.099Z</time></trkpt><trkpt lat="43.6152564" lon="11.3702622"><ele>411.6</ele><time>2026-04-18T11:41:17.099Z</time></trkpt><trkpt lat="43.6151349" lon="11.3702223"><ele>413.2</ele><time>2026-04-18T11:41:18.099Z</time></trkpt><trkpt lat="43.6150502" lon="11.3701943"><ele>414.79999999999995</ele><time>2026-04-18T11:41:19.1Z</time></trkpt><trkpt lat="43.6149471" lon="11.3701844"><ele>416.4</ele><time>2026-04-18T11:41:20.099Z</time></trkpt><trkpt lat="43.6148294" lon="11.3701806"><ele>418.0</ele><time>2026-04-18T11:41:21.099Z</time></trkpt><trkpt lat="43.6147058" lon="11.3701778"><ele>418.0</ele><time>2026-04-18T11:41:22.099Z</time></trkpt><trkpt lat="43.6145869" lon="11.3701399"><ele>418.0</ele><time>2026-04-18T11:41:23.1Z</time></trkpt><trkpt lat="43.6144869" lon="11.370088"><ele>418.0</ele><time>2026-04-18T11:41:24.1Z</time></trkpt><trkpt lat="43.6143927" lon="11.3700422"><ele>418.0</ele><time>2026-04-18T11:41:25.1Z</time></trkpt><trkpt lat="43.6143023" lon="11.3700072"><ele>418.0</ele><time>2026-04-18T11:41:26.1Z</time></trkpt><trkpt lat="43.6142227" lon="11.3698843"><ele>417.79999999999995</ele><time>2026-04-18T11:41:27.1Z</time></trkpt><trkpt lat="43.6141401" lon="11.3697856"><ele>417.6</ele><time>2026-04-18T11:41:28.1Z</time></trkpt><trkpt lat="43.6140632" lon="11.3697042"><ele>417.4</ele><time>2026-04-18T11:41:29.099Z</time></trkpt><trkpt lat="43.6139647" lon="11.3696883"><ele>417.20000000000005</ele><time>2026-04-18T11:41:30.099Z</time></trkpt><trkpt lat="43.613846" lon="11.3696832"><ele>417.0</ele><time>2026-04-18T11:41:31.1Z</time></trkpt><trkpt lat="43.6137194" lon="11.3696714"><ele>423.40000000000003</ele><time>2026-04-18T11:41:32.1Z</time></trkpt><trkpt lat="43.6136059" lon="11.3696541"><ele>429.8</ele><time>2026-04-18T11:41:33.1Z</time></trkpt><trkpt lat="43.6135075" lon="11.3696244"><ele>436.2</ele><time>2026-04-18T11:41:34.1Z</time></trkpt><trkpt lat="43.6134127" lon="11.3695855"><ele>442.6</ele><time>2026-04-18T11:41:35.1Z</time></trkpt><trkpt lat="43.6133343" lon="11.3695637"><ele>449.0</ele><time>2026-04-18T11:41:36.1Z</time></trkpt><trkpt lat="43.6132427" lon="11.3695445"><ele>448.99999999999994</ele><time>2026-04-18T11:41:37.099Z</time></trkpt><trkpt lat="43.6131481" lon="11.3695196"><ele>449.0</ele><time>2026-04-18T11:41:38.099Z</time></trkpt><trkpt lat="43.6130554" lon="11.3694747"><ele>449.0</ele><time>2026-04-18T11:41:39.1Z</time></trkpt><trkpt lat="43.6129619" lon="11.3694321"><ele>449.0</ele><time>2026-04-18T11:41:40.099Z</time></trkpt><trkpt lat="43.6128905" lon="11.369416"><ele>448.99999999999994</ele><time>2026-04-18T11:41:41.1Z</time></trkpt><trkpt lat="43.6128215" lon="11.3694319"><ele>449.0</ele><time>2026-04-18T11:41:42.099Z</time></trkpt><trkpt lat="43.6127533" lon="11.3694769"><ele>447.79999999999995</ele><time>2026-04-18T11:41:43.099Z</time></trkpt><trkpt lat="43.6126629" lon="11.3694611"><ele>446.59999999999997</ele><time>2026-04-18T11:41:45.099Z</time></trkpt><trkpt lat="43.6125528" lon="11.3693877"><ele>445.4</ele><time>2026-04-18T11:41:47.099Z</time></trkpt><trkpt lat="43.6124488" lon="11.3693265"><ele>444.2</ele><time>2026-04-18T11:41:49.099Z</time></trkpt><trkpt lat="43.6124329" lon="11.3692349"><ele>443.0</ele><time>2026-04-18T11:41:51.099Z</time></trkpt><trkpt lat="43.6124698" lon="11.3690812"><ele>443.0</ele><time>2026-04-18T11:41:53.1Z</time></trkpt><trkpt lat="43.6124166" lon="11.3689911"><ele>442.99999999999994</ele><time>2026-04-18T11:42:17.1Z</time></trkpt><trkpt lat="43.6123921" lon="11.3689023"><ele>442.99999999999994</ele><time>2026-04-18T11:42:19.099Z</time></trkpt><trkpt lat="43.6124467" lon="11.3687503"><ele>443.0</ele><time>2026-04-18T11:42:21.099Z</time></trkpt><trkpt lat="43.6124878" lon="11.3686394"><ele>443.0</ele><time>2026-04-18T11:42:22.099Z</time></trkpt><trkpt lat="43.6125443" lon="11.3685008"><ele>442.4</ele><time>2026-04-18T11:42:23.099Z</time></trkpt><trkpt lat="43.6126015" lon="11.3683531"><ele>441.79999999999995</ele><time>2026-04-18T11:42:24.099Z</time></trkpt><trkpt lat="43.612653" lon="11.3682146"><ele>441.2</ele><time>2026-04-18T11:42:25.099Z</time></trkpt><trkpt lat="43.6126953" lon="11.3680865"><ele>440.6</ele><time>2026-04-18T11:42:26.099Z</time></trkpt><trkpt lat="43.6127333" lon="11.3679743"><ele>440.0</ele><time>2026-04-18T11:42:27.1Z</time></trkpt><trkpt lat="43.6127861" lon="11.3678561"><ele>445.25</ele><time>2026-04-18T11:42:28.099Z</time></trkpt><trkpt lat="43.612837" lon="11.3677387"><ele>450.5</ele><time>2026-04-18T11:42:29.1Z</time></trkpt><trkpt lat="43.612909" lon="11.3675983"><ele>455.75</ele><time>2026-04-18T11:42:30.099Z</time></trkpt><trkpt lat="43.6129737" lon="11.3674639"><ele>461.0</ele><time>2026-04-18T11:42:31.099Z</time></trkpt><trkpt lat="43.6130168" lon="11.3673202"><ele>459.20000000000005</ele><time>2026-04-18T11:42:32.1Z</time></trkpt><trkpt lat="43.6130512" lon="11.3671848"><ele>457.40000000000003</ele><time>2026-04-18T11:42:33.1Z</time></trkpt><trkpt lat="43.6130776" lon="11.3670481"><ele>455.6</ele><time>2026-04-18T11:42:34.1Z</time></trkpt><trkpt lat="43.6131245" lon="11.366927"><ele>453.8</ele><time>2026-04-18T11:42:36.099Z</time></trkpt><trkpt lat="43.6132138" lon="11.3667922"><ele>452.0</ele><time>2026-04-18T11:42:38.098Z</time></trkpt><trkpt lat="43.6133185" lon="11.3666984"><ele>452.0</ele><time>2026-04-18T11:42:40.099Z</time></trkpt><trkpt lat="43.6133919" lon="11.3666644"><ele>452.00000000000006</ele><time>2026-04-18T11:42:41.099Z</time></trkpt><trkpt lat="43.6134814" lon="11.3665568"><ele>452.00000000000006</ele><time>2026-04-18T11:42:43.099Z</time></trkpt><trkpt lat="43.6135356" lon="11.3664081"><ele>452.0</ele><time>2026-04-18T11:42:45.1Z</time></trkpt><trkpt lat="43.6135166" lon="11.3662441"><ele>452.0</ele><time>2026-04-18T11:42:47.1Z</time></trkpt><trkpt lat="43.6134933" lon="11.366086"><ele>451.8</ele><time>2026-04-18T11:42:49.099Z</time></trkpt><trkpt lat="43.613499" lon="11.3659244"><ele>451.6</ele><time>2026-04-18T11:42:51.099Z</time></trkpt><trkpt lat="43.6135456" lon="11.3657677"><ele>451.40000000000003</ele><time>2026-04-18T11:42:53.099Z</time></trkpt><trkpt lat="43.6135815" lon="11.3656858"><ele>451.20000000000005</ele><time>2026-04-18T11:42:54.099Z</time></trkpt><trkpt lat="43.6136309" lon="11.3656095"><ele>451.0</ele><time>2026-04-18T11:42:55.1Z</time></trkpt><trkpt lat="43.613684" lon="11.3655434"><ele>454.00000000000006</ele><time>2026-04-18T11:42:56.1Z</time></trkpt><trkpt lat="43.6137368" lon="11.3654738"><ele>457.0</ele><time>2026-04-18T11:42:57.099Z</time></trkpt><trkpt lat="43.6137898" lon="11.365409"><ele>460.0</ele><time>2026-04-18T11:42:58.099Z</time></trkpt><trkpt lat="43.6138435" lon="11.3653451"><ele>463.0</ele><time>2026-04-18T11:42:59.099Z</time></trkpt><trkpt lat="43.6138906" lon="11.3652864"><ele>466.00000000000006</ele><time>2026-04-18T11:43:00.099Z</time></trkpt><trkpt lat="43.6139847" lon="11.365206"><ele>469.0</ele><time>2026-04-18T11:43:02.099Z</time></trkpt><trkpt lat="43.6140904" lon="11.365236"><ele>469.0</ele><time>2026-04-18T11:43:04.099Z</time></trkpt><trkpt lat="43.6142076" lon="11.3652634"><ele>469.0</ele><time>2026-04-18T11:43:06.1Z</time></trkpt><trkpt lat="43.6143017" lon="11.3651602"><ele>469.0</ele><time>2026-04-18T11:43:08.1Z</time></trkpt><trkpt lat="43.6143997" lon="11.3650368"><ele>469.0</ele><time>2026-04-18T11:43:10.1Z</time></trkpt><trkpt lat="43.6144524" lon="11.364965"><ele>469.0</ele><time>2026-04-18T11:43:11.099Z</time></trkpt><trkpt lat="43.6145009" lon="11.3648923"><ele>471.8571428571429</ele><time>2026-04-18T11:43:12.099Z</time></trkpt><trkpt lat="43.6145318" lon="11.3648132"><ele>474.7142857142857</ele><time>2026-04-18T11:43:13.099Z</time></trkpt><trkpt lat="43.6145454" lon="11.3647203"><ele>477.57142857142856</ele><time>2026-04-18T11:43:14.099Z</time></trkpt><trkpt lat="43.6145548" lon="11.3646251"><ele>480.42857142857144</ele><time>2026-04-18T11:43:15.099Z</time></trkpt><trkpt lat="43.6145713" lon="11.3645317"><ele>483.28571428571433</ele><time>2026-04-18T11:43:16.1Z</time></trkpt><trkpt lat="43.6145991" lon="11.3644407"><ele>486.14285714285717</ele><time>2026-04-18T11:43:17.1Z</time></trkpt><trkpt lat="43.6146408" lon="11.3643636"><ele>489.0</ele><time>2026-04-18T11:43:18.099Z</time></trkpt><trkpt lat="43.6146904" lon="11.3643003"><ele>489.0</ele><time>2026-04-18T11:43:19.099Z</time></trkpt><trkpt lat="43.6147886" lon="11.3642179"><ele>489.0</ele><time>2026-04-18T11:43:21.099Z</time></trkpt><trkpt lat="43.6148738" lon="11.3641406"><ele>489.0</ele><time>2026-04-18T11:43:23.1Z</time></trkpt><trkpt lat="43.6149457" lon="11.3640838"><ele>489.0</ele><time>2026-04-18T11:43:25.099Z</time></trkpt><trkpt lat="43.6149969" lon="11.3640227"><ele>489.0</ele><time>2026-04-18T11:43:28.099Z</time></trkpt><trkpt lat="43.6150583" lon="11.3639151"><ele>490.3333333333333</ele><time>2026-04-18T11:43:32.1Z</time></trkpt><trkpt lat="43.6151041" lon="11.3638144"><ele>491.66666666666663</ele><time>2026-04-18T11:43:34.099Z</time></trkpt><trkpt lat="43.6151501" lon="11.36375"><ele>493.0</ele><time>2026-04-18T11:43:36.099Z</time></trkpt><trkpt lat="43.615204" lon="11.3637"><ele>494.3333333333333</ele><time>2026-04-18T11:43:38.099Z</time></trkpt><trkpt lat="43.6152618" lon="11.3636149"><ele>495.66666666666663</ele><time>2026-04-18T11:43:40.099Z</time></trkpt><trkpt lat="43.6153211" lon="11.3635365"><ele>497.0</ele><time>2026-04-18T11:43:42.098Z</time></trkpt><trkpt lat="43.6153812" lon="11.3634931"><ele>496.99999999999994</ele><time>2026-04-18T11:43:44.099Z</time></trkpt><trkpt lat="43.6154473" lon="11.3634511"><ele>497.0</ele><time>2026-04-18T11:43:46.099Z</time></trkpt><trkpt lat="43.6155169" lon="11.3634035"><ele>497.0</ele><time>2026-04-18T11:43:48.098Z</time></trkpt><trkpt lat="43.615563" lon="11.3633014"><ele>497.0</ele><time>2026-04-18T11:43:50.099Z</time></trkpt><trkpt lat="43.6156014" lon="11.3631521"><ele>496.99999999999994</ele><time>2026-04-18T11:43:52.099Z</time></trkpt><trkpt lat="43.6156317" lon="11.3630664"><ele>497.0</ele><time>2026-04-18T11:43:53.098Z</time></trkpt><trkpt lat="43.6156657" lon="11.3629829"><ele>494.7142857142857</ele><time>2026-04-18T11:43:54.098Z</time></trkpt><trkpt lat="43.6157033" lon="11.3629043"><ele>492.42857142857144</ele><time>2026-04-18T11:43:55.098Z</time></trkpt><trkpt lat="43.6157493" lon="11.3628298"><ele>490.1428571428571</ele><time>2026-04-18T11:43:56.098Z</time></trkpt><trkpt lat="43.6158045" lon="11.3627598"><ele>487.85714285714283</ele><time>2026-04-18T11:43:57.098Z</time></trkpt><trkpt lat="43.6158698" lon="11.3626912"><ele>485.57142857142856</ele><time>2026-04-18T11:43:58.098Z</time></trkpt><trkpt lat="43.6159321" lon="11.3626267"><ele>483.2857142857142</ele><time>2026-04-18T11:43:59.098Z</time></trkpt><trkpt lat="43.6159839" lon="11.3625638"><ele>480.99999999999994</ele><time>2026-04-18T11:44:00.098Z</time></trkpt><trkpt lat="43.6160352" lon="11.3624982"><ele>481.00000000000006</ele><time>2026-04-18T11:44:01.099Z</time></trkpt><trkpt lat="43.6160221" lon="11.3623227"><ele>481.0</ele><time>2026-04-18T11:44:03.098Z</time></trkpt><trkpt lat="43.6160099" lon="11.3622239"><ele>481.0</ele><time>2026-04-18T11:44:04.099Z</time></trkpt><trkpt lat="43.6160037" lon="11.3621259"><ele>481.0</ele><time>2026-04-18T11:44:05.098Z</time></trkpt><trkpt lat="43.6160181" lon="11.3620303"><ele>481.00000000000006</ele><time>2026-04-18T11:44:06.098Z</time></trkpt><trkpt lat="43.6160673" lon="11.3619429"><ele>481.0</ele><time>2026-04-18T11:44:07.098Z</time></trkpt><trkpt lat="43.61612" lon="11.3618579"><ele>484.00000000000006</ele><time>2026-04-18T11:44:08.098Z</time></trkpt><trkpt lat="43.6161736" lon="11.3617679"><ele>487.0</ele><time>2026-04-18T11:44:09.099Z</time></trkpt><trkpt lat="43.6162255" lon="11.3616859"><ele>490.0</ele><time>2026-04-18T11:44:10.098Z</time></trkpt><trkpt lat="43.6162793" lon="11.3616139"><ele>493.0</ele><time>2026-04-18T11:44:11.098Z</time></trkpt><trkpt lat="43.6163453" lon="11.3615517"><ele>496.00000000000006</ele><time>2026-04-18T11:44:12.099Z</time></trkpt><trkpt lat="43.6164166" lon="11.3614902"><ele>499.0</ele><time>2026-04-18T11:44:13.098Z</time></trkpt><trkpt lat="43.6164924" lon="11.3614258"><ele>496.50000000000006</ele><time>2026-04-18T11:44:14.099Z</time></trkpt><trkpt lat="43.6165686" lon="11.3613592"><ele>494.0</ele><time>2026-04-18T11:44:15.099Z</time></trkpt><trkpt lat="43.6166407" lon="11.3612879"><ele>491.5</ele><time>2026-04-18T11:44:16.098Z</time></trkpt><trkpt lat="43.6167031" lon="11.3612084"><ele>489.0</ele><time>2026-04-18T11:44:17.099Z</time></trkpt><trkpt lat="43.6167563" lon="11.3611152"><ele>486.50000000000006</ele><time>2026-04-18T11:44:18.098Z</time></trkpt><trkpt lat="43.6168031" lon="11.3610118"><ele>484.0</ele><time>2026-04-18T11:44:19.098Z</time></trkpt><trkpt lat="43.6168529" lon="11.3609103"><ele>484.00000000000006</ele><time>2026-04-18T11:44:20.099Z</time></trkpt><trkpt lat="43.6169033" lon="11.3608129"><ele>484.0</ele><time>2026-04-18T11:44:21.099Z</time></trkpt><trkpt lat="43.6169643" lon="11.3607358"><ele>484.0</ele><time>2026-04-18T11:44:22.099Z</time></trkpt><trkpt lat="43.6170287" lon="11.3606668"><ele>484.0</ele><time>2026-04-18T11:44:23.098Z</time></trkpt><trkpt lat="43.6170821" lon="11.3606021"><ele>484.00000000000006</ele><time>2026-04-18T11:44:24.098Z</time></trkpt><trkpt lat="43.6171153" lon="11.3605052"><ele>484.0</ele><time>2026-04-18T11:44:25.098Z</time></trkpt><trkpt lat="43.6171571" lon="11.3604208"><ele>485.83333333333337</ele><time>2026-04-18T11:44:26.098Z</time></trkpt><trkpt lat="43.6171887" lon="11.3603172"><ele>487.6666666666667</ele><time>2026-04-18T11:44:27.098Z</time></trkpt><trkpt lat="43.6172246" lon="11.3602203"><ele>489.5</ele><time>2026-04-18T11:44:28.098Z</time></trkpt><trkpt lat="43.617257" lon="11.3601186"><ele>491.33333333333337</ele><time>2026-04-18T11:44:29.098Z</time></trkpt><trkpt lat="43.6172939" lon="11.3600264"><ele>493.1666666666667</ele><time>2026-04-18T11:44:30.098Z</time></trkpt><trkpt lat="43.617332" lon="11.3599283"><ele>495.0</ele><time>2026-04-18T11:44:31.098Z</time></trkpt><trkpt lat="43.6173646" lon="11.3598331"><ele>495.0</ele><time>2026-04-18T11:44:32.098Z</time></trkpt><trkpt lat="43.6174049" lon="11.3597427"><ele>495.0</ele><time>2026-04-18T11:44:33.098Z</time></trkpt><trkpt lat="43.6174352" lon="11.3596536"><ele>495.0</ele><time>2026-04-18T11:44:34.099Z</time></trkpt><trkpt lat="43.6174671" lon="11.3595612"><ele>495.0</ele><time>2026-04-18T11:44:35.099Z</time></trkpt><trkpt lat="43.6174977" lon="11.3594758"><ele>495.0</ele><time>2026-04-18T11:44:36.098Z</time></trkpt><trkpt lat="43.617559" lon="11.3593484"><ele>495.0</ele><time>2026-04-18T11:44:38.099Z</time></trkpt><trkpt lat="43.6176294" lon="11.35927"><ele>494.1666666666667</ele><time>2026-04-18T11:44:40.098Z</time></trkpt><trkpt lat="43.6176951" lon="11.359255"><ele>493.33333333333337</ele><time>2026-04-18T11:44:42.099Z</time></trkpt><trkpt lat="43.617755" lon="11.3592266"><ele>492.5</ele><time>2026-04-18T11:44:46.099Z</time></trkpt><trkpt lat="43.6178271" lon="11.3591828"><ele>491.6666666666667</ele><time>2026-04-18T11:44:54.098Z</time></trkpt><trkpt lat="43.6179269" lon="11.3591666"><ele>490.83333333333337</ele><time>2026-04-18T11:44:56.098Z</time></trkpt><trkpt lat="43.617867" lon="11.3590964"><ele>490.0</ele><time>2026-04-18T11:45:00.098Z</time></trkpt><trkpt lat="43.6177644" lon="11.3591843"><ele>490.00000000000006</ele><time>2026-04-18T11:45:02.099Z</time></trkpt><trkpt lat="43.6176747" lon="11.3592262"><ele>490.0</ele><time>2026-04-18T11:45:04.098Z</time></trkpt><trkpt lat="43.617617" lon="11.359281"><ele>490.0</ele><time>2026-04-18T11:45:07.099Z</time></trkpt><trkpt lat="43.6175346" lon="11.3592763"><ele>490.0</ele><time>2026-04-18T11:56:09.096Z</time></trkpt><trkpt lat="43.6175922" lon="11.3592274"><ele>490.00000000000006</ele><time>2026-04-18T11:56:15.097Z</time></trkpt><trkpt lat="43.6176661" lon="11.3592457"><ele>490.0</ele><time>2026-04-18T11:56:17.096Z</time></trkpt><trkpt lat="43.6177653" lon="11.3592316"><ele>489.4</ele><time>2026-04-18T11:56:19.096Z</time></trkpt><trkpt lat="43.6178636" lon="11.3591778"><ele>488.8</ele><time>2026-04-18T11:56:21.096Z</time></trkpt><trkpt lat="43.6179335" lon="11.3591541"><ele>488.20000000000005</ele><time>2026-04-18T11:56:23.097Z</time></trkpt><trkpt lat="43.6179999" lon="11.3592007"><ele>487.6</ele><time>2026-04-18T11:56:32.096Z</time></trkpt><trkpt lat="43.6180843" lon="11.3593116"><ele>487.0</ele><time>2026-04-18T11:56:34.096Z</time></trkpt><trkpt lat="43.6181782" lon="11.3594271"><ele>487.00000000000006</ele><time>2026-04-18T11:56:36.097Z</time></trkpt><trkpt lat="43.6182703" lon="11.3595387"><ele>487.0</ele><time>2026-04-18T11:56:38.097Z</time></trkpt><trkpt lat="43.6183173" lon="11.3595971"><ele>487.0</ele><time>2026-04-18T11:56:39.096Z</time></trkpt><trkpt lat="43.6183762" lon="11.3596596"><ele>487.0</ele><time>2026-04-18T11:56:40.096Z</time></trkpt><trkpt lat="43.6184391" lon="11.3597246"><ele>487.00000000000006</ele><time>2026-04-18T11:56:41.096Z</time></trkpt><trkpt lat="43.6184995" lon="11.359797"><ele>487.0</ele><time>2026-04-18T11:56:42.097Z</time></trkpt><trkpt lat="43.6185664" lon="11.3598803"><ele>490.6</ele><time>2026-04-18T11:56:43.097Z</time></trkpt><trkpt lat="43.6186602" lon="11.3599539"><ele>494.20000000000005</ele><time>2026-04-18T11:56:44.096Z</time></trkpt><trkpt lat="43.6187548" lon="11.3600187"><ele>497.8</ele><time>2026-04-18T11:56:45.096Z</time></trkpt><trkpt lat="43.6188446" lon="11.3600716"><ele>501.4</ele><time>2026-04-18T11:56:46.097Z</time></trkpt><trkpt lat="43.6189418" lon="11.3601328"><ele>505.0</ele><time>2026-04-18T11:56:47.097Z</time></trkpt><trkpt lat="43.6190327" lon="11.3601934"><ele>505.0</ele><time>2026-04-18T11:56:48.097Z</time></trkpt><trkpt lat="43.6191261" lon="11.3602494"><ele>505.0</ele><time>2026-04-18T11:56:49.096Z</time></trkpt><trkpt lat="43.6192055" lon="11.3602755"><ele>505.0</ele><time>2026-04-18T11:56:50.096Z</time></trkpt><trkpt lat="43.6192982" lon="11.3603236"><ele>505.0</ele><time>2026-04-18T11:56:51.097Z</time></trkpt><trkpt lat="43.6193964" lon="11.3603565"><ele>505.0</ele><time>2026-04-18T11:56:52.096Z</time></trkpt><trkpt lat="43.6194981" lon="11.3603893"><ele>504.2</ele><time>2026-04-18T11:56:53.096Z</time></trkpt><trkpt lat="43.6195898" lon="11.3604285"><ele>503.4</ele><time>2026-04-18T11:56:54.096Z</time></trkpt><trkpt lat="43.6196751" lon="11.3605143"><ele>502.6</ele><time>2026-04-18T11:56:55.097Z</time></trkpt><trkpt lat="43.6197813" lon="11.3605888"><ele>501.8</ele><time>2026-04-18T11:56:56.096Z</time></trkpt><trkpt lat="43.6198801" lon="11.3606758"><ele>501.0</ele><time>2026-04-18T11:56:57.097Z</time></trkpt><trkpt lat="43.6199887" lon="11.3607719"><ele>507.75</ele><time>2026-04-18T11:56:58.096Z</time></trkpt><trkpt lat="43.6201185" lon="11.3607481"><ele>514.5</ele><time>2026-04-18T11:56:59.096Z</time></trkpt><trkpt lat="43.6202252" lon="11.3607642"><ele>521.25</ele><time>2026-04-18T11:57:00.097Z</time></trkpt><trkpt lat="43.6203333" lon="11.3607897"><ele>528.0</ele><time>2026-04-18T11:57:01.097Z</time></trkpt><trkpt lat="43.6204494" lon="11.3607908"><ele>528.0</ele><time>2026-04-18T11:57:02.096Z</time></trkpt><trkpt lat="43.6205577" lon="11.3607997"><ele>528.0</ele><time>2026-04-18T11:57:03.097Z</time></trkpt><trkpt lat="43.6206739" lon="11.3608133"><ele>528.0</ele><time>2026-04-18T11:57:04.097Z</time></trkpt><trkpt lat="43.6207795" lon="11.3608068"><ele>528.0</ele><time>2026-04-18T11:57:05.096Z</time></trkpt><trkpt lat="43.6208821" lon="11.3608193"><ele>528.0</ele><time>2026-04-18T11:57:06.096Z</time></trkpt><trkpt lat="43.6209776" lon="11.3608578"><ele>528.0</ele><time>2026-04-18T11:57:07.096Z</time></trkpt><trkpt lat="43.6210415" lon="11.3608737"><ele>528.0</ele><time>2026-04-18T11:57:08.097Z</time></trkpt><trkpt lat="43.621116" lon="11.3609159"><ele>528.0</ele><time>2026-04-18T11:57:09.096Z</time></trkpt><trkpt lat="43.6211858" lon="11.3609456"><ele>528.0</ele><time>2026-04-18T11:57:10.096Z</time></trkpt><trkpt lat="43.6212646" lon="11.3609651"><ele>528.0</ele><time>2026-04-18T11:57:11.096Z</time></trkpt><trkpt lat="43.6213919" lon="11.3609871"><ele>528.0</ele><time>2026-04-18T11:57:13.096Z</time></trkpt><trkpt lat="43.621508" lon="11.3610108"><ele>528.6</ele><time>2026-04-18T11:57:15.096Z</time></trkpt><trkpt lat="43.6216171" lon="11.3609881"><ele>529.1999999999999</ele><time>2026-04-18T11:57:17.096Z</time></trkpt><trkpt lat="43.6217148" lon="11.3609371"><ele>529.8</ele><time>2026-04-18T11:57:19.096Z</time></trkpt><trkpt lat="43.6217852" lon="11.3608857"><ele>530.4</ele><time>2026-04-18T11:57:20.096Z</time></trkpt><trkpt lat="43.6218439" lon="11.3608242"><ele>531.0</ele><time>2026-04-18T11:57:21.097Z</time></trkpt><trkpt lat="43.6219138" lon="11.3607622"><ele>531.0</ele><time>2026-04-18T11:57:22.097Z</time></trkpt><trkpt lat="43.6219778" lon="11.3606951"><ele>531.0</ele><time>2026-04-18T11:57:23.097Z</time></trkpt><trkpt lat="43.6220444" lon="11.3606287"><ele>531.0</ele><time>2026-04-18T11:57:24.096Z</time></trkpt><trkpt lat="43.6221126" lon="11.3605589"><ele>531.0</ele><time>2026-04-18T11:57:25.097Z</time></trkpt><trkpt lat="43.6221788" lon="11.3604895"><ele>531.0</ele><time>2026-04-18T11:57:26.096Z</time></trkpt><trkpt lat="43.6222494" lon="11.3604192"><ele>531.0</ele><time>2026-04-18T11:57:27.097Z</time></trkpt><trkpt lat="43.6223217" lon="11.3603556"><ele>533.2</ele><time>2026-04-18T11:57:28.097Z</time></trkpt><trkpt lat="43.6223938" lon="11.3602903"><ele>535.4000000000001</ele><time>2026-04-18T11:57:29.096Z</time></trkpt><trkpt lat="43.6224665" lon="11.3602193"><ele>537.6</ele><time>2026-04-18T11:57:30.096Z</time></trkpt><trkpt lat="43.6225411" lon="11.3601477"><ele>539.8000000000001</ele><time>2026-04-18T11:57:31.097Z</time></trkpt><trkpt lat="43.622617" lon="11.3600712"><ele>542.0</ele><time>2026-04-18T11:57:32.097Z</time></trkpt><trkpt lat="43.6226875" lon="11.3599941"><ele>542.0</ele><time>2026-04-18T11:57:33.097Z</time></trkpt><trkpt lat="43.6227554" lon="11.3599322"><ele>542.0</ele><time>2026-04-18T11:57:34.097Z</time></trkpt><trkpt lat="43.622813" lon="11.3598848"><ele>542.0</ele><time>2026-04-18T11:57:35.096Z</time></trkpt><trkpt lat="43.6228782" lon="11.3598574"><ele>542.0</ele><time>2026-04-18T11:57:36.096Z</time></trkpt><trkpt lat="43.6229608" lon="11.3598512"><ele>542.0</ele><time>2026-04-18T11:57:37.096Z</time></trkpt><trkpt lat="43.6230508" lon="11.3598503"><ele>542.0</ele><time>2026-04-18T11:57:38.096Z</time></trkpt><trkpt lat="43.6231388" lon="11.3598543"><ele>544.1666666666666</ele><time>2026-04-18T11:57:39.096Z</time></trkpt><trkpt lat="43.623226" lon="11.3598524"><ele>546.3333333333333</ele><time>2026-04-18T11:57:40.096Z</time></trkpt><trkpt lat="43.6233026" lon="11.3598418"><ele>548.5</ele><time>2026-04-18T11:57:41.096Z</time></trkpt><trkpt lat="43.6233719" lon="11.35984"><ele>550.6666666666666</ele><time>2026-04-18T11:57:42.096Z</time></trkpt><trkpt lat="43.6234436" lon="11.3598458"><ele>552.8333333333334</ele><time>2026-04-18T11:57:43.096Z</time></trkpt><trkpt lat="43.6235163" lon="11.3598676"><ele>555.0</ele><time>2026-04-18T11:57:44.097Z</time></trkpt><trkpt lat="43.6235992" lon="11.3598974"><ele>556.6</ele><time>2026-04-18T11:57:45.097Z</time></trkpt><trkpt lat="43.6236808" lon="11.3599264"><ele>558.2</ele><time>2026-04-18T11:57:46.096Z</time></trkpt><trkpt lat="43.623781" lon="11.3598995"><ele>559.8</ele><time>2026-04-18T11:57:48.096Z</time></trkpt><trkpt lat="43.6238609" lon="11.3598202"><ele>561.4</ele><time>2026-04-18T11:57:50.096Z</time></trkpt><trkpt lat="43.6239375" lon="11.3597482"><ele>563.0</ele><time>2026-04-18T11:57:52.096Z</time></trkpt><trkpt lat="43.6240175" lon="11.3596907"><ele>565.0</ele><time>2026-04-18T11:57:54.097Z</time></trkpt><trkpt lat="43.624076" lon="11.3597308"><ele>567.0</ele><time>2026-04-18T11:58:02.094Z</time></trkpt><trkpt lat="43.6240703" lon="11.3598388"><ele>569.0</ele><time>2026-04-18T11:58:04.096Z</time></trkpt><trkpt lat="43.6241029" lon="11.3600001"><ele>571.0</ele><time>2026-04-18T11:58:06.096Z</time></trkpt><trkpt lat="43.6241963" lon="11.3601032"><ele>573.0</ele><time>2026-04-18T11:58:08.095Z</time></trkpt><trkpt lat="43.6242659" lon="11.3601353"><ele>573.0</ele><time>2026-04-18T11:58:09.095Z</time></trkpt><trkpt lat="43.6243426" lon="11.3601584"><ele>573.0</ele><time>2026-04-18T11:58:10.096Z</time></trkpt><trkpt lat="43.6244358" lon="11.3601942"><ele>573.0</ele><time>2026-04-18T11:58:11.096Z</time></trkpt><trkpt lat="43.6245363" lon="11.3602457"><ele>573.0</ele><time>2026-04-18T11:58:12.095Z</time></trkpt><trkpt lat="43.624636" lon="11.3602954"><ele>573.0</ele><time>2026-04-18T11:58:13.095Z</time></trkpt><trkpt lat="43.6247332" lon="11.3603469"><ele>575.0</ele><time>2026-04-18T11:58:14.095Z</time></trkpt><trkpt lat="43.6248236" lon="11.3604112"><ele>577.0</ele><time>2026-04-18T11:58:15.095Z</time></trkpt><trkpt lat="43.6249118" lon="11.3604878"><ele>579.0</ele><time>2026-04-18T11:58:16.095Z</time></trkpt><trkpt lat="43.6249994" lon="11.3605644"><ele>581.0</ele><time>2026-04-18T11:58:17.095Z</time></trkpt><trkpt lat="43.6250912" lon="11.3606457"><ele>583.0</ele><time>2026-04-18T11:58:18.095Z</time></trkpt><trkpt lat="43.625183" lon="11.3607249"><ele>583.5</ele><time>2026-04-18T11:58:19.095Z</time></trkpt><trkpt lat="43.6252763" lon="11.3608154"><ele>584.0</ele><time>2026-04-18T11:58:20.096Z</time></trkpt><trkpt lat="43.625363" lon="11.3609155"><ele>584.5</ele><time>2026-04-18T11:58:21.095Z</time></trkpt><trkpt lat="43.6254562" lon="11.3610082"><ele>585.0</ele><time>2026-04-18T11:58:22.095Z</time></trkpt><trkpt lat="43.6255525" lon="11.361112"><ele>589.5</ele><time>2026-04-18T11:58:23.095Z</time></trkpt><trkpt lat="43.6256451" lon="11.3612153"><ele>594.0</ele><time>2026-04-18T11:58:24.096Z</time></trkpt><trkpt lat="43.6257321" lon="11.3613146"><ele>598.5</ele><time>2026-04-18T11:58:25.095Z</time></trkpt><trkpt lat="43.6258153" lon="11.3614118"><ele>603.0</ele><time>2026-04-18T11:58:26.096Z</time></trkpt><trkpt lat="43.6258998" lon="11.3615243"><ele>604.4</ele><time>2026-04-18T11:58:27.096Z</time></trkpt><trkpt lat="43.625969" lon="11.3616393"><ele>605.8</ele><time>2026-04-18T11:58:28.096Z</time></trkpt><trkpt lat="43.6260278" lon="11.3617619"><ele>607.2</ele><time>2026-04-18T11:58:29.095Z</time></trkpt><trkpt lat="43.6260673" lon="11.3618786"><ele>608.6</ele><time>2026-04-18T11:58:30.095Z</time></trkpt><trkpt lat="43.6260848" lon="11.3619907"><ele>610.0</ele><time>2026-04-18T11:58:31.095Z</time></trkpt><trkpt lat="43.6260865" lon="11.3621041"><ele>610.4</ele><time>2026-04-18T11:58:32.095Z</time></trkpt><trkpt lat="43.6260749" lon="11.3622161"><ele>610.8</ele><time>2026-04-18T11:58:33.095Z</time></trkpt><trkpt lat="43.6260724" lon="11.3623284"><ele>611.2</ele><time>2026-04-18T11:58:34.096Z</time></trkpt><trkpt lat="43.6260967" lon="11.3624912"><ele>611.6</ele><time>2026-04-18T11:58:36.095Z</time></trkpt><trkpt lat="43.6261718" lon="11.3624975"><ele>612.0</ele><time>2026-04-18T11:58:37.095Z</time></trkpt><trkpt lat="43.6262584" lon="11.3624135"><ele>616.8000000000001</ele><time>2026-04-18T11:58:39.095Z</time></trkpt><trkpt lat="43.6262785" lon="11.3623177"><ele>621.6</ele><time>2026-04-18T11:58:40.096Z</time></trkpt><trkpt lat="43.6263021" lon="11.362192"><ele>626.4000000000001</ele><time>2026-04-18T11:58:41.095Z</time></trkpt><trkpt lat="43.6262858" lon="11.3620354"><ele>631.2</ele><time>2026-04-18T11:58:42.095Z</time></trkpt><trkpt lat="43.6262972" lon="11.3618738"><ele>636.0</ele><time>2026-04-18T11:58:43.095Z</time></trkpt><trkpt lat="43.626317" lon="11.3617312"><ele>636.0</ele><time>2026-04-18T11:58:44.095Z</time></trkpt><trkpt lat="43.6263512" lon="11.3616183"><ele>636.0</ele><time>2026-04-18T11:58:45.095Z</time></trkpt><trkpt lat="43.6263945" lon="11.3615246"><ele>636.0</ele><time>2026-04-18T11:58:46.096Z</time></trkpt><trkpt lat="43.6264546" lon="11.3614614"><ele>636.0</ele><time>2026-04-18T11:58:47.096Z</time></trkpt><trkpt lat="43.6265344" lon="11.3614127"><ele>636.0</ele><time>2026-04-18T11:58:48.095Z</time></trkpt><trkpt lat="43.6266146" lon="11.361384"><ele>636.0</ele><time>2026-04-18T11:58:49.096Z</time></trkpt><trkpt lat="43.6266816" lon="11.3613851"><ele>636.0</ele><time>2026-04-18T11:58:50.096Z</time></trkpt><trkpt lat="43.6267511" lon="11.3614559"><ele>636.0</ele><time>2026-04-18T11:58:52.095Z</time></trkpt><trkpt lat="43.6267646" lon="11.361588"><ele>636.0</ele><time>2026-04-18T11:58:54.095Z</time></trkpt><trkpt lat="43.6267404" lon="11.3616729"><ele>636.0</ele><time>2026-04-18T11:58:55.095Z</time></trkpt><trkpt lat="43.6266919" lon="11.3617768"><ele>636.0</ele><time>2026-04-18T11:58:56.095Z</time></trkpt><trkpt lat="43.6266502" lon="11.3618848"><ele>636.0</ele><time>2026-04-18T11:58:57.096Z</time></trkpt><trkpt lat="43.6266327" lon="11.361973"><ele>636.0</ele><time>2026-04-18T11:58:58.096Z</time></trkpt><trkpt lat="43.6266481" lon="11.3621425"><ele>636.0</ele><time>2026-04-18T11:59:00.096Z</time></trkpt><trkpt lat="43.6266815" lon="11.3622256"><ele>636.0</ele><time>2026-04-18T11:59:01.096Z</time></trkpt><trkpt lat="43.6267307" lon="11.3623235"><ele>636.0</ele><time>2026-04-18T11:59:02.095Z</time></trkpt><trkpt lat="43.6267608" lon="11.3624114"><ele>636.0</ele><time>2026-04-18T11:59:03.095Z</time></trkpt><trkpt lat="43.6267777" lon="11.3625824"><ele>637.3333333333334</ele><time>2026-04-18T11:59:05.096Z</time></trkpt><trkpt lat="43.6267673" lon="11.3626848"><ele>638.6666666666666</ele><time>2026-04-18T11:59:06.095Z</time></trkpt><trkpt lat="43.6267613" lon="11.3627731"><ele>640.0</ele><time>2026-04-18T11:59:07.095Z</time></trkpt><trkpt lat="43.626772" lon="11.3629319"><ele>641.3333333333333</ele><time>2026-04-18T11:59:09.095Z</time></trkpt><trkpt lat="43.6268059" lon="11.3630429"><ele>642.6666666666666</ele><time>2026-04-18T11:59:10.096Z</time></trkpt><trkpt lat="43.6268503" lon="11.3631659"><ele>644.0</ele><time>2026-04-18T11:59:11.096Z</time></trkpt><trkpt lat="43.6268944" lon="11.3633052"><ele>644.8000000000001</ele><time>2026-04-18T11:59:12.095Z</time></trkpt><trkpt lat="43.6269461" lon="11.3634426"><ele>645.6</ele><time>2026-04-18T11:59:13.095Z</time></trkpt><trkpt lat="43.6269988" lon="11.3635481"><ele>646.4</ele><time>2026-04-18T11:59:14.095Z</time></trkpt><trkpt lat="43.6270749" lon="11.3636367"><ele>647.2</ele><time>2026-04-18T11:59:15.095Z</time></trkpt><trkpt lat="43.6271743" lon="11.3637128"><ele>648.0</ele><time>2026-04-18T11:59:16.096Z</time></trkpt><trkpt lat="43.6272976" lon="11.3637777"><ele>654.25</ele><time>2026-04-18T11:59:17.094Z</time></trkpt><trkpt lat="43.6274276" lon="11.3638253"><ele>660.5</ele><time>2026-04-18T11:59:18.095Z</time></trkpt><trkpt lat="43.6275924" lon="11.3638364"><ele>666.75</ele><time>2026-04-18T11:59:19.095Z</time></trkpt><trkpt lat="43.6277286" lon="11.3638488"><ele>673.0</ele><time>2026-04-18T11:59:20.096Z</time></trkpt><trkpt lat="43.6278176" lon="11.3638586"><ele>677.2</ele><time>2026-04-18T11:59:21.096Z</time></trkpt><trkpt lat="43.6278946" lon="11.3638984"><ele>681.4</ele><time>2026-04-18T11:59:22.095Z</time></trkpt><trkpt lat="43.6279661" lon="11.363965"><ele>685.6</ele><time>2026-04-18T11:59:23.095Z</time></trkpt><trkpt lat="43.6280333" lon="11.364072"><ele>689.8000000000001</ele><time>2026-04-18T11:59:24.095Z</time></trkpt><trkpt lat="43.6280941" lon="11.3642011"><ele>694.0</ele><time>2026-04-18T11:59:25.095Z</time></trkpt><trkpt lat="43.6281432" lon="11.3643444"><ele>694.0</ele><time>2026-04-18T11:59:26.095Z</time></trkpt><trkpt lat="43.628162" lon="11.3644631"><ele>694.0</ele><time>2026-04-18T11:59:27.095Z</time></trkpt><trkpt lat="43.6281825" lon="11.3645925"><ele>694.0</ele><time>2026-04-18T11:59:28.095Z</time></trkpt><trkpt lat="43.6281599" lon="11.3647692"><ele>694.0</ele><time>2026-04-18T11:59:29.095Z</time></trkpt><trkpt lat="43.6281383" lon="11.3648968"><ele>694.0</ele><time>2026-04-18T11:59:30.095Z</time></trkpt><trkpt lat="43.6280999" lon="11.36498"><ele>695.1666666666667</ele><time>2026-04-18T11:59:31.095Z</time></trkpt><trkpt lat="43.6281196" lon="11.3651076"><ele>696.3333333333334</ele><time>2026-04-18T11:59:33.095Z</time></trkpt><trkpt lat="43.6282099" lon="11.3651225"><ele>697.5</ele><time>2026-04-18T11:59:35.095Z</time></trkpt><trkpt lat="43.6282855" lon="11.3651218"><ele>698.6666666666666</ele><time>2026-04-18T11:59:36.095Z</time></trkpt><trkpt lat="43.6283594" lon="11.3651398"><ele>699.8333333333333</ele><time>2026-04-18T11:59:37.095Z</time></trkpt><trkpt lat="43.6284446" lon="11.3651773"><ele>701.0</ele><time>2026-04-18T11:59:38.095Z</time></trkpt><trkpt lat="43.6285194" lon="11.3652647"><ele>701.0</ele><time>2026-04-18T11:59:39.095Z</time></trkpt><trkpt lat="43.6285997" lon="11.3653413"><ele>701.0</ele><time>2026-04-18T11:59:40.095Z</time></trkpt><trkpt lat="43.628679" lon="11.365409"><ele>701.0</ele><time>2026-04-18T11:59:41.096Z</time></trkpt><trkpt lat="43.6287512" lon="11.3654871"><ele>701.0</ele><time>2026-04-18T11:59:42.096Z</time></trkpt><trkpt lat="43.6288248" lon="11.3655563"><ele>701.0</ele><time>2026-04-18T11:59:43.096Z</time></trkpt><trkpt lat="43.6288947" lon="11.3656288"><ele>703.8333333333333</ele><time>2026-04-18T11:59:44.096Z</time></trkpt><trkpt lat="43.6289611" lon="11.3656942"><ele>706.6666666666666</ele><time>2026-04-18T11:59:45.095Z</time></trkpt><trkpt lat="43.6290125" lon="11.3657535"><ele>709.5</ele><time>2026-04-18T11:59:46.094Z</time></trkpt><trkpt lat="43.6290721" lon="11.3658221"><ele>712.3333333333334</ele><time>2026-04-18T11:59:47.095Z</time></trkpt><trkpt lat="43.6291281" lon="11.3658988"><ele>715.1666666666667</ele><time>2026-04-18T11:59:48.095Z</time></trkpt><trkpt lat="43.6291855" lon="11.365968"><ele>718.0</ele><time>2026-04-18T11:59:49.096Z</time></trkpt><trkpt lat="43.6292372" lon="11.3660468"><ele>718.0</ele><time>2026-04-18T11:59:50.095Z</time></trkpt><trkpt lat="43.6292892" lon="11.3661195"><ele>718.0</ele><time>2026-04-18T11:59:51.095Z</time></trkpt><trkpt lat="43.629344" lon="11.366183"><ele>718.0</ele><time>2026-04-18T11:59:52.095Z</time></trkpt><trkpt lat="43.6294461" lon="11.3662569"><ele>718.0</ele><time>2026-04-18T11:59:54.096Z</time></trkpt><trkpt lat="43.6295394" lon="11.3663028"><ele>718.0</ele><time>2026-04-18T11:59:56.095Z</time></trkpt><trkpt lat="43.6296468" lon="11.3663806"><ele>718.5999999999999</ele><time>2026-04-18T11:59:58.096Z</time></trkpt><trkpt lat="43.6297288" lon="11.3664799"><ele>719.1999999999999</ele><time>2026-04-18T12:00:00.095Z</time></trkpt><trkpt lat="43.6298031" lon="11.3665727"><ele>719.8</ele><time>2026-04-18T12:00:02.095Z</time></trkpt><trkpt lat="43.6299049" lon="11.3666683"><ele>720.4</ele><time>2026-04-18T12:00:04.095Z</time></trkpt><trkpt lat="43.6299721" lon="11.3667131"><ele>721.0</ele><time>2026-04-18T12:00:05.095Z</time></trkpt><trkpt lat="43.6300476" lon="11.3667523"><ele>721.0</ele><time>2026-04-18T12:00:06.096Z</time></trkpt><trkpt lat="43.6301256" lon="11.366781"><ele>721.0</ele><time>2026-04-18T12:00:07.094Z</time></trkpt><trkpt lat="43.6302048" lon="11.3667908"><ele>721.0</ele><time>2026-04-18T12:00:08.096Z</time></trkpt><trkpt lat="43.6302892" lon="11.366804"><ele>721.0</ele><time>2026-04-18T12:00:09.095Z</time></trkpt><trkpt lat="43.6303858" lon="11.366763"><ele>721.0</ele><time>2026-04-18T12:00:10.095Z</time></trkpt><trkpt lat="43.6304708" lon="11.3667793"><ele>721.0</ele><time>2026-04-18T12:00:11.096Z</time></trkpt><trkpt lat="43.630568" lon="11.3668112"><ele>719.0</ele><time>2026-04-18T12:00:12.096Z</time></trkpt><trkpt lat="43.6306571" lon="11.3668609"><ele>717.0</ele><time>2026-04-18T12:00:13.095Z</time></trkpt><trkpt lat="43.6307437" lon="11.3669357"><ele>715.0</ele><time>2026-04-18T12:00:14.095Z</time></trkpt><trkpt lat="43.630837" lon="11.3670224"><ele>713.0</ele><time>2026-04-18T12:00:15.096Z</time></trkpt><trkpt lat="43.6309271" lon="11.367111"><ele>711.0</ele><time>2026-04-18T12:00:16.094Z</time></trkpt><trkpt lat="43.6310131" lon="11.3671714"><ele>710.4</ele><time>2026-04-18T12:00:17.095Z</time></trkpt><trkpt lat="43.6311106" lon="11.3672294"><ele>709.8</ele><time>2026-04-18T12:00:18.095Z</time></trkpt><trkpt lat="43.6312135" lon="11.3672276"><ele>709.1999999999999</ele><time>2026-04-18T12:00:19.096Z</time></trkpt><trkpt lat="43.6313153" lon="11.3672136"><ele>708.5999999999999</ele><time>2026-04-18T12:00:20.095Z</time></trkpt><trkpt lat="43.6314031" lon="11.3671915"><ele>708.0</ele><time>2026-04-18T12:00:21.095Z</time></trkpt><trkpt lat="43.6314722" lon="11.3671667"><ele>708.0</ele><time>2026-04-18T12:00:22.095Z</time></trkpt><trkpt lat="43.6315369" lon="11.3671502"><ele>708.0</ele><time>2026-04-18T12:00:23.096Z</time></trkpt><trkpt lat="43.6316335" lon="11.367103"><ele>708.0</ele><time>2026-04-18T12:00:25.095Z</time></trkpt><trkpt lat="43.6317181" lon="11.3670769"><ele>708.0</ele><time>2026-04-18T12:00:27.096Z</time></trkpt><trkpt lat="43.6317802" lon="11.3670598"><ele>708.0</ele><time>2026-04-18T12:00:29.095Z</time></trkpt><trkpt lat="43.6318821" lon="11.3669904"><ele>708.0</ele><time>2026-04-18T12:00:31.095Z</time></trkpt><trkpt lat="43.6319474" lon="11.3669349"><ele>709.2</ele><time>2026-04-18T12:00:32.095Z</time></trkpt><trkpt lat="43.6320275" lon="11.3668772"><ele>710.4</ele><time>2026-04-18T12:00:33.095Z</time></trkpt><trkpt lat="43.6321283" lon="11.3668213"><ele>711.6</ele><time>2026-04-18T12:00:34.095Z</time></trkpt><trkpt lat="43.6322356" lon="11.3667703"><ele>712.8000000000001</ele><time>2026-04-18T12:00:35.095Z</time></trkpt><trkpt lat="43.6323356" lon="11.3667182"><ele>714.0</ele><time>2026-04-18T12:00:36.096Z</time></trkpt><trkpt lat="43.6324348" lon="11.3666668"><ele>714.0</ele><time>2026-04-18T12:00:37.095Z</time></trkpt><trkpt lat="43.6325446" lon="11.3666179"><ele>714.0</ele><time>2026-04-18T12:00:38.095Z</time></trkpt><trkpt lat="43.6326605" lon="11.3665977"><ele>714.0</ele><time>2026-04-18T12:00:39.096Z</time></trkpt><trkpt lat="43.6327745" lon="11.36658"><ele>714.0</ele><time>2026-04-18T12:00:40.095Z</time></trkpt><trkpt lat="43.6328868" lon="11.3666046"><ele>714.5</ele><time>2026-04-18T12:00:41.095Z</time></trkpt><trkpt lat="43.6329919" lon="11.3666515"><ele>715.0</ele><time>2026-04-18T12:00:42.095Z</time></trkpt><trkpt lat="43.6330931" lon="11.3667181"><ele>715.5</ele><time>2026-04-18T12:00:43.095Z</time></trkpt><trkpt lat="43.633199" lon="11.3668111"><ele>716.0</ele><time>2026-04-18T12:00:44.094Z</time></trkpt><trkpt lat="43.6332149" lon="11.3670123"><ele>716.0</ele><time>2026-04-18T12:00:45.095Z</time></trkpt><trkpt lat="43.6332629" lon="11.3671556"><ele>716.0</ele><time>2026-04-18T12:00:46.096Z</time></trkpt><trkpt lat="43.6333047" lon="11.3673115"><ele>716.0</ele><time>2026-04-18T12:00:47.095Z</time></trkpt><trkpt lat="43.6333604" lon="11.3674435"><ele>716.0</ele><time>2026-04-18T12:00:48.095Z</time></trkpt><trkpt lat="43.6334112" lon="11.3675732"><ele>716.0</ele><time>2026-04-18T12:00:49.095Z</time></trkpt><trkpt lat="43.6334963" lon="11.3676917"><ele>716.0</ele><time>2026-04-18T12:00:50.095Z</time></trkpt><trkpt lat="43.6335542" lon="11.3678077"><ele>716.0</ele><time>2026-04-18T12:00:51.095Z</time></trkpt><trkpt lat="43.6336012" lon="11.3678846"><ele>716.0</ele><time>2026-04-18T12:00:52.096Z</time></trkpt><trkpt lat="43.633621" lon="11.3680497"><ele>716.0</ele><time>2026-04-18T12:00:54.096Z</time></trkpt><trkpt lat="43.6336275" lon="11.3681435"><ele>714.5</ele><time>2026-04-18T12:00:55.095Z</time></trkpt><trkpt lat="43.6336215" lon="11.3682485"><ele>713.0</ele><time>2026-04-18T12:00:56.096Z</time></trkpt><trkpt lat="43.6335533" lon="11.3684142"><ele>711.5</ele><time>2026-04-18T12:00:57.096Z</time></trkpt><trkpt lat="43.633515" lon="11.3685741"><ele>710.0</ele><time>2026-04-18T12:00:58.096Z</time></trkpt><trkpt lat="43.6334783" lon="11.3687447"><ele>709.0</ele><time>2026-04-18T12:00:59.095Z</time></trkpt><trkpt lat="43.6334374" lon="11.3688974"><ele>708.0</ele><time>2026-04-18T12:01:00.096Z</time></trkpt><trkpt lat="43.6333904" lon="11.3690521"><ele>707.0</ele><time>2026-04-18T12:01:01.096Z</time></trkpt><trkpt lat="43.6333529" lon="11.3691925"><ele>706.0</ele><time>2026-04-18T12:01:02.095Z</time></trkpt><trkpt lat="43.6333406" lon="11.36935"><ele>706.0</ele><time>2026-04-18T12:01:03.096Z</time></trkpt><trkpt lat="43.6333606" lon="11.3694911"><ele>706.0</ele><time>2026-04-18T12:01:04.095Z</time></trkpt><trkpt lat="43.6333403" lon="11.3695935"><ele>706.0</ele><time>2026-04-18T12:01:05.096Z</time></trkpt><trkpt lat="43.6333305" lon="11.3697028"><ele>706.0</ele><time>2026-04-18T12:01:06.095Z</time></trkpt><trkpt lat="43.6332603" lon="11.3697608"><ele>706.0</ele><time>2026-04-18T12:01:07.096Z</time></trkpt><trkpt lat="43.6332188" lon="11.3698658"><ele>706.0</ele><time>2026-04-18T12:01:08.095Z</time></trkpt><trkpt lat="43.6331884" lon="11.369972"><ele>705.8333333333334</ele><time>2026-04-18T12:01:09.095Z</time></trkpt><trkpt lat="43.6332041" lon="11.3700718"><ele>705.6666666666667</ele><time>2026-04-18T12:01:10.096Z</time></trkpt><trkpt lat="43.6332197" lon="11.3701772"><ele>705.5</ele><time>2026-04-18T12:01:11.096Z</time></trkpt><trkpt lat="43.6332282" lon="11.370281"><ele>705.3333333333334</ele><time>2026-04-18T12:01:12.095Z</time></trkpt><trkpt lat="43.6332379" lon="11.370387"><ele>705.1666666666666</ele><time>2026-04-18T12:01:13.095Z</time></trkpt><trkpt lat="43.6332436" lon="11.3704914"><ele>705.0</ele><time>2026-04-18T12:01:14.095Z</time></trkpt><trkpt lat="43.6332382" lon="11.3706046"><ele>704.8333333333334</ele><time>2026-04-18T12:01:15.095Z</time></trkpt><trkpt lat="43.6332337" lon="11.3707022"><ele>704.6666666666666</ele><time>2026-04-18T12:01:16.096Z</time></trkpt><trkpt lat="43.6332014" lon="11.3708128"><ele>704.5</ele><time>2026-04-18T12:01:17.095Z</time></trkpt><trkpt lat="43.6331893" lon="11.3709278"><ele>704.3333333333333</ele><time>2026-04-18T12:01:18.095Z</time></trkpt><trkpt lat="43.6332162" lon="11.3710387"><ele>704.1666666666666</ele><time>2026-04-18T12:01:19.095Z</time></trkpt><trkpt lat="43.6332453" lon="11.3711427"><ele>704.0</ele><time>2026-04-18T12:01:20.095Z</time></trkpt><trkpt lat="43.633298" lon="11.3712308"><ele>704.0</ele><time>2026-04-18T12:01:21.095Z</time></trkpt><trkpt lat="43.6333477" lon="11.3713027"><ele>704.0</ele><time>2026-04-18T12:01:22.095Z</time></trkpt><trkpt lat="43.6334214" lon="11.3713727"><ele>704.0</ele><time>2026-04-18T12:01:23.095Z</time></trkpt><trkpt lat="43.6335717" lon="11.3713844"><ele>704.0</ele><time>2026-04-18T12:01:24.096Z</time></trkpt><trkpt lat="43.6336798" lon="11.3714254"><ele>704.0</ele><time>2026-04-18T12:01:25.095Z</time></trkpt><trkpt lat="43.6337747" lon="11.3714588"><ele>703.8000000000001</ele><time>2026-04-18T12:01:26.095Z</time></trkpt><trkpt lat="43.6338621" lon="11.3715129"><ele>703.6</ele><time>2026-04-18T12:01:27.095Z</time></trkpt><trkpt lat="43.6339474" lon="11.3715724"><ele>703.4</ele><time>2026-04-18T12:01:28.095Z</time></trkpt><trkpt lat="43.634022" lon="11.3716318"><ele>703.2</ele><time>2026-04-18T12:01:29.096Z</time></trkpt><trkpt lat="43.6340902" lon="11.37174"><ele>703.0</ele><time>2026-04-18T12:01:30.095Z</time></trkpt><trkpt lat="43.6341598" lon="11.3718517"><ele>703.0</ele><time>2026-04-18T12:01:31.095Z</time></trkpt><trkpt lat="43.634223" lon="11.3719504"><ele>703.0</ele><time>2026-04-18T12:01:32.095Z</time></trkpt><trkpt lat="43.6342659" lon="11.3720464"><ele>703.0</ele><time>2026-04-18T12:01:33.095Z</time></trkpt><trkpt lat="43.6342732" lon="11.3721672"><ele>703.0</ele><time>2026-04-18T12:01:34.096Z</time></trkpt><trkpt lat="43.6343" lon="11.3723075"><ele>703.0</ele><time>2026-04-18T12:01:35.095Z</time></trkpt><trkpt lat="43.6343213" lon="11.3724461"><ele>703.1666666666667</ele><time>2026-04-18T12:01:36.095Z</time></trkpt><trkpt lat="43.6343516" lon="11.3725754"><ele>703.3333333333334</ele><time>2026-04-18T12:01:37.095Z</time></trkpt><trkpt lat="43.6343877" lon="11.3726885"><ele>703.5</ele><time>2026-04-18T12:01:38.095Z</time></trkpt><trkpt lat="43.6344218" lon="11.3727967"><ele>703.6666666666666</ele><time>2026-04-18T12:01:39.096Z</time></trkpt><trkpt lat="43.6344606" lon="11.3728673"><ele>703.8333333333333</ele><time>2026-04-18T12:01:40.095Z</time></trkpt><trkpt lat="43.6345119" lon="11.3729582"><ele>704.0</ele><time>2026-04-18T12:01:41.096Z</time></trkpt><trkpt lat="43.6345792" lon="11.3730407"><ele>699.2</ele><time>2026-04-18T12:01:42.096Z</time></trkpt><trkpt lat="43.6346335" lon="11.3731428"><ele>694.4000000000001</ele><time>2026-04-18T12:01:43.095Z</time></trkpt><trkpt lat="43.6346986" lon="11.3732283"><ele>689.6</ele><time>2026-04-18T12:01:44.095Z</time></trkpt><trkpt lat="43.6347807" lon="11.3733177"><ele>684.8</ele><time>2026-04-18T12:01:45.095Z</time></trkpt><trkpt lat="43.6348568" lon="11.3734016"><ele>680.0</ele><time>2026-04-18T12:01:46.096Z</time></trkpt><trkpt lat="43.6349267" lon="11.3734691"><ele>680.0</ele><time>2026-04-18T12:01:47.095Z</time></trkpt><trkpt lat="43.6349899" lon="11.3735362"><ele>680.0</ele><time>2026-04-18T12:01:48.095Z</time></trkpt><trkpt lat="43.6350394" lon="11.3735913"><ele>680.0</ele><time>2026-04-18T12:01:49.095Z</time></trkpt><trkpt lat="43.6350998" lon="11.3736917"><ele>680.0</ele><time>2026-04-18T12:01:51.095Z</time></trkpt><trkpt lat="43.6351504" lon="11.3737496"><ele>680.0</ele><time>2026-04-18T12:02:13.095Z</time></trkpt><trkpt lat="43.6352554" lon="11.373807"><ele>680.0</ele><time>2026-04-18T12:02:15.095Z</time></trkpt><trkpt lat="43.6353299" lon="11.3738389"><ele>680.1666666666666</ele><time>2026-04-18T12:02:16.095Z</time></trkpt><trkpt lat="43.635405" lon="11.3738662"><ele>680.3333333333333</ele><time>2026-04-18T12:02:17.095Z</time></trkpt><trkpt lat="43.6354943" lon="11.373887"><ele>680.5</ele><time>2026-04-18T12:02:18.095Z</time></trkpt><trkpt lat="43.6355835" lon="11.3739146"><ele>680.6666666666666</ele><time>2026-04-18T12:02:19.095Z</time></trkpt><trkpt lat="43.6356795" lon="11.3739298"><ele>680.8333333333334</ele><time>2026-04-18T12:02:20.096Z</time></trkpt><trkpt lat="43.6357662" lon="11.3739554"><ele>681.0</ele><time>2026-04-18T12:02:21.096Z</time></trkpt><trkpt lat="43.6358556" lon="11.3739975"><ele>681.0</ele><time>2026-04-18T12:02:22.095Z</time></trkpt><trkpt lat="43.6359458" lon="11.3740837"><ele>681.0</ele><time>2026-04-18T12:02:23.095Z</time></trkpt><trkpt lat="43.6360082" lon="11.374187"><ele>681.0</ele><time>2026-04-18T12:02:24.095Z</time></trkpt><trkpt lat="43.6360785" lon="11.3742885"><ele>681.0</ele><time>2026-04-18T12:02:25.095Z</time></trkpt><trkpt lat="43.6361568" lon="11.3743865"><ele>681.0</ele><time>2026-04-18T12:02:26.095Z</time></trkpt><trkpt lat="43.6362231" lon="11.3744518"><ele>679.1999999999999</ele><time>2026-04-18T12:02:27.096Z</time></trkpt><trkpt lat="43.6362901" lon="11.3744835"><ele>677.4</ele><time>2026-04-18T12:02:28.095Z</time></trkpt><trkpt lat="43.6363772" lon="11.3745055"><ele>675.6</ele><time>2026-04-18T12:02:29.095Z</time></trkpt><trkpt lat="43.6364401" lon="11.3745292"><ele>673.8</ele><time>2026-04-18T12:02:30.095Z</time></trkpt><trkpt lat="43.6365515" lon="11.3745525"><ele>672.0</ele><time>2026-04-18T12:02:32.095Z</time></trkpt><trkpt lat="43.6366788" lon="11.374659"><ele>675.4000000000001</ele><time>2026-04-18T12:02:34.095Z</time></trkpt><trkpt lat="43.6367531" lon="11.3747552"><ele>678.8000000000001</ele><time>2026-04-18T12:02:35.095Z</time></trkpt><trkpt lat="43.6368481" lon="11.3748387"><ele>682.2</ele><time>2026-04-18T12:02:36.096Z</time></trkpt><trkpt lat="43.6369584" lon="11.3749197"><ele>685.6</ele><time>2026-04-18T12:02:37.095Z</time></trkpt><trkpt lat="43.6370561" lon="11.3749616"><ele>689.0</ele><time>2026-04-18T12:02:38.095Z</time></trkpt><trkpt lat="43.6371416" lon="11.3749872"><ele>689.0</ele><time>2026-04-18T12:02:39.095Z</time></trkpt><trkpt lat="43.6372336" lon="11.3749131"><ele>689.0</ele><time>2026-04-18T12:02:40.095Z</time></trkpt><trkpt lat="43.6373205" lon="11.3748427"><ele>689.0</ele><time>2026-04-18T12:02:41.096Z</time></trkpt><trkpt lat="43.6374047" lon="11.3748123"><ele>689.0</ele><time>2026-04-18T12:02:42.096Z</time></trkpt><trkpt lat="43.6374798" lon="11.37484"><ele>689.0</ele><time>2026-04-18T12:02:43.096Z</time></trkpt><trkpt lat="43.6375569" lon="11.3748926"><ele>689.0</ele><time>2026-04-18T12:02:44.096Z</time></trkpt><trkpt lat="43.6376362" lon="11.374945"><ele>689.0</ele><time>2026-04-18T12:02:45.095Z</time></trkpt><trkpt lat="43.6377382" lon="11.3750074"><ele>689.0</ele><time>2026-04-18T12:02:46.096Z</time></trkpt><trkpt lat="43.6378405" lon="11.3750612"><ele>689.0</ele><time>2026-04-18T12:02:47.095Z</time></trkpt><trkpt lat="43.6379489" lon="11.3750218"><ele>689.0</ele><time>2026-04-18T12:02:48.095Z</time></trkpt><trkpt lat="43.6380533" lon="11.3749738"><ele>689.8333333333333</ele><time>2026-04-18T12:02:49.095Z</time></trkpt><trkpt lat="43.6381387" lon="11.3749359"><ele>690.6666666666666</ele><time>2026-04-18T12:02:50.095Z</time></trkpt><trkpt lat="43.6382119" lon="11.3749263"><ele>691.5</ele><time>2026-04-18T12:02:51.095Z</time></trkpt><trkpt lat="43.6382839" lon="11.3749676"><ele>692.3333333333334</ele><time>2026-04-18T12:02:52.096Z</time></trkpt><trkpt lat="43.6383659" lon="11.375016"><ele>693.1666666666667</ele><time>2026-04-18T12:02:53.095Z</time></trkpt><trkpt lat="43.6384447" lon="11.3750999"><ele>694.0</ele><time>2026-04-18T12:02:54.096Z</time></trkpt><trkpt lat="43.6385174" lon="11.3751318"><ele>694.0</ele><time>2026-04-18T12:02:55.095Z</time></trkpt><trkpt lat="43.6386054" lon="11.3751535"><ele>694.0</ele><time>2026-04-18T12:02:56.095Z</time></trkpt><trkpt lat="43.6387049" lon="11.375159"><ele>694.0</ele><time>2026-04-18T12:02:57.095Z</time></trkpt><trkpt lat="43.6387944" lon="11.3751389"><ele>694.0</ele><time>2026-04-18T12:02:58.095Z</time></trkpt><trkpt lat="43.6389028" lon="11.3751248"><ele>694.0</ele><time>2026-04-18T12:02:59.094Z</time></trkpt><trkpt lat="43.6390201" lon="11.3751118"><ele>695.8000000000001</ele><time>2026-04-18T12:03:00.094Z</time></trkpt><trkpt lat="43.6391321" lon="11.3751074"><ele>697.6</ele><time>2026-04-18T12:03:01.094Z</time></trkpt><trkpt lat="43.6392428" lon="11.3751072"><ele>699.4</ele><time>2026-04-18T12:03:02.094Z</time></trkpt><trkpt lat="43.6393334" lon="11.3751259"><ele>701.2</ele><time>2026-04-18T12:03:03.095Z</time></trkpt><trkpt lat="43.6394204" lon="11.375139"><ele>703.0</ele><time>2026-04-18T12:03:04.095Z</time></trkpt><trkpt lat="43.6395135" lon="11.3751477"><ele>703.0</ele><time>2026-04-18T12:03:05.094Z</time></trkpt><trkpt lat="43.639602" lon="11.3751658"><ele>703.0</ele><time>2026-04-18T12:03:06.094Z</time></trkpt><trkpt lat="43.6397137" lon="11.3751835"><ele>703.0</ele><time>2026-04-18T12:03:08.095Z</time></trkpt><trkpt lat="43.6398519" lon="11.375203"><ele>703.0</ele><time>2026-04-18T12:03:10.095Z</time></trkpt><trkpt lat="43.63993" lon="11.3752314"><ele>703.0</ele><time>2026-04-18T12:03:11.095Z</time></trkpt><trkpt lat="43.6400324" lon="11.3752685"><ele>703.0</ele><time>2026-04-18T12:03:12.095Z</time></trkpt><trkpt lat="43.640175" lon="11.3753296"><ele>703.0</ele><time>2026-04-18T12:03:13.094Z</time></trkpt><trkpt lat="43.6402969" lon="11.3753772"><ele>703.0</ele><time>2026-04-18T12:03:14.094Z</time></trkpt><trkpt lat="43.6404211" lon="11.3754395"><ele>703.0</ele><time>2026-04-18T12:03:15.094Z</time></trkpt><trkpt lat="43.6405148" lon="11.3755018"><ele>703.4</ele><time>2026-04-18T12:03:16.094Z</time></trkpt><trkpt lat="43.640615" lon="11.3755726"><ele>703.8</ele><time>2026-04-18T12:03:17.095Z</time></trkpt><trkpt lat="43.6406974" lon="11.3756263"><ele>704.2</ele><time>2026-04-18T12:03:18.094Z</time></trkpt><trkpt lat="43.6407337" lon="11.3757081"><ele>704.6</ele><time>2026-04-18T12:03:19.094Z</time></trkpt><trkpt lat="43.6408174" lon="11.3758075"><ele>705.0</ele><time>2026-04-18T12:03:20.094Z</time></trkpt><trkpt lat="43.6408731" lon="11.3758962"><ele>705.0</ele><time>2026-04-18T12:03:21.094Z</time></trkpt><trkpt lat="43.6409437" lon="11.3759644"><ele>705.0</ele><time>2026-04-18T12:03:22.094Z</time></trkpt><trkpt lat="43.6410028" lon="11.3760146"><ele>705.0</ele><time>2026-04-18T12:03:23.094Z</time></trkpt><trkpt lat="43.6410611" lon="11.3760535"><ele>705.0</ele><time>2026-04-18T12:03:24.094Z</time></trkpt><trkpt lat="43.641146" lon="11.375969"><ele>705.0</ele><time>2026-04-18T12:03:27.094Z</time></trkpt><trkpt lat="43.6411763" lon="11.3758584"><ele>705.0</ele><time>2026-04-18T12:03:29.094Z</time></trkpt><trkpt lat="43.6412043" lon="11.37577"><ele>705.0</ele><time>2026-04-18T12:03:31.094Z</time></trkpt><trkpt lat="43.6412182" lon="11.3756783"><ele>705.0</ele><time>2026-04-18T12:04:28.094Z</time></trkpt><trkpt lat="43.6412314" lon="11.3755365"><ele>705.0</ele><time>2026-04-18T12:04:29.094Z</time></trkpt><trkpt lat="43.6412" lon="11.3754348"><ele>705.0</ele><time>2026-04-18T12:04:30.094Z</time></trkpt><trkpt lat="43.6411821" lon="11.3753498"><ele>705.0</ele><time>2026-04-18T12:04:31.094Z</time></trkpt><trkpt lat="43.6411436" lon="11.3752175"><ele>705.0</ele><time>2026-04-18T12:04:32.094Z</time></trkpt><trkpt lat="43.6411322" lon="11.3750952"><ele>705.0</ele><time>2026-04-18T12:04:33.094Z</time></trkpt><trkpt lat="43.6411377" lon="11.374976"><ele>705.0</ele><time>2026-04-18T12:04:34.094Z</time></trkpt><trkpt lat="43.6411704" lon="11.3748504"><ele>705.0</ele><time>2026-04-18T12:04:35.094Z</time></trkpt><trkpt lat="43.6412171" lon="11.3747115"><ele>705.0</ele><time>2026-04-18T12:04:36.094Z</time></trkpt><trkpt lat="43.6412739" lon="11.3745779"><ele>705.0</ele><time>2026-04-18T12:04:37.094Z</time></trkpt><trkpt lat="43.6413457" lon="11.3745079"><ele>704.4</ele><time>2026-04-18T12:04:38.094Z</time></trkpt><trkpt lat="43.6414121" lon="11.3744321"><ele>703.8</ele><time>2026-04-18T12:04:39.095Z</time></trkpt><trkpt lat="43.6414892" lon="11.3743389"><ele>703.2</ele><time>2026-04-18T12:04:40.094Z</time></trkpt><trkpt lat="43.6415712" lon="11.3742495"><ele>702.6</ele><time>2026-04-18T12:04:41.095Z</time></trkpt><trkpt lat="43.6416636" lon="11.3741212"><ele>702.0</ele><time>2026-04-18T12:04:42.094Z</time></trkpt><trkpt lat="43.6417137" lon="11.374032"><ele>702.0</ele><time>2026-04-18T12:04:43.094Z</time></trkpt><trkpt lat="43.6417837" lon="11.3739785"><ele>702.0</ele><time>2026-04-18T12:04:44.094Z</time></trkpt><trkpt lat="43.6418449" lon="11.3739502"><ele>702.0</ele><time>2026-04-18T12:04:45.095Z</time></trkpt><trkpt lat="43.6419402" lon="11.3739423"><ele>702.0</ele><time>2026-04-18T12:04:46.094Z</time></trkpt><trkpt lat="43.642033" lon="11.3739116"><ele>702.0</ele><time>2026-04-18T12:04:47.094Z</time></trkpt><trkpt lat="43.642096" lon="11.3739236"><ele>702.0</ele><time>2026-04-18T12:04:48.094Z</time></trkpt><trkpt lat="43.642176" lon="11.3739651"><ele>702.4000000000001</ele><time>2026-04-18T12:04:49.095Z</time></trkpt><trkpt lat="43.6422604" lon="11.3740267"><ele>702.8000000000001</ele><time>2026-04-18T12:04:50.094Z</time></trkpt><trkpt lat="43.642354" lon="11.3740757"><ele>703.2</ele><time>2026-04-18T12:04:51.094Z</time></trkpt><trkpt lat="43.6424411" lon="11.374112"><ele>703.6</ele><time>2026-04-18T12:04:52.094Z</time></trkpt><trkpt lat="43.6425058" lon="11.3741121"><ele>704.0</ele><time>2026-04-18T12:04:53.094Z</time></trkpt><trkpt lat="43.6426023" lon="11.3740807"><ele>704.0</ele><time>2026-04-18T12:04:54.095Z</time></trkpt><trkpt lat="43.6426868" lon="11.3739973"><ele>704.0</ele><time>2026-04-18T12:04:55.095Z</time></trkpt><trkpt lat="43.6427803" lon="11.3739167"><ele>704.0</ele><time>2026-04-18T12:04:56.094Z</time></trkpt><trkpt lat="43.6428227" lon="11.3738209"><ele>704.0</ele><time>2026-04-18T12:04:57.094Z</time></trkpt><trkpt lat="43.6428617" lon="11.3737273"><ele>704.0</ele><time>2026-04-18T12:04:58.095Z</time></trkpt><trkpt lat="43.6428988" lon="11.3736005"><ele>702.2</ele><time>2026-04-18T12:04:59.094Z</time></trkpt><trkpt lat="43.6429181" lon="11.3734778"><ele>700.4000000000001</ele><time>2026-04-18T12:05:00.094Z</time></trkpt><trkpt lat="43.6429245" lon="11.3733545"><ele>698.6</ele><time>2026-04-18T12:05:01.094Z</time></trkpt><trkpt lat="43.6429382" lon="11.3732577"><ele>696.8</ele><time>2026-04-18T12:05:02.095Z</time></trkpt><trkpt lat="43.6430042" lon="11.3731163"><ele>695.0</ele><time>2026-04-18T12:05:04.094Z</time></trkpt><trkpt lat="43.6431183" lon="11.3730751"><ele>695.0</ele><time>2026-04-18T12:05:05.095Z</time></trkpt><trkpt lat="43.6432043" lon="11.3730183"><ele>695.0</ele><time>2026-04-18T12:05:06.094Z</time></trkpt><trkpt lat="43.6433005" lon="11.3729765"><ele>695.0</ele><time>2026-04-18T12:05:07.094Z</time></trkpt><trkpt lat="43.6433867" lon="11.3729509"><ele>695.0</ele><time>2026-04-18T12:05:08.095Z</time></trkpt><trkpt lat="43.6434519" lon="11.3729614"><ele>695.0</ele><time>2026-04-18T12:05:09.094Z</time></trkpt><trkpt lat="43.6435332" lon="11.373057"><ele>695.0</ele><time>2026-04-18T12:05:11.094Z</time></trkpt><trkpt lat="43.6435707" lon="11.3731443"><ele>695.0</ele><time>2026-04-18T12:05:12.095Z</time></trkpt><trkpt lat="43.6436487" lon="11.3732782"><ele>695.0</ele><time>2026-04-18T12:05:14.095Z</time></trkpt><trkpt lat="43.6437596" lon="11.3732693"><ele>695.0</ele><time>2026-04-18T12:05:15.095Z</time></trkpt><trkpt lat="43.6438631" lon="11.373268"><ele>695.0</ele><time>2026-04-18T12:05:16.095Z</time></trkpt><trkpt lat="43.6439461" lon="11.3732711"><ele>694.8333333333333</ele><time>2026-04-18T12:05:17.095Z</time></trkpt><trkpt lat="43.6440286" lon="11.3733011"><ele>694.6666666666666</ele><time>2026-04-18T12:05:18.094Z</time></trkpt><trkpt lat="43.644113" lon="11.3733417"><ele>694.5</ele><time>2026-04-18T12:05:19.095Z</time></trkpt><trkpt lat="43.6441958" lon="11.3733942"><ele>694.3333333333334</ele><time>2026-04-18T12:05:20.095Z</time></trkpt><trkpt lat="43.6442555" lon="11.3734356"><ele>694.1666666666667</ele><time>2026-04-18T12:05:21.095Z</time></trkpt><trkpt lat="43.6443177" lon="11.373472"><ele>694.0</ele><time>2026-04-18T12:05:22.094Z</time></trkpt><trkpt lat="43.6444045" lon="11.3733873"><ele>694.0</ele><time>2026-04-18T12:05:24.095Z</time></trkpt><trkpt lat="43.6444516" lon="11.3732148"><ele>694.0</ele><time>2026-04-18T12:05:26.094Z</time></trkpt><trkpt lat="43.6444966" lon="11.3731277"><ele>694.0</ele><time>2026-04-18T12:05:27.095Z</time></trkpt><trkpt lat="43.6445369" lon="11.373032"><ele>694.0</ele><time>2026-04-18T12:05:28.094Z</time></trkpt><trkpt lat="43.644563" lon="11.3729522"><ele>694.0</ele><time>2026-04-18T12:05:29.094Z</time></trkpt><trkpt lat="43.6445844" lon="11.3728684"><ele>694.0</ele><time>2026-04-18T12:05:30.094Z</time></trkpt><trkpt lat="43.6445512" lon="11.3727913"><ele>695.6666666666667</ele><time>2026-04-18T12:05:31.094Z</time></trkpt><trkpt lat="43.6444668" lon="11.3727277"><ele>697.3333333333334</ele><time>2026-04-18T12:05:32.095Z</time></trkpt><trkpt lat="43.6444196" lon="11.3726431"><ele>699.0</ele><time>2026-04-18T12:05:33.094Z</time></trkpt><trkpt lat="43.644383" lon="11.372557"><ele>700.6666666666666</ele><time>2026-04-18T12:05:34.095Z</time></trkpt><trkpt lat="43.6443475" lon="11.3724442"><ele>702.3333333333333</ele><time>2026-04-18T12:05:35.094Z</time></trkpt><trkpt lat="43.6443286" lon="11.3723243"><ele>704.0</ele><time>2026-04-18T12:05:36.094Z</time></trkpt><trkpt lat="43.6443331" lon="11.3721937"><ele>702.2</ele><time>2026-04-18T12:05:37.094Z</time></trkpt><trkpt lat="43.6443687" lon="11.3720382"><ele>700.4000000000001</ele><time>2026-04-18T12:05:38.094Z</time></trkpt><trkpt lat="43.6444102" lon="11.3718981"><ele>698.6</ele><time>2026-04-18T12:05:39.095Z</time></trkpt><trkpt lat="43.6444536" lon="11.3717692"><ele>696.8</ele><time>2026-04-18T12:05:40.095Z</time></trkpt><trkpt lat="43.6444946" lon="11.3716785"><ele>695.0</ele><time>2026-04-18T12:05:41.094Z</time></trkpt><trkpt lat="43.6445409" lon="11.3716123"><ele>695.0</ele><time>2026-04-18T12:05:42.095Z</time></trkpt><trkpt lat="43.6446042" lon="11.3715528"><ele>695.0</ele><time>2026-04-18T12:05:43.094Z</time></trkpt><trkpt lat="43.6446599" lon="11.3715003"><ele>695.0</ele><time>2026-04-18T12:05:44.094Z</time></trkpt><trkpt lat="43.6446954" lon="11.3713801"><ele>695.0</ele><time>2026-04-18T12:05:45.095Z</time></trkpt><trkpt lat="43.6447348" lon="11.3712517"><ele>695.0</ele><time>2026-04-18T12:05:46.094Z</time></trkpt><trkpt lat="43.6447872" lon="11.3711588"><ele>695.0</ele><time>2026-04-18T12:05:47.095Z</time></trkpt><trkpt lat="43.6448634" lon="11.3711125"><ele>692.2</ele><time>2026-04-18T12:05:48.095Z</time></trkpt><trkpt lat="43.6449463" lon="11.3710747"><ele>689.4</ele><time>2026-04-18T12:05:49.095Z</time></trkpt><trkpt lat="43.6450888" lon="11.3710435"><ele>686.5999999999999</ele><time>2026-04-18T12:05:50.094Z</time></trkpt><trkpt lat="43.6451807" lon="11.3710246"><ele>683.8</ele><time>2026-04-18T12:05:51.095Z</time></trkpt><trkpt lat="43.6452824" lon="11.3709982"><ele>681.0</ele><time>2026-04-18T12:05:52.094Z</time></trkpt><trkpt lat="43.6453453" lon="11.3709727"><ele>681.0</ele><time>2026-04-18T12:05:53.094Z</time></trkpt><trkpt lat="43.6454527" lon="11.3709436"><ele>681.0</ele><time>2026-04-18T12:05:54.095Z</time></trkpt><trkpt lat="43.6455538" lon="11.3708981"><ele>681.0</ele><time>2026-04-18T12:05:55.095Z</time></trkpt><trkpt lat="43.645655" lon="11.3708538"><ele>681.0</ele><time>2026-04-18T12:05:56.095Z</time></trkpt><trkpt lat="43.6457433" lon="11.3708534"><ele>681.0</ele><time>2026-04-18T12:05:57.094Z</time></trkpt><trkpt lat="43.645837" lon="11.3708475"><ele>681.0</ele><time>2026-04-18T12:05:58.094Z</time></trkpt><trkpt lat="43.6459282" lon="11.3708605"><ele>681.0</ele><time>2026-04-18T12:05:59.094Z</time></trkpt><trkpt lat="43.6460221" lon="11.3708882"><ele>681.0</ele><time>2026-04-18T12:06:00.095Z</time></trkpt><trkpt lat="43.6461003" lon="11.3709215"><ele>681.0</ele><time>2026-04-18T12:06:01.094Z</time></trkpt><trkpt lat="43.6461825" lon="11.3709601"><ele>681.0</ele><time>2026-04-18T12:06:02.094Z</time></trkpt><trkpt lat="43.6462585" lon="11.3710081"><ele>681.0</ele><time>2026-04-18T12:06:03.095Z</time></trkpt><trkpt lat="43.6463343" lon="11.3710593"><ele>679.8333333333334</ele><time>2026-04-18T12:06:04.094Z</time></trkpt><trkpt lat="43.6463954" lon="11.3711141"><ele>678.6666666666666</ele><time>2026-04-18T12:06:05.094Z</time></trkpt><trkpt lat="43.6464641" lon="11.3711768"><ele>677.5</ele><time>2026-04-18T12:06:06.094Z</time></trkpt><trkpt lat="43.6465334" lon="11.371243"><ele>676.3333333333333</ele><time>2026-04-18T12:06:07.094Z</time></trkpt><trkpt lat="43.6466025" lon="11.3713078"><ele>675.1666666666666</ele><time>2026-04-18T12:06:08.094Z</time></trkpt><trkpt lat="43.6466722" lon="11.3713592"><ele>674.0</ele><time>2026-04-18T12:06:09.094Z</time></trkpt><trkpt lat="43.6467501" lon="11.3714133"><ele>675.3333333333333</ele><time>2026-04-18T12:06:10.095Z</time></trkpt><trkpt lat="43.646815" lon="11.3714212"><ele>676.6666666666666</ele><time>2026-04-18T12:06:11.094Z</time></trkpt><trkpt lat="43.6468825" lon="11.3714399"><ele>678.0</ele><time>2026-04-18T12:06:12.095Z</time></trkpt><trkpt lat="43.646942" lon="11.3713711"><ele>679.3333333333334</ele><time>2026-04-18T12:06:14.095Z</time></trkpt><trkpt lat="43.6470356" lon="11.3712757"><ele>680.6666666666667</ele><time>2026-04-18T12:06:16.094Z</time></trkpt><trkpt lat="43.6470937" lon="11.3712273"><ele>682.0</ele><time>2026-04-18T12:06:17.094Z</time></trkpt><trkpt lat="43.6471673" lon="11.371081"><ele>682.0</ele><time>2026-04-18T12:06:19.094Z</time></trkpt><trkpt lat="43.6472442" lon="11.3709446"><ele>682.0</ele><time>2026-04-18T12:06:21.095Z</time></trkpt><trkpt lat="43.6473093" lon="11.3708276"><ele>682.0</ele><time>2026-04-18T12:06:22.094Z</time></trkpt><trkpt lat="43.647371" lon="11.3707253"><ele>682.0</ele><time>2026-04-18T12:06:23.095Z</time></trkpt><trkpt lat="43.647442" lon="11.3706604"><ele>682.0</ele><time>2026-04-18T12:06:24.094Z</time></trkpt><trkpt lat="43.6475507" lon="11.3706062"><ele>682.0</ele><time>2026-04-18T12:06:25.095Z</time></trkpt><trkpt lat="43.6476962" lon="11.3705442"><ele>682.0</ele><time>2026-04-18T12:06:26.094Z</time></trkpt><trkpt lat="43.6478168" lon="11.3704899"><ele>682.0</ele><time>2026-04-18T12:06:27.094Z</time></trkpt><trkpt lat="43.6479322" lon="11.3704461"><ele>682.0</ele><time>2026-04-18T12:06:28.094Z</time></trkpt><trkpt lat="43.648029" lon="11.3703982"><ele>680.1666666666667</ele><time>2026-04-18T12:06:29.094Z</time></trkpt><trkpt lat="43.6481039" lon="11.3703367"><ele>678.3333333333334</ele><time>2026-04-18T12:06:30.094Z</time></trkpt><trkpt lat="43.6481728" lon="11.3702791"><ele>676.5</ele><time>2026-04-18T12:06:31.095Z</time></trkpt><trkpt lat="43.6482294" lon="11.3702015"><ele>674.6666666666666</ele><time>2026-04-18T12:06:32.094Z</time></trkpt><trkpt lat="43.6482788" lon="11.3701272"><ele>672.8333333333333</ele><time>2026-04-18T12:06:33.095Z</time></trkpt><trkpt lat="43.648313" lon="11.3699661"><ele>671.0</ele><time>2026-04-18T12:06:34.095Z</time></trkpt><trkpt lat="43.648351" lon="11.3698451"><ele>669.5999999999999</ele><time>2026-04-18T12:06:35.094Z</time></trkpt><trkpt lat="43.6483892" lon="11.3696824"><ele>668.2</ele><time>2026-04-18T12:06:36.093Z</time></trkpt><trkpt lat="43.6484454" lon="11.369567"><ele>666.8</ele><time>2026-04-18T12:06:37.094Z</time></trkpt><trkpt lat="43.6485233" lon="11.3694916"><ele>665.4000000000001</ele><time>2026-04-18T12:06:38.094Z</time></trkpt><trkpt lat="43.6486144" lon="11.3694261"><ele>664.0</ele><time>2026-04-18T12:06:39.094Z</time></trkpt><trkpt lat="43.6486758" lon="11.3693831"><ele>664.0</ele><time>2026-04-18T12:06:40.094Z</time></trkpt><trkpt lat="43.6487543" lon="11.3692823"><ele>664.0</ele><time>2026-04-18T12:06:42.095Z</time></trkpt><trkpt lat="43.6487102" lon="11.3691905"><ele>664.0</ele><time>2026-04-18T12:06:43.094Z</time></trkpt><trkpt lat="43.6486436" lon="11.3690709"><ele>664.0</ele><time>2026-04-18T12:06:44.094Z</time></trkpt><trkpt lat="43.648593" lon="11.3689526"><ele>664.0</ele><time>2026-04-18T12:06:45.095Z</time></trkpt><trkpt lat="43.6485665" lon="11.3688399"><ele>661.75</ele><time>2026-04-18T12:06:46.095Z</time></trkpt><trkpt lat="43.6485474" lon="11.3687373"><ele>659.5</ele><time>2026-04-18T12:06:47.094Z</time></trkpt><trkpt lat="43.6486367" lon="11.3685811"><ele>657.25</ele><time>2026-04-18T12:06:48.094Z</time></trkpt><trkpt lat="43.6486763" lon="11.3684066"><ele>655.0</ele><time>2026-04-18T12:06:49.095Z</time></trkpt><trkpt lat="43.648728" lon="11.368241"><ele>654.8</ele><time>2026-04-18T12:06:50.094Z</time></trkpt><trkpt lat="43.6487859" lon="11.3681148"><ele>654.6</ele><time>2026-04-18T12:06:51.094Z</time></trkpt><trkpt lat="43.6488467" lon="11.368028"><ele>654.4000000000001</ele><time>2026-04-18T12:06:52.094Z</time></trkpt><trkpt lat="43.6489236" lon="11.3679997"><ele>654.2</ele><time>2026-04-18T12:06:53.095Z</time></trkpt><trkpt lat="43.6490351" lon="11.3679877"><ele>654.0</ele><time>2026-04-18T12:06:54.094Z</time></trkpt><trkpt lat="43.6491082" lon="11.3679547"><ele>654.0</ele><time>2026-04-18T12:06:55.095Z</time></trkpt><trkpt lat="43.6491691" lon="11.3679"><ele>654.0</ele><time>2026-04-18T12:06:56.094Z</time></trkpt><trkpt lat="43.6492367" lon="11.3677978"><ele>654.0</ele><time>2026-04-18T12:06:57.094Z</time></trkpt><trkpt lat="43.6492884" lon="11.3676816"><ele>654.0</ele><time>2026-04-18T12:06:58.094Z</time></trkpt><trkpt lat="43.6493035" lon="11.367509"><ele>654.0</ele><time>2026-04-18T12:06:59.095Z</time></trkpt><trkpt lat="43.6493388" lon="11.3673742"><ele>654.0</ele><time>2026-04-18T12:07:00.095Z</time></trkpt><trkpt lat="43.6493685" lon="11.3672299"><ele>654.0</ele><time>2026-04-18T12:07:01.094Z</time></trkpt><trkpt lat="43.6493844" lon="11.3670858"><ele>654.0</ele><time>2026-04-18T12:07:02.095Z</time></trkpt><trkpt lat="43.6493871" lon="11.3669336"><ele>654.0</ele><time>2026-04-18T12:07:03.094Z</time></trkpt><trkpt lat="43.6493694" lon="11.3667786"><ele>654.0</ele><time>2026-04-18T12:07:04.094Z</time></trkpt><trkpt lat="43.649319" lon="11.3666296"><ele>653.4000000000001</ele><time>2026-04-18T12:07:05.095Z</time></trkpt><trkpt lat="43.6492542" lon="11.3665015"><ele>652.8</ele><time>2026-04-18T12:07:06.094Z</time></trkpt><trkpt lat="43.6491796" lon="11.3663647"><ele>652.2</ele><time>2026-04-18T12:07:07.094Z</time></trkpt><trkpt lat="43.649109" lon="11.3662641"><ele>651.5999999999999</ele><time>2026-04-18T12:07:08.095Z</time></trkpt><trkpt lat="43.6490439" lon="11.3661658"><ele>651.0</ele><time>2026-04-18T12:07:09.093Z</time></trkpt><trkpt lat="43.6489948" lon="11.3660702"><ele>648.8</ele><time>2026-04-18T12:07:10.094Z</time></trkpt><trkpt lat="43.6489752" lon="11.3659605"><ele>646.5999999999999</ele><time>2026-04-18T12:07:11.094Z</time></trkpt><trkpt lat="43.6489895" lon="11.365811"><ele>644.4</ele><time>2026-04-18T12:07:13.093Z</time></trkpt><trkpt lat="43.6490399" lon="11.3656499"><ele>642.2</ele><time>2026-04-18T12:07:15.095Z</time></trkpt><trkpt lat="43.6490661" lon="11.365548"><ele>640.0</ele><time>2026-04-18T12:07:16.094Z</time></trkpt><trkpt lat="43.6490853" lon="11.3654494"><ele>637.8333333333334</ele><time>2026-04-18T12:07:17.095Z</time></trkpt><trkpt lat="43.6490994" lon="11.3653259"><ele>635.6666666666667</ele><time>2026-04-18T12:07:18.094Z</time></trkpt><trkpt lat="43.6491151" lon="11.3652071"><ele>633.5</ele><time>2026-04-18T12:07:19.095Z</time></trkpt><trkpt lat="43.6491247" lon="11.3651124"><ele>631.3333333333334</ele><time>2026-04-18T12:07:20.093Z</time></trkpt><trkpt lat="43.6491419" lon="11.3650191"><ele>629.1666666666666</ele><time>2026-04-18T12:07:21.094Z</time></trkpt><trkpt lat="43.6491588" lon="11.3648969"><ele>627.0</ele><time>2026-04-18T12:07:23.094Z</time></trkpt><trkpt lat="43.6491306" lon="11.3647103"><ele>624.6666666666666</ele><time>2026-04-18T12:07:25.094Z</time></trkpt><trkpt lat="43.6491075" lon="11.3646182"><ele>622.3333333333334</ele><time>2026-04-18T12:07:26.095Z</time></trkpt><trkpt lat="43.6490842" lon="11.3645127"><ele>620.0</ele><time>2026-04-18T12:07:27.095Z</time></trkpt><trkpt lat="43.6490849" lon="11.3643429"><ele>617.6666666666667</ele><time>2026-04-18T12:07:29.094Z</time></trkpt><trkpt lat="43.649091" lon="11.3642452"><ele>615.3333333333334</ele><time>2026-04-18T12:07:30.095Z</time></trkpt><trkpt lat="43.6490915" lon="11.3641205"><ele>613.0</ele><time>2026-04-18T12:07:31.094Z</time></trkpt><trkpt lat="43.6491005" lon="11.3639899"><ele>613.0</ele><time>2026-04-18T12:07:32.095Z</time></trkpt><trkpt lat="43.6491098" lon="11.3638651"><ele>613.0</ele><time>2026-04-18T12:07:33.094Z</time></trkpt><trkpt lat="43.649114" lon="11.3637753"><ele>613.0</ele><time>2026-04-18T12:07:34.095Z</time></trkpt><trkpt lat="43.6491172" lon="11.3636812"><ele>613.0</ele><time>2026-04-18T12:07:36.095Z</time></trkpt><trkpt lat="43.6491263" lon="11.3635804"><ele>613.0</ele><time>2026-04-18T12:09:57.093Z</time></trkpt><trkpt lat="43.6492075" lon="11.3634194"><ele>613.0</ele><time>2026-04-18T12:09:59.093Z</time></trkpt><trkpt lat="43.6492687" lon="11.3633026"><ele>612.5</ele><time>2026-04-18T12:10:00.094Z</time></trkpt><trkpt lat="43.6493351" lon="11.3631483"><ele>612.0</ele><time>2026-04-18T12:10:01.093Z</time></trkpt><trkpt lat="43.6494412" lon="11.3629991"><ele>611.5</ele><time>2026-04-18T12:10:02.093Z</time></trkpt><trkpt lat="43.6495286" lon="11.3628809"><ele>611.0</ele><time>2026-04-18T12:10:03.093Z</time></trkpt><trkpt lat="43.6496183" lon="11.3627729"><ele>610.25</ele><time>2026-04-18T12:10:04.094Z</time></trkpt><trkpt lat="43.649702" lon="11.3626852"><ele>609.5</ele><time>2026-04-18T12:10:05.093Z</time></trkpt><trkpt lat="43.6497684" lon="11.3625736"><ele>608.75</ele><time>2026-04-18T12:10:06.094Z</time></trkpt><trkpt lat="43.6498368" lon="11.3624294"><ele>608.0</ele><time>2026-04-18T12:10:07.093Z</time></trkpt><trkpt lat="43.6498971" lon="11.3622518"><ele>607.25</ele><time>2026-04-18T12:10:08.093Z</time></trkpt><trkpt lat="43.6499491" lon="11.3620709"><ele>606.5</ele><time>2026-04-18T12:10:09.094Z</time></trkpt><trkpt lat="43.6499998" lon="11.3619115"><ele>605.75</ele><time>2026-04-18T12:10:10.093Z</time></trkpt><trkpt lat="43.6500612" lon="11.3617751"><ele>605.0</ele><time>2026-04-18T12:10:11.093Z</time></trkpt><trkpt lat="43.6501206" lon="11.3616527"><ele>605.0</ele><time>2026-04-18T12:10:12.094Z</time></trkpt><trkpt lat="43.6501837" lon="11.3615407"><ele>605.0</ele><time>2026-04-18T12:10:13.093Z</time></trkpt><trkpt lat="43.6502499" lon="11.3614363"><ele>605.0</ele><time>2026-04-18T12:10:14.094Z</time></trkpt><trkpt lat="43.6503003" lon="11.3613353"><ele>605.0</ele><time>2026-04-18T12:10:15.094Z</time></trkpt><trkpt lat="43.6503353" lon="11.3612103"><ele>605.0</ele><time>2026-04-18T12:10:16.093Z</time></trkpt><trkpt lat="43.6503681" lon="11.3610767"><ele>605.4</ele><time>2026-04-18T12:10:17.094Z</time></trkpt><trkpt lat="43.650406" lon="11.3609419"><ele>605.8</ele><time>2026-04-18T12:10:18.093Z</time></trkpt><trkpt lat="43.6504358" lon="11.3608055"><ele>606.2</ele><time>2026-04-18T12:10:19.094Z</time></trkpt><trkpt lat="43.6504382" lon="11.3606659"><ele>606.6</ele><time>2026-04-18T12:10:20.093Z</time></trkpt><trkpt lat="43.6504544" lon="11.3605365"><ele>607.0</ele><time>2026-04-18T12:10:21.094Z</time></trkpt><trkpt lat="43.6504705" lon="11.360412"><ele>606.1666666666667</ele><time>2026-04-18T12:10:22.093Z</time></trkpt><trkpt lat="43.6504755" lon="11.3602882"><ele>605.3333333333334</ele><time>2026-04-18T12:10:23.093Z</time></trkpt><trkpt lat="43.6504676" lon="11.3601861"><ele>604.5</ele><time>2026-04-18T12:10:24.093Z</time></trkpt><trkpt lat="43.6504547" lon="11.3600905"><ele>603.6666666666666</ele><time>2026-04-18T12:10:25.093Z</time></trkpt><trkpt lat="43.6504651" lon="11.3599512"><ele>602.8333333333333</ele><time>2026-04-18T12:10:27.093Z</time></trkpt><trkpt lat="43.6505163" lon="11.3598938"><ele>602.0</ele><time>2026-04-18T12:10:28.094Z</time></trkpt><trkpt lat="43.6505738" lon="11.3598224"><ele>602.0</ele><time>2026-04-18T12:10:29.094Z</time></trkpt><trkpt lat="43.6506241" lon="11.3597442"><ele>602.0</ele><time>2026-04-18T12:10:30.093Z</time></trkpt><trkpt lat="43.6506736" lon="11.3596627"><ele>602.0</ele><time>2026-04-18T12:10:31.093Z</time></trkpt><trkpt lat="43.6507224" lon="11.3595695"><ele>602.0</ele><time>2026-04-18T12:10:32.093Z</time></trkpt><trkpt lat="43.6507812" lon="11.3594923"><ele>602.0</ele><time>2026-04-18T12:10:33.093Z</time></trkpt><trkpt lat="43.6508553" lon="11.3594118"><ele>602.0</ele><time>2026-04-18T12:10:34.093Z</time></trkpt><trkpt lat="43.6509257" lon="11.3593024"><ele>599.6666666666666</ele><time>2026-04-18T12:10:35.093Z</time></trkpt><trkpt lat="43.650984" lon="11.3591946"><ele>597.3333333333333</ele><time>2026-04-18T12:10:36.094Z</time></trkpt><trkpt lat="43.6510347" lon="11.3591215"><ele>595.0</ele><time>2026-04-18T12:10:37.093Z</time></trkpt><trkpt lat="43.6510847" lon="11.3590493"><ele>592.6666666666666</ele><time>2026-04-18T12:10:38.093Z</time></trkpt><trkpt lat="43.6511297" lon="11.358986"><ele>590.3333333333334</ele><time>2026-04-18T12:10:39.094Z</time></trkpt><trkpt lat="43.6512387" lon="11.3590076"><ele>588.0</ele><time>2026-04-18T12:10:41.094Z</time></trkpt><trkpt lat="43.6513037" lon="11.3590245"><ele>588.0</ele><time>2026-04-18T12:10:42.094Z</time></trkpt><trkpt lat="43.6513913" lon="11.3590493"><ele>588.0</ele><time>2026-04-18T12:10:43.093Z</time></trkpt><trkpt lat="43.6514852" lon="11.3590686"><ele>588.0</ele><time>2026-04-18T12:10:44.093Z</time></trkpt><trkpt lat="43.6515707" lon="11.3590962"><ele>588.0</ele><time>2026-04-18T12:10:45.093Z</time></trkpt><trkpt lat="43.6516463" lon="11.3591055"><ele>588.0</ele><time>2026-04-18T12:10:46.093Z</time></trkpt><trkpt lat="43.6517505" lon="11.3590756"><ele>588.0</ele><time>2026-04-18T12:10:48.092Z</time></trkpt><trkpt lat="43.6518046" lon="11.3590205"><ele>588.0</ele><time>2026-04-18T12:10:49.093Z</time></trkpt><trkpt lat="43.6518525" lon="11.3589278"><ele>588.0</ele><time>2026-04-18T12:10:50.093Z</time></trkpt><trkpt lat="43.6518899" lon="11.3588242"><ele>588.0</ele><time>2026-04-18T12:10:51.094Z</time></trkpt><trkpt lat="43.6519383" lon="11.3587196"><ele>588.0</ele><time>2026-04-18T12:10:52.093Z</time></trkpt><trkpt lat="43.6519872" lon="11.3585839"><ele>588.0</ele><time>2026-04-18T12:10:53.094Z</time></trkpt><trkpt lat="43.6520165" lon="11.3584443"><ele>588.0</ele><time>2026-04-18T12:10:54.094Z</time></trkpt><trkpt lat="43.6520377" lon="11.358313"><ele>588.0</ele><time>2026-04-18T12:10:55.094Z</time></trkpt><trkpt lat="43.6520637" lon="11.3581977"><ele>588.0</ele><time>2026-04-18T12:10:56.093Z</time></trkpt><trkpt lat="43.6521075" lon="11.3580862"><ele>588.0</ele><time>2026-04-18T12:10:57.093Z</time></trkpt><trkpt lat="43.6521631" lon="11.3579665"><ele>588.0</ele><time>2026-04-18T12:10:58.093Z</time></trkpt><trkpt lat="43.6522248" lon="11.3578643"><ele>588.0</ele><time>2026-04-18T12:10:59.094Z</time></trkpt><trkpt lat="43.652295" lon="11.3577829"><ele>588.0</ele><time>2026-04-18T12:11:00.094Z</time></trkpt><trkpt lat="43.6523762" lon="11.3577215"><ele>588.0</ele><time>2026-04-18T12:11:01.093Z</time></trkpt><trkpt lat="43.6524448" lon="11.3577109"><ele>588.0</ele><time>2026-04-18T12:11:02.094Z</time></trkpt><trkpt lat="43.6525526" lon="11.3576236"><ele>588.0</ele><time>2026-04-18T12:11:04.094Z</time></trkpt><trkpt lat="43.6526466" lon="11.3574931"><ele>588.0</ele><time>2026-04-18T12:11:06.093Z</time></trkpt><trkpt lat="43.6527352" lon="11.3574023"><ele>588.0</ele><time>2026-04-18T12:11:08.093Z</time></trkpt><trkpt lat="43.6528105" lon="11.3573139"><ele>588.0</ele><time>2026-04-18T12:11:10.093Z</time></trkpt><trkpt lat="43.6529001" lon="11.3572151"><ele>588.0</ele><time>2026-04-18T12:11:12.093Z</time></trkpt><trkpt lat="43.6529536" lon="11.3571641"><ele>588.0</ele><time>2026-04-18T12:11:13.093Z</time></trkpt><trkpt lat="43.6530106" lon="11.3570388"><ele>591.0</ele><time>2026-04-18T12:11:15.093Z</time></trkpt><trkpt lat="43.6530309" lon="11.3569529"><ele>594.0</ele><time>2026-04-18T12:11:17.093Z</time></trkpt><trkpt lat="43.6530459" lon="11.3567934"><ele>597.0</ele><time>2026-04-18T12:11:36.093Z</time></trkpt><trkpt lat="43.6530471" lon="11.3566977"><ele>600.0</ele><time>2026-04-18T12:11:37.093Z</time></trkpt><trkpt lat="43.6530009" lon="11.3564789"><ele>603.0</ele><time>2026-04-18T12:11:39.093Z</time></trkpt><trkpt lat="43.6529942" lon="11.3563721"><ele>602.6</ele><time>2026-04-18T12:11:40.093Z</time></trkpt><trkpt lat="43.6530119" lon="11.3562552"><ele>602.1999999999999</ele><time>2026-04-18T12:11:41.093Z</time></trkpt><trkpt lat="43.6530771" lon="11.3561603"><ele>601.8</ele><time>2026-04-18T12:11:42.094Z</time></trkpt><trkpt lat="43.6531231" lon="11.3560706"><ele>601.4</ele><time>2026-04-18T12:11:43.094Z</time></trkpt><trkpt lat="43.6531995" lon="11.3559603"><ele>601.0</ele><time>2026-04-18T12:11:44.093Z</time></trkpt><trkpt lat="43.6532668" lon="11.355841"><ele>601.0</ele><time>2026-04-18T12:11:45.093Z</time></trkpt><trkpt lat="43.6533042" lon="11.3557097"><ele>601.0</ele><time>2026-04-18T12:11:46.093Z</time></trkpt><trkpt lat="43.6533366" lon="11.3555477"><ele>601.0</ele><time>2026-04-18T12:11:47.094Z</time></trkpt><trkpt lat="43.6533566" lon="11.3553738"><ele>601.0</ele><time>2026-04-18T12:11:48.093Z</time></trkpt><trkpt lat="43.653385" lon="11.3552182"><ele>601.0</ele><time>2026-04-18T12:11:49.093Z</time></trkpt><trkpt lat="43.6534151" lon="11.3550932"><ele>601.0</ele><time>2026-04-18T12:11:50.093Z</time></trkpt><trkpt lat="43.6534834" lon="11.3550217"><ele>601.0</ele><time>2026-04-18T12:11:51.093Z</time></trkpt><trkpt lat="43.6535566" lon="11.3549494"><ele>601.0</ele><time>2026-04-18T12:11:52.093Z</time></trkpt><trkpt lat="43.6536402" lon="11.354883"><ele>601.0</ele><time>2026-04-18T12:11:53.093Z</time></trkpt><trkpt lat="43.653742" lon="11.354828"><ele>601.0</ele><time>2026-04-18T12:11:54.093Z</time></trkpt><trkpt lat="43.6538902" lon="11.3547902"><ele>601.0</ele><time>2026-04-18T12:11:55.093Z</time></trkpt><trkpt lat="43.6540177" lon="11.3547584"><ele>601.0</ele><time>2026-04-18T12:11:56.094Z</time></trkpt><trkpt lat="43.6541355" lon="11.3547279"><ele>601.0</ele><time>2026-04-18T12:11:57.093Z</time></trkpt><trkpt lat="43.65426" lon="11.3547059"><ele>601.4</ele><time>2026-04-18T12:11:58.093Z</time></trkpt><trkpt lat="43.6543818" lon="11.3546963"><ele>601.8</ele><time>2026-04-18T12:11:59.093Z</time></trkpt><trkpt lat="43.6544783" lon="11.3546949"><ele>602.1999999999999</ele><time>2026-04-18T12:12:00.093Z</time></trkpt><trkpt lat="43.6545856" lon="11.3547057"><ele>602.6</ele><time>2026-04-18T12:12:01.093Z</time></trkpt><trkpt lat="43.654688" lon="11.3546901"><ele>603.0</ele><time>2026-04-18T12:12:02.094Z</time></trkpt><trkpt lat="43.6547834" lon="11.3546685"><ele>601.4</ele><time>2026-04-18T12:12:03.094Z</time></trkpt><trkpt lat="43.6548806" lon="11.3546395"><ele>599.8</ele><time>2026-04-18T12:12:04.094Z</time></trkpt><trkpt lat="43.6549473" lon="11.3545487"><ele>598.2</ele><time>2026-04-18T12:12:05.093Z</time></trkpt><trkpt lat="43.6550249" lon="11.3544098"><ele>596.6</ele><time>2026-04-18T12:12:06.094Z</time></trkpt><trkpt lat="43.6550936" lon="11.3542899"><ele>595.0</ele><time>2026-04-18T12:12:07.093Z</time></trkpt><trkpt lat="43.6551575" lon="11.3541837"><ele>595.0</ele><time>2026-04-18T12:12:08.093Z</time></trkpt><trkpt lat="43.6551924" lon="11.3540577"><ele>595.0</ele><time>2026-04-18T12:12:09.093Z</time></trkpt><trkpt lat="43.6552354" lon="11.3539251"><ele>595.0</ele><time>2026-04-18T12:12:10.093Z</time></trkpt><trkpt lat="43.6552371" lon="11.3537604"><ele>595.0</ele><time>2026-04-18T12:12:11.093Z</time></trkpt><trkpt lat="43.6552613" lon="11.3536369"><ele>595.0</ele><time>2026-04-18T12:12:12.094Z</time></trkpt><trkpt lat="43.6552923" lon="11.353522"><ele>593.6666666666667</ele><time>2026-04-18T12:12:13.094Z</time></trkpt><trkpt lat="43.6553516" lon="11.353398"><ele>592.3333333333334</ele><time>2026-04-18T12:12:14.093Z</time></trkpt><trkpt lat="43.6554079" lon="11.353316"><ele>591.0</ele><time>2026-04-18T12:12:15.093Z</time></trkpt><trkpt lat="43.6554777" lon="11.3532851"><ele>589.6666666666666</ele><time>2026-04-18T12:12:16.093Z</time></trkpt><trkpt lat="43.6555391" lon="11.353258"><ele>588.3333333333333</ele><time>2026-04-18T12:12:17.094Z</time></trkpt><trkpt lat="43.6556202" lon="11.3532711"><ele>587.0</ele><time>2026-04-18T12:12:18.094Z</time></trkpt><trkpt lat="43.6557069" lon="11.3532664"><ele>587.0</ele><time>2026-04-18T12:12:20.094Z</time></trkpt><trkpt lat="43.6557402" lon="11.353189"><ele>587.0</ele><time>2026-04-18T12:12:21.093Z</time></trkpt><trkpt lat="43.6556928" lon="11.3530703"><ele>587.0</ele><time>2026-04-18T12:12:22.093Z</time></trkpt><trkpt lat="43.6556701" lon="11.3529252"><ele>587.0</ele><time>2026-04-18T12:12:23.093Z</time></trkpt><trkpt lat="43.6556589" lon="11.3528018"><ele>587.0</ele><time>2026-04-18T12:12:24.093Z</time></trkpt><trkpt lat="43.6556525" lon="11.3526879"><ele>587.0</ele><time>2026-04-18T12:12:25.092Z</time></trkpt><trkpt lat="43.6556372" lon="11.35256"><ele>584.2</ele><time>2026-04-18T12:12:26.093Z</time></trkpt><trkpt lat="43.6556107" lon="11.3524285"><ele>581.4000000000001</ele><time>2026-04-18T12:12:27.093Z</time></trkpt><trkpt lat="43.6555921" lon="11.3523093"><ele>578.5999999999999</ele><time>2026-04-18T12:12:28.093Z</time></trkpt><trkpt lat="43.6555696" lon="11.3521757"><ele>575.8</ele><time>2026-04-18T12:12:29.093Z</time></trkpt><trkpt lat="43.6555397" lon="11.3520315"><ele>573.0</ele><time>2026-04-18T12:12:30.093Z</time></trkpt><trkpt lat="43.6555138" lon="11.3518697"><ele>569.6</ele><time>2026-04-18T12:12:31.093Z</time></trkpt><trkpt lat="43.6554902" lon="11.3517293"><ele>566.1999999999999</ele><time>2026-04-18T12:12:32.093Z</time></trkpt><trkpt lat="43.6554485" lon="11.3516192"><ele>562.8</ele><time>2026-04-18T12:12:33.093Z</time></trkpt><trkpt lat="43.6554314" lon="11.3515134"><ele>559.4</ele><time>2026-04-18T12:12:34.093Z</time></trkpt><trkpt lat="43.6554337" lon="11.3513993"><ele>556.0</ele><time>2026-04-18T12:12:35.093Z</time></trkpt><trkpt lat="43.6554037" lon="11.3512621"><ele>554.2</ele><time>2026-04-18T12:12:36.092Z</time></trkpt><trkpt lat="43.6553898" lon="11.3511374"><ele>552.4000000000001</ele><time>2026-04-18T12:12:37.092Z</time></trkpt><trkpt lat="43.6553879" lon="11.351004"><ele>550.6</ele><time>2026-04-18T12:12:38.093Z</time></trkpt><trkpt lat="43.6553788" lon="11.3508631"><ele>548.8000000000001</ele><time>2026-04-18T12:12:39.093Z</time></trkpt><trkpt lat="43.6553913" lon="11.3507188"><ele>547.0</ele><time>2026-04-18T12:12:40.092Z</time></trkpt><trkpt lat="43.6554354" lon="11.3506213"><ele>545.0</ele><time>2026-04-18T12:12:41.092Z</time></trkpt><trkpt lat="43.6554408" lon="11.3504461"><ele>543.0</ele><time>2026-04-18T12:12:43.092Z</time></trkpt><trkpt lat="43.6553399" lon="11.3503891"><ele>541.0</ele><time>2026-04-18T12:12:44.092Z</time></trkpt><trkpt lat="43.6552724" lon="11.3502779"><ele>539.0</ele><time>2026-04-18T12:12:45.093Z</time></trkpt><trkpt lat="43.6552017" lon="11.3501693"><ele>537.0</ele><time>2026-04-18T12:12:46.092Z</time></trkpt><trkpt lat="43.6551231" lon="11.3500561"><ele>536.8000000000001</ele><time>2026-04-18T12:12:47.093Z</time></trkpt><trkpt lat="43.6550471" lon="11.349954"><ele>536.6</ele><time>2026-04-18T12:12:48.092Z</time></trkpt><trkpt lat="43.6550877" lon="11.3498688"><ele>536.4000000000001</ele><time>2026-04-18T12:12:49.093Z</time></trkpt><trkpt lat="43.6551678" lon="11.3497194"><ele>536.2</ele><time>2026-04-18T12:12:50.092Z</time></trkpt><trkpt lat="43.6552002" lon="11.3495894"><ele>536.0</ele><time>2026-04-18T12:12:51.093Z</time></trkpt><trkpt lat="43.6553106" lon="11.3494239"><ele>536.0</ele><time>2026-04-18T12:12:52.092Z</time></trkpt><trkpt lat="43.6553997" lon="11.3492884"><ele>536.0</ele><time>2026-04-18T12:12:53.092Z</time></trkpt><trkpt lat="43.6554707" lon="11.3491944"><ele>536.0</ele><time>2026-04-18T12:12:54.092Z</time></trkpt><trkpt lat="43.6555402" lon="11.349043"><ele>536.0</ele><time>2026-04-18T12:12:55.092Z</time></trkpt><trkpt lat="43.6556054" lon="11.3489086"><ele>536.0</ele><time>2026-04-18T12:12:56.092Z</time></trkpt><trkpt lat="43.6556497" lon="11.3487806"><ele>536.0</ele><time>2026-04-18T12:12:57.092Z</time></trkpt><trkpt lat="43.655683" lon="11.3486409"><ele>536.0</ele><time>2026-04-18T12:12:58.093Z</time></trkpt><trkpt lat="43.6556883" lon="11.3485147"><ele>536.0</ele><time>2026-04-18T12:12:59.092Z</time></trkpt><trkpt lat="43.6556933" lon="11.3483826"><ele>536.0</ele><time>2026-04-18T12:13:00.092Z</time></trkpt><trkpt lat="43.655703" lon="11.3482366"><ele>536.0</ele><time>2026-04-18T12:13:01.092Z</time></trkpt><trkpt lat="43.6557105" lon="11.3481092"><ele>536.0</ele><time>2026-04-18T12:13:02.092Z</time></trkpt><trkpt lat="43.6556764" lon="11.347975"><ele>536.0</ele><time>2026-04-18T12:13:03.092Z</time></trkpt><trkpt lat="43.6556768" lon="11.3478402"><ele>536.0</ele><time>2026-04-18T12:13:04.093Z</time></trkpt><trkpt lat="43.655695" lon="11.3477334"><ele>536.0</ele><time>2026-04-18T12:13:05.092Z</time></trkpt><trkpt lat="43.655743" lon="11.3476055"><ele>534.75</ele><time>2026-04-18T12:13:06.092Z</time></trkpt><trkpt lat="43.6558055" lon="11.347446"><ele>533.5</ele><time>2026-04-18T12:13:07.093Z</time></trkpt><trkpt lat="43.6558645" lon="11.3472721"><ele>532.25</ele><time>2026-04-18T12:13:08.092Z</time></trkpt><trkpt lat="43.6559267" lon="11.3471173"><ele>531.0</ele><time>2026-04-18T12:13:09.093Z</time></trkpt><trkpt lat="43.655987" lon="11.3469635"><ele>530.0</ele><time>2026-04-18T12:13:10.092Z</time></trkpt><trkpt lat="43.6560377" lon="11.3468309"><ele>529.0</ele><time>2026-04-18T12:13:11.093Z</time></trkpt><trkpt lat="43.6560975" lon="11.3467126"><ele>528.0</ele><time>2026-04-18T12:13:12.092Z</time></trkpt><trkpt lat="43.6561744" lon="11.3465994"><ele>527.0</ele><time>2026-04-18T12:13:13.093Z</time></trkpt><trkpt lat="43.6562476" lon="11.3464745"><ele>526.0</ele><time>2026-04-18T12:13:14.092Z</time></trkpt><trkpt lat="43.656292" lon="11.3463465"><ele>525.4</ele><time>2026-04-18T12:13:15.092Z</time></trkpt><trkpt lat="43.6563482" lon="11.3462216"><ele>524.8</ele><time>2026-04-18T12:13:16.093Z</time></trkpt><trkpt lat="43.656399" lon="11.346105"><ele>524.1999999999999</ele><time>2026-04-18T12:13:17.092Z</time></trkpt><trkpt lat="43.6564562" lon="11.3460004"><ele>523.6</ele><time>2026-04-18T12:13:18.092Z</time></trkpt><trkpt lat="43.6565463" lon="11.3459019"><ele>523.0</ele><time>2026-04-18T12:13:19.093Z</time></trkpt><trkpt lat="43.6566468" lon="11.3457929"><ele>523.0</ele><time>2026-04-18T12:13:20.092Z</time></trkpt><trkpt lat="43.6567224" lon="11.3456705"><ele>523.0</ele><time>2026-04-18T12:13:21.092Z</time></trkpt><trkpt lat="43.6567556" lon="11.3455632"><ele>523.0</ele><time>2026-04-18T12:13:22.093Z</time></trkpt><trkpt lat="43.6567917" lon="11.3454571"><ele>523.0</ele><time>2026-04-18T12:13:23.092Z</time></trkpt><trkpt lat="43.6567779" lon="11.3453163"><ele>523.0</ele><time>2026-04-18T12:13:24.093Z</time></trkpt><trkpt lat="43.6567801" lon="11.3451982"><ele>520.8333333333334</ele><time>2026-04-18T12:13:25.092Z</time></trkpt><trkpt lat="43.6567824" lon="11.345093"><ele>518.6666666666667</ele><time>2026-04-18T12:13:26.092Z</time></trkpt><trkpt lat="43.656845" lon="11.3449797"><ele>516.5</ele><time>2026-04-18T12:13:28.093Z</time></trkpt><trkpt lat="43.6569259" lon="11.3449681"><ele>514.3333333333334</ele><time>2026-04-18T12:13:30.092Z</time></trkpt><trkpt lat="43.6569869" lon="11.3448909"><ele>512.1666666666666</ele><time>2026-04-18T12:13:32.092Z</time></trkpt><trkpt lat="43.6569425" lon="11.3447881"><ele>510.0</ele><time>2026-04-18T12:13:34.092Z</time></trkpt><trkpt lat="43.6568724" lon="11.3447115"><ele>507.4</ele><time>2026-04-18T12:13:35.093Z</time></trkpt><trkpt lat="43.6567844" lon="11.3445751"><ele>504.8</ele><time>2026-04-18T12:13:37.091Z</time></trkpt><trkpt lat="43.6567769" lon="11.3444549"><ele>502.20000000000005</ele><time>2026-04-18T12:13:38.092Z</time></trkpt><trkpt lat="43.656768" lon="11.3443503"><ele>499.6</ele><time>2026-04-18T12:13:39.093Z</time></trkpt><trkpt lat="43.6567779" lon="11.3442247"><ele>497.0</ele><time>2026-04-18T12:13:40.092Z</time></trkpt><trkpt lat="43.6568362" lon="11.3440643"><ele>496.99999999999994</ele><time>2026-04-18T12:13:41.092Z</time></trkpt><trkpt lat="43.6569106" lon="11.3439863"><ele>497.0</ele><time>2026-04-18T12:13:42.093Z</time></trkpt><trkpt lat="43.6569759" lon="11.3439116"><ele>497.0</ele><time>2026-04-18T12:13:43.092Z</time></trkpt><trkpt lat="43.6570371" lon="11.3438594"><ele>497.0</ele><time>2026-04-18T12:13:44.092Z</time></trkpt><trkpt lat="43.6570983" lon="11.3438214"><ele>496.99999999999994</ele><time>2026-04-18T12:13:45.093Z</time></trkpt><trkpt lat="43.6571733" lon="11.3438567"><ele>497.0</ele><time>2026-04-18T12:13:46.092Z</time></trkpt><trkpt lat="43.6572835" lon="11.3438238"><ele>492.8</ele><time>2026-04-18T12:13:48.092Z</time></trkpt><trkpt lat="43.6572856" lon="11.3436612"><ele>488.6</ele><time>2026-04-18T12:13:50.092Z</time></trkpt><trkpt lat="43.6572978" lon="11.3435547"><ele>484.40000000000003</ele><time>2026-04-18T12:13:51.092Z</time></trkpt><trkpt lat="43.6573056" lon="11.343459"><ele>480.20000000000005</ele><time>2026-04-18T12:13:52.093Z</time></trkpt><trkpt lat="43.6573606" lon="11.3433259"><ele>476.0</ele><time>2026-04-18T12:13:54.093Z</time></trkpt><trkpt lat="43.6574516" lon="11.3433191"><ele>475.99999999999994</ele><time>2026-04-18T12:13:56.093Z</time></trkpt><trkpt lat="43.6575284" lon="11.3433378"><ele>476.0</ele><time>2026-04-18T12:13:57.092Z</time></trkpt><trkpt lat="43.6575971" lon="11.3433681"><ele>476.0</ele><time>2026-04-18T12:13:58.092Z</time></trkpt><trkpt lat="43.6576611" lon="11.3433814"><ele>476.0</ele><time>2026-04-18T12:13:59.093Z</time></trkpt><trkpt lat="43.657709" lon="11.3432853"><ele>475.99999999999994</ele><time>2026-04-18T12:14:01.092Z</time></trkpt><trkpt lat="43.6577462" lon="11.3431192"><ele>476.0</ele><time>2026-04-18T12:14:03.092Z</time></trkpt><trkpt lat="43.657767" lon="11.3430001"><ele>473.7142857142857</ele><time>2026-04-18T12:14:04.091Z</time></trkpt><trkpt lat="43.6577739" lon="11.3429048"><ele>471.42857142857144</ele><time>2026-04-18T12:14:05.092Z</time></trkpt><trkpt lat="43.6577661" lon="11.3428095"><ele>469.1428571428571</ele><time>2026-04-18T12:14:06.093Z</time></trkpt><trkpt lat="43.6577287" lon="11.3427168"><ele>466.85714285714283</ele><time>2026-04-18T12:14:07.092Z</time></trkpt><trkpt lat="43.6576897" lon="11.342608"><ele>464.57142857142856</ele><time>2026-04-18T12:14:08.093Z</time></trkpt><trkpt lat="43.6576354" lon="11.3425304"><ele>462.2857142857142</ele><time>2026-04-18T12:14:09.092Z</time></trkpt><trkpt lat="43.6575922" lon="11.3424586"><ele>459.99999999999994</ele><time>2026-04-18T12:14:10.093Z</time></trkpt><trkpt lat="43.657493" lon="11.3424092"><ele>460.00000000000006</ele><time>2026-04-18T12:14:12.092Z</time></trkpt><trkpt lat="43.6573641" lon="11.3424193"><ele>460.0</ele><time>2026-04-18T12:14:14.092Z</time></trkpt><trkpt lat="43.6573058" lon="11.3424855"><ele>460.0</ele><time>2026-04-18T12:14:15.092Z</time></trkpt><trkpt lat="43.6572422" lon="11.3425384"><ele>460.0</ele><time>2026-04-18T12:14:16.093Z</time></trkpt><trkpt lat="43.6571703" lon="11.3425432"><ele>460.00000000000006</ele><time>2026-04-18T12:14:18.092Z</time></trkpt><trkpt lat="43.6572416" lon="11.3425461"><ele>460.0</ele><time>2026-04-18T12:15:10.092Z</time></trkpt><trkpt lat="43.6573164" lon="11.3425035"><ele>460.00000000000006</ele><time>2026-04-18T12:15:12.092Z</time></trkpt><trkpt lat="43.6574152" lon="11.3424526"><ele>460.0</ele><time>2026-04-18T12:15:14.093Z</time></trkpt><trkpt lat="43.6574787" lon="11.342437"><ele>460.0</ele><time>2026-04-18T12:15:15.093Z</time></trkpt><trkpt lat="43.65757" lon="11.3424755"><ele>460.0</ele><time>2026-04-18T12:15:17.091Z</time></trkpt><trkpt lat="43.6576469" lon="11.3425836"><ele>460.00000000000006</ele><time>2026-04-18T12:15:19.092Z</time></trkpt><trkpt lat="43.657689" lon="11.3426647"><ele>460.0</ele><time>2026-04-18T12:15:20.092Z</time></trkpt><trkpt lat="43.657734" lon="11.3427551"><ele>460.0</ele><time>2026-04-18T12:15:21.093Z</time></trkpt><trkpt lat="43.6577586" lon="11.3428949"><ele>460.0</ele><time>2026-04-18T12:15:23.092Z</time></trkpt><trkpt lat="43.6577538" lon="11.3429836"><ele>460.0</ele><time>2026-04-18T12:15:24.093Z</time></trkpt><trkpt lat="43.6577124" lon="11.3431868"><ele>460.0</ele><time>2026-04-18T12:15:26.092Z</time></trkpt><trkpt lat="43.6576937" lon="11.343284"><ele>460.0</ele><time>2026-04-18T12:15:27.092Z</time></trkpt><trkpt lat="43.657653" lon="11.3433507"><ele>463.2</ele><time>2026-04-18T12:15:29.093Z</time></trkpt><trkpt lat="43.6575786" lon="11.343383"><ele>466.4</ele><time>2026-04-18T12:15:31.092Z</time></trkpt><trkpt lat="43.6574387" lon="11.3433419"><ele>469.6</ele><time>2026-04-18T12:15:33.092Z</time></trkpt><trkpt lat="43.6573751" lon="11.3433255"><ele>472.8</ele><time>2026-04-18T12:15:34.092Z</time></trkpt><trkpt lat="43.6572997" lon="11.34339"><ele>476.0</ele><time>2026-04-18T12:15:37.093Z</time></trkpt><trkpt lat="43.6572657" lon="11.3435081"><ele>476.0</ele><time>2026-04-18T12:15:39.093Z</time></trkpt><trkpt lat="43.6572453" lon="11.3436673"><ele>476.0</ele><time>2026-04-18T12:15:41.092Z</time></trkpt><trkpt lat="43.657247" lon="11.3437767"><ele>476.0</ele><time>2026-04-18T12:15:42.093Z</time></trkpt><trkpt lat="43.6572075" lon="11.3438676"><ele>476.0</ele><time>2026-04-18T12:15:44.092Z</time></trkpt><trkpt lat="43.6571278" lon="11.3438904"><ele>476.0</ele><time>2026-04-18T12:15:46.092Z</time></trkpt><trkpt lat="43.6570115" lon="11.3438716"><ele>479.49999999999994</ele><time>2026-04-18T12:15:48.092Z</time></trkpt><trkpt lat="43.6569461" lon="11.343968"><ele>483.0</ele><time>2026-04-18T12:15:50.092Z</time></trkpt><trkpt lat="43.6568777" lon="11.3440241"><ele>486.5</ele><time>2026-04-18T12:15:51.092Z</time></trkpt><trkpt lat="43.6568282" lon="11.3441089"><ele>490.0</ele><time>2026-04-18T12:15:52.093Z</time></trkpt><trkpt lat="43.6567976" lon="11.3442162"><ele>493.49999999999994</ele><time>2026-04-18T12:15:53.092Z</time></trkpt><trkpt lat="43.6567958" lon="11.3443618"><ele>497.0</ele><time>2026-04-18T12:15:54.091Z</time></trkpt><trkpt lat="43.6567913" lon="11.3444802"><ele>496.99999999999994</ele><time>2026-04-18T12:15:55.092Z</time></trkpt><trkpt lat="43.6567799" lon="11.3446031"><ele>497.0</ele><time>2026-04-18T12:15:56.092Z</time></trkpt><trkpt lat="43.6568373" lon="11.3446616"><ele>497.0</ele><time>2026-04-18T12:15:57.093Z</time></trkpt><trkpt lat="43.6569252" lon="11.3447717"><ele>497.0</ele><time>2026-04-18T12:15:59.093Z</time></trkpt><trkpt lat="43.6569711" lon="11.3448372"><ele>496.99999999999994</ele><time>2026-04-18T12:16:00.093Z</time></trkpt><trkpt lat="43.6569775" lon="11.3449245"><ele>497.0</ele><time>2026-04-18T12:16:02.092Z</time></trkpt><trkpt lat="43.6569156" lon="11.3449887"><ele>496.8333333333333</ele><time>2026-04-18T12:16:24.093Z</time></trkpt><trkpt lat="43.6568333" lon="11.3449915"><ele>496.66666666666663</ele><time>2026-04-18T12:16:27.093Z</time></trkpt><trkpt lat="43.6568037" lon="11.345072"><ele>496.5</ele><time>2026-04-18T12:16:30.092Z</time></trkpt><trkpt lat="43.6568795" lon="11.3450402"><ele>496.33333333333337</ele><time>2026-04-18T12:16:32.092Z</time></trkpt><trkpt lat="43.6569422" lon="11.344985"><ele>496.1666666666667</ele><time>2026-04-18T12:16:34.093Z</time></trkpt><trkpt lat="43.6569963" lon="11.3449211"><ele>496.0</ele><time>2026-04-18T12:16:36.093Z</time></trkpt><trkpt lat="43.6569737" lon="11.3447999"><ele>496.20000000000005</ele><time>2026-04-18T12:16:39.093Z</time></trkpt><trkpt lat="43.6569131" lon="11.3447482"><ele>496.40000000000003</ele><time>2026-04-18T12:16:40.093Z</time></trkpt><trkpt lat="43.6568461" lon="11.3446708"><ele>496.6</ele><time>2026-04-18T12:16:42.092Z</time></trkpt><trkpt lat="43.6567867" lon="11.3445516"><ele>496.8</ele><time>2026-04-18T12:16:44.092Z</time></trkpt><trkpt lat="43.6567889" lon="11.344377"><ele>497.0</ele><time>2026-04-18T12:16:46.092Z</time></trkpt><trkpt lat="43.6567988" lon="11.3442908"><ele>497.0</ele><time>2026-04-18T12:16:47.093Z</time></trkpt><trkpt lat="43.6568513" lon="11.344144"><ele>497.00000000000006</ele><time>2026-04-18T12:16:49.092Z</time></trkpt><trkpt lat="43.6569162" lon="11.3440025"><ele>497.00000000000006</ele><time>2026-04-18T12:16:51.093Z</time></trkpt><trkpt lat="43.6569626" lon="11.3439427"><ele>497.0</ele><time>2026-04-18T12:16:52.093Z</time></trkpt><trkpt lat="43.6570473" lon="11.3438642"><ele>497.0</ele><time>2026-04-18T12:16:54.093Z</time></trkpt><trkpt lat="43.6571793" lon="11.3438769"><ele>492.8</ele><time>2026-04-18T12:16:56.092Z</time></trkpt><trkpt lat="43.6572534" lon="11.3438169"><ele>488.6</ele><time>2026-04-18T12:16:58.092Z</time></trkpt><trkpt lat="43.6572887" lon="11.3437359"><ele>484.40000000000003</ele><time>2026-04-18T12:17:00.092Z</time></trkpt><trkpt lat="43.6572794" lon="11.3436167"><ele>480.20000000000005</ele><time>2026-04-18T12:17:01.092Z</time></trkpt><trkpt lat="43.6573062" lon="11.3434645"><ele>476.0</ele><time>2026-04-18T12:17:03.092Z</time></trkpt><trkpt lat="43.6573545" lon="11.343343"><ele>476.0</ele><time>2026-04-18T12:17:05.093Z</time></trkpt><trkpt lat="43.6574398" lon="11.3432846"><ele>476.0</ele><time>2026-04-18T12:17:07.092Z</time></trkpt><trkpt lat="43.6575444" lon="11.3433097"><ele>476.0</ele><time>2026-04-18T12:17:09.092Z</time></trkpt><trkpt lat="43.6576382" lon="11.3433595"><ele>476.0</ele><time>2026-04-18T12:17:11.092Z</time></trkpt><trkpt lat="43.6577086" lon="11.3433221"><ele>476.0</ele><time>2026-04-18T12:17:13.091Z</time></trkpt><trkpt lat="43.6577469" lon="11.3432208"><ele>476.0</ele><time>2026-04-18T12:17:15.091Z</time></trkpt><trkpt lat="43.6577571" lon="11.3430546"><ele>476.0</ele><time>2026-04-18T12:17:17.091Z</time></trkpt><trkpt lat="43.6577715" lon="11.3428849"><ele>476.0</ele><time>2026-04-18T12:17:19.091Z</time></trkpt><trkpt lat="43.6577225" lon="11.3427224"><ele>476.0</ele><time>2026-04-18T12:17:21.091Z</time></trkpt><trkpt lat="43.6576852" lon="11.3426404"><ele>476.0</ele><time>2026-04-18T12:17:22.091Z</time></trkpt><trkpt lat="43.6576394" lon="11.3425486"><ele>472.8</ele><time>2026-04-18T12:17:23.091Z</time></trkpt><trkpt lat="43.6576029" lon="11.3424689"><ele>469.6</ele><time>2026-04-18T12:17:24.092Z</time></trkpt><trkpt lat="43.6575092" lon="11.3423966"><ele>466.4</ele><time>2026-04-18T12:17:26.092Z</time></trkpt><trkpt lat="43.6574125" lon="11.3424159"><ele>463.2</ele><time>2026-04-18T12:17:28.092Z</time></trkpt><trkpt lat="43.6573091" lon="11.3424892"><ele>460.0</ele><time>2026-04-18T12:17:30.091Z</time></trkpt><trkpt lat="43.6572131" lon="11.342547"><ele>460.00000000000006</ele><time>2026-04-18T12:17:32.09Z</time></trkpt><trkpt lat="43.6571985" lon="11.342454"><ele>460.0</ele><time>2026-04-18T12:17:36.091Z</time></trkpt><trkpt lat="43.6572937" lon="11.3423696"><ele>460.0</ele><time>2026-04-18T12:17:38.091Z</time></trkpt><trkpt lat="43.6573438" lon="11.3423021"><ele>460.0</ele><time>2026-04-18T12:17:39.091Z</time></trkpt><trkpt lat="43.6574013" lon="11.3422341"><ele>460.00000000000006</ele><time>2026-04-18T12:17:40.091Z</time></trkpt><trkpt lat="43.657468" lon="11.3421724"><ele>460.0</ele><time>2026-04-18T12:17:41.091Z</time></trkpt><trkpt lat="43.6575257" lon="11.3421123"><ele>455.0</ele><time>2026-04-18T12:17:42.091Z</time></trkpt><trkpt lat="43.6575863" lon="11.3420401"><ele>450.0</ele><time>2026-04-18T12:17:43.092Z</time></trkpt><trkpt lat="43.6576603" lon="11.3418954"><ele>445.0</ele><time>2026-04-18T12:17:45.092Z</time></trkpt><trkpt lat="43.6577055" lon="11.3417312"><ele>440.0</ele><time>2026-04-18T12:17:47.091Z</time></trkpt><trkpt lat="43.657709" lon="11.3416423"><ele>435.0</ele><time>2026-04-18T12:17:48.091Z</time></trkpt><trkpt lat="43.6577069" lon="11.3415498"><ele>435.0</ele><time>2026-04-18T12:17:49.092Z</time></trkpt><trkpt lat="43.657685" lon="11.3414626"><ele>435.0</ele><time>2026-04-18T12:17:50.091Z</time></trkpt><trkpt lat="43.6577345" lon="11.341324"><ele>435.0</ele><time>2026-04-18T12:17:52.091Z</time></trkpt><trkpt lat="43.657818" lon="11.3411989"><ele>435.0</ele><time>2026-04-18T12:17:54.091Z</time></trkpt><trkpt lat="43.6578639" lon="11.3411369"><ele>435.0</ele><time>2026-04-18T12:17:57.091Z</time></trkpt><trkpt lat="43.6578064" lon="11.34109"><ele>435.0</ele><time>2026-04-18T12:18:49.091Z</time></trkpt><trkpt lat="43.6577427" lon="11.3410925"><ele>431.4</ele><time>2026-04-18T12:18:51.091Z</time></trkpt><trkpt lat="43.6576723" lon="11.3410267"><ele>427.8</ele><time>2026-04-18T12:18:53.091Z</time></trkpt><trkpt lat="43.6576733" lon="11.3409087"><ele>424.20000000000005</ele><time>2026-04-18T12:18:55.091Z</time></trkpt><trkpt lat="43.6577234" lon="11.3407729"><ele>420.6</ele><time>2026-04-18T12:18:57.091Z</time></trkpt><trkpt lat="43.6577887" lon="11.3406307"><ele>417.0</ele><time>2026-04-18T12:18:59.091Z</time></trkpt><trkpt lat="43.6578252" lon="11.3405522"><ele>414.42857142857144</ele><time>2026-04-18T12:19:00.092Z</time></trkpt><trkpt lat="43.6578679" lon="11.3404748"><ele>411.85714285714283</ele><time>2026-04-18T12:19:01.091Z</time></trkpt><trkpt lat="43.6579195" lon="11.3404091"><ele>409.2857142857143</ele><time>2026-04-18T12:19:02.091Z</time></trkpt><trkpt lat="43.6579854" lon="11.3403676"><ele>406.7142857142857</ele><time>2026-04-18T12:19:03.091Z</time></trkpt><trkpt lat="43.6580511" lon="11.3403543"><ele>404.1428571428571</ele><time>2026-04-18T12:19:04.091Z</time></trkpt><trkpt lat="43.6581295" lon="11.3403645"><ele>401.57142857142856</ele><time>2026-04-18T12:19:05.091Z</time></trkpt><trkpt lat="43.6582061" lon="11.3403932"><ele>399.0</ele><time>2026-04-18T12:19:06.091Z</time></trkpt><trkpt lat="43.6582799" lon="11.3404441"><ele>399.0</ele><time>2026-04-18T12:19:07.092Z</time></trkpt><trkpt lat="43.6583413" lon="11.3404843"><ele>399.0</ele><time>2026-04-18T12:19:08.091Z</time></trkpt><trkpt lat="43.6584389" lon="11.3405119"><ele>399.0</ele><time>2026-04-18T12:19:10.091Z</time></trkpt><trkpt lat="43.6584282" lon="11.3403832"><ele>399.0</ele><time>2026-04-18T12:19:13.091Z</time></trkpt><trkpt lat="43.6583196" lon="11.3402665"><ele>399.0</ele><time>2026-04-18T12:19:15.091Z</time></trkpt><trkpt lat="43.65825" lon="11.3401988"><ele>399.0</ele><time>2026-04-18T12:19:16.092Z</time></trkpt><trkpt lat="43.6581777" lon="11.34013"><ele>399.0</ele><time>2026-04-18T12:19:17.092Z</time></trkpt><trkpt lat="43.6581065" lon="11.3400644"><ele>399.0</ele><time>2026-04-18T12:19:18.091Z</time></trkpt><trkpt lat="43.6580274" lon="11.3400235"><ele>399.0</ele><time>2026-04-18T12:19:19.092Z</time></trkpt><trkpt lat="43.6579496" lon="11.3399901"><ele>399.0</ele><time>2026-04-18T12:19:20.091Z</time></trkpt><trkpt lat="43.6578715" lon="11.3399578"><ele>399.0</ele><time>2026-04-18T12:19:21.091Z</time></trkpt><trkpt lat="43.6577885" lon="11.3399351"><ele>398.4</ele><time>2026-04-18T12:19:22.092Z</time></trkpt><trkpt lat="43.6577168" lon="11.3399313"><ele>397.79999999999995</ele><time>2026-04-18T12:19:23.092Z</time></trkpt><trkpt lat="43.6576169" lon="11.3399025"><ele>397.20000000000005</ele><time>2026-04-18T12:19:25.092Z</time></trkpt><trkpt lat="43.6576051" lon="11.3397955"><ele>396.6</ele><time>2026-04-18T12:19:27.092Z</time></trkpt><trkpt lat="43.657702" lon="11.3396817"><ele>396.0</ele><time>2026-04-18T12:19:29.091Z</time></trkpt><trkpt lat="43.6577829" lon="11.3396215"><ele>392.5</ele><time>2026-04-18T12:19:30.092Z</time></trkpt><trkpt lat="43.6578631" lon="11.3395731"><ele>389.0</ele><time>2026-04-18T12:19:31.092Z</time></trkpt><trkpt lat="43.6579447" lon="11.3395382"><ele>385.5</ele><time>2026-04-18T12:19:32.091Z</time></trkpt><trkpt lat="43.6580231" lon="11.3395269"><ele>382.0</ele><time>2026-04-18T12:19:33.092Z</time></trkpt><trkpt lat="43.6580982" lon="11.3395325"><ele>378.5</ele><time>2026-04-18T12:19:34.092Z</time></trkpt><trkpt lat="43.6581881" lon="11.3395546"><ele>375.0</ele><time>2026-04-18T12:19:35.091Z</time></trkpt><trkpt lat="43.6582788" lon="11.3395669"><ele>375.0</ele><time>2026-04-18T12:19:36.092Z</time></trkpt><trkpt lat="43.6583686" lon="11.339586"><ele>375.0</ele><time>2026-04-18T12:19:37.091Z</time></trkpt><trkpt lat="43.6584563" lon="11.3396121"><ele>375.0</ele><time>2026-04-18T12:19:38.092Z</time></trkpt><trkpt lat="43.6585466" lon="11.3396496"><ele>375.0</ele><time>2026-04-18T12:19:39.092Z</time></trkpt><trkpt lat="43.6586334" lon="11.3396943"><ele>375.0</ele><time>2026-04-18T12:19:40.091Z</time></trkpt><trkpt lat="43.6587102" lon="11.3397675"><ele>375.0</ele><time>2026-04-18T12:19:41.092Z</time></trkpt><trkpt lat="43.6587792" lon="11.339834"><ele>375.0</ele><time>2026-04-18T12:19:42.091Z</time></trkpt><trkpt lat="43.6588602" lon="11.3399137"><ele>375.0</ele><time>2026-04-18T12:19:43.091Z</time></trkpt><trkpt lat="43.658943" lon="11.3400182"><ele>375.0</ele><time>2026-04-18T12:19:44.091Z</time></trkpt><trkpt lat="43.659017" lon="11.3401474"><ele>375.0</ele><time>2026-04-18T12:19:45.091Z</time></trkpt><trkpt lat="43.6590719" lon="11.3402573"><ele>375.0</ele><time>2026-04-18T12:19:46.092Z</time></trkpt><trkpt lat="43.6591284" lon="11.3403579"><ele>375.0</ele><time>2026-04-18T12:19:47.091Z</time></trkpt><trkpt lat="43.6591536" lon="11.3404816"><ele>375.0</ele><time>2026-04-18T12:19:48.091Z</time></trkpt><trkpt lat="43.6591602" lon="11.3405733"><ele>375.0</ele><time>2026-04-18T12:19:49.091Z</time></trkpt><trkpt lat="43.6591772" lon="11.3406922"><ele>375.0</ele><time>2026-04-18T12:19:50.092Z</time></trkpt><trkpt lat="43.6592" lon="11.3407774"><ele>375.0</ele><time>2026-04-18T12:19:51.091Z</time></trkpt><trkpt lat="43.6593065" lon="11.340835"><ele>374.5</ele><time>2026-04-18T12:19:53.091Z</time></trkpt><trkpt lat="43.6593738" lon="11.3408193"><ele>374.0</ele><time>2026-04-18T12:19:54.091Z</time></trkpt><trkpt lat="43.6594481" lon="11.3407721"><ele>373.5</ele><time>2026-04-18T12:19:55.092Z</time></trkpt><trkpt lat="43.6595273" lon="11.3407165"><ele>373.0</ele><time>2026-04-18T12:19:56.091Z</time></trkpt><trkpt lat="43.6595835" lon="11.3406137"><ele>372.5</ele><time>2026-04-18T12:19:57.091Z</time></trkpt><trkpt lat="43.6596518" lon="11.3405509"><ele>372.0</ele><time>2026-04-18T12:19:58.091Z</time></trkpt><trkpt lat="43.6597619" lon="11.340514"><ele>372.0</ele><time>2026-04-18T12:20:00.09Z</time></trkpt><trkpt lat="43.6598218" lon="11.3405577"><ele>372.0</ele><time>2026-04-18T12:20:01.091Z</time></trkpt><trkpt lat="43.6598724" lon="11.340635"><ele>372.0</ele><time>2026-04-18T12:20:02.091Z</time></trkpt><trkpt lat="43.6599131" lon="11.340739"><ele>372.0</ele><time>2026-04-18T12:20:03.091Z</time></trkpt><trkpt lat="43.6599474" lon="11.340865"><ele>372.0</ele><time>2026-04-18T12:20:04.091Z</time></trkpt><trkpt lat="43.6599771" lon="11.3410006"><ele>372.0</ele><time>2026-04-18T12:20:05.091Z</time></trkpt><trkpt lat="43.6600059" lon="11.3411433"><ele>372.0</ele><time>2026-04-18T12:20:06.091Z</time></trkpt><trkpt lat="43.6600409" lon="11.3412839"><ele>372.0</ele><time>2026-04-18T12:20:07.091Z</time></trkpt><trkpt lat="43.6600874" lon="11.3414154"><ele>372.0</ele><time>2026-04-18T12:20:08.092Z</time></trkpt><trkpt lat="43.6601536" lon="11.341524"><ele>372.0</ele><time>2026-04-18T12:20:09.092Z</time></trkpt><trkpt lat="43.6602327" lon="11.3415925"><ele>372.0</ele><time>2026-04-18T12:20:10.091Z</time></trkpt><trkpt lat="43.6603192" lon="11.3416177"><ele>368.40000000000003</ele><time>2026-04-18T12:20:11.091Z</time></trkpt><trkpt lat="43.660406" lon="11.3416249"><ele>364.8</ele><time>2026-04-18T12:20:12.092Z</time></trkpt><trkpt lat="43.6605003" lon="11.3416351"><ele>361.2</ele><time>2026-04-18T12:20:13.091Z</time></trkpt><trkpt lat="43.6605999" lon="11.3416486"><ele>357.6</ele><time>2026-04-18T12:20:14.091Z</time></trkpt><trkpt lat="43.6606978" lon="11.3416742"><ele>354.0</ele><time>2026-04-18T12:20:15.092Z</time></trkpt><trkpt lat="43.6607859" lon="11.3417291"><ele>354.0</ele><time>2026-04-18T12:20:16.091Z</time></trkpt><trkpt lat="43.6608676" lon="11.3418117"><ele>354.0</ele><time>2026-04-18T12:20:17.091Z</time></trkpt><trkpt lat="43.660932" lon="11.3419127"><ele>354.0</ele><time>2026-04-18T12:20:18.091Z</time></trkpt><trkpt lat="43.6609827" lon="11.3420282"><ele>354.0</ele><time>2026-04-18T12:20:19.092Z</time></trkpt><trkpt lat="43.6610312" lon="11.3421598"><ele>354.0</ele><time>2026-04-18T12:20:20.091Z</time></trkpt><trkpt lat="43.6610724" lon="11.3422993"><ele>355.1666666666667</ele><time>2026-04-18T12:20:21.091Z</time></trkpt><trkpt lat="43.6610998" lon="11.3424413"><ele>356.3333333333333</ele><time>2026-04-18T12:20:22.092Z</time></trkpt><trkpt lat="43.661115" lon="11.34257"><ele>357.5</ele><time>2026-04-18T12:20:23.092Z</time></trkpt><trkpt lat="43.6611244" lon="11.342688"><ele>358.66666666666663</ele><time>2026-04-18T12:20:24.091Z</time></trkpt><trkpt lat="43.6611357" lon="11.3427938"><ele>359.8333333333333</ele><time>2026-04-18T12:20:25.091Z</time></trkpt><trkpt lat="43.661165" lon="11.3428827"><ele>361.0</ele><time>2026-04-18T12:20:26.092Z</time></trkpt><trkpt lat="43.6612372" lon="11.3429855"><ele>356.66666666666663</ele><time>2026-04-18T12:20:28.091Z</time></trkpt><trkpt lat="43.6613" lon="11.3430242"><ele>352.3333333333333</ele><time>2026-04-18T12:20:32.091Z</time></trkpt><trkpt lat="43.6613771" lon="11.3429935"><ele>348.0</ele><time>2026-04-18T12:21:15.091Z</time></trkpt><trkpt lat="43.6614408" lon="11.3429517"><ele>343.6666666666667</ele><time>2026-04-18T12:21:17.091Z</time></trkpt><trkpt lat="43.6615213" lon="11.3428633"><ele>339.33333333333337</ele><time>2026-04-18T12:21:19.09Z</time></trkpt><trkpt lat="43.6616101" lon="11.3427429"><ele>335.0</ele><time>2026-04-18T12:21:21.091Z</time></trkpt><trkpt lat="43.6616589" lon="11.3426692"><ele>335.0</ele><time>2026-04-18T12:21:22.091Z</time></trkpt><trkpt lat="43.6617127" lon="11.3425908"><ele>335.0</ele><time>2026-04-18T12:21:23.092Z</time></trkpt><trkpt lat="43.6617658" lon="11.3425135"><ele>335.0</ele><time>2026-04-18T12:21:24.091Z</time></trkpt><trkpt lat="43.6618164" lon="11.3424376"><ele>335.0</ele><time>2026-04-18T12:21:25.092Z</time></trkpt><trkpt lat="43.6618695" lon="11.342359"><ele>335.0</ele><time>2026-04-18T12:21:26.092Z</time></trkpt><trkpt lat="43.6619199" lon="11.3422874"><ele>335.0</ele><time>2026-04-18T12:21:27.091Z</time></trkpt><trkpt lat="43.6619692" lon="11.3422161"><ele>332.0</ele><time>2026-04-18T12:21:28.091Z</time></trkpt><trkpt lat="43.6620244" lon="11.3421363"><ele>329.0</ele><time>2026-04-18T12:21:29.091Z</time></trkpt><trkpt lat="43.6620831" lon="11.3420575"><ele>326.0</ele><time>2026-04-18T12:21:30.092Z</time></trkpt><trkpt lat="43.662126" lon="11.3419751"><ele>323.0</ele><time>2026-04-18T12:21:31.091Z</time></trkpt><trkpt lat="43.6621818" lon="11.3418867"><ele>320.0</ele><time>2026-04-18T12:21:32.091Z</time></trkpt><trkpt lat="43.662222" lon="11.3417674"><ele>317.0</ele><time>2026-04-18T12:21:33.091Z</time></trkpt><trkpt lat="43.662262" lon="11.3416521"><ele>317.0</ele><time>2026-04-18T12:21:34.092Z</time></trkpt><trkpt lat="43.6622922" lon="11.3415586"><ele>317.0</ele><time>2026-04-18T12:21:35.09Z</time></trkpt><trkpt lat="43.6622766" lon="11.3414712"><ele>317.0</ele><time>2026-04-18T12:21:36.091Z</time></trkpt><trkpt lat="43.6622709" lon="11.3413734"><ele>317.0</ele><time>2026-04-18T12:21:37.09Z</time></trkpt><trkpt lat="43.6622536" lon="11.3412893"><ele>317.0</ele><time>2026-04-18T12:21:38.09Z</time></trkpt><trkpt lat="43.6622019" lon="11.3411439"><ele>317.0</ele><time>2026-04-18T12:21:40.091Z</time></trkpt><trkpt lat="43.6621795" lon="11.341059"><ele>315.83333333333337</ele><time>2026-04-18T12:21:41.091Z</time></trkpt><trkpt lat="43.6621555" lon="11.340978"><ele>314.6666666666667</ele><time>2026-04-18T12:21:42.09Z</time></trkpt><trkpt lat="43.6621123" lon="11.3408292"><ele>313.5</ele><time>2026-04-18T12:21:44.09Z</time></trkpt><trkpt lat="43.662087" lon="11.3406953"><ele>312.3333333333333</ele><time>2026-04-18T12:21:46.09Z</time></trkpt><trkpt lat="43.662093" lon="11.3405576"><ele>311.16666666666663</ele><time>2026-04-18T12:21:48.09Z</time></trkpt><trkpt lat="43.6621108" lon="11.3404727"><ele>310.0</ele><time>2026-04-18T12:21:49.09Z</time></trkpt><trkpt lat="43.6621377" lon="11.340376"><ele>309.0</ele><time>2026-04-18T12:21:50.09Z</time></trkpt><trkpt lat="43.6621678" lon="11.3402614"><ele>308.0</ele><time>2026-04-18T12:21:51.09Z</time></trkpt><trkpt lat="43.6622024" lon="11.3401308"><ele>307.0</ele><time>2026-04-18T12:21:52.09Z</time></trkpt><trkpt lat="43.6622371" lon="11.3400026"><ele>306.0</ele><time>2026-04-18T12:21:53.09Z</time></trkpt><trkpt lat="43.6622716" lon="11.3398673"><ele>305.0</ele><time>2026-04-18T12:21:54.09Z</time></trkpt><trkpt lat="43.6623093" lon="11.339725"><ele>304.8</ele><time>2026-04-18T12:21:55.091Z</time></trkpt><trkpt lat="43.6623504" lon="11.3395824"><ele>304.6</ele><time>2026-04-18T12:21:56.09Z</time></trkpt><trkpt lat="43.6623793" lon="11.3394418"><ele>304.4</ele><time>2026-04-18T12:21:57.09Z</time></trkpt><trkpt lat="43.6623866" lon="11.3393023"><ele>304.2</ele><time>2026-04-18T12:21:58.09Z</time></trkpt><trkpt lat="43.6623669" lon="11.339165"><ele>304.0</ele><time>2026-04-18T12:21:59.09Z</time></trkpt><trkpt lat="43.6623215" lon="11.3390432"><ele>304.0</ele><time>2026-04-18T12:22:00.09Z</time></trkpt><trkpt lat="43.6622523" lon="11.3389304"><ele>304.0</ele><time>2026-04-18T12:22:01.09Z</time></trkpt><trkpt lat="43.6621652" lon="11.338858"><ele>304.0</ele><time>2026-04-18T12:22:02.09Z</time></trkpt><trkpt lat="43.6620712" lon="11.3388078"><ele>304.0</ele><time>2026-04-18T12:22:03.091Z</time></trkpt><trkpt lat="43.6619865" lon="11.3387715"><ele>304.0</ele><time>2026-04-18T12:22:04.091Z</time></trkpt><trkpt lat="43.6619216" lon="11.3387369"><ele>305.5</ele><time>2026-04-18T12:22:05.09Z</time></trkpt><trkpt lat="43.6618683" lon="11.3386738"><ele>307.0</ele><time>2026-04-18T12:22:06.09Z</time></trkpt><trkpt lat="43.6618093" lon="11.338582"><ele>308.5</ele><time>2026-04-18T12:22:07.09Z</time></trkpt><trkpt lat="43.6617481" lon="11.3384847"><ele>310.0</ele><time>2026-04-18T12:22:08.091Z</time></trkpt><trkpt lat="43.6616996" lon="11.3383936"><ele>311.5</ele><time>2026-04-18T12:22:09.09Z</time></trkpt><trkpt lat="43.6616657" lon="11.3382985"><ele>313.0</ele><time>2026-04-18T12:22:10.09Z</time></trkpt><trkpt lat="43.6616311" lon="11.3381983"><ele>313.0</ele><time>2026-04-18T12:22:11.09Z</time></trkpt><trkpt lat="43.6616361" lon="11.3380598"><ele>313.0</ele><time>2026-04-18T12:22:12.091Z</time></trkpt><trkpt lat="43.6616555" lon="11.3379341"><ele>313.0</ele><time>2026-04-18T12:22:13.091Z</time></trkpt><trkpt lat="43.6616939" lon="11.3377439"><ele>313.0</ele><time>2026-04-18T12:22:14.091Z</time></trkpt><trkpt lat="43.6617131" lon="11.3375483"><ele>311.75</ele><time>2026-04-18T12:22:15.09Z</time></trkpt><trkpt lat="43.6617359" lon="11.3373787"><ele>310.5</ele><time>2026-04-18T12:22:16.09Z</time></trkpt><trkpt lat="43.6617513" lon="11.3372004"><ele>309.25</ele><time>2026-04-18T12:22:17.091Z</time></trkpt><trkpt lat="43.6617638" lon="11.3370431"><ele>308.0</ele><time>2026-04-18T12:22:18.091Z</time></trkpt><trkpt lat="43.6617603" lon="11.3369017"><ele>306.2</ele><time>2026-04-18T12:22:19.09Z</time></trkpt><trkpt lat="43.6617142" lon="11.3367727"><ele>304.4</ele><time>2026-04-18T12:22:20.09Z</time></trkpt><trkpt lat="43.661673" lon="11.336626"><ele>302.59999999999997</ele><time>2026-04-18T12:22:21.09Z</time></trkpt><trkpt lat="43.6616095" lon="11.3365602"><ele>300.8</ele><time>2026-04-18T12:22:22.09Z</time></trkpt><trkpt lat="43.6614756" lon="11.3365677"><ele>299.0</ele><time>2026-04-18T12:22:23.09Z</time></trkpt><trkpt lat="43.6614066" lon="11.3365305"><ele>299.0</ele><time>2026-04-18T12:22:24.09Z</time></trkpt><trkpt lat="43.6613229" lon="11.3365513"><ele>299.0</ele><time>2026-04-18T12:22:25.091Z</time></trkpt><trkpt lat="43.6612354" lon="11.3365945"><ele>299.0</ele><time>2026-04-18T12:22:26.09Z</time></trkpt><trkpt lat="43.6611217" lon="11.3366907"><ele>299.0</ele><time>2026-04-18T12:22:27.09Z</time></trkpt><trkpt lat="43.6609862" lon="11.3368336"><ele>299.2</ele><time>2026-04-18T12:22:28.09Z</time></trkpt><trkpt lat="43.6608894" lon="11.3368961"><ele>299.4</ele><time>2026-04-18T12:22:29.09Z</time></trkpt><trkpt lat="43.6607849" lon="11.3369536"><ele>299.6</ele><time>2026-04-18T12:22:30.09Z</time></trkpt><trkpt lat="43.6606914" lon="11.3369783"><ele>299.8</ele><time>2026-04-18T12:22:31.09Z</time></trkpt><trkpt lat="43.6605854" lon="11.3369867"><ele>300.0</ele><time>2026-04-18T12:22:32.09Z</time></trkpt><trkpt lat="43.6604839" lon="11.3369859"><ele>300.0</ele><time>2026-04-18T12:22:33.09Z</time></trkpt><trkpt lat="43.6603894" lon="11.3369865"><ele>300.0</ele><time>2026-04-18T12:22:34.09Z</time></trkpt><trkpt lat="43.6603131" lon="11.3370086"><ele>300.0</ele><time>2026-04-18T12:22:35.09Z</time></trkpt><trkpt lat="43.6602542" lon="11.3370623"><ele>300.0</ele><time>2026-04-18T12:22:36.09Z</time></trkpt><trkpt lat="43.6601977" lon="11.3371603"><ele>300.0</ele><time>2026-04-18T12:22:37.089Z</time></trkpt><trkpt lat="43.6601503" lon="11.337279"><ele>300.0</ele><time>2026-04-18T12:22:38.09Z</time></trkpt><trkpt lat="43.6601118" lon="11.3374148"><ele>303.0</ele><time>2026-04-18T12:22:39.091Z</time></trkpt><trkpt lat="43.6600736" lon="11.3375303"><ele>306.0</ele><time>2026-04-18T12:22:40.09Z</time></trkpt><trkpt lat="43.6600323" lon="11.3376015"><ele>309.0</ele><time>2026-04-18T12:22:41.09Z</time></trkpt><trkpt lat="43.6599339" lon="11.3376554"><ele>312.0</ele><time>2026-04-18T12:22:43.09Z</time></trkpt><trkpt lat="43.6598178" lon="11.3376258"><ele>315.0</ele><time>2026-04-18T12:22:45.09Z</time></trkpt><trkpt lat="43.6597635" lon="11.3374585"><ele>315.0</ele><time>2026-04-18T12:22:46.09Z</time></trkpt><trkpt lat="43.6596806" lon="11.3373159"><ele>315.0</ele><time>2026-04-18T12:22:47.09Z</time></trkpt><trkpt lat="43.6596159" lon="11.3372188"><ele>315.0</ele><time>2026-04-18T12:22:48.089Z</time></trkpt><trkpt lat="43.6595292" lon="11.3371629"><ele>315.0</ele><time>2026-04-18T12:22:49.09Z</time></trkpt><trkpt lat="43.6594354" lon="11.3371336"><ele>315.0</ele><time>2026-04-18T12:22:50.09Z</time></trkpt><trkpt lat="43.659341" lon="11.3371017"><ele>315.0</ele><time>2026-04-18T12:22:51.091Z</time></trkpt><trkpt lat="43.6592358" lon="11.3371133"><ele>315.0</ele><time>2026-04-18T12:22:52.091Z</time></trkpt><trkpt lat="43.6591431" lon="11.3371217"><ele>315.0</ele><time>2026-04-18T12:22:53.09Z</time></trkpt><trkpt lat="43.6590052" lon="11.3370498"><ele>315.0</ele><time>2026-04-18T12:22:55.091Z</time></trkpt><trkpt lat="43.6589958" lon="11.3369467"><ele>315.0</ele><time>2026-04-18T12:22:56.09Z</time></trkpt><trkpt lat="43.6590022" lon="11.3368254"><ele>315.0</ele><time>2026-04-18T12:22:57.09Z</time></trkpt><trkpt lat="43.6590986" lon="11.3366463"><ele>315.0</ele><time>2026-04-18T12:22:58.09Z</time></trkpt><trkpt lat="43.659252" lon="11.3365055"><ele>315.0</ele><time>2026-04-18T12:22:59.091Z</time></trkpt><trkpt lat="43.6593247" lon="11.3363742"><ele>313.25</ele><time>2026-04-18T12:23:00.09Z</time></trkpt><trkpt lat="43.659401" lon="11.336237"><ele>311.5</ele><time>2026-04-18T12:23:01.09Z</time></trkpt><trkpt lat="43.6594667" lon="11.3360711"><ele>309.75</ele><time>2026-04-18T12:23:02.091Z</time></trkpt><trkpt lat="43.6594551" lon="11.3359475"><ele>308.0</ele><time>2026-04-18T12:23:03.09Z</time></trkpt><trkpt lat="43.6594618" lon="11.3357922"><ele>305.0</ele><time>2026-04-18T12:23:04.091Z</time></trkpt><trkpt lat="43.6594542" lon="11.3356479"><ele>302.0</ele><time>2026-04-18T12:23:05.091Z</time></trkpt><trkpt lat="43.6594322" lon="11.3355143"><ele>299.0</ele><time>2026-04-18T12:23:06.09Z</time></trkpt><trkpt lat="43.6593929" lon="11.3353963"><ele>296.0</ele><time>2026-04-18T12:23:07.091Z</time></trkpt><trkpt lat="43.6593395" lon="11.3352642"><ele>293.0</ele><time>2026-04-18T12:23:08.091Z</time></trkpt><trkpt lat="43.6592814" lon="11.3351463"><ele>293.0</ele><time>2026-04-18T12:23:09.091Z</time></trkpt><trkpt lat="43.6592328" lon="11.3350108"><ele>293.0</ele><time>2026-04-18T12:23:10.09Z</time></trkpt><trkpt lat="43.6592" lon="11.3348644"><ele>293.0</ele><time>2026-04-18T12:23:11.091Z</time></trkpt><trkpt lat="43.6591664" lon="11.3347409"><ele>293.0</ele><time>2026-04-18T12:23:12.09Z</time></trkpt><trkpt lat="43.6591209" lon="11.3346307"><ele>293.0</ele><time>2026-04-18T12:23:13.091Z</time></trkpt><trkpt lat="43.6590578" lon="11.3345444"><ele>292.6666666666667</ele><time>2026-04-18T12:23:14.09Z</time></trkpt><trkpt lat="43.6589884" lon="11.3344595"><ele>292.33333333333337</ele><time>2026-04-18T12:23:15.091Z</time></trkpt><trkpt lat="43.6589097" lon="11.3344274"><ele>292.0</ele><time>2026-04-18T12:23:16.09Z</time></trkpt><trkpt lat="43.6588254" lon="11.3344126"><ele>291.6666666666667</ele><time>2026-04-18T12:23:17.09Z</time></trkpt><trkpt lat="43.6587393" lon="11.3344313"><ele>291.3333333333333</ele><time>2026-04-18T12:23:18.09Z</time></trkpt><trkpt lat="43.6586534" lon="11.3344587"><ele>291.0</ele><time>2026-04-18T12:23:19.09Z</time></trkpt><trkpt lat="43.658561" lon="11.3344971"><ele>291.0</ele><time>2026-04-18T12:23:20.091Z</time></trkpt><trkpt lat="43.6584635" lon="11.3345323"><ele>291.0</ele><time>2026-04-18T12:23:21.09Z</time></trkpt><trkpt lat="43.658368" lon="11.3345761"><ele>291.0</ele><time>2026-04-18T12:23:22.091Z</time></trkpt><trkpt lat="43.6582754" lon="11.3346046"><ele>291.0</ele><time>2026-04-18T12:23:23.09Z</time></trkpt><trkpt lat="43.6582015" lon="11.3346369"><ele>291.0</ele><time>2026-04-18T12:23:24.091Z</time></trkpt><trkpt lat="43.6581811" lon="11.3345174"><ele>291.0</ele><time>2026-04-18T12:23:26.09Z</time></trkpt><trkpt lat="43.6581877" lon="11.3343729"><ele>291.0</ele><time>2026-04-18T12:23:28.091Z</time></trkpt><trkpt lat="43.6582132" lon="11.3342442"><ele>291.0</ele><time>2026-04-18T12:23:29.09Z</time></trkpt><trkpt lat="43.6582169" lon="11.3340825"><ele>291.0</ele><time>2026-04-18T12:23:30.091Z</time></trkpt><trkpt lat="43.6582337" lon="11.33393"><ele>291.0</ele><time>2026-04-18T12:23:31.09Z</time></trkpt><trkpt lat="43.6582457" lon="11.3337788"><ele>290.40000000000003</ele><time>2026-04-18T12:23:32.09Z</time></trkpt><trkpt lat="43.6582565" lon="11.3336326"><ele>289.8</ele><time>2026-04-18T12:23:33.09Z</time></trkpt><trkpt lat="43.6582785" lon="11.333508"><ele>289.20000000000005</ele><time>2026-04-18T12:23:34.091Z</time></trkpt><trkpt lat="43.6583103" lon="11.3333907"><ele>288.6</ele><time>2026-04-18T12:23:35.091Z</time></trkpt><trkpt lat="43.6583559" lon="11.3332894"><ele>288.0</ele><time>2026-04-18T12:23:36.09Z</time></trkpt><trkpt lat="43.6583817" lon="11.3331835"><ele>288.0</ele><time>2026-04-18T12:23:37.091Z</time></trkpt><trkpt lat="43.6583868" lon="11.3330793"><ele>288.0</ele><time>2026-04-18T12:23:38.09Z</time></trkpt><trkpt lat="43.6583802" lon="11.3329738"><ele>288.0</ele><time>2026-04-18T12:23:39.091Z</time></trkpt><trkpt lat="43.6583316" lon="11.3328625"><ele>288.0</ele><time>2026-04-18T12:23:40.09Z</time></trkpt><trkpt lat="43.6582992" lon="11.3327125"><ele>288.0</ele><time>2026-04-18T12:23:41.091Z</time></trkpt><trkpt lat="43.6582785" lon="11.3325551"><ele>287.6</ele><time>2026-04-18T12:23:42.09Z</time></trkpt><trkpt lat="43.6582605" lon="11.3324068"><ele>287.20000000000005</ele><time>2026-04-18T12:23:43.09Z</time></trkpt><trkpt lat="43.6582731" lon="11.3322652"><ele>286.8</ele><time>2026-04-18T12:23:44.09Z</time></trkpt><trkpt lat="43.6583056" lon="11.3321451"><ele>286.40000000000003</ele><time>2026-04-18T12:23:45.091Z</time></trkpt><trkpt lat="43.6583661" lon="11.3320506"><ele>286.0</ele><time>2026-04-18T12:23:46.091Z</time></trkpt><trkpt lat="43.6584529" lon="11.3319775"><ele>285.8</ele><time>2026-04-18T12:23:47.091Z</time></trkpt><trkpt lat="43.6585613" lon="11.331941"><ele>285.6</ele><time>2026-04-18T12:23:48.091Z</time></trkpt><trkpt lat="43.6586602" lon="11.3319181"><ele>285.4</ele><time>2026-04-18T12:23:49.09Z</time></trkpt><trkpt lat="43.6587506" lon="11.3319313"><ele>285.2</ele><time>2026-04-18T12:23:50.09Z</time></trkpt><trkpt lat="43.6588408" lon="11.3319832"><ele>285.0</ele><time>2026-04-18T12:23:51.091Z</time></trkpt><trkpt lat="43.6589403" lon="11.332067"><ele>281.5</ele><time>2026-04-18T12:23:52.09Z</time></trkpt><trkpt lat="43.6590525" lon="11.3321525"><ele>278.0</ele><time>2026-04-18T12:23:53.09Z</time></trkpt><trkpt lat="43.6591842" lon="11.3322127"><ele>274.5</ele><time>2026-04-18T12:23:54.09Z</time></trkpt><trkpt lat="43.659332" lon="11.3322533"><ele>271.0</ele><time>2026-04-18T12:23:55.09Z</time></trkpt><trkpt lat="43.6594639" lon="11.3322858"><ele>270.25</ele><time>2026-04-18T12:23:56.091Z</time></trkpt><trkpt lat="43.6595844" lon="11.3323089"><ele>269.5</ele><time>2026-04-18T12:23:57.091Z</time></trkpt><trkpt lat="43.659702" lon="11.332301"><ele>268.75</ele><time>2026-04-18T12:23:58.091Z</time></trkpt><trkpt lat="43.6598255" lon="11.3322743"><ele>268.0</ele><time>2026-04-18T12:23:59.09Z</time></trkpt><trkpt lat="43.6599508" lon="11.3322532"><ele>268.0</ele><time>2026-04-18T12:24:00.09Z</time></trkpt><trkpt lat="43.660074" lon="11.3322477"><ele>268.0</ele><time>2026-04-18T12:24:01.091Z</time></trkpt><trkpt lat="43.6601907" lon="11.3322433"><ele>268.0</ele><time>2026-04-18T12:24:02.091Z</time></trkpt><trkpt lat="43.6603071" lon="11.3322086"><ele>268.0</ele><time>2026-04-18T12:24:03.091Z</time></trkpt><trkpt lat="43.660429" lon="11.3321556"><ele>268.5</ele><time>2026-04-18T12:24:04.091Z</time></trkpt><trkpt lat="43.6605478" lon="11.3320955"><ele>269.0</ele><time>2026-04-18T12:24:05.09Z</time></trkpt><trkpt lat="43.6606629" lon="11.3320423"><ele>269.5</ele><time>2026-04-18T12:24:06.091Z</time></trkpt><trkpt lat="43.6607803" lon="11.3319937"><ele>270.0</ele><time>2026-04-18T12:24:07.091Z</time></trkpt><trkpt lat="43.6608953" lon="11.3319677"><ele>270.0</ele><time>2026-04-18T12:24:08.09Z</time></trkpt><trkpt lat="43.6610145" lon="11.3319472"><ele>270.0</ele><time>2026-04-18T12:24:09.09Z</time></trkpt><trkpt lat="43.6611299" lon="11.3319283"><ele>270.0</ele><time>2026-04-18T12:24:10.091Z</time></trkpt><trkpt lat="43.6612434" lon="11.3319134"><ele>270.0</ele><time>2026-04-18T12:24:11.091Z</time></trkpt><trkpt lat="43.6613444" lon="11.3319099"><ele>269.25</ele><time>2026-04-18T12:24:12.091Z</time></trkpt><trkpt lat="43.661458" lon="11.3318997"><ele>268.5</ele><time>2026-04-18T12:24:13.091Z</time></trkpt><trkpt lat="43.6615809" lon="11.3318973"><ele>267.75</ele><time>2026-04-18T12:24:14.09Z</time></trkpt><trkpt lat="43.6616917" lon="11.3318931"><ele>267.0</ele><time>2026-04-18T12:24:15.091Z</time></trkpt><trkpt lat="43.6617976" lon="11.3318827"><ele>267.0</ele><time>2026-04-18T12:24:16.09Z</time></trkpt><trkpt lat="43.6619072" lon="11.3318618"><ele>267.0</ele><time>2026-04-18T12:24:17.091Z</time></trkpt><trkpt lat="43.662011" lon="11.3318267"><ele>267.0</ele><time>2026-04-18T12:24:18.09Z</time></trkpt><trkpt lat="43.6620947" lon="11.3317571"><ele>267.0</ele><time>2026-04-18T12:24:19.09Z</time></trkpt><trkpt lat="43.6621925" lon="11.3316912"><ele>267.0</ele><time>2026-04-18T12:24:20.09Z</time></trkpt><trkpt lat="43.662266" lon="11.3316279"><ele>264.2</ele><time>2026-04-18T12:24:21.091Z</time></trkpt><trkpt lat="43.6623428" lon="11.3315506"><ele>261.4</ele><time>2026-04-18T12:24:22.09Z</time></trkpt><trkpt lat="43.662428" lon="11.3314777"><ele>258.6</ele><time>2026-04-18T12:24:23.09Z</time></trkpt><trkpt lat="43.6625125" lon="11.331405"><ele>255.8</ele><time>2026-04-18T12:24:24.091Z</time></trkpt><trkpt lat="43.6626259" lon="11.3314091"><ele>253.0</ele><time>2026-04-18T12:24:25.09Z</time></trkpt><trkpt lat="43.6627304" lon="11.3313746"><ele>249.2</ele><time>2026-04-18T12:24:26.09Z</time></trkpt><trkpt lat="43.6628293" lon="11.3313912"><ele>245.4</ele><time>2026-04-18T12:24:27.09Z</time></trkpt><trkpt lat="43.6629358" lon="11.3313936"><ele>241.59999999999997</ele><time>2026-04-18T12:24:28.09Z</time></trkpt><trkpt lat="43.663032" lon="11.3313952"><ele>237.79999999999998</ele><time>2026-04-18T12:24:29.09Z</time></trkpt><trkpt lat="43.6631176" lon="11.3313844"><ele>234.0</ele><time>2026-04-18T12:24:30.091Z</time></trkpt><trkpt lat="43.6631847" lon="11.3313685"><ele>234.0</ele><time>2026-04-18T12:24:31.091Z</time></trkpt><trkpt lat="43.6632513" lon="11.3313697"><ele>233.99999999999997</ele><time>2026-04-18T12:24:32.09Z</time></trkpt><trkpt lat="43.6633097" lon="11.3314249"><ele>233.99999999999997</ele><time>2026-04-18T12:24:33.091Z</time></trkpt><trkpt lat="43.6633571" lon="11.3315888"><ele>234.0</ele><time>2026-04-18T12:24:35.091Z</time></trkpt><trkpt lat="43.6632531" lon="11.3317345"><ele>234.0</ele><time>2026-04-18T12:24:36.091Z</time></trkpt><trkpt lat="43.6632233" lon="11.331866"><ele>233.79999999999998</ele><time>2026-04-18T12:24:37.091Z</time></trkpt><trkpt lat="43.6631499" lon="11.3320061"><ele>233.59999999999997</ele><time>2026-04-18T12:24:38.09Z</time></trkpt><trkpt lat="43.6630969" lon="11.3321312"><ele>233.4</ele><time>2026-04-18T12:24:39.089Z</time></trkpt><trkpt lat="43.6630593" lon="11.3322556"><ele>233.2</ele><time>2026-04-18T12:24:40.09Z</time></trkpt><trkpt lat="43.6629959" lon="11.3323788"><ele>233.0</ele><time>2026-04-18T12:24:41.09Z</time></trkpt><trkpt lat="43.6629938" lon="11.3324855"><ele>231.60000000000002</ele><time>2026-04-18T12:24:42.091Z</time></trkpt><trkpt lat="43.6629883" lon="11.3326124"><ele>230.20000000000002</ele><time>2026-04-18T12:24:43.091Z</time></trkpt><trkpt lat="43.6630749" lon="11.3326611"><ele>228.8</ele><time>2026-04-18T12:24:44.09Z</time></trkpt><trkpt lat="43.6631409" lon="11.3327152"><ele>227.4</ele><time>2026-04-18T12:24:45.09Z</time></trkpt><trkpt lat="43.6632253" lon="11.3327426"><ele>226.0</ele><time>2026-04-18T12:24:46.09Z</time></trkpt><trkpt lat="43.6633288" lon="11.3327678"><ele>226.0</ele><time>2026-04-18T12:24:47.09Z</time></trkpt><trkpt lat="43.6634249" lon="11.3327967"><ele>226.00000000000003</ele><time>2026-04-18T12:24:48.09Z</time></trkpt><trkpt lat="43.6635353" lon="11.332836"><ele>226.00000000000003</ele><time>2026-04-18T12:24:49.091Z</time></trkpt><trkpt lat="43.6636347" lon="11.3328824"><ele>226.0</ele><time>2026-04-18T12:24:50.091Z</time></trkpt><trkpt lat="43.6637323" lon="11.3329179"><ele>226.0</ele><time>2026-04-18T12:24:51.091Z</time></trkpt><trkpt lat="43.6638203" lon="11.3328968"><ele>223.99999999999997</ele><time>2026-04-18T12:24:52.09Z</time></trkpt><trkpt lat="43.6638908" lon="11.3328435"><ele>222.0</ele><time>2026-04-18T12:24:53.09Z</time></trkpt><trkpt lat="43.663939" lon="11.3327555"><ele>220.0</ele><time>2026-04-18T12:24:54.091Z</time></trkpt><trkpt lat="43.6639962" lon="11.3326649"><ele>218.0</ele><time>2026-04-18T12:24:55.09Z</time></trkpt><trkpt lat="43.6640409" lon="11.332531"><ele>215.99999999999997</ele><time>2026-04-18T12:24:56.091Z</time></trkpt><trkpt lat="43.6640967" lon="11.3324238"><ele>214.0</ele><time>2026-04-18T12:24:57.09Z</time></trkpt><trkpt lat="43.6641676" lon="11.3323359"><ele>214.0</ele><time>2026-04-18T12:24:58.091Z</time></trkpt><trkpt lat="43.6642481" lon="11.3322467"><ele>214.0</ele><time>2026-04-18T12:24:59.09Z</time></trkpt><trkpt lat="43.6643736" lon="11.3321741"><ele>214.0</ele><time>2026-04-18T12:25:00.091Z</time></trkpt><trkpt lat="43.6644906" lon="11.3321101"><ele>214.0</ele><time>2026-04-18T12:25:01.09Z</time></trkpt><trkpt lat="43.6645919" lon="11.3320328"><ele>209.25</ele><time>2026-04-18T12:25:02.09Z</time></trkpt><trkpt lat="43.6646863" lon="11.3319724"><ele>204.5</ele><time>2026-04-18T12:25:03.09Z</time></trkpt><trkpt lat="43.6648154" lon="11.3318604"><ele>199.75</ele><time>2026-04-18T12:25:04.091Z</time></trkpt><trkpt lat="43.6649218" lon="11.3317562"><ele>195.0</ele><time>2026-04-18T12:25:05.091Z</time></trkpt><trkpt lat="43.665027" lon="11.3316594"><ele>195.0</ele><time>2026-04-18T12:25:06.091Z</time></trkpt><trkpt lat="43.665098" lon="11.3315951"><ele>195.0</ele><time>2026-04-18T12:25:07.091Z</time></trkpt><trkpt lat="43.6651732" lon="11.3315549"><ele>195.0</ele><time>2026-04-18T12:25:08.09Z</time></trkpt><trkpt lat="43.6652458" lon="11.3315071"><ele>195.0</ele><time>2026-04-18T12:25:09.09Z</time></trkpt><trkpt lat="43.6653043" lon="11.3315701"><ele>195.0</ele><time>2026-04-18T12:25:10.09Z</time></trkpt><trkpt lat="43.6653504" lon="11.3316402"><ele>195.0</ele><time>2026-04-18T12:25:11.09Z</time></trkpt><trkpt lat="43.665377" lon="11.3317484"><ele>192.66666666666666</ele><time>2026-04-18T12:25:12.091Z</time></trkpt><trkpt lat="43.665402" lon="11.3318569"><ele>190.33333333333334</ele><time>2026-04-18T12:25:13.09Z</time></trkpt><trkpt lat="43.6654319" lon="11.3319519"><ele>188.0</ele><time>2026-04-18T12:25:14.091Z</time></trkpt><trkpt lat="43.665476" lon="11.3320263"><ele>185.66666666666669</ele><time>2026-04-18T12:25:15.09Z</time></trkpt><trkpt lat="43.6655341" lon="11.3320789"><ele>183.33333333333334</ele><time>2026-04-18T12:25:16.09Z</time></trkpt><trkpt lat="43.6656177" lon="11.3320655"><ele>181.0</ele><time>2026-04-18T12:25:17.09Z</time></trkpt><trkpt lat="43.6656924" lon="11.3319721"><ele>181.0</ele><time>2026-04-18T12:25:18.09Z</time></trkpt><trkpt lat="43.6657769" lon="11.3319124"><ele>181.0</ele><time>2026-04-18T12:25:19.09Z</time></trkpt><trkpt lat="43.6658748" lon="11.3318339"><ele>181.0</ele><time>2026-04-18T12:25:20.09Z</time></trkpt><trkpt lat="43.6659728" lon="11.331763"><ele>181.0</ele><time>2026-04-18T12:25:21.091Z</time></trkpt><trkpt lat="43.6660756" lon="11.3317197"><ele>181.0</ele><time>2026-04-18T12:25:22.09Z</time></trkpt><trkpt lat="43.6661741" lon="11.3316992"><ele>178.20000000000002</ele><time>2026-04-18T12:25:23.09Z</time></trkpt><trkpt lat="43.6662598" lon="11.3316647"><ele>175.4</ele><time>2026-04-18T12:25:24.09Z</time></trkpt><trkpt lat="43.666334" lon="11.3316279"><ele>172.6</ele><time>2026-04-18T12:25:25.091Z</time></trkpt><trkpt lat="43.6663936" lon="11.331552"><ele>169.8</ele><time>2026-04-18T12:25:26.09Z</time></trkpt><trkpt lat="43.6663614" lon="11.3313875"><ele>167.0</ele><time>2026-04-18T12:25:27.091Z</time></trkpt><trkpt lat="43.6663852" lon="11.3312666"><ele>166.5</ele><time>2026-04-18T12:25:28.09Z</time></trkpt><trkpt lat="43.666398" lon="11.3311014"><ele>166.0</ele><time>2026-04-18T12:25:29.091Z</time></trkpt><trkpt lat="43.6664415" lon="11.3309135"><ele>165.5</ele><time>2026-04-18T12:25:30.09Z</time></trkpt><trkpt lat="43.6664731" lon="11.3307678"><ele>165.0</ele><time>2026-04-18T12:25:31.09Z</time></trkpt><trkpt lat="43.6664755" lon="11.3306184"><ele>164.5</ele><time>2026-04-18T12:25:32.09Z</time></trkpt><trkpt lat="43.6665066" lon="11.3305132"><ele>164.0</ele><time>2026-04-18T12:25:33.09Z</time></trkpt><trkpt lat="43.6665374" lon="11.3304037"><ele>163.5</ele><time>2026-04-18T12:25:34.091Z</time></trkpt><trkpt lat="43.6666261" lon="11.3303551"><ele>163.0</ele><time>2026-04-18T12:25:36.09Z</time></trkpt><trkpt lat="43.6667025" lon="11.3303639"><ele>162.5</ele><time>2026-04-18T12:25:37.09Z</time></trkpt><trkpt lat="43.6667797" lon="11.3303694"><ele>162.0</ele><time>2026-04-18T12:25:38.09Z</time></trkpt><trkpt lat="43.6668524" lon="11.3303644"><ele>162.0</ele><time>2026-04-18T12:25:39.09Z</time></trkpt><trkpt lat="43.6669277" lon="11.3303565"><ele>162.0</ele><time>2026-04-18T12:25:40.09Z</time></trkpt><trkpt lat="43.6669918" lon="11.3303421"><ele>162.0</ele><time>2026-04-18T12:25:41.09Z</time></trkpt><trkpt lat="43.6670484" lon="11.3302282"><ele>162.0</ele><time>2026-04-18T12:25:43.091Z</time></trkpt><trkpt lat="43.6670645" lon="11.3301182"><ele>162.0</ele><time>2026-04-18T12:25:46.09Z</time></trkpt><trkpt lat="43.6670326" lon="11.3299591"><ele>162.0</ele><time>2026-04-18T12:26:21.089Z</time></trkpt><trkpt lat="43.6670112" lon="11.3298148"><ele>162.8</ele><time>2026-04-18T12:26:23.089Z</time></trkpt><trkpt lat="43.6670091" lon="11.3296672"><ele>163.6</ele><time>2026-04-18T12:26:25.089Z</time></trkpt><trkpt lat="43.6669585" lon="11.329538"><ele>164.4</ele><time>2026-04-18T12:26:27.089Z</time></trkpt><trkpt lat="43.6669078" lon="11.3294121"><ele>165.20000000000002</ele><time>2026-04-18T12:26:29.09Z</time></trkpt><trkpt lat="43.6668636" lon="11.3293362"><ele>166.0</ele><time>2026-04-18T12:26:30.089Z</time></trkpt><trkpt lat="43.6667958" lon="11.3291925"><ele>166.0</ele><time>2026-04-18T12:26:32.089Z</time></trkpt><trkpt lat="43.6667683" lon="11.3291097"><ele>166.0</ele><time>2026-04-18T12:26:33.089Z</time></trkpt><trkpt lat="43.6667329" lon="11.3289653"><ele>166.0</ele><time>2026-04-18T12:26:35.089Z</time></trkpt><trkpt lat="43.66672" lon="11.3288608"><ele>166.0</ele><time>2026-04-18T12:26:37.089Z</time></trkpt><trkpt lat="43.6666895" lon="11.3287535"><ele>166.0</ele><time>2026-04-18T12:26:41.09Z</time></trkpt><trkpt lat="43.6666512" lon="11.3286284"><ele>166.0</ele><time>2026-04-18T12:26:43.089Z</time></trkpt><trkpt lat="43.666586" lon="11.3285097"><ele>167.20000000000002</ele><time>2026-04-18T12:26:45.089Z</time></trkpt><trkpt lat="43.6665539" lon="11.3284348"><ele>168.4</ele><time>2026-04-18T12:26:46.09Z</time></trkpt><trkpt lat="43.6665356" lon="11.3283498"><ele>169.6</ele><time>2026-04-18T12:26:47.089Z</time></trkpt><trkpt lat="43.666558" lon="11.3281953"><ele>170.8</ele><time>2026-04-18T12:26:49.09Z</time></trkpt><trkpt lat="43.6665709" lon="11.3280043"><ele>172.0</ele><time>2026-04-18T12:26:51.089Z</time></trkpt><trkpt lat="43.6665735" lon="11.3278305"><ele>172.8</ele><time>2026-04-18T12:26:53.09Z</time></trkpt><trkpt lat="43.6666224" lon="11.3277413"><ele>173.6</ele><time>2026-04-18T12:26:55.089Z</time></trkpt><trkpt lat="43.6667171" lon="11.327775"><ele>174.4</ele><time>2026-04-18T12:26:57.089Z</time></trkpt><trkpt lat="43.6668176" lon="11.3278453"><ele>175.20000000000002</ele><time>2026-04-18T12:27:00.089Z</time></trkpt><trkpt lat="43.6669143" lon="11.3279154"><ele>176.0</ele><time>2026-04-18T12:27:02.089Z</time></trkpt><trkpt lat="43.6669902" lon="11.3279652"><ele>178.0</ele><time>2026-04-18T12:27:04.09Z</time></trkpt><trkpt lat="43.6670846" lon="11.3279504"><ele>180.0</ele><time>2026-04-18T12:27:06.089Z</time></trkpt><trkpt lat="43.6671807" lon="11.3279976"><ele>182.0</ele><time>2026-04-18T12:27:08.089Z</time></trkpt><trkpt lat="43.6672465" lon="11.3280157"><ele>184.0</ele><time>2026-04-18T12:27:10.089Z</time></trkpt><trkpt lat="43.6673371" lon="11.3279868"><ele>186.0</ele><time>2026-04-18T12:27:13.089Z</time></trkpt><trkpt lat="43.6673926" lon="11.3279429"><ele>188.0</ele><time>2026-04-18T12:27:16.089Z</time></trkpt><trkpt lat="43.6673688" lon="11.3277969"><ele>188.0</ele><time>2026-04-18T12:27:18.095Z</time></trkpt><trkpt lat="43.6674123" lon="11.3277023"><ele>188.0</ele><time>2026-04-18T12:27:19.089Z</time></trkpt><trkpt lat="43.6674471" lon="11.3276107"><ele>188.0</ele><time>2026-04-18T12:27:20.089Z</time></trkpt><trkpt lat="43.6674808" lon="11.3274905"><ele>188.0</ele><time>2026-04-18T12:27:22.09Z</time></trkpt><trkpt lat="43.6674696" lon="11.3273905"><ele>188.0</ele><time>2026-04-18T12:27:24.089Z</time></trkpt><trkpt lat="43.6674623" lon="11.3272647"><ele>188.0</ele><time>2026-04-18T12:27:26.089Z</time></trkpt><trkpt lat="43.6674661" lon="11.3270964"><ele>188.0</ele><time>2026-04-18T12:27:28.089Z</time></trkpt><trkpt lat="43.6674854" lon="11.3270135"><ele>188.0</ele><time>2026-04-18T12:27:29.089Z</time></trkpt><trkpt lat="43.6675162" lon="11.3269342"><ele>188.0</ele><time>2026-04-18T12:27:31.089Z</time></trkpt><trkpt lat="43.6675755" lon="11.3268474"><ele>188.0</ele><time>2026-04-18T12:28:39.09Z</time></trkpt><trkpt lat="43.6676691" lon="11.3268054"><ele>188.0</ele><time>2026-04-18T12:28:41.09Z</time></trkpt><trkpt lat="43.6677663" lon="11.3267988"><ele>188.0</ele><time>2026-04-18T12:28:43.089Z</time></trkpt><trkpt lat="43.6678952" lon="11.32682"><ele>190.33333333333331</ele><time>2026-04-18T12:28:45.089Z</time></trkpt><trkpt lat="43.667963" lon="11.3268292"><ele>192.66666666666666</ele><time>2026-04-18T12:28:46.089Z</time></trkpt><trkpt lat="43.6680681" lon="11.32684"><ele>195.0</ele><time>2026-04-18T12:28:48.09Z</time></trkpt><trkpt lat="43.6681605" lon="11.3268352"><ele>197.33333333333331</ele><time>2026-04-18T12:28:50.089Z</time></trkpt><trkpt lat="43.668239" lon="11.3268064"><ele>199.66666666666666</ele><time>2026-04-18T12:28:52.089Z</time></trkpt><trkpt lat="43.6683082" lon="11.3267626"><ele>202.0</ele><time>2026-04-18T12:28:54.09Z</time></trkpt><trkpt lat="43.668364" lon="11.3266396"><ele>201.99999999999997</ele><time>2026-04-18T12:28:56.089Z</time></trkpt><trkpt lat="43.668401" lon="11.3265661"><ele>202.0</ele><time>2026-04-18T12:28:57.089Z</time></trkpt><trkpt lat="43.6684798" lon="11.3264866"><ele>202.0</ele><time>2026-04-18T12:28:59.089Z</time></trkpt><trkpt lat="43.6685544" lon="11.3264699"><ele>202.0</ele><time>2026-04-18T12:29:01.09Z</time></trkpt><trkpt lat="43.6686129" lon="11.3264216"><ele>201.99999999999997</ele><time>2026-04-18T12:29:02.089Z</time></trkpt><trkpt lat="43.6686663" lon="11.3263665"><ele>202.0</ele><time>2026-04-18T12:29:03.09Z</time></trkpt><trkpt lat="43.6687306" lon="11.3262492"><ele>201.66666666666666</ele><time>2026-04-18T12:29:05.089Z</time></trkpt><trkpt lat="43.6687472" lon="11.3261606"><ele>201.33333333333331</ele><time>2026-04-18T12:29:06.089Z</time></trkpt><trkpt lat="43.6687348" lon="11.326059"><ele>201.0</ele><time>2026-04-18T12:29:07.09Z</time></trkpt><trkpt lat="43.6687065" lon="11.3259805"><ele>200.66666666666669</ele><time>2026-04-18T12:29:08.089Z</time></trkpt><trkpt lat="43.6686057" lon="11.3258462"><ele>200.33333333333334</ele><time>2026-04-18T12:29:10.09Z</time></trkpt><trkpt lat="43.6685618" lon="11.325767"><ele>200.0</ele><time>2026-04-18T12:29:11.089Z</time></trkpt><trkpt lat="43.6686034" lon="11.3255938"><ele>201.50000000000003</ele><time>2026-04-18T12:29:13.089Z</time></trkpt><trkpt lat="43.6686569" lon="11.3254756"><ele>203.0</ele><time>2026-04-18T12:29:14.09Z</time></trkpt><trkpt lat="43.6687081" lon="11.3253693"><ele>204.5</ele><time>2026-04-18T12:29:15.089Z</time></trkpt><trkpt lat="43.6687463" lon="11.3252704"><ele>206.0</ele><time>2026-04-18T12:29:16.09Z</time></trkpt><trkpt lat="43.6687817" lon="11.3251702"><ele>207.50000000000003</ele><time>2026-04-18T12:29:17.089Z</time></trkpt><trkpt lat="43.6688167" lon="11.3250956"><ele>209.0</ele><time>2026-04-18T12:29:18.088Z</time></trkpt><trkpt lat="43.6688665" lon="11.3250395"><ele>209.0</ele><time>2026-04-18T12:29:19.089Z</time></trkpt><trkpt lat="43.668946" lon="11.3249892"><ele>209.0</ele><time>2026-04-18T12:29:20.089Z</time></trkpt><trkpt lat="43.6690502" lon="11.3249427"><ele>209.0</ele><time>2026-04-18T12:29:21.089Z</time></trkpt><trkpt lat="43.6691594" lon="11.3248929"><ele>209.0</ele><time>2026-04-18T12:29:22.089Z</time></trkpt><trkpt lat="43.6692519" lon="11.324849"><ele>209.0</ele><time>2026-04-18T12:29:23.089Z</time></trkpt><trkpt lat="43.6693251" lon="11.3247825"><ele>209.79999999999998</ele><time>2026-04-18T12:29:24.09Z</time></trkpt><trkpt lat="43.6693947" lon="11.3246846"><ele>210.6</ele><time>2026-04-18T12:29:25.09Z</time></trkpt><trkpt lat="43.6694579" lon="11.3246048"><ele>211.4</ele><time>2026-04-18T12:29:26.09Z</time></trkpt><trkpt lat="43.6695164" lon="11.3245522"><ele>212.2</ele><time>2026-04-18T12:29:27.089Z</time></trkpt><trkpt lat="43.6695716" lon="11.3245063"><ele>213.0</ele><time>2026-04-18T12:29:28.089Z</time></trkpt><trkpt lat="43.6696907" lon="11.3244124"><ele>213.0</ele><time>2026-04-18T12:29:30.09Z</time></trkpt><trkpt lat="43.6697579" lon="11.3243273"><ele>213.0</ele><time>2026-04-18T12:29:31.09Z</time></trkpt><trkpt lat="43.6698031" lon="11.3242251"><ele>213.0</ele><time>2026-04-18T12:29:32.088Z</time></trkpt><trkpt lat="43.6698595" lon="11.3241203"><ele>213.0</ele><time>2026-04-18T12:29:33.089Z</time></trkpt><trkpt lat="43.6699096" lon="11.3240012"><ele>213.0</ele><time>2026-04-18T12:29:34.09Z</time></trkpt><trkpt lat="43.6699615" lon="11.323871"><ele>212.66666666666666</ele><time>2026-04-18T12:29:35.089Z</time></trkpt><trkpt lat="43.6700041" lon="11.3237491"><ele>212.33333333333331</ele><time>2026-04-18T12:29:36.089Z</time></trkpt><trkpt lat="43.6700472" lon="11.3236373"><ele>212.0</ele><time>2026-04-18T12:29:37.089Z</time></trkpt><trkpt lat="43.6700972" lon="11.3235257"><ele>211.66666666666666</ele><time>2026-04-18T12:29:38.089Z</time></trkpt><trkpt lat="43.670142" lon="11.3234224"><ele>211.33333333333331</ele><time>2026-04-18T12:29:39.089Z</time></trkpt><trkpt lat="43.6701701" lon="11.3233372"><ele>211.0</ele><time>2026-04-18T12:29:40.089Z</time></trkpt><trkpt lat="43.670243" lon="11.3232423"><ele>211.4</ele><time>2026-04-18T12:29:42.09Z</time></trkpt><trkpt lat="43.6703228" lon="11.3232348"><ele>211.8</ele><time>2026-04-18T12:30:18.089Z</time></trkpt><trkpt lat="43.6704202" lon="11.3232188"><ele>212.20000000000002</ele><time>2026-04-18T12:30:20.09Z</time></trkpt><trkpt lat="43.6705034" lon="11.3231944"><ele>212.60000000000002</ele><time>2026-04-18T12:30:21.09Z</time></trkpt><trkpt lat="43.6706209" lon="11.3231629"><ele>213.0</ele><time>2026-04-18T12:30:23.089Z</time></trkpt><trkpt lat="43.6707174" lon="11.3231589"><ele>213.0</ele><time>2026-04-18T12:30:25.089Z</time></trkpt><trkpt lat="43.6708266" lon="11.3231814"><ele>213.0</ele><time>2026-04-18T12:30:27.09Z</time></trkpt><trkpt lat="43.6708962" lon="11.3231301"><ele>213.0</ele><time>2026-04-18T12:30:28.089Z</time></trkpt><trkpt lat="43.6709684" lon="11.3230369"><ele>213.0</ele><time>2026-04-18T12:30:29.089Z</time></trkpt><trkpt lat="43.6710252" lon="11.32297"><ele>213.0</ele><time>2026-04-18T12:30:30.089Z</time></trkpt><trkpt lat="43.6710654" lon="11.3228867"><ele>213.0</ele><time>2026-04-18T12:30:31.089Z</time></trkpt><trkpt lat="43.6711173" lon="11.3227388"><ele>212.60000000000002</ele><time>2026-04-18T12:30:33.09Z</time></trkpt><trkpt lat="43.6710226" lon="11.3226253"><ele>212.20000000000002</ele><time>2026-04-18T12:30:35.089Z</time></trkpt><trkpt lat="43.6709606" lon="11.3225446"><ele>211.8</ele><time>2026-04-18T12:30:36.089Z</time></trkpt><trkpt lat="43.6709124" lon="11.3224065"><ele>211.4</ele><time>2026-04-18T12:30:38.09Z</time></trkpt><trkpt lat="43.670946" lon="11.3222508"><ele>211.0</ele><time>2026-04-18T12:30:40.089Z</time></trkpt><trkpt lat="43.6709374" lon="11.322053"><ele>211.0</ele><time>2026-04-18T12:30:42.089Z</time></trkpt><trkpt lat="43.6708744" lon="11.3219299"><ele>211.0</ele><time>2026-04-18T12:30:44.09Z</time></trkpt><trkpt lat="43.670855" lon="11.3218454"><ele>211.0</ele><time>2026-04-18T12:30:45.089Z</time></trkpt><trkpt lat="43.6708881" lon="11.3217166"><ele>211.0</ele><time>2026-04-18T12:30:46.089Z</time></trkpt><trkpt lat="43.6709081" lon="11.3215725"><ele>211.0</ele><time>2026-04-18T12:30:47.09Z</time></trkpt><trkpt lat="43.6709304" lon="11.321434"><ele>211.4</ele><time>2026-04-18T12:30:48.088Z</time></trkpt><trkpt lat="43.6709444" lon="11.3213068"><ele>211.8</ele><time>2026-04-18T12:30:49.088Z</time></trkpt><trkpt lat="43.6709463" lon="11.3211797"><ele>212.20000000000002</ele><time>2026-04-18T12:30:50.088Z</time></trkpt><trkpt lat="43.6709428" lon="11.3210524"><ele>212.60000000000002</ele><time>2026-04-18T12:30:51.089Z</time></trkpt><trkpt lat="43.6709498" lon="11.3209312"><ele>213.0</ele><time>2026-04-18T12:30:52.089Z</time></trkpt><trkpt lat="43.6709776" lon="11.3207958"><ele>213.0</ele><time>2026-04-18T12:30:53.088Z</time></trkpt><trkpt lat="43.6710226" lon="11.3206399"><ele>213.0</ele><time>2026-04-18T12:30:54.088Z</time></trkpt><trkpt lat="43.6710708" lon="11.3204752"><ele>213.0</ele><time>2026-04-18T12:30:55.089Z</time></trkpt><trkpt lat="43.6711272" lon="11.3202809"><ele>213.0</ele><time>2026-04-18T12:30:56.088Z</time></trkpt><trkpt lat="43.6711713" lon="11.3200946"><ele>213.75</ele><time>2026-04-18T12:30:57.089Z</time></trkpt><trkpt lat="43.6711991" lon="11.3199035"><ele>214.5</ele><time>2026-04-18T12:30:58.088Z</time></trkpt><trkpt lat="43.6712096" lon="11.3197093"><ele>215.25</ele><time>2026-04-18T12:30:59.088Z</time></trkpt><trkpt lat="43.6712021" lon="11.319508"><ele>216.0</ele><time>2026-04-18T12:31:00.088Z</time></trkpt><trkpt lat="43.6711809" lon="11.3192963"><ele>216.0</ele><time>2026-04-18T12:31:01.088Z</time></trkpt><trkpt lat="43.6711547" lon="11.3190958"><ele>216.0</ele><time>2026-04-18T12:31:02.089Z</time></trkpt><trkpt lat="43.6711294" lon="11.3189097"><ele>216.0</ele><time>2026-04-18T12:31:03.088Z</time></trkpt><trkpt lat="43.6711223" lon="11.3187389"><ele>216.0</ele><time>2026-04-18T12:31:04.089Z</time></trkpt><trkpt lat="43.6711423" lon="11.3185797"><ele>215.75</ele><time>2026-04-18T12:31:05.088Z</time></trkpt><trkpt lat="43.671181" lon="11.3184378"><ele>215.5</ele><time>2026-04-18T12:31:06.088Z</time></trkpt><trkpt lat="43.6712365" lon="11.3183001"><ele>215.25</ele><time>2026-04-18T12:31:07.088Z</time></trkpt><trkpt lat="43.6713094" lon="11.318178"><ele>215.0</ele><time>2026-04-18T12:31:08.088Z</time></trkpt><trkpt lat="43.6713956" lon="11.3180652"><ele>215.0</ele><time>2026-04-18T12:31:09.088Z</time></trkpt><trkpt lat="43.6715006" lon="11.3179464"><ele>215.0</ele><time>2026-04-18T12:31:10.088Z</time></trkpt><trkpt lat="43.6716255" lon="11.3178169"><ele>215.0</ele><time>2026-04-18T12:31:11.088Z</time></trkpt><trkpt lat="43.6717783" lon="11.3176601"><ele>215.0</ele><time>2026-04-18T12:31:12.088Z</time></trkpt><trkpt lat="43.6719256" lon="11.3175214"><ele>215.0</ele><time>2026-04-18T12:31:13.089Z</time></trkpt><trkpt lat="43.672105" lon="11.3173525"><ele>215.0</ele><time>2026-04-18T12:31:14.089Z</time></trkpt><trkpt lat="43.672301" lon="11.3171638"><ele>213.0</ele><time>2026-04-18T12:31:15.088Z</time></trkpt><trkpt lat="43.6725113" lon="11.3169633"><ele>211.0</ele><time>2026-04-18T12:31:16.088Z</time></trkpt><trkpt lat="43.6726996" lon="11.3167857"><ele>210.0</ele><time>2026-04-18T12:31:17.088Z</time></trkpt><trkpt lat="43.6728792" lon="11.3166248"><ele>209.0</ele><time>2026-04-18T12:31:18.089Z</time></trkpt><trkpt lat="43.6730472" lon="11.316472"><ele>208.0</ele><time>2026-04-18T12:31:19.088Z</time></trkpt><trkpt lat="43.6732065" lon="11.3163225"><ele>206.66666666666666</ele><time>2026-04-18T12:31:20.088Z</time></trkpt><trkpt lat="43.6733672" lon="11.3161669"><ele>205.33333333333331</ele><time>2026-04-18T12:31:21.088Z</time></trkpt><trkpt lat="43.6735345" lon="11.3159997"><ele>204.0</ele><time>2026-04-18T12:31:22.088Z</time></trkpt><trkpt lat="43.6736984" lon="11.3158423"><ele>202.33333333333331</ele><time>2026-04-18T12:31:23.088Z</time></trkpt><trkpt lat="43.6738626" lon="11.3156818"><ele>200.66666666666666</ele><time>2026-04-18T12:31:24.088Z</time></trkpt><trkpt lat="43.6740232" lon="11.3155297"><ele>199.0</ele><time>2026-04-18T12:31:25.089Z</time></trkpt><trkpt lat="43.6741751" lon="11.315378"><ele>198.0</ele><time>2026-04-18T12:31:26.089Z</time></trkpt><trkpt lat="43.6743029" lon="11.3152436"><ele>197.0</ele><time>2026-04-18T12:31:27.088Z</time></trkpt><trkpt lat="43.6744259" lon="11.3151183"><ele>196.0</ele><time>2026-04-18T12:31:28.089Z</time></trkpt><trkpt lat="43.6745532" lon="11.3149975"><ele>196.0</ele><time>2026-04-18T12:31:29.088Z</time></trkpt><trkpt lat="43.674685" lon="11.3148811"><ele>196.0</ele><time>2026-04-18T12:31:30.088Z</time></trkpt><trkpt lat="43.6748214" lon="11.314769"><ele>196.0</ele><time>2026-04-18T12:31:31.088Z</time></trkpt><trkpt lat="43.6749648" lon="11.3146582"><ele>196.0</ele><time>2026-04-18T12:31:32.089Z</time></trkpt><trkpt lat="43.6751272" lon="11.3145383"><ele>196.0</ele><time>2026-04-18T12:31:33.089Z</time></trkpt><trkpt lat="43.6753012" lon="11.3144033"><ele>196.0</ele><time>2026-04-18T12:31:34.088Z</time></trkpt><trkpt lat="43.6754809" lon="11.3142653"><ele>197.0</ele><time>2026-04-18T12:31:35.088Z</time></trkpt><trkpt lat="43.6756679" lon="11.3141169"><ele>198.0</ele><time>2026-04-18T12:31:36.088Z</time></trkpt><trkpt lat="43.6758516" lon="11.3139684"><ele>199.0</ele><time>2026-04-18T12:31:37.089Z</time></trkpt><trkpt lat="43.6760223" lon="11.313827"><ele>197.33333333333331</ele><time>2026-04-18T12:31:38.088Z</time></trkpt><trkpt lat="43.6761886" lon="11.3136948"><ele>195.66666666666669</ele><time>2026-04-18T12:31:39.088Z</time></trkpt><trkpt lat="43.6763433" lon="11.3135662"><ele>194.0</ele><time>2026-04-18T12:31:40.089Z</time></trkpt><trkpt lat="43.6764945" lon="11.3134399"><ele>194.0</ele><time>2026-04-18T12:31:41.088Z</time></trkpt><trkpt lat="43.6766501" lon="11.3132945"><ele>194.0</ele><time>2026-04-18T12:31:42.088Z</time></trkpt><trkpt lat="43.6767969" lon="11.3131246"><ele>194.0</ele><time>2026-04-18T12:31:43.088Z</time></trkpt><trkpt lat="43.6769349" lon="11.3129276"><ele>195.33333333333334</ele><time>2026-04-18T12:31:44.089Z</time></trkpt><trkpt lat="43.677066" lon="11.312724"><ele>196.66666666666669</ele><time>2026-04-18T12:31:45.088Z</time></trkpt><trkpt lat="43.677205" lon="11.3125119"><ele>198.0</ele><time>2026-04-18T12:31:46.089Z</time></trkpt><trkpt lat="43.6773351" lon="11.3123027"><ele>196.75</ele><time>2026-04-18T12:31:47.088Z</time></trkpt><trkpt lat="43.6774542" lon="11.3121167"><ele>195.5</ele><time>2026-04-18T12:31:48.088Z</time></trkpt><trkpt lat="43.6775515" lon="11.3119698"><ele>194.25</ele><time>2026-04-18T12:31:49.088Z</time></trkpt><trkpt lat="43.6776357" lon="11.311859"><ele>193.0</ele><time>2026-04-18T12:31:50.089Z</time></trkpt><trkpt lat="43.6777363" lon="11.3117701"><ele>194.0</ele><time>2026-04-18T12:31:51.088Z</time></trkpt><trkpt lat="43.6778662" lon="11.3116867"><ele>195.0</ele><time>2026-04-18T12:31:52.088Z</time></trkpt><trkpt lat="43.6780293" lon="11.3115936"><ele>196.0</ele><time>2026-04-18T12:31:53.088Z</time></trkpt><trkpt lat="43.6782067" lon="11.3114991"><ele>194.66666666666666</ele><time>2026-04-18T12:31:54.089Z</time></trkpt><trkpt lat="43.6783959" lon="11.3113944"><ele>193.33333333333331</ele><time>2026-04-18T12:31:55.088Z</time></trkpt><trkpt lat="43.6785692" lon="11.3112991"><ele>192.0</ele><time>2026-04-18T12:31:56.088Z</time></trkpt><trkpt lat="43.6787352" lon="11.3112073"><ele>192.0</ele><time>2026-04-18T12:31:57.089Z</time></trkpt><trkpt lat="43.6788922" lon="11.3111206"><ele>192.0</ele><time>2026-04-18T12:31:58.088Z</time></trkpt><trkpt lat="43.6790366" lon="11.3110386"><ele>192.0</ele><time>2026-04-18T12:31:59.088Z</time></trkpt><trkpt lat="43.6791736" lon="11.310958"><ele>192.0</ele><time>2026-04-18T12:32:00.089Z</time></trkpt><trkpt lat="43.6793024" lon="11.3108818"><ele>192.0</ele><time>2026-04-18T12:32:01.088Z</time></trkpt><trkpt lat="43.6794067" lon="11.3108224"><ele>192.0</ele><time>2026-04-18T12:32:02.088Z</time></trkpt><trkpt lat="43.6795006" lon="11.31077"><ele>192.0</ele><time>2026-04-18T12:32:03.088Z</time></trkpt><trkpt lat="43.6795906" lon="11.3107038"><ele>192.2</ele><time>2026-04-18T12:32:04.088Z</time></trkpt><trkpt lat="43.6796858" lon="11.310653"><ele>192.39999999999998</ele><time>2026-04-18T12:32:05.088Z</time></trkpt><trkpt lat="43.679794" lon="11.3106179"><ele>192.60000000000002</ele><time>2026-04-18T12:32:07.088Z</time></trkpt><trkpt lat="43.6799107" lon="11.310615"><ele>192.8</ele><time>2026-04-18T12:32:09.088Z</time></trkpt><trkpt lat="43.6800008" lon="11.3106462"><ele>193.0</ele><time>2026-04-18T12:32:10.087Z</time></trkpt><trkpt lat="43.68009" lon="11.3106966"><ele>193.0</ele><time>2026-04-18T12:32:11.088Z</time></trkpt><trkpt lat="43.6802323" lon="11.3107431"><ele>193.0</ele><time>2026-04-18T12:32:12.088Z</time></trkpt><trkpt lat="43.6804953" lon="11.3108883"><ele>193.0</ele><time>2026-04-18T12:32:13.088Z</time></trkpt><trkpt lat="43.6806636" lon="11.3109928"><ele>188.33333333333331</ele><time>2026-04-18T12:32:14.089Z</time></trkpt><trkpt lat="43.6808323" lon="11.3110828"><ele>183.66666666666666</ele><time>2026-04-18T12:32:15.089Z</time></trkpt><trkpt lat="43.6809901" lon="11.3111407"><ele>179.0</ele><time>2026-04-18T12:32:16.089Z</time></trkpt><trkpt lat="43.681141" lon="11.3111793"><ele>177.0</ele><time>2026-04-18T12:32:17.088Z</time></trkpt><trkpt lat="43.6812959" lon="11.3111924"><ele>175.0</ele><time>2026-04-18T12:32:18.088Z</time></trkpt><trkpt lat="43.6814726" lon="11.3111835"><ele>173.0</ele><time>2026-04-18T12:32:19.088Z</time></trkpt><trkpt lat="43.6816544" lon="11.3111565"><ele>173.0</ele><time>2026-04-18T12:32:20.089Z</time></trkpt><trkpt lat="43.6818235" lon="11.3111422"><ele>173.0</ele><time>2026-04-18T12:32:21.088Z</time></trkpt><trkpt lat="43.6820037" lon="11.3111383"><ele>173.0</ele><time>2026-04-18T12:32:22.088Z</time></trkpt><trkpt lat="43.6821891" lon="11.3111416"><ele>172.33333333333331</ele><time>2026-04-18T12:32:23.088Z</time></trkpt><trkpt lat="43.6823744" lon="11.3111513"><ele>171.66666666666666</ele><time>2026-04-18T12:32:24.089Z</time></trkpt><trkpt lat="43.682557" lon="11.3111574"><ele>171.0</ele><time>2026-04-18T12:32:25.088Z</time></trkpt><trkpt lat="43.6827373" lon="11.3111665"><ele>169.33333333333334</ele><time>2026-04-18T12:32:26.088Z</time></trkpt><trkpt lat="43.6829298" lon="11.3111773"><ele>167.66666666666669</ele><time>2026-04-18T12:32:27.088Z</time></trkpt><trkpt lat="43.6831109" lon="11.3111862"><ele>166.0</ele><time>2026-04-18T12:32:28.088Z</time></trkpt><trkpt lat="43.6832909" lon="11.3111933"><ele>166.0</ele><time>2026-04-18T12:32:29.088Z</time></trkpt><trkpt lat="43.6834692" lon="11.3111975"><ele>166.0</ele><time>2026-04-18T12:32:30.089Z</time></trkpt><trkpt lat="43.6836439" lon="11.3112029"><ele>166.0</ele><time>2026-04-18T12:32:31.089Z</time></trkpt><trkpt lat="43.6838202" lon="11.3112119"><ele>164.0</ele><time>2026-04-18T12:32:32.088Z</time></trkpt><trkpt lat="43.6839976" lon="11.3112275"><ele>162.0</ele><time>2026-04-18T12:32:33.089Z</time></trkpt><trkpt lat="43.684175" lon="11.3112472"><ele>160.0</ele><time>2026-04-18T12:32:34.088Z</time></trkpt><trkpt lat="43.6843505" lon="11.3112656"><ele>158.33333333333334</ele><time>2026-04-18T12:32:35.089Z</time></trkpt><trkpt lat="43.6845273" lon="11.3112854"><ele>156.66666666666666</ele><time>2026-04-18T12:32:36.088Z</time></trkpt><trkpt lat="43.6847112" lon="11.3113022"><ele>155.0</ele><time>2026-04-18T12:32:37.089Z</time></trkpt><trkpt lat="43.6849064" lon="11.311312"><ele>155.0</ele><time>2026-04-18T12:32:38.089Z</time></trkpt><trkpt lat="43.6851098" lon="11.3113156"><ele>155.0</ele><time>2026-04-18T12:32:39.089Z</time></trkpt><trkpt lat="43.6853102" lon="11.3113175"><ele>155.0</ele><time>2026-04-18T12:32:40.089Z</time></trkpt><trkpt lat="43.6855072" lon="11.3113169"><ele>154.33333333333331</ele><time>2026-04-18T12:32:41.088Z</time></trkpt><trkpt lat="43.6856998" lon="11.3113147"><ele>153.66666666666666</ele><time>2026-04-18T12:32:42.089Z</time></trkpt><trkpt lat="43.6858871" lon="11.3113057"><ele>153.0</ele><time>2026-04-18T12:32:43.089Z</time></trkpt><trkpt lat="43.6860621" lon="11.3112795"><ele>152.66666666666666</ele><time>2026-04-18T12:32:44.088Z</time></trkpt><trkpt lat="43.6862443" lon="11.3112334"><ele>152.33333333333331</ele><time>2026-04-18T12:32:45.088Z</time></trkpt><trkpt lat="43.6864309" lon="11.3111769"><ele>152.0</ele><time>2026-04-18T12:32:46.088Z</time></trkpt><trkpt lat="43.6866203" lon="11.3111134"><ele>152.0</ele><time>2026-04-18T12:32:47.089Z</time></trkpt><trkpt lat="43.6868098" lon="11.311042"><ele>152.0</ele><time>2026-04-18T12:32:48.088Z</time></trkpt><trkpt lat="43.6870017" lon="11.3109702"><ele>152.0</ele><time>2026-04-18T12:32:49.089Z</time></trkpt><trkpt lat="43.6871891" lon="11.3109049"><ele>152.33333333333331</ele><time>2026-04-18T12:32:50.089Z</time></trkpt><trkpt lat="43.6873639" lon="11.3108421"><ele>152.66666666666666</ele><time>2026-04-18T12:32:51.088Z</time></trkpt><trkpt lat="43.6875377" lon="11.3107803"><ele>153.0</ele><time>2026-04-18T12:32:52.089Z</time></trkpt><trkpt lat="43.6877137" lon="11.3107214"><ele>155.33333333333334</ele><time>2026-04-18T12:32:53.089Z</time></trkpt><trkpt lat="43.6878866" lon="11.3106712"><ele>157.66666666666669</ele><time>2026-04-18T12:32:54.088Z</time></trkpt><trkpt lat="43.6880592" lon="11.3106336"><ele>160.0</ele><time>2026-04-18T12:32:55.088Z</time></trkpt><trkpt lat="43.6882293" lon="11.3106016"><ele>154.33333333333334</ele><time>2026-04-18T12:32:56.088Z</time></trkpt><trkpt lat="43.6884054" lon="11.3105684"><ele>148.66666666666666</ele><time>2026-04-18T12:32:57.089Z</time></trkpt><trkpt lat="43.6885884" lon="11.3105293"><ele>143.0</ele><time>2026-04-18T12:32:58.088Z</time></trkpt><trkpt lat="43.6887795" lon="11.3105088"><ele>141.66666666666666</ele><time>2026-04-18T12:32:59.088Z</time></trkpt><trkpt lat="43.688956" lon="11.3104868"><ele>140.33333333333334</ele><time>2026-04-18T12:33:00.088Z</time></trkpt><trkpt lat="43.6891197" lon="11.3104636"><ele>139.0</ele><time>2026-04-18T12:33:01.089Z</time></trkpt><trkpt lat="43.6892779" lon="11.3104413"><ele>137.25</ele><time>2026-04-18T12:33:02.089Z</time></trkpt><trkpt lat="43.6894279" lon="11.3104188"><ele>135.5</ele><time>2026-04-18T12:33:03.089Z</time></trkpt><trkpt lat="43.6895698" lon="11.3103984"><ele>133.75</ele><time>2026-04-18T12:33:04.088Z</time></trkpt><trkpt lat="43.689706" lon="11.3103705"><ele>132.0</ele><time>2026-04-18T12:33:05.088Z</time></trkpt><trkpt lat="43.6898329" lon="11.3103282"><ele>132.0</ele><time>2026-04-18T12:33:06.088Z</time></trkpt><trkpt lat="43.6899439" lon="11.3102505"><ele>132.0</ele><time>2026-04-18T12:33:07.088Z</time></trkpt><trkpt lat="43.6900637" lon="11.3101308"><ele>132.0</ele><time>2026-04-18T12:33:08.088Z</time></trkpt><trkpt lat="43.6901928" lon="11.3099831"><ele>132.0</ele><time>2026-04-18T12:33:09.088Z</time></trkpt><trkpt lat="43.6903185" lon="11.309839"><ele>127.0</ele><time>2026-04-18T12:33:10.088Z</time></trkpt><trkpt lat="43.6904382" lon="11.3097086"><ele>122.0</ele><time>2026-04-18T12:33:11.088Z</time></trkpt><trkpt lat="43.6905564" lon="11.3095759"><ele>117.0</ele><time>2026-04-18T12:33:12.088Z</time></trkpt><trkpt lat="43.6906764" lon="11.3094578"><ele>117.0</ele><time>2026-04-18T12:33:13.089Z</time></trkpt><trkpt lat="43.690812" lon="11.3093532"><ele>117.0</ele><time>2026-04-18T12:33:14.088Z</time></trkpt><trkpt lat="43.6909663" lon="11.3092598"><ele>117.0</ele><time>2026-04-18T12:33:15.088Z</time></trkpt><trkpt lat="43.6911428" lon="11.3091721"><ele>116.0</ele><time>2026-04-18T12:33:16.089Z</time></trkpt><trkpt lat="43.6913102" lon="11.3090842"><ele>115.0</ele><time>2026-04-18T12:33:17.089Z</time></trkpt><trkpt lat="43.6914558" lon="11.3089841"><ele>114.0</ele><time>2026-04-18T12:33:18.088Z</time></trkpt><trkpt lat="43.6915943" lon="11.3088613"><ele>113.66666666666666</ele><time>2026-04-18T12:33:19.088Z</time></trkpt><trkpt lat="43.6917343" lon="11.3087264"><ele>113.33333333333333</ele><time>2026-04-18T12:33:20.088Z</time></trkpt><trkpt lat="43.6918816" lon="11.3085991"><ele>113.0</ele><time>2026-04-18T12:33:21.088Z</time></trkpt><trkpt lat="43.6920481" lon="11.3084903"><ele>113.66666666666666</ele><time>2026-04-18T12:33:22.089Z</time></trkpt><trkpt lat="43.6922332" lon="11.3083926"><ele>114.33333333333334</ele><time>2026-04-18T12:33:23.088Z</time></trkpt><trkpt lat="43.692436" lon="11.3082882"><ele>115.0</ele><time>2026-04-18T12:33:24.088Z</time></trkpt><trkpt lat="43.692636" lon="11.3081752"><ele>114.33333333333334</ele><time>2026-04-18T12:33:25.088Z</time></trkpt><trkpt lat="43.6928399" lon="11.308041"><ele>113.66666666666666</ele><time>2026-04-18T12:33:26.088Z</time></trkpt><trkpt lat="43.6930339" lon="11.3078968"><ele>113.0</ele><time>2026-04-18T12:33:27.088Z</time></trkpt><trkpt lat="43.6932246" lon="11.307749"><ele>113.0</ele><time>2026-04-18T12:33:28.088Z</time></trkpt><trkpt lat="43.6934062" lon="11.3076"><ele>113.0</ele><time>2026-04-18T12:33:29.088Z</time></trkpt><trkpt lat="43.6935783" lon="11.3074615"><ele>113.0</ele><time>2026-04-18T12:33:30.089Z</time></trkpt><trkpt lat="43.693738" lon="11.3073336"><ele>112.0</ele><time>2026-04-18T12:33:31.088Z</time></trkpt><trkpt lat="43.6938865" lon="11.30722"><ele>111.0</ele><time>2026-04-18T12:33:32.088Z</time></trkpt><trkpt lat="43.6940251" lon="11.3071261"><ele>110.0</ele><time>2026-04-18T12:33:33.088Z</time></trkpt><trkpt lat="43.6941615" lon="11.3070522"><ele>110.0</ele><time>2026-04-18T12:33:34.088Z</time></trkpt><trkpt lat="43.6942963" lon="11.3070061"><ele>110.0</ele><time>2026-04-18T12:33:35.088Z</time></trkpt><trkpt lat="43.6944379" lon="11.3069941"><ele>110.0</ele><time>2026-04-18T12:33:36.088Z</time></trkpt><trkpt lat="43.6945774" lon="11.3070155"><ele>110.0</ele><time>2026-04-18T12:33:37.088Z</time></trkpt><trkpt lat="43.6947175" lon="11.3070686"><ele>109.33333333333333</ele><time>2026-04-18T12:33:38.089Z</time></trkpt><trkpt lat="43.6948584" lon="11.3071535"><ele>108.66666666666666</ele><time>2026-04-18T12:33:39.089Z</time></trkpt><trkpt lat="43.6950051" lon="11.3072683"><ele>108.0</ele><time>2026-04-18T12:33:40.089Z</time></trkpt><trkpt lat="43.695152" lon="11.3074016"><ele>108.66666666666666</ele><time>2026-04-18T12:33:41.088Z</time></trkpt><trkpt lat="43.6953058" lon="11.3075283"><ele>109.33333333333333</ele><time>2026-04-18T12:33:42.088Z</time></trkpt><trkpt lat="43.6954626" lon="11.3076427"><ele>110.0</ele><time>2026-04-18T12:33:43.088Z</time></trkpt><trkpt lat="43.6956315" lon="11.3077315"><ele>110.0</ele><time>2026-04-18T12:33:44.089Z</time></trkpt><trkpt lat="43.6958133" lon="11.3077941"><ele>110.0</ele><time>2026-04-18T12:33:45.088Z</time></trkpt><trkpt lat="43.6960074" lon="11.3078402"><ele>110.0</ele><time>2026-04-18T12:33:46.089Z</time></trkpt><trkpt lat="43.6962083" lon="11.3078828"><ele>109.0</ele><time>2026-04-18T12:33:47.089Z</time></trkpt><trkpt lat="43.6963987" lon="11.3079165"><ele>108.0</ele><time>2026-04-18T12:33:48.088Z</time></trkpt><trkpt lat="43.6965808" lon="11.3079323"><ele>107.0</ele><time>2026-04-18T12:33:49.088Z</time></trkpt><trkpt lat="43.6967567" lon="11.3079274"><ele>107.0</ele><time>2026-04-18T12:33:50.088Z</time></trkpt><trkpt lat="43.6969168" lon="11.3079194"><ele>107.0</ele><time>2026-04-18T12:33:51.088Z</time></trkpt><trkpt lat="43.6970641" lon="11.3079231"><ele>107.0</ele><time>2026-04-18T12:33:52.089Z</time></trkpt><trkpt lat="43.6971937" lon="11.307942"><ele>107.0</ele><time>2026-04-18T12:33:53.089Z</time></trkpt><trkpt lat="43.6973066" lon="11.3079759"><ele>106.75</ele><time>2026-04-18T12:33:54.088Z</time></trkpt><trkpt lat="43.6974176" lon="11.3080295"><ele>106.5</ele><time>2026-04-18T12:33:55.088Z</time></trkpt><trkpt lat="43.6975459" lon="11.3081036"><ele>106.25</ele><time>2026-04-18T12:33:56.089Z</time></trkpt><trkpt lat="43.6976836" lon="11.3081899"><ele>106.0</ele><time>2026-04-18T12:33:57.089Z</time></trkpt><trkpt lat="43.6978146" lon="11.3082787"><ele>106.0</ele><time>2026-04-18T12:33:58.089Z</time></trkpt><trkpt lat="43.6979361" lon="11.3083763"><ele>106.0</ele><time>2026-04-18T12:33:59.088Z</time></trkpt><trkpt lat="43.6980546" lon="11.3084887"><ele>106.0</ele><time>2026-04-18T12:34:00.088Z</time></trkpt><trkpt lat="43.698175" lon="11.308607"><ele>106.0</ele><time>2026-04-18T12:34:01.089Z</time></trkpt><trkpt lat="43.6982997" lon="11.3087268"><ele>106.0</ele><time>2026-04-18T12:34:02.088Z</time></trkpt><trkpt lat="43.6984298" lon="11.3088502"><ele>106.0</ele><time>2026-04-18T12:34:03.089Z</time></trkpt><trkpt lat="43.6985742" lon="11.3089885"><ele>106.0</ele><time>2026-04-18T12:34:04.089Z</time></trkpt><trkpt lat="43.6987359" lon="11.3091415"><ele>106.0</ele><time>2026-04-18T12:34:05.088Z</time></trkpt><trkpt lat="43.6988905" lon="11.3092865"><ele>106.0</ele><time>2026-04-18T12:34:06.088Z</time></trkpt><trkpt lat="43.6990331" lon="11.3094217"><ele>106.0</ele><time>2026-04-18T12:34:07.088Z</time></trkpt><trkpt lat="43.6991651" lon="11.3095473"><ele>106.0</ele><time>2026-04-18T12:34:08.088Z</time></trkpt><trkpt lat="43.6992874" lon="11.309653"><ele>106.0</ele><time>2026-04-18T12:34:09.089Z</time></trkpt><trkpt lat="43.6994077" lon="11.3097353"><ele>106.0</ele><time>2026-04-18T12:34:10.088Z</time></trkpt><trkpt lat="43.6995425" lon="11.30979"><ele>106.0</ele><time>2026-04-18T12:34:11.088Z</time></trkpt><trkpt lat="43.6996871" lon="11.3098067"><ele>106.25</ele><time>2026-04-18T12:34:12.089Z</time></trkpt><trkpt lat="43.6998404" lon="11.3098091"><ele>106.5</ele><time>2026-04-18T12:34:13.089Z</time></trkpt><trkpt lat="43.699986" lon="11.3098067"><ele>106.75</ele><time>2026-04-18T12:34:14.088Z</time></trkpt><trkpt lat="43.7001211" lon="11.3097982"><ele>107.0</ele><time>2026-04-18T12:34:15.089Z</time></trkpt><trkpt lat="43.7002399" lon="11.3097941"><ele>107.39999999999999</ele><time>2026-04-18T12:34:16.089Z</time></trkpt><trkpt lat="43.7003316" lon="11.3098001"><ele>107.79999999999998</ele><time>2026-04-18T12:34:17.088Z</time></trkpt><trkpt lat="43.7003983" lon="11.3098036"><ele>108.2</ele><time>2026-04-18T12:34:18.089Z</time></trkpt><trkpt lat="43.7004974" lon="11.3097754"><ele>108.6</ele><time>2026-04-18T12:34:21.088Z</time></trkpt><trkpt lat="43.7005803" lon="11.3096084"><ele>109.0</ele><time>2026-04-18T12:34:23.089Z</time></trkpt><trkpt lat="43.70064" lon="11.3094807"><ele>109.0</ele><time>2026-04-18T12:34:24.088Z</time></trkpt><trkpt lat="43.7007132" lon="11.3093185"><ele>109.0</ele><time>2026-04-18T12:34:25.088Z</time></trkpt><trkpt lat="43.7007914" lon="11.3091399"><ele>109.0</ele><time>2026-04-18T12:34:26.089Z</time></trkpt><trkpt lat="43.7008756" lon="11.3089568"><ele>109.0</ele><time>2026-04-18T12:34:27.088Z</time></trkpt><trkpt lat="43.7009657" lon="11.3087809"><ele>108.66666666666667</ele><time>2026-04-18T12:34:28.088Z</time></trkpt><trkpt lat="43.7010582" lon="11.3086298"><ele>108.33333333333334</ele><time>2026-04-18T12:34:29.088Z</time></trkpt><trkpt lat="43.7011747" lon="11.3084977"><ele>108.0</ele><time>2026-04-18T12:34:30.088Z</time></trkpt><trkpt lat="43.7013095" lon="11.3083575"><ele>108.0</ele><time>2026-04-18T12:34:31.088Z</time></trkpt><trkpt lat="43.7014463" lon="11.3081925"><ele>108.0</ele><time>2026-04-18T12:34:32.089Z</time></trkpt><trkpt lat="43.7015836" lon="11.3080007"><ele>108.0</ele><time>2026-04-18T12:34:33.088Z</time></trkpt><trkpt lat="43.7017019" lon="11.3078163"><ele>107.0</ele><time>2026-04-18T12:34:34.088Z</time></trkpt><trkpt lat="43.7018101" lon="11.3076553"><ele>106.0</ele><time>2026-04-18T12:34:35.088Z</time></trkpt><trkpt lat="43.701916" lon="11.3075234"><ele>105.0</ele><time>2026-04-18T12:34:36.088Z</time></trkpt><trkpt lat="43.7020259" lon="11.3074349"><ele>104.0</ele><time>2026-04-18T12:34:37.089Z</time></trkpt><trkpt lat="43.7021591" lon="11.3073767"><ele>104.0</ele><time>2026-04-18T12:34:38.088Z</time></trkpt><trkpt lat="43.702312" lon="11.3073468"><ele>104.0</ele><time>2026-04-18T12:34:39.088Z</time></trkpt><trkpt lat="43.7024802" lon="11.3073413"><ele>104.0</ele><time>2026-04-18T12:34:40.088Z</time></trkpt><trkpt lat="43.7026613" lon="11.3073435"><ele>104.0</ele><time>2026-04-18T12:34:41.088Z</time></trkpt><trkpt lat="43.7028559" lon="11.3073467"><ele>104.0</ele><time>2026-04-18T12:34:42.089Z</time></trkpt><trkpt lat="43.7030543" lon="11.3073501"><ele>104.0</ele><time>2026-04-18T12:34:43.088Z</time></trkpt><trkpt lat="43.7032507" lon="11.3073608"><ele>104.0</ele><time>2026-04-18T12:34:44.088Z</time></trkpt><trkpt lat="43.703446" lon="11.3073803"><ele>104.0</ele><time>2026-04-18T12:34:45.088Z</time></trkpt><trkpt lat="43.703639" lon="11.3074143"><ele>104.0</ele><time>2026-04-18T12:34:46.088Z</time></trkpt><trkpt lat="43.7038201" lon="11.3074538"><ele>104.0</ele><time>2026-04-18T12:34:47.088Z</time></trkpt><trkpt lat="43.7039902" lon="11.3074897"><ele>104.0</ele><time>2026-04-18T12:34:48.089Z</time></trkpt><trkpt lat="43.7041618" lon="11.3075109"><ele>104.0</ele><time>2026-04-18T12:34:49.089Z</time></trkpt><trkpt lat="43.7043122" lon="11.307522"><ele>104.5</ele><time>2026-04-18T12:34:50.089Z</time></trkpt><trkpt lat="43.7044634" lon="11.3075324"><ele>105.0</ele><time>2026-04-18T12:34:51.089Z</time></trkpt><trkpt lat="43.704608" lon="11.3074958"><ele>105.5</ele><time>2026-04-18T12:34:52.089Z</time></trkpt><trkpt lat="43.704747" lon="11.307441"><ele>106.0</ele><time>2026-04-18T12:34:53.088Z</time></trkpt><trkpt lat="43.7048874" lon="11.3073649"><ele>106.0</ele><time>2026-04-18T12:34:54.088Z</time></trkpt><trkpt lat="43.7050274" lon="11.3072763"><ele>106.0</ele><time>2026-04-18T12:34:55.088Z</time></trkpt><trkpt lat="43.705177" lon="11.3071832"><ele>106.0</ele><time>2026-04-18T12:34:56.089Z</time></trkpt><trkpt lat="43.7053264" lon="11.3070789"><ele>107.0</ele><time>2026-04-18T12:34:57.089Z</time></trkpt><trkpt lat="43.7054762" lon="11.3069675"><ele>108.0</ele><time>2026-04-18T12:34:58.088Z</time></trkpt><trkpt lat="43.7056241" lon="11.3068496"><ele>109.0</ele><time>2026-04-18T12:34:59.089Z</time></trkpt><trkpt lat="43.7057664" lon="11.3067201"><ele>109.0</ele><time>2026-04-18T12:35:00.088Z</time></trkpt><trkpt lat="43.7059039" lon="11.3065795"><ele>109.0</ele><time>2026-04-18T12:35:01.088Z</time></trkpt><trkpt lat="43.7060329" lon="11.306437"><ele>109.0</ele><time>2026-04-18T12:35:02.089Z</time></trkpt><trkpt lat="43.7061542" lon="11.3062963"><ele>108.66666666666667</ele><time>2026-04-18T12:35:03.089Z</time></trkpt><trkpt lat="43.7062758" lon="11.3061667"><ele>108.33333333333334</ele><time>2026-04-18T12:35:04.088Z</time></trkpt><trkpt lat="43.7063967" lon="11.3060495"><ele>108.0</ele><time>2026-04-18T12:35:05.088Z</time></trkpt><trkpt lat="43.7065385" lon="11.305921"><ele>108.0</ele><time>2026-04-18T12:35:06.088Z</time></trkpt><trkpt lat="43.7066952" lon="11.3057981"><ele>108.0</ele><time>2026-04-18T12:35:07.089Z</time></trkpt><trkpt lat="43.7068314" lon="11.3057034"><ele>108.0</ele><time>2026-04-18T12:35:08.088Z</time></trkpt><trkpt lat="43.7069438" lon="11.3055906"><ele>109.33333333333334</ele><time>2026-04-18T12:35:09.088Z</time></trkpt><trkpt lat="43.7070414" lon="11.3054427"><ele>110.66666666666667</ele><time>2026-04-18T12:35:10.088Z</time></trkpt><trkpt lat="43.707107" lon="11.3052607"><ele>112.0</ele><time>2026-04-18T12:35:11.088Z</time></trkpt><trkpt lat="43.7071602" lon="11.3050307"><ele>112.0</ele><time>2026-04-18T12:35:12.088Z</time></trkpt><trkpt lat="43.7072137" lon="11.3047917"><ele>112.0</ele><time>2026-04-18T12:35:13.088Z</time></trkpt><trkpt lat="43.7072749" lon="11.3045489"><ele>112.0</ele><time>2026-04-18T12:35:14.088Z</time></trkpt><trkpt lat="43.7073482" lon="11.3043253"><ele>111.0</ele><time>2026-04-18T12:35:15.088Z</time></trkpt><trkpt lat="43.7074391" lon="11.3041091"><ele>110.0</ele><time>2026-04-18T12:35:16.089Z</time></trkpt><trkpt lat="43.7075534" lon="11.303901"><ele>109.0</ele><time>2026-04-18T12:35:17.088Z</time></trkpt><trkpt lat="43.7076809" lon="11.3036962"><ele>110.66666666666667</ele><time>2026-04-18T12:35:18.089Z</time></trkpt><trkpt lat="43.707805" lon="11.3034841"><ele>112.33333333333334</ele><time>2026-04-18T12:35:19.088Z</time></trkpt><trkpt lat="43.707922" lon="11.3032645"><ele>114.0</ele><time>2026-04-18T12:35:20.088Z</time></trkpt><trkpt lat="43.7080343" lon="11.3030407"><ele>114.0</ele><time>2026-04-18T12:35:21.088Z</time></trkpt><trkpt lat="43.7081433" lon="11.3028166"><ele>114.0</ele><time>2026-04-18T12:35:22.088Z</time></trkpt><trkpt lat="43.7082529" lon="11.3025941"><ele>114.0</ele><time>2026-04-18T12:35:23.089Z</time></trkpt><trkpt lat="43.7083632" lon="11.3023715"><ele>115.33333333333334</ele><time>2026-04-18T12:35:24.088Z</time></trkpt><trkpt lat="43.7084733" lon="11.3021491"><ele>116.66666666666667</ele><time>2026-04-18T12:35:25.088Z</time></trkpt><trkpt lat="43.7085854" lon="11.3019317"><ele>118.0</ele><time>2026-04-18T12:35:26.088Z</time></trkpt><trkpt lat="43.7086911" lon="11.3017151"><ele>118.0</ele><time>2026-04-18T12:35:27.088Z</time></trkpt><trkpt lat="43.7087752" lon="11.3014945"><ele>118.0</ele><time>2026-04-18T12:35:28.089Z</time></trkpt><trkpt lat="43.7088434" lon="11.3012714"><ele>118.0</ele><time>2026-04-18T12:35:29.088Z</time></trkpt><trkpt lat="43.708904" lon="11.3010646"><ele>116.25</ele><time>2026-04-18T12:35:30.088Z</time></trkpt><trkpt lat="43.7089603" lon="11.3008743"><ele>114.5</ele><time>2026-04-18T12:35:31.089Z</time></trkpt><trkpt lat="43.7090318" lon="11.3007025"><ele>112.75</ele><time>2026-04-18T12:35:32.087Z</time></trkpt><trkpt lat="43.7091138" lon="11.3005683"><ele>111.0</ele><time>2026-04-18T12:35:33.087Z</time></trkpt><trkpt lat="43.7092112" lon="11.3004825"><ele>109.5</ele><time>2026-04-18T12:35:34.087Z</time></trkpt><trkpt lat="43.7093295" lon="11.3004308"><ele>108.0</ele><time>2026-04-18T12:35:35.087Z</time></trkpt><trkpt lat="43.7094689" lon="11.3004051"><ele>106.5</ele><time>2026-04-18T12:35:36.088Z</time></trkpt><trkpt lat="43.7096294" lon="11.3003823"><ele>105.0</ele><time>2026-04-18T12:35:37.088Z</time></trkpt><trkpt lat="43.7097956" lon="11.3003586"><ele>105.0</ele><time>2026-04-18T12:35:38.088Z</time></trkpt><trkpt lat="43.7099613" lon="11.3003543"><ele>105.0</ele><time>2026-04-18T12:35:39.088Z</time></trkpt><trkpt lat="43.7101145" lon="11.3003978"><ele>105.0</ele><time>2026-04-18T12:35:40.088Z</time></trkpt><trkpt lat="43.7102659" lon="11.3004837"><ele>108.0</ele><time>2026-04-18T12:35:41.088Z</time></trkpt><trkpt lat="43.7104176" lon="11.3005987"><ele>111.0</ele><time>2026-04-18T12:35:42.087Z</time></trkpt><trkpt lat="43.7105645" lon="11.3006976"><ele>114.0</ele><time>2026-04-18T12:35:43.087Z</time></trkpt><trkpt lat="43.710715" lon="11.3007593"><ele>114.0</ele><time>2026-04-18T12:35:44.088Z</time></trkpt><trkpt lat="43.7108711" lon="11.3007782"><ele>114.0</ele><time>2026-04-18T12:35:45.088Z</time></trkpt><trkpt lat="43.7110387" lon="11.3007466"><ele>114.0</ele><time>2026-04-18T12:35:46.087Z</time></trkpt><trkpt lat="43.711215" lon="11.300682"><ele>113.66666666666666</ele><time>2026-04-18T12:35:47.087Z</time></trkpt><trkpt lat="43.711405" lon="11.3006103"><ele>113.33333333333333</ele><time>2026-04-18T12:35:48.087Z</time></trkpt><trkpt lat="43.711607" lon="11.300539"><ele>113.0</ele><time>2026-04-18T12:35:49.088Z</time></trkpt><trkpt lat="43.7118166" lon="11.3004693"><ele>109.33333333333333</ele><time>2026-04-18T12:35:50.088Z</time></trkpt><trkpt lat="43.7120299" lon="11.3004113"><ele>105.66666666666666</ele><time>2026-04-18T12:35:51.088Z</time></trkpt><trkpt lat="43.7122433" lon="11.3003469"><ele>102.0</ele><time>2026-04-18T12:35:52.088Z</time></trkpt><trkpt lat="43.7124563" lon="11.3002754"><ele>102.0</ele><time>2026-04-18T12:35:53.087Z</time></trkpt><trkpt lat="43.7126628" lon="11.3001906"><ele>102.0</ele><time>2026-04-18T12:35:54.087Z</time></trkpt><trkpt lat="43.7128648" lon="11.3001048"><ele>102.0</ele><time>2026-04-18T12:35:55.088Z</time></trkpt><trkpt lat="43.7130541" lon="11.300017"><ele>102.0</ele><time>2026-04-18T12:35:56.087Z</time></trkpt><trkpt lat="43.7132353" lon="11.299929"><ele>102.0</ele><time>2026-04-18T12:35:57.087Z</time></trkpt><trkpt lat="43.7134199" lon="11.2998482"><ele>102.0</ele><time>2026-04-18T12:35:58.087Z</time></trkpt><trkpt lat="43.7136094" lon="11.2997803"><ele>100.66666666666666</ele><time>2026-04-18T12:35:59.087Z</time></trkpt><trkpt lat="43.7138034" lon="11.2997322"><ele>99.33333333333333</ele><time>2026-04-18T12:36:00.087Z</time></trkpt><trkpt lat="43.7140022" lon="11.2996887"><ele>98.0</ele><time>2026-04-18T12:36:01.087Z</time></trkpt><trkpt lat="43.7142026" lon="11.299647"><ele>98.0</ele><time>2026-04-18T12:36:02.087Z</time></trkpt><trkpt lat="43.7144045" lon="11.2996028"><ele>98.0</ele><time>2026-04-18T12:36:03.087Z</time></trkpt><trkpt lat="43.7146059" lon="11.299547"><ele>98.0</ele><time>2026-04-18T12:36:04.088Z</time></trkpt><trkpt lat="43.7148007" lon="11.2994743"><ele>99.0</ele><time>2026-04-18T12:36:05.088Z</time></trkpt><trkpt lat="43.7149939" lon="11.2993989"><ele>100.0</ele><time>2026-04-18T12:36:06.088Z</time></trkpt><trkpt lat="43.7151782" lon="11.2993255"><ele>101.0</ele><time>2026-04-18T12:36:07.088Z</time></trkpt><trkpt lat="43.7153579" lon="11.2992518"><ele>101.0</ele><time>2026-04-18T12:36:08.087Z</time></trkpt><trkpt lat="43.7155235" lon="11.2991828"><ele>101.0</ele><time>2026-04-18T12:36:09.088Z</time></trkpt><trkpt lat="43.7156832" lon="11.2991264"><ele>101.0</ele><time>2026-04-18T12:36:10.087Z</time></trkpt><trkpt lat="43.7158377" lon="11.2990824"><ele>101.0</ele><time>2026-04-18T12:36:11.088Z</time></trkpt><trkpt lat="43.7159852" lon="11.2990518"><ele>101.0</ele><time>2026-04-18T12:36:12.087Z</time></trkpt><trkpt lat="43.7161252" lon="11.2990327"><ele>101.0</ele><time>2026-04-18T12:36:13.087Z</time></trkpt><trkpt lat="43.7162609" lon="11.2990269"><ele>101.0</ele><time>2026-04-18T12:36:14.087Z</time></trkpt><trkpt lat="43.7163933" lon="11.2990248"><ele>96.0</ele><time>2026-04-18T12:36:15.087Z</time></trkpt></trkseg></trk></gpx>